<?xml version="1.0" encoding="UTF-8" standalone="no" ?>
<gpx xmlns="http://www.topografix.com/GPX/1/1" xmlns:xsi="http://www.w3.org/2001/XMLSchema-instance" xsi:schemaLocation="http://www.topografix.com/GPX/1/1 http://www.topografix.com/GPX/1/1/gpx.xsd" version="1.1" creator="VisuGPX - https://www.visugpx.com">
  <metadata>
    <name>Lac de Chaumeçon</name>
    <desc><![CDATA[Lac de Chaumeçon]]></desc>
  </metadata>
  <trk>
    <name><![CDATA[2024-09-02 15:35:41]]></name>
    <extensions>
      <line xmlns="http://www.topografix.com/GPX/gpx_style/0/2">
        <color>0000FF</color>
        <width>4</width>
      </line>
    </extensions>
    <trkseg>
      <trkpt lat="47.26825" lon="3.9209">
        <ele>390.9</ele>
        <time>2024-09-02T07:03:45Z</time>
      </trkpt>
      <trkpt lat="47.26833" lon="3.92086">
        <ele>391.3</ele>
        <time>2024-09-02T07:05:07Z</time>
      </trkpt>
      <trkpt lat="47.26838" lon="3.92086">
        <ele>390.6</ele>
        <time>2024-09-02T07:05:13.000Z</time>
      </trkpt>
      <trkpt lat="47.26842" lon="3.92086">
        <ele>389.8</ele>
        <time>2024-09-02T07:05:19Z</time>
      </trkpt>
      <trkpt lat="47.26848" lon="3.9209">
        <ele>389.7</ele>
        <time>2024-09-02T07:05:28.000Z</time>
      </trkpt>
      <trkpt lat="47.26853" lon="3.92094">
        <ele>389.7</ele>
        <time>2024-09-02T07:05:37Z</time>
      </trkpt>
      <trkpt lat="47.26857" lon="3.921">
        <ele>390.6</ele>
        <time>2024-09-02T07:05:42.000Z</time>
      </trkpt>
      <trkpt lat="47.2686" lon="3.92106">
        <ele>391.8</ele>
        <time>2024-09-02T07:05:47Z</time>
      </trkpt>
      <trkpt lat="47.26864" lon="3.92111">
        <ele>392.2</ele>
        <time>2024-09-02T07:05:52.000Z</time>
      </trkpt>
      <trkpt lat="47.26868" lon="3.92115">
        <ele>392.3</ele>
        <time>2024-09-02T07:05:57Z</time>
      </trkpt>
      <trkpt lat="47.26872" lon="3.92121">
        <ele>392.8</ele>
        <time>2024-09-02T07:06:02.000Z</time>
      </trkpt>
      <trkpt lat="47.26875" lon="3.92126">
        <ele>393.5</ele>
        <time>2024-09-02T07:06:07Z</time>
      </trkpt>
      <trkpt lat="47.26879" lon="3.92133">
        <ele>394.5</ele>
        <time>2024-09-02T07:06:12.500Z</time>
      </trkpt>
      <trkpt lat="47.26883" lon="3.92139">
        <ele>395.7</ele>
        <time>2024-09-02T07:06:18Z</time>
      </trkpt>
      <trkpt lat="47.26889" lon="3.92144">
        <ele>395.8</ele>
        <time>2024-09-02T07:06:22.500Z</time>
      </trkpt>
      <trkpt lat="47.26894" lon="3.92149">
        <ele>395.6</ele>
        <time>2024-09-02T07:06:27Z</time>
      </trkpt>
      <trkpt lat="47.269" lon="3.92154">
        <ele>395.5</ele>
        <time>2024-09-02T07:06:32.000Z</time>
      </trkpt>
      <trkpt lat="47.26905" lon="3.92159">
        <ele>395.7</ele>
        <time>2024-09-02T07:06:37Z</time>
      </trkpt>
      <trkpt lat="47.26911" lon="3.92166">
        <ele>396.4</ele>
        <time>2024-09-02T07:06:42.500Z</time>
      </trkpt>
      <trkpt lat="47.26916" lon="3.92172">
        <ele>396.8</ele>
        <time>2024-09-02T07:06:48Z</time>
      </trkpt>
      <trkpt lat="47.26923" lon="3.92178">
        <ele>396.9</ele>
        <time>2024-09-02T07:06:53.000Z</time>
      </trkpt>
      <trkpt lat="47.26929" lon="3.92184">
        <ele>397</ele>
        <time>2024-09-02T07:06:58Z</time>
      </trkpt>
      <trkpt lat="47.26933" lon="3.92189">
        <ele>397.3</ele>
        <time>2024-09-02T07:07:02.000Z</time>
      </trkpt>
      <trkpt lat="47.26937" lon="3.92194">
        <ele>397.7</ele>
        <time>2024-09-02T07:07:06Z</time>
      </trkpt>
      <trkpt lat="47.26941" lon="3.922">
        <ele>397.9</ele>
        <time>2024-09-02T07:07:10.000Z</time>
      </trkpt>
      <trkpt lat="47.26945" lon="3.92205">
        <ele>398.1</ele>
        <time>2024-09-02T07:07:14Z</time>
      </trkpt>
      <trkpt lat="47.2695" lon="3.92212">
        <ele>398.2</ele>
        <time>2024-09-02T07:07:18.500Z</time>
      </trkpt>
      <trkpt lat="47.26955" lon="3.92218">
        <ele>398.4</ele>
        <time>2024-09-02T07:07:23Z</time>
      </trkpt>
      <trkpt lat="47.2696" lon="3.92223">
        <ele>398.5</ele>
        <time>2024-09-02T07:07:27.000Z</time>
      </trkpt>
      <trkpt lat="47.26964" lon="3.92228">
        <ele>398.7</ele>
        <time>2024-09-02T07:07:31Z</time>
      </trkpt>
      <trkpt lat="47.26968" lon="3.92233">
        <ele>399</ele>
        <time>2024-09-02T07:07:35.000Z</time>
      </trkpt>
      <trkpt lat="47.26972" lon="3.92238">
        <ele>399.3</ele>
        <time>2024-09-02T07:07:39Z</time>
      </trkpt>
      <trkpt lat="47.26976" lon="3.92244">
        <ele>399.7</ele>
        <time>2024-09-02T07:07:43.500Z</time>
      </trkpt>
      <trkpt lat="47.26979" lon="3.92249">
        <ele>400.1</ele>
        <time>2024-09-02T07:07:48Z</time>
      </trkpt>
      <trkpt lat="47.26986" lon="3.92256">
        <ele>400.4</ele>
        <time>2024-09-02T07:07:53.000Z</time>
      </trkpt>
      <trkpt lat="47.26993" lon="3.92262">
        <ele>400.6</ele>
        <time>2024-09-02T07:07:58Z</time>
      </trkpt>
      <trkpt lat="47.26998" lon="3.92268">
        <ele>400.9</ele>
        <time>2024-09-02T07:08:02.500Z</time>
      </trkpt>
      <trkpt lat="47.27003" lon="3.92274">
        <ele>401</ele>
        <time>2024-09-02T07:08:07Z</time>
      </trkpt>
      <trkpt lat="47.27008" lon="3.92279">
        <ele>401</ele>
        <time>2024-09-02T07:08:11.000Z</time>
      </trkpt>
      <trkpt lat="47.27013" lon="3.92284">
        <ele>401.1</ele>
        <time>2024-09-02T07:08:15Z</time>
      </trkpt>
      <trkpt lat="47.27017" lon="3.9229">
        <ele>401.6</ele>
        <time>2024-09-02T07:08:19.000Z</time>
      </trkpt>
      <trkpt lat="47.2702" lon="3.92296">
        <ele>402.2</ele>
        <time>2024-09-02T07:08:23Z</time>
      </trkpt>
      <trkpt lat="47.27025" lon="3.923">
        <ele>402.2</ele>
        <time>2024-09-02T07:08:26.500Z</time>
      </trkpt>
      <trkpt lat="47.2703" lon="3.92303">
        <ele>402.4</ele>
        <time>2024-09-02T07:08:30Z</time>
      </trkpt>
      <trkpt lat="47.27037" lon="3.92311">
        <ele>403.1</ele>
        <time>2024-09-02T07:08:38Z</time>
      </trkpt>
      <trkpt lat="47.27041" lon="3.92316">
        <ele>403.5</ele>
        <time>2024-09-02T07:08:42.000Z</time>
      </trkpt>
      <trkpt lat="47.27045" lon="3.9232">
        <ele>403.8</ele>
        <time>2024-09-02T07:08:46Z</time>
      </trkpt>
      <trkpt lat="47.27049" lon="3.92326">
        <ele>404.4</ele>
        <time>2024-09-02T07:08:50.000Z</time>
      </trkpt>
      <trkpt lat="47.27053" lon="3.92332">
        <ele>405</ele>
        <time>2024-09-02T07:08:54Z</time>
      </trkpt>
      <trkpt lat="47.27058" lon="3.92337">
        <ele>405.3</ele>
        <time>2024-09-02T07:08:58.500Z</time>
      </trkpt>
      <trkpt lat="47.27062" lon="3.92342">
        <ele>405.7</ele>
        <time>2024-09-02T07:09:03Z</time>
      </trkpt>
      <trkpt lat="47.27065" lon="3.92348">
        <ele>406.2</ele>
        <time>2024-09-02T07:09:07.000Z</time>
      </trkpt>
      <trkpt lat="47.27068" lon="3.92353">
        <ele>406.7</ele>
        <time>2024-09-02T07:09:11Z</time>
      </trkpt>
      <trkpt lat="47.27072" lon="3.92358">
        <ele>407.1</ele>
        <time>2024-09-02T07:09:15.000Z</time>
      </trkpt>
      <trkpt lat="47.27076" lon="3.92363">
        <ele>407.5</ele>
        <time>2024-09-02T07:09:19Z</time>
      </trkpt>
      <trkpt lat="47.2708" lon="3.92368">
        <ele>408</ele>
        <time>2024-09-02T07:09:23.500Z</time>
      </trkpt>
      <trkpt lat="47.27084" lon="3.92372">
        <ele>408.6</ele>
        <time>2024-09-02T07:09:28Z</time>
      </trkpt>
      <trkpt lat="47.27089" lon="3.92376">
        <ele>409.3</ele>
        <time>2024-09-02T07:09:32.000Z</time>
      </trkpt>
      <trkpt lat="47.27093" lon="3.92379">
        <ele>410</ele>
        <time>2024-09-02T07:09:36Z</time>
      </trkpt>
      <trkpt lat="47.27098" lon="3.92381">
        <ele>410.5</ele>
        <time>2024-09-02T07:09:40.000Z</time>
      </trkpt>
      <trkpt lat="47.27103" lon="3.92383">
        <ele>411</ele>
        <time>2024-09-02T07:09:44Z</time>
      </trkpt>
      <trkpt lat="47.27108" lon="3.92383">
        <ele>411.2</ele>
        <time>2024-09-02T07:09:48.000Z</time>
      </trkpt>
      <trkpt lat="47.27113" lon="3.92383">
        <ele>411.5</ele>
        <time>2024-09-02T07:09:52Z</time>
      </trkpt>
      <trkpt lat="47.27118" lon="3.92382">
        <ele>411.8</ele>
        <time>2024-09-02T07:09:56.000Z</time>
      </trkpt>
      <trkpt lat="47.27123" lon="3.92381">
        <ele>412</ele>
        <time>2024-09-02T07:10:00Z</time>
      </trkpt>
      <trkpt lat="47.27128" lon="3.92379">
        <ele>412.1</ele>
        <time>2024-09-02T07:10:04.000Z</time>
      </trkpt>
      <trkpt lat="47.27132" lon="3.92377">
        <ele>412.2</ele>
        <time>2024-09-02T07:10:08Z</time>
      </trkpt>
      <trkpt lat="47.27137" lon="3.92376">
        <ele>412.4</ele>
        <time>2024-09-02T07:10:12.500Z</time>
      </trkpt>
      <trkpt lat="47.27142" lon="3.92374">
        <ele>412.5</ele>
        <time>2024-09-02T07:10:17Z</time>
      </trkpt>
      <trkpt lat="47.27147" lon="3.92372">
        <ele>412.4</ele>
        <time>2024-09-02T07:10:21.500Z</time>
      </trkpt>
      <trkpt lat="47.27151" lon="3.92369">
        <ele>412.3</ele>
        <time>2024-09-02T07:10:26Z</time>
      </trkpt>
      <trkpt lat="47.27156" lon="3.92368">
        <ele>412.3</ele>
        <time>2024-09-02T07:10:35.500Z</time>
      </trkpt>
      <trkpt lat="47.2716" lon="3.92366">
        <ele>412.3</ele>
        <time>2024-09-02T07:10:45Z</time>
      </trkpt>
      <trkpt lat="47.27165" lon="3.92365">
        <ele>412.3</ele>
        <time>2024-09-02T07:10:49.000Z</time>
      </trkpt>
      <trkpt lat="47.2717" lon="3.92363">
        <ele>412.2</ele>
        <time>2024-09-02T07:10:53Z</time>
      </trkpt>
      <trkpt lat="47.27175" lon="3.92362">
        <ele>412.1</ele>
        <time>2024-09-02T07:10:58.500Z</time>
      </trkpt>
      <trkpt lat="47.2718" lon="3.92361">
        <ele>412</ele>
        <time>2024-09-02T07:11:04Z</time>
      </trkpt>
      <trkpt lat="47.27186" lon="3.92361">
        <ele>411.9</ele>
        <time>2024-09-02T07:11:11.000Z</time>
      </trkpt>
      <trkpt lat="47.27192" lon="3.9236">
        <ele>411.8</ele>
        <time>2024-09-02T07:11:18Z</time>
      </trkpt>
      <trkpt lat="47.27198" lon="3.92365">
        <ele>411.7</ele>
        <time>2024-09-02T07:11:23.500Z</time>
      </trkpt>
      <trkpt lat="47.27204" lon="3.9237">
        <ele>411.1</ele>
        <time>2024-09-02T07:11:29Z</time>
      </trkpt>
      <trkpt lat="47.27211" lon="3.92378">
        <ele>411</ele>
        <time>2024-09-02T07:11:34.000Z</time>
      </trkpt>
      <trkpt lat="47.27217" lon="3.92385">
        <ele>411.1</ele>
        <time>2024-09-02T07:11:39Z</time>
      </trkpt>
      <trkpt lat="47.27221" lon="3.92393">
        <ele>411.8</ele>
        <time>2024-09-02T07:11:44.000Z</time>
      </trkpt>
      <trkpt lat="47.27225" lon="3.92401">
        <ele>411.8</ele>
        <time>2024-09-02T07:11:49Z</time>
      </trkpt>
      <trkpt lat="47.27226" lon="3.92411">
        <ele>412.7</ele>
        <time>2024-09-02T07:11:54.500Z</time>
      </trkpt>
      <trkpt lat="47.27227" lon="3.9242">
        <ele>413</ele>
        <time>2024-09-02T07:12:00Z</time>
      </trkpt>
      <trkpt lat="47.27225" lon="3.9243">
        <ele>413.2</ele>
        <time>2024-09-02T07:12:05.999Z</time>
      </trkpt>
      <trkpt lat="47.27223" lon="3.9244">
        <ele>413.1</ele>
        <time>2024-09-02T07:12:12Z</time>
      </trkpt>
      <trkpt lat="47.27219" lon="3.92448">
        <ele>413.3</ele>
        <time>2024-09-02T07:12:17.999Z</time>
      </trkpt>
      <trkpt lat="47.27215" lon="3.92455">
        <ele>413.3</ele>
        <time>2024-09-02T07:12:24Z</time>
      </trkpt>
      <trkpt lat="47.27211" lon="3.92463">
        <ele>413.4</ele>
        <time>2024-09-02T07:12:28.999Z</time>
      </trkpt>
      <trkpt lat="47.27206" lon="3.9247">
        <ele>413.7</ele>
        <time>2024-09-02T07:12:34Z</time>
      </trkpt>
      <trkpt lat="47.27203" lon="3.92478">
        <ele>413.6</ele>
        <time>2024-09-02T07:12:38.499Z</time>
      </trkpt>
      <trkpt lat="47.272" lon="3.92486">
        <ele>413.2</ele>
        <time>2024-09-02T07:12:43Z</time>
      </trkpt>
      <trkpt lat="47.272" lon="3.92494">
        <ele>412.3</ele>
        <time>2024-09-02T07:12:47.000Z</time>
      </trkpt>
      <trkpt lat="47.272" lon="3.92501">
        <ele>411.6</ele>
        <time>2024-09-02T07:12:51Z</time>
      </trkpt>
      <trkpt lat="47.27201" lon="3.92508">
        <ele>411.9</ele>
        <time>2024-09-02T07:12:55.000Z</time>
      </trkpt>
      <trkpt lat="47.27202" lon="3.92515">
        <ele>412.1</ele>
        <time>2024-09-02T07:12:59Z</time>
      </trkpt>
      <trkpt lat="47.27205" lon="3.92522">
        <ele>412.3</ele>
        <time>2024-09-02T07:13:04.000Z</time>
      </trkpt>
      <trkpt lat="47.27208" lon="3.92529">
        <ele>412.6</ele>
        <time>2024-09-02T07:13:09Z</time>
      </trkpt>
      <trkpt lat="47.27213" lon="3.92533">
        <ele>412.8</ele>
        <time>2024-09-02T07:13:14.500Z</time>
      </trkpt>
      <trkpt lat="47.27217" lon="3.92537">
        <ele>413.1</ele>
        <time>2024-09-02T07:13:20Z</time>
      </trkpt>
      <trkpt lat="47.27222" lon="3.9254">
        <ele>413.3</ele>
        <time>2024-09-02T07:13:25.000Z</time>
      </trkpt>
      <trkpt lat="47.27226" lon="3.92543">
        <ele>414.2</ele>
        <time>2024-09-02T07:13:30Z</time>
      </trkpt>
      <trkpt lat="47.27232" lon="3.9255">
        <ele>416</ele>
        <time>2024-09-02T07:13:40Z</time>
      </trkpt>
      <trkpt lat="47.27236" lon="3.92551">
        <ele>416.8</ele>
        <time>2024-09-02T07:15:18Z</time>
      </trkpt>
      <trkpt lat="47.27241" lon="3.92549">
        <ele>417.4</ele>
        <time>2024-09-02T07:15:23.000Z</time>
      </trkpt>
      <trkpt lat="47.27246" lon="3.92547">
        <ele>417.8</ele>
        <time>2024-09-02T07:15:28Z</time>
      </trkpt>
      <trkpt lat="47.27251" lon="3.92543">
        <ele>417.8</ele>
        <time>2024-09-02T07:15:33.000Z</time>
      </trkpt>
      <trkpt lat="47.27255" lon="3.92539">
        <ele>417.4</ele>
        <time>2024-09-02T07:15:38Z</time>
      </trkpt>
      <trkpt lat="47.27261" lon="3.92538">
        <ele>417.7</ele>
        <time>2024-09-02T07:15:42.500Z</time>
      </trkpt>
      <trkpt lat="47.27267" lon="3.92536">
        <ele>418</ele>
        <time>2024-09-02T07:15:47Z</time>
      </trkpt>
      <trkpt lat="47.27272" lon="3.92536">
        <ele>418.4</ele>
        <time>2024-09-02T07:15:52.000Z</time>
      </trkpt>
      <trkpt lat="47.27277" lon="3.92536">
        <ele>418.8</ele>
        <time>2024-09-02T07:15:57Z</time>
      </trkpt>
      <trkpt lat="47.27282" lon="3.92541">
        <ele>419.5</ele>
        <time>2024-09-02T07:16:01.500Z</time>
      </trkpt>
      <trkpt lat="47.27286" lon="3.92546">
        <ele>420.2</ele>
        <time>2024-09-02T07:16:06Z</time>
      </trkpt>
      <trkpt lat="47.27291" lon="3.92552">
        <ele>421</ele>
        <time>2024-09-02T07:16:11.000Z</time>
      </trkpt>
      <trkpt lat="47.27295" lon="3.92558">
        <ele>421.7</ele>
        <time>2024-09-02T07:16:16Z</time>
      </trkpt>
      <trkpt lat="47.27299" lon="3.92563">
        <ele>422.1</ele>
        <time>2024-09-02T07:16:20.000Z</time>
      </trkpt>
      <trkpt lat="47.27303" lon="3.92567">
        <ele>422.4</ele>
        <time>2024-09-02T07:16:24Z</time>
      </trkpt>
      <trkpt lat="47.27307" lon="3.92572">
        <ele>422.6</ele>
        <time>2024-09-02T07:16:28.000Z</time>
      </trkpt>
      <trkpt lat="47.2731" lon="3.92577">
        <ele>422.9</ele>
        <time>2024-09-02T07:16:32Z</time>
      </trkpt>
      <trkpt lat="47.27313" lon="3.92583">
        <ele>423.2</ele>
        <time>2024-09-02T07:16:36.500Z</time>
      </trkpt>
      <trkpt lat="47.27316" lon="3.92588">
        <ele>423.5</ele>
        <time>2024-09-02T07:16:41Z</time>
      </trkpt>
      <trkpt lat="47.2732" lon="3.92593">
        <ele>423.8</ele>
        <time>2024-09-02T07:16:45.500Z</time>
      </trkpt>
      <trkpt lat="47.27323" lon="3.92597">
        <ele>424.1</ele>
        <time>2024-09-02T07:16:50Z</time>
      </trkpt>
      <trkpt lat="47.27328" lon="3.92602">
        <ele>424.4</ele>
        <time>2024-09-02T07:16:54.500Z</time>
      </trkpt>
      <trkpt lat="47.27332" lon="3.92606">
        <ele>424.8</ele>
        <time>2024-09-02T07:16:59Z</time>
      </trkpt>
      <trkpt lat="47.27337" lon="3.92609">
        <ele>424.9</ele>
        <time>2024-09-02T07:17:03.500Z</time>
      </trkpt>
      <trkpt lat="47.27341" lon="3.92612">
        <ele>425</ele>
        <time>2024-09-02T07:17:08Z</time>
      </trkpt>
      <trkpt lat="47.27346" lon="3.92614">
        <ele>424.9</ele>
        <time>2024-09-02T07:17:12.000Z</time>
      </trkpt>
      <trkpt lat="47.27351" lon="3.92615">
        <ele>424.9</ele>
        <time>2024-09-02T07:17:16Z</time>
      </trkpt>
      <trkpt lat="47.27356" lon="3.92615">
        <ele>424.9</ele>
        <time>2024-09-02T07:17:20.500Z</time>
      </trkpt>
      <trkpt lat="47.2736" lon="3.92615">
        <ele>424.9</ele>
        <time>2024-09-02T07:17:25Z</time>
      </trkpt>
      <trkpt lat="47.27363" lon="3.92617">
        <ele>424.9</ele>
        <time>2024-09-02T07:17:36Z</time>
      </trkpt>
      <trkpt lat="47.27363" lon="3.92615">
        <ele>424.9</ele>
        <time>2024-09-02T07:18:10Z</time>
      </trkpt>
      <trkpt lat="47.27368" lon="3.92615">
        <ele>425.1</ele>
        <time>2024-09-02T07:18:14.000Z</time>
      </trkpt>
      <trkpt lat="47.27373" lon="3.92615">
        <ele>425.3</ele>
        <time>2024-09-02T07:18:18Z</time>
      </trkpt>
      <trkpt lat="47.27378" lon="3.92615">
        <ele>425.5</ele>
        <time>2024-09-02T07:18:22.000Z</time>
      </trkpt>
      <trkpt lat="47.27383" lon="3.92615">
        <ele>425.6</ele>
        <time>2024-09-02T07:18:26Z</time>
      </trkpt>
      <trkpt lat="47.27388" lon="3.92615">
        <ele>425.8</ele>
        <time>2024-09-02T07:18:30.000Z</time>
      </trkpt>
      <trkpt lat="47.27392" lon="3.92615">
        <ele>426</ele>
        <time>2024-09-02T07:18:34Z</time>
      </trkpt>
      <trkpt lat="47.27397" lon="3.92615">
        <ele>426.2</ele>
        <time>2024-09-02T07:18:38.000Z</time>
      </trkpt>
      <trkpt lat="47.27402" lon="3.92615">
        <ele>426.5</ele>
        <time>2024-09-02T07:18:42Z</time>
      </trkpt>
      <trkpt lat="47.27407" lon="3.92615">
        <ele>426.7</ele>
        <time>2024-09-02T07:18:45.500Z</time>
      </trkpt>
      <trkpt lat="47.27412" lon="3.92614">
        <ele>426.9</ele>
        <time>2024-09-02T07:18:49Z</time>
      </trkpt>
      <trkpt lat="47.27417" lon="3.92614">
        <ele>427.1</ele>
        <time>2024-09-02T07:18:53.000Z</time>
      </trkpt>
      <trkpt lat="47.27422" lon="3.92613">
        <ele>427.5</ele>
        <time>2024-09-02T07:18:57Z</time>
      </trkpt>
      <trkpt lat="47.27427" lon="3.92613">
        <ele>427.8</ele>
        <time>2024-09-02T07:19:01.000Z</time>
      </trkpt>
      <trkpt lat="47.27432" lon="3.92613">
        <ele>428.2</ele>
        <time>2024-09-02T07:19:05Z</time>
      </trkpt>
      <trkpt lat="47.27437" lon="3.92613">
        <ele>428.5</ele>
        <time>2024-09-02T07:19:09.000Z</time>
      </trkpt>
      <trkpt lat="47.27441" lon="3.92613">
        <ele>428.9</ele>
        <time>2024-09-02T07:19:13Z</time>
      </trkpt>
      <trkpt lat="47.27446" lon="3.92613">
        <ele>429.2</ele>
        <time>2024-09-02T07:19:17.000Z</time>
      </trkpt>
      <trkpt lat="47.27451" lon="3.92613">
        <ele>429.6</ele>
        <time>2024-09-02T07:19:21Z</time>
      </trkpt>
      <trkpt lat="47.27456" lon="3.92614">
        <ele>430</ele>
        <time>2024-09-02T07:19:25.000Z</time>
      </trkpt>
      <trkpt lat="47.2746" lon="3.92614">
        <ele>430.3</ele>
        <time>2024-09-02T07:19:29Z</time>
      </trkpt>
      <trkpt lat="47.27465" lon="3.92615">
        <ele>430.7</ele>
        <time>2024-09-02T07:19:33.000Z</time>
      </trkpt>
      <trkpt lat="47.27469" lon="3.92616">
        <ele>431.1</ele>
        <time>2024-09-02T07:19:37Z</time>
      </trkpt>
      <trkpt lat="47.27474" lon="3.92618">
        <ele>431.6</ele>
        <time>2024-09-02T07:19:41.500Z</time>
      </trkpt>
      <trkpt lat="47.27479" lon="3.92619">
        <ele>432</ele>
        <time>2024-09-02T07:19:46Z</time>
      </trkpt>
      <trkpt lat="47.27484" lon="3.92621">
        <ele>432.4</ele>
        <time>2024-09-02T07:19:50.500Z</time>
      </trkpt>
      <trkpt lat="47.27488" lon="3.92623">
        <ele>432.7</ele>
        <time>2024-09-02T07:19:55Z</time>
      </trkpt>
      <trkpt lat="47.27493" lon="3.92626">
        <ele>433.1</ele>
        <time>2024-09-02T07:19:59.500Z</time>
      </trkpt>
      <trkpt lat="47.27498" lon="3.92628">
        <ele>433.5</ele>
        <time>2024-09-02T07:20:04Z</time>
      </trkpt>
      <trkpt lat="47.27503" lon="3.92631">
        <ele>433.9</ele>
        <time>2024-09-02T07:20:08.000Z</time>
      </trkpt>
      <trkpt lat="47.27507" lon="3.92633">
        <ele>434.5</ele>
        <time>2024-09-02T07:20:12Z</time>
      </trkpt>
      <trkpt lat="47.27512" lon="3.92636">
        <ele>435.1</ele>
        <time>2024-09-02T07:20:16.500Z</time>
      </trkpt>
      <trkpt lat="47.27516" lon="3.92638">
        <ele>435.7</ele>
        <time>2024-09-02T07:20:21Z</time>
      </trkpt>
      <trkpt lat="47.27521" lon="3.92641">
        <ele>436.4</ele>
        <time>2024-09-02T07:20:25.500Z</time>
      </trkpt>
      <trkpt lat="47.27525" lon="3.92644">
        <ele>437.1</ele>
        <time>2024-09-02T07:20:30Z</time>
      </trkpt>
      <trkpt lat="47.2753" lon="3.92646">
        <ele>437.6</ele>
        <time>2024-09-02T07:20:34.500Z</time>
      </trkpt>
      <trkpt lat="47.27534" lon="3.92648">
        <ele>437.9</ele>
        <time>2024-09-02T07:20:39Z</time>
      </trkpt>
      <trkpt lat="47.27539" lon="3.92651">
        <ele>438.2</ele>
        <time>2024-09-02T07:20:43.500Z</time>
      </trkpt>
      <trkpt lat="47.27543" lon="3.92653">
        <ele>438.6</ele>
        <time>2024-09-02T07:20:48Z</time>
      </trkpt>
      <trkpt lat="47.27548" lon="3.92656">
        <ele>438.9</ele>
        <time>2024-09-02T07:20:52.500Z</time>
      </trkpt>
      <trkpt lat="47.27552" lon="3.92658">
        <ele>439.2</ele>
        <time>2024-09-02T07:20:57Z</time>
      </trkpt>
      <trkpt lat="47.27557" lon="3.9266">
        <ele>439.6</ele>
        <time>2024-09-02T07:21:01.500Z</time>
      </trkpt>
      <trkpt lat="47.27561" lon="3.92662">
        <ele>440</ele>
        <time>2024-09-02T07:21:06Z</time>
      </trkpt>
      <trkpt lat="47.27566" lon="3.92663">
        <ele>440.2</ele>
        <time>2024-09-02T07:21:10.500Z</time>
      </trkpt>
      <trkpt lat="47.27571" lon="3.92663">
        <ele>440.5</ele>
        <time>2024-09-02T07:21:15Z</time>
      </trkpt>
      <trkpt lat="47.27579" lon="3.92659">
        <ele>441</ele>
        <time>2024-09-02T07:21:25Z</time>
      </trkpt>
      <trkpt lat="47.27587" lon="3.92661">
        <ele>441.8</ele>
        <time>2024-09-02T07:21:47Z</time>
      </trkpt>
      <trkpt lat="47.27592" lon="3.92667">
        <ele>442.2</ele>
        <time>2024-09-02T07:21:53.000Z</time>
      </trkpt>
      <trkpt lat="47.27596" lon="3.92672">
        <ele>442.8</ele>
        <time>2024-09-02T07:21:59Z</time>
      </trkpt>
      <trkpt lat="47.27601" lon="3.92675">
        <ele>443.5</ele>
        <time>2024-09-02T07:22:10.500Z</time>
      </trkpt>
      <trkpt lat="47.27606" lon="3.92677">
        <ele>444</ele>
        <time>2024-09-02T07:22:22Z</time>
      </trkpt>
      <trkpt lat="47.27611" lon="3.92681">
        <ele>444.4</ele>
        <time>2024-09-02T07:22:27.500Z</time>
      </trkpt>
      <trkpt lat="47.27615" lon="3.92684">
        <ele>444.8</ele>
        <time>2024-09-02T07:22:33Z</time>
      </trkpt>
      <trkpt lat="47.27622" lon="3.92678">
        <ele>445.8</ele>
        <time>2024-09-02T07:22:44Z</time>
      </trkpt>
      <trkpt lat="47.27616" lon="3.92675">
        <ele>445.2</ele>
        <time>2024-09-02T07:23:01Z</time>
      </trkpt>
      <trkpt lat="47.27611" lon="3.92672">
        <ele>444.8</ele>
        <time>2024-09-02T07:23:21Z</time>
      </trkpt>
      <trkpt lat="47.27612" lon="3.92664">
        <ele>445.2</ele>
        <time>2024-09-02T07:23:27.000Z</time>
      </trkpt>
      <trkpt lat="47.27612" lon="3.92656">
        <ele>445.9</ele>
        <time>2024-09-02T07:23:33Z</time>
      </trkpt>
      <trkpt lat="47.27609" lon="3.92648">
        <ele>446</ele>
        <time>2024-09-02T07:23:38.499Z</time>
      </trkpt>
      <trkpt lat="47.27606" lon="3.9264">
        <ele>446</ele>
        <time>2024-09-02T07:23:44Z</time>
      </trkpt>
      <trkpt lat="47.27604" lon="3.92633">
        <ele>446.1</ele>
        <time>2024-09-02T07:23:48.499Z</time>
      </trkpt>
      <trkpt lat="47.27602" lon="3.92625">
        <ele>446.2</ele>
        <time>2024-09-02T07:23:53Z</time>
      </trkpt>
      <trkpt lat="47.27602" lon="3.92617">
        <ele>446.7</ele>
        <time>2024-09-02T07:23:57.000Z</time>
      </trkpt>
      <trkpt lat="47.27602" lon="3.92608">
        <ele>447.3</ele>
        <time>2024-09-02T07:24:01Z</time>
      </trkpt>
      <trkpt lat="47.27603" lon="3.92601">
        <ele>448</ele>
        <time>2024-09-02T07:24:05.500Z</time>
      </trkpt>
      <trkpt lat="47.27603" lon="3.92594">
        <ele>448.7</ele>
        <time>2024-09-02T07:24:10Z</time>
      </trkpt>
      <trkpt lat="47.27606" lon="3.92588">
        <ele>449.6</ele>
        <time>2024-09-02T07:24:15.000Z</time>
      </trkpt>
      <trkpt lat="47.27608" lon="3.92582">
        <ele>450.6</ele>
        <time>2024-09-02T07:24:20Z</time>
      </trkpt>
      <trkpt lat="47.27613" lon="3.92578">
        <ele>451.8</ele>
        <time>2024-09-02T07:24:25.500Z</time>
      </trkpt>
      <trkpt lat="47.27618" lon="3.92573">
        <ele>452.5</ele>
        <time>2024-09-02T07:24:31Z</time>
      </trkpt>
      <trkpt lat="47.27623" lon="3.9257">
        <ele>453.1</ele>
        <time>2024-09-02T07:24:36.000Z</time>
      </trkpt>
      <trkpt lat="47.27627" lon="3.92567">
        <ele>453.6</ele>
        <time>2024-09-02T07:24:41Z</time>
      </trkpt>
      <trkpt lat="47.27631" lon="3.92563">
        <ele>454.1</ele>
        <time>2024-09-02T07:24:46.500Z</time>
      </trkpt>
      <trkpt lat="47.27635" lon="3.92559">
        <ele>454.6</ele>
        <time>2024-09-02T07:24:52Z</time>
      </trkpt>
      <trkpt lat="47.27639" lon="3.92553">
        <ele>455.1</ele>
        <time>2024-09-02T07:24:58.000Z</time>
      </trkpt>
      <trkpt lat="47.27642" lon="3.92547">
        <ele>455.4</ele>
        <time>2024-09-02T07:25:04Z</time>
      </trkpt>
      <trkpt lat="47.27646" lon="3.92541">
        <ele>455.8</ele>
        <time>2024-09-02T07:25:09.500Z</time>
      </trkpt>
      <trkpt lat="47.27649" lon="3.92535">
        <ele>456.1</ele>
        <time>2024-09-02T07:25:15Z</time>
      </trkpt>
      <trkpt lat="47.27654" lon="3.92533">
        <ele>456.4</ele>
        <time>2024-09-02T07:25:20.000Z</time>
      </trkpt>
      <trkpt lat="47.27659" lon="3.92531">
        <ele>456.6</ele>
        <time>2024-09-02T07:25:25Z</time>
      </trkpt>
      <trkpt lat="47.27665" lon="3.92531">
        <ele>456.8</ele>
        <time>2024-09-02T07:25:30.500Z</time>
      </trkpt>
      <trkpt lat="47.27671" lon="3.9253">
        <ele>456.9</ele>
        <time>2024-09-02T07:25:36Z</time>
      </trkpt>
      <trkpt lat="47.27677" lon="3.9253">
        <ele>457</ele>
        <time>2024-09-02T07:25:42.500Z</time>
      </trkpt>
      <trkpt lat="47.27682" lon="3.9253">
        <ele>457</ele>
        <time>2024-09-02T07:25:49Z</time>
      </trkpt>
      <trkpt lat="47.27687" lon="3.9253">
        <ele>457</ele>
        <time>2024-09-02T07:26:01.500Z</time>
      </trkpt>
      <trkpt lat="47.27691" lon="3.92529">
        <ele>457</ele>
        <time>2024-09-02T07:26:14Z</time>
      </trkpt>
      <trkpt lat="47.27696" lon="3.9253">
        <ele>457.1</ele>
        <time>2024-09-02T07:26:19.500Z</time>
      </trkpt>
      <trkpt lat="47.27701" lon="3.9253">
        <ele>457.3</ele>
        <time>2024-09-02T07:26:25Z</time>
      </trkpt>
      <trkpt lat="47.27706" lon="3.92531">
        <ele>457.6</ele>
        <time>2024-09-02T07:26:29.500Z</time>
      </trkpt>
      <trkpt lat="47.27711" lon="3.92532">
        <ele>457.8</ele>
        <time>2024-09-02T07:26:34Z</time>
      </trkpt>
      <trkpt lat="47.27716" lon="3.92533">
        <ele>458.1</ele>
        <time>2024-09-02T07:26:39.000Z</time>
      </trkpt>
      <trkpt lat="47.2772" lon="3.92534">
        <ele>458.4</ele>
        <time>2024-09-02T07:26:44Z</time>
      </trkpt>
      <trkpt lat="47.27725" lon="3.92535">
        <ele>458.6</ele>
        <time>2024-09-02T07:26:48.500Z</time>
      </trkpt>
      <trkpt lat="47.2773" lon="3.92536">
        <ele>459</ele>
        <time>2024-09-02T07:26:53Z</time>
      </trkpt>
      <trkpt lat="47.27736" lon="3.92538">
        <ele>459.4</ele>
        <time>2024-09-02T07:26:57.500Z</time>
      </trkpt>
      <trkpt lat="47.27741" lon="3.9254">
        <ele>459.9</ele>
        <time>2024-09-02T07:27:02Z</time>
      </trkpt>
      <trkpt lat="47.27746" lon="3.92542">
        <ele>460.3</ele>
        <time>2024-09-02T07:27:07.000Z</time>
      </trkpt>
      <trkpt lat="47.27751" lon="3.92543">
        <ele>460.7</ele>
        <time>2024-09-02T07:27:12Z</time>
      </trkpt>
      <trkpt lat="47.27756" lon="3.92544">
        <ele>461.1</ele>
        <time>2024-09-02T07:27:16.500Z</time>
      </trkpt>
      <trkpt lat="47.2776" lon="3.92545">
        <ele>461.6</ele>
        <time>2024-09-02T07:27:21Z</time>
      </trkpt>
      <trkpt lat="47.27765" lon="3.92546">
        <ele>462</ele>
        <time>2024-09-02T07:27:25.500Z</time>
      </trkpt>
      <trkpt lat="47.2777" lon="3.92546">
        <ele>462.4</ele>
        <time>2024-09-02T07:27:30Z</time>
      </trkpt>
      <trkpt lat="47.27775" lon="3.92545">
        <ele>462.6</ele>
        <time>2024-09-02T07:27:35.000Z</time>
      </trkpt>
      <trkpt lat="47.27779" lon="3.92544">
        <ele>462.9</ele>
        <time>2024-09-02T07:27:40Z</time>
      </trkpt>
      <trkpt lat="47.27786" lon="3.92546">
        <ele>463.9</ele>
        <time>2024-09-02T07:28:03Z</time>
      </trkpt>
      <trkpt lat="47.27791" lon="3.92545">
        <ele>464.2</ele>
        <time>2024-09-02T07:28:08.500Z</time>
      </trkpt>
      <trkpt lat="47.27796" lon="3.92543">
        <ele>464.6</ele>
        <time>2024-09-02T07:28:14Z</time>
      </trkpt>
      <trkpt lat="47.27801" lon="3.9254">
        <ele>464.7</ele>
        <time>2024-09-02T07:28:19.000Z</time>
      </trkpt>
      <trkpt lat="47.27805" lon="3.92536">
        <ele>464.8</ele>
        <time>2024-09-02T07:28:24Z</time>
      </trkpt>
      <trkpt lat="47.27809" lon="3.92532">
        <ele>464.8</ele>
        <time>2024-09-02T07:28:28.500Z</time>
      </trkpt>
      <trkpt lat="47.27813" lon="3.92528">
        <ele>464.8</ele>
        <time>2024-09-02T07:28:33Z</time>
      </trkpt>
      <trkpt lat="47.27817" lon="3.92524">
        <ele>464.7</ele>
        <time>2024-09-02T07:28:38.000Z</time>
      </trkpt>
      <trkpt lat="47.27821" lon="3.9252">
        <ele>464.5</ele>
        <time>2024-09-02T07:28:43Z</time>
      </trkpt>
      <trkpt lat="47.27827" lon="3.92515">
        <ele>464.5</ele>
        <time>2024-09-02T07:30:35Z</time>
      </trkpt>
      <trkpt lat="47.27831" lon="3.92512">
        <ele>464.4</ele>
        <time>2024-09-02T07:30:50.000Z</time>
      </trkpt>
      <trkpt lat="47.27835" lon="3.92508">
        <ele>464.3</ele>
        <time>2024-09-02T07:31:05Z</time>
      </trkpt>
      <trkpt lat="47.27842" lon="3.925">
        <ele>463.9</ele>
        <time>2024-09-02T07:31:16Z</time>
      </trkpt>
      <trkpt lat="47.27846" lon="3.92496">
        <ele>463.6</ele>
        <time>2024-09-02T07:31:20.500Z</time>
      </trkpt>
      <trkpt lat="47.2785" lon="3.92491">
        <ele>463.3</ele>
        <time>2024-09-02T07:31:25Z</time>
      </trkpt>
      <trkpt lat="47.27854" lon="3.92486">
        <ele>462.8</ele>
        <time>2024-09-02T07:31:29.500Z</time>
      </trkpt>
      <trkpt lat="47.27858" lon="3.92481">
        <ele>462.3</ele>
        <time>2024-09-02T07:31:34Z</time>
      </trkpt>
      <trkpt lat="47.27865" lon="3.92473">
        <ele>461.6</ele>
        <time>2024-09-02T07:31:42Z</time>
      </trkpt>
      <trkpt lat="47.27869" lon="3.92469">
        <ele>461.3</ele>
        <time>2024-09-02T07:31:46.000Z</time>
      </trkpt>
      <trkpt lat="47.27872" lon="3.92464">
        <ele>461</ele>
        <time>2024-09-02T07:31:50Z</time>
      </trkpt>
      <trkpt lat="47.27876" lon="3.9246">
        <ele>460.8</ele>
        <time>2024-09-02T07:31:59.500Z</time>
      </trkpt>
      <trkpt lat="47.2788" lon="3.92456">
        <ele>460.7</ele>
        <time>2024-09-02T07:32:09Z</time>
      </trkpt>
      <trkpt lat="47.27884" lon="3.92452">
        <ele>460.5</ele>
        <time>2024-09-02T07:32:13.000Z</time>
      </trkpt>
      <trkpt lat="47.27888" lon="3.92447">
        <ele>460.3</ele>
        <time>2024-09-02T07:32:17Z</time>
      </trkpt>
      <trkpt lat="47.27892" lon="3.92443">
        <ele>459.9</ele>
        <time>2024-09-02T07:32:21.000Z</time>
      </trkpt>
      <trkpt lat="47.27895" lon="3.92438">
        <ele>459.6</ele>
        <time>2024-09-02T07:32:25Z</time>
      </trkpt>
      <trkpt lat="47.27899" lon="3.92433">
        <ele>459.2</ele>
        <time>2024-09-02T07:32:28.500Z</time>
      </trkpt>
      <trkpt lat="47.27903" lon="3.92428">
        <ele>458.9</ele>
        <time>2024-09-02T07:32:32Z</time>
      </trkpt>
      <trkpt lat="47.27907" lon="3.92423">
        <ele>458.5</ele>
        <time>2024-09-02T07:32:36.000Z</time>
      </trkpt>
      <trkpt lat="47.2791" lon="3.92417">
        <ele>458.1</ele>
        <time>2024-09-02T07:32:40Z</time>
      </trkpt>
      <trkpt lat="47.27914" lon="3.92412">
        <ele>457.7</ele>
        <time>2024-09-02T07:32:44.000Z</time>
      </trkpt>
      <trkpt lat="47.27917" lon="3.92407">
        <ele>457.3</ele>
        <time>2024-09-02T07:32:48Z</time>
      </trkpt>
      <trkpt lat="47.27921" lon="3.92402">
        <ele>456.7</ele>
        <time>2024-09-02T07:32:52.000Z</time>
      </trkpt>
      <trkpt lat="47.27924" lon="3.92397">
        <ele>456.2</ele>
        <time>2024-09-02T07:32:56Z</time>
      </trkpt>
      <trkpt lat="47.27928" lon="3.92394">
        <ele>456</ele>
        <time>2024-09-02T07:33:00.000Z</time>
      </trkpt>
      <trkpt lat="47.27932" lon="3.9239">
        <ele>455.8</ele>
        <time>2024-09-02T07:33:04Z</time>
      </trkpt>
      <trkpt lat="47.27936" lon="3.92386">
        <ele>455.5</ele>
        <time>2024-09-02T07:33:08.500Z</time>
      </trkpt>
      <trkpt lat="47.2794" lon="3.92381">
        <ele>455.1</ele>
        <time>2024-09-02T07:33:13Z</time>
      </trkpt>
      <trkpt lat="47.27944" lon="3.92376">
        <ele>454.6</ele>
        <time>2024-09-02T07:33:17.500Z</time>
      </trkpt>
      <trkpt lat="47.27948" lon="3.92371">
        <ele>454</ele>
        <time>2024-09-02T07:33:22Z</time>
      </trkpt>
      <trkpt lat="47.27951" lon="3.92365">
        <ele>453.2</ele>
        <time>2024-09-02T07:33:26.000Z</time>
      </trkpt>
      <trkpt lat="47.27954" lon="3.92359">
        <ele>452.3</ele>
        <time>2024-09-02T07:33:30Z</time>
      </trkpt>
      <trkpt lat="47.27958" lon="3.92354">
        <ele>451.7</ele>
        <time>2024-09-02T07:33:34.000Z</time>
      </trkpt>
      <trkpt lat="47.27961" lon="3.92348">
        <ele>451.1</ele>
        <time>2024-09-02T07:33:38Z</time>
      </trkpt>
      <trkpt lat="47.27964" lon="3.92343">
        <ele>450.5</ele>
        <time>2024-09-02T07:33:42.000Z</time>
      </trkpt>
      <trkpt lat="47.27967" lon="3.92337">
        <ele>450</ele>
        <time>2024-09-02T07:33:46Z</time>
      </trkpt>
      <trkpt lat="47.27971" lon="3.92333">
        <ele>449.8</ele>
        <time>2024-09-02T07:33:50.000Z</time>
      </trkpt>
      <trkpt lat="47.27975" lon="3.92329">
        <ele>449.8</ele>
        <time>2024-09-02T07:33:54Z</time>
      </trkpt>
      <trkpt lat="47.27979" lon="3.92323">
        <ele>449.6</ele>
        <time>2024-09-02T07:33:58.000Z</time>
      </trkpt>
      <trkpt lat="47.27982" lon="3.92317">
        <ele>449.6</ele>
        <time>2024-09-02T07:34:02Z</time>
      </trkpt>
      <trkpt lat="47.27985" lon="3.92311">
        <ele>449.6</ele>
        <time>2024-09-02T07:34:07.000Z</time>
      </trkpt>
      <trkpt lat="47.27988" lon="3.92305">
        <ele>449.9</ele>
        <time>2024-09-02T07:34:12Z</time>
      </trkpt>
      <trkpt lat="47.27989" lon="3.92298">
        <ele>450.3</ele>
        <time>2024-09-02T07:34:16.500Z</time>
      </trkpt>
      <trkpt lat="47.27989" lon="3.9229">
        <ele>450.7</ele>
        <time>2024-09-02T07:34:21Z</time>
      </trkpt>
      <trkpt lat="47.27986" lon="3.92284">
        <ele>450.2</ele>
        <time>2024-09-02T07:34:25.999Z</time>
      </trkpt>
      <trkpt lat="47.27983" lon="3.92278">
        <ele>449.7</ele>
        <time>2024-09-02T07:34:31Z</time>
      </trkpt>
      <trkpt lat="47.2798" lon="3.92271">
        <ele>449.6</ele>
        <time>2024-09-02T07:34:35.999Z</time>
      </trkpt>
      <trkpt lat="47.27976" lon="3.92264">
        <ele>449.4</ele>
        <time>2024-09-02T07:34:41Z</time>
      </trkpt>
      <trkpt lat="47.27974" lon="3.92257">
        <ele>449.7</ele>
        <time>2024-09-02T07:34:45.999Z</time>
      </trkpt>
      <trkpt lat="47.27972" lon="3.9225">
        <ele>450</ele>
        <time>2024-09-02T07:34:51Z</time>
      </trkpt>
      <trkpt lat="47.27971" lon="3.92243">
        <ele>450.7</ele>
        <time>2024-09-02T07:34:57.999Z</time>
      </trkpt>
      <trkpt lat="47.27969" lon="3.92235">
        <ele>451.5</ele>
        <time>2024-09-02T07:35:05Z</time>
      </trkpt>
      <trkpt lat="47.2797" lon="3.92228">
        <ele>452.7</ele>
        <time>2024-09-02T07:35:11.500Z</time>
      </trkpt>
      <trkpt lat="47.2797" lon="3.92221">
        <ele>453.7</ele>
        <time>2024-09-02T07:35:18Z</time>
      </trkpt>
      <trkpt lat="47.27971" lon="3.92213">
        <ele>454.5</ele>
        <time>2024-09-02T07:35:24.000Z</time>
      </trkpt>
      <trkpt lat="47.27972" lon="3.92205">
        <ele>455.2</ele>
        <time>2024-09-02T07:35:30Z</time>
      </trkpt>
      <trkpt lat="47.27974" lon="3.92198">
        <ele>456.2</ele>
        <time>2024-09-02T07:35:35.500Z</time>
      </trkpt>
      <trkpt lat="47.27976" lon="3.9219">
        <ele>457</ele>
        <time>2024-09-02T07:35:41Z</time>
      </trkpt>
      <trkpt lat="47.27978" lon="3.92183">
        <ele>457.6</ele>
        <time>2024-09-02T07:35:46.500Z</time>
      </trkpt>
      <trkpt lat="47.27979" lon="3.92176">
        <ele>458.3</ele>
        <time>2024-09-02T07:35:52Z</time>
      </trkpt>
      <trkpt lat="47.27981" lon="3.92169">
        <ele>459.1</ele>
        <time>2024-09-02T07:35:57.500Z</time>
      </trkpt>
      <trkpt lat="47.27983" lon="3.92161">
        <ele>459.7</ele>
        <time>2024-09-02T07:36:03Z</time>
      </trkpt>
      <trkpt lat="47.27985" lon="3.92154">
        <ele>460.2</ele>
        <time>2024-09-02T07:36:08.000Z</time>
      </trkpt>
      <trkpt lat="47.27987" lon="3.92146">
        <ele>460.7</ele>
        <time>2024-09-02T07:36:13Z</time>
      </trkpt>
      <trkpt lat="47.2799" lon="3.9214">
        <ele>461.4</ele>
        <time>2024-09-02T07:36:18.000Z</time>
      </trkpt>
      <trkpt lat="47.27992" lon="3.92134">
        <ele>462</ele>
        <time>2024-09-02T07:36:23Z</time>
      </trkpt>
      <trkpt lat="47.27995" lon="3.92128">
        <ele>462.8</ele>
        <time>2024-09-02T07:36:29.000Z</time>
      </trkpt>
      <trkpt lat="47.27998" lon="3.92122">
        <ele>463.5</ele>
        <time>2024-09-02T07:36:35Z</time>
      </trkpt>
      <trkpt lat="47.28002" lon="3.92117">
        <ele>464.3</ele>
        <time>2024-09-02T07:36:40.500Z</time>
      </trkpt>
      <trkpt lat="47.28005" lon="3.92112">
        <ele>465.1</ele>
        <time>2024-09-02T07:36:46Z</time>
      </trkpt>
      <trkpt lat="47.28009" lon="3.92109">
        <ele>465.9</ele>
        <time>2024-09-02T07:36:52.000Z</time>
      </trkpt>
      <trkpt lat="47.28013" lon="3.92105">
        <ele>466.7</ele>
        <time>2024-09-02T07:36:58Z</time>
      </trkpt>
      <trkpt lat="47.28018" lon="3.92101">
        <ele>467.6</ele>
        <time>2024-09-02T07:37:04.000Z</time>
      </trkpt>
      <trkpt lat="47.28022" lon="3.92097">
        <ele>468.3</ele>
        <time>2024-09-02T07:37:10Z</time>
      </trkpt>
      <trkpt lat="47.28026" lon="3.92092">
        <ele>469</ele>
        <time>2024-09-02T07:37:16.500Z</time>
      </trkpt>
      <trkpt lat="47.2803" lon="3.92086">
        <ele>469.2</ele>
        <time>2024-09-02T07:37:23Z</time>
      </trkpt>
      <trkpt lat="47.28036" lon="3.92082">
        <ele>469.2</ele>
        <time>2024-09-02T07:37:29.500Z</time>
      </trkpt>
      <trkpt lat="47.28042" lon="3.92077">
        <ele>469.1</ele>
        <time>2024-09-02T07:37:36Z</time>
      </trkpt>
      <trkpt lat="47.28048" lon="3.92075">
        <ele>469.1</ele>
        <time>2024-09-02T07:37:41.000Z</time>
      </trkpt>
      <trkpt lat="47.28053" lon="3.92073">
        <ele>469.2</ele>
        <time>2024-09-02T07:37:46Z</time>
      </trkpt>
      <trkpt lat="47.28059" lon="3.92071">
        <ele>469</ele>
        <time>2024-09-02T07:37:51.500Z</time>
      </trkpt>
      <trkpt lat="47.28064" lon="3.92068">
        <ele>468.6</ele>
        <time>2024-09-02T07:37:57Z</time>
      </trkpt>
      <trkpt lat="47.28069" lon="3.92066">
        <ele>468.1</ele>
        <time>2024-09-02T07:38:01.500Z</time>
      </trkpt>
      <trkpt lat="47.28073" lon="3.92063">
        <ele>467.6</ele>
        <time>2024-09-02T07:38:06Z</time>
      </trkpt>
      <trkpt lat="47.28078" lon="3.92061">
        <ele>467</ele>
        <time>2024-09-02T07:38:10.500Z</time>
      </trkpt>
      <trkpt lat="47.28083" lon="3.92058">
        <ele>466.4</ele>
        <time>2024-09-02T07:38:15Z</time>
      </trkpt>
      <trkpt lat="47.28088" lon="3.92057">
        <ele>465.8</ele>
        <time>2024-09-02T07:38:19.500Z</time>
      </trkpt>
      <trkpt lat="47.28092" lon="3.92055">
        <ele>465.3</ele>
        <time>2024-09-02T07:38:24Z</time>
      </trkpt>
      <trkpt lat="47.28097" lon="3.92053">
        <ele>464.6</ele>
        <time>2024-09-02T07:38:28.500Z</time>
      </trkpt>
      <trkpt lat="47.28101" lon="3.9205">
        <ele>463.9</ele>
        <time>2024-09-02T07:38:33Z</time>
      </trkpt>
      <trkpt lat="47.28106" lon="3.92048">
        <ele>463.3</ele>
        <time>2024-09-02T07:38:37.500Z</time>
      </trkpt>
      <trkpt lat="47.2811" lon="3.92046">
        <ele>462.7</ele>
        <time>2024-09-02T07:38:42Z</time>
      </trkpt>
      <trkpt lat="47.28115" lon="3.92044">
        <ele>462.1</ele>
        <time>2024-09-02T07:38:46.500Z</time>
      </trkpt>
      <trkpt lat="47.28119" lon="3.92042">
        <ele>461.5</ele>
        <time>2024-09-02T07:38:51Z</time>
      </trkpt>
      <trkpt lat="47.28124" lon="3.9204">
        <ele>460.8</ele>
        <time>2024-09-02T07:38:56.000Z</time>
      </trkpt>
      <trkpt lat="47.28128" lon="3.92037">
        <ele>460.1</ele>
        <time>2024-09-02T07:39:01Z</time>
      </trkpt>
      <trkpt lat="47.28133" lon="3.92035">
        <ele>459.5</ele>
        <time>2024-09-02T07:39:06.000Z</time>
      </trkpt>
      <trkpt lat="47.28138" lon="3.92033">
        <ele>458.8</ele>
        <time>2024-09-02T07:39:11Z</time>
      </trkpt>
      <trkpt lat="47.28146" lon="3.92028">
        <ele>457.5</ele>
        <time>2024-09-02T07:39:21Z</time>
      </trkpt>
      <trkpt lat="47.28151" lon="3.92026">
        <ele>456.8</ele>
        <time>2024-09-02T07:39:26.000Z</time>
      </trkpt>
      <trkpt lat="47.28156" lon="3.92024">
        <ele>456.1</ele>
        <time>2024-09-02T07:39:31Z</time>
      </trkpt>
      <trkpt lat="47.28161" lon="3.92022">
        <ele>455.3</ele>
        <time>2024-09-02T07:39:36.000Z</time>
      </trkpt>
      <trkpt lat="47.28165" lon="3.92019">
        <ele>454.5</ele>
        <time>2024-09-02T07:39:41Z</time>
      </trkpt>
      <trkpt lat="47.2817" lon="3.92017">
        <ele>453.9</ele>
        <time>2024-09-02T07:39:46.500Z</time>
      </trkpt>
      <trkpt lat="47.28174" lon="3.92015">
        <ele>453.2</ele>
        <time>2024-09-02T07:39:52Z</time>
      </trkpt>
      <trkpt lat="47.28179" lon="3.92013">
        <ele>452.4</ele>
        <time>2024-09-02T07:39:57.000Z</time>
      </trkpt>
      <trkpt lat="47.28184" lon="3.9201">
        <ele>451.6</ele>
        <time>2024-09-02T07:40:02Z</time>
      </trkpt>
      <trkpt lat="47.28189" lon="3.92008">
        <ele>450.9</ele>
        <time>2024-09-02T07:40:07.000Z</time>
      </trkpt>
      <trkpt lat="47.28193" lon="3.92006">
        <ele>450.2</ele>
        <time>2024-09-02T07:40:12Z</time>
      </trkpt>
      <trkpt lat="47.28201" lon="3.92002">
        <ele>449.1</ele>
        <time>2024-09-02T07:40:21Z</time>
      </trkpt>
      <trkpt lat="47.28206" lon="3.92">
        <ele>448.6</ele>
        <time>2024-09-02T07:40:26.000Z</time>
      </trkpt>
      <trkpt lat="47.2821" lon="3.91998">
        <ele>448.1</ele>
        <time>2024-09-02T07:40:31Z</time>
      </trkpt>
      <trkpt lat="47.28215" lon="3.91996">
        <ele>447.5</ele>
        <time>2024-09-02T07:40:35.500Z</time>
      </trkpt>
      <trkpt lat="47.28219" lon="3.91993">
        <ele>446.9</ele>
        <time>2024-09-02T07:40:40Z</time>
      </trkpt>
      <trkpt lat="47.28224" lon="3.91991">
        <ele>446.3</ele>
        <time>2024-09-02T07:40:44.500Z</time>
      </trkpt>
      <trkpt lat="47.28228" lon="3.91989">
        <ele>445.8</ele>
        <time>2024-09-02T07:40:49Z</time>
      </trkpt>
      <trkpt lat="47.28236" lon="3.91985">
        <ele>444.8</ele>
        <time>2024-09-02T07:40:58Z</time>
      </trkpt>
      <trkpt lat="47.28244" lon="3.91979">
        <ele>443.4</ele>
        <time>2024-09-02T07:41:09Z</time>
      </trkpt>
      <trkpt lat="47.28249" lon="3.91976">
        <ele>442.6</ele>
        <time>2024-09-02T07:41:14.000Z</time>
      </trkpt>
      <trkpt lat="47.28253" lon="3.91972">
        <ele>442</ele>
        <time>2024-09-02T07:41:19Z</time>
      </trkpt>
      <trkpt lat="47.28258" lon="3.91966">
        <ele>440.8</ele>
        <time>2024-09-02T07:41:24.500Z</time>
      </trkpt>
      <trkpt lat="47.28262" lon="3.9196">
        <ele>439.6</ele>
        <time>2024-09-02T07:41:30Z</time>
      </trkpt>
      <trkpt lat="47.28267" lon="3.91955">
        <ele>438.5</ele>
        <time>2024-09-02T07:41:36.500Z</time>
      </trkpt>
      <trkpt lat="47.28271" lon="3.9195">
        <ele>437.4</ele>
        <time>2024-09-02T07:41:43Z</time>
      </trkpt>
      <trkpt lat="47.28276" lon="3.91946">
        <ele>436.4</ele>
        <time>2024-09-02T07:41:48.000Z</time>
      </trkpt>
      <trkpt lat="47.2828" lon="3.91942">
        <ele>435.6</ele>
        <time>2024-09-02T07:41:53Z</time>
      </trkpt>
      <trkpt lat="47.28285" lon="3.91938">
        <ele>435</ele>
        <time>2024-09-02T07:41:58.500Z</time>
      </trkpt>
      <trkpt lat="47.28289" lon="3.91933">
        <ele>434.3</ele>
        <time>2024-09-02T07:42:04Z</time>
      </trkpt>
      <trkpt lat="47.28294" lon="3.91929">
        <ele>433.7</ele>
        <time>2024-09-02T07:42:10.000Z</time>
      </trkpt>
      <trkpt lat="47.28299" lon="3.91924">
        <ele>433.1</ele>
        <time>2024-09-02T07:42:16Z</time>
      </trkpt>
      <trkpt lat="47.28305" lon="3.91922">
        <ele>432.8</ele>
        <time>2024-09-02T07:42:21.500Z</time>
      </trkpt>
      <trkpt lat="47.2831" lon="3.91919">
        <ele>432.6</ele>
        <time>2024-09-02T07:42:27Z</time>
      </trkpt>
      <trkpt lat="47.28317" lon="3.91915">
        <ele>432.2</ele>
        <time>2024-09-02T07:42:32.500Z</time>
      </trkpt>
      <trkpt lat="47.28324" lon="3.91911">
        <ele>431.8</ele>
        <time>2024-09-02T07:42:38Z</time>
      </trkpt>
      <trkpt lat="47.2833" lon="3.91908">
        <ele>431.6</ele>
        <time>2024-09-02T07:42:43.000Z</time>
      </trkpt>
      <trkpt lat="47.28336" lon="3.91904">
        <ele>431.3</ele>
        <time>2024-09-02T07:42:48Z</time>
      </trkpt>
      <trkpt lat="47.28344" lon="3.91898">
        <ele>430.7</ele>
        <time>2024-09-02T07:43:10Z</time>
      </trkpt>
      <trkpt lat="47.28351" lon="3.91893">
        <ele>430.2</ele>
        <time>2024-09-02T07:43:24Z</time>
      </trkpt>
      <trkpt lat="47.28358" lon="3.91893">
        <ele>430.5</ele>
        <time>2024-09-02T07:43:42Z</time>
      </trkpt>
      <trkpt lat="47.28363" lon="3.91891">
        <ele>430.3</ele>
        <time>2024-09-02T07:43:50.500Z</time>
      </trkpt>
      <trkpt lat="47.28367" lon="3.91889">
        <ele>429.8</ele>
        <time>2024-09-02T07:43:59Z</time>
      </trkpt>
      <trkpt lat="47.28372" lon="3.91889">
        <ele>429.6</ele>
        <time>2024-09-02T07:44:03.000Z</time>
      </trkpt>
      <trkpt lat="47.28377" lon="3.91888">
        <ele>429.3</ele>
        <time>2024-09-02T07:44:07Z</time>
      </trkpt>
      <trkpt lat="47.28382" lon="3.91888">
        <ele>429.1</ele>
        <time>2024-09-02T07:44:11.000Z</time>
      </trkpt>
      <trkpt lat="47.28387" lon="3.91888">
        <ele>428.9</ele>
        <time>2024-09-02T07:44:15Z</time>
      </trkpt>
      <trkpt lat="47.28392" lon="3.91888">
        <ele>428.8</ele>
        <time>2024-09-02T07:44:19.000Z</time>
      </trkpt>
      <trkpt lat="47.28396" lon="3.91888">
        <ele>428.6</ele>
        <time>2024-09-02T07:44:23Z</time>
      </trkpt>
      <trkpt lat="47.28401" lon="3.91888">
        <ele>428.4</ele>
        <time>2024-09-02T07:44:29.500Z</time>
      </trkpt>
      <trkpt lat="47.28406" lon="3.91887">
        <ele>428.2</ele>
        <time>2024-09-02T07:44:36Z</time>
      </trkpt>
      <trkpt lat="47.28411" lon="3.91887">
        <ele>428</ele>
        <time>2024-09-02T07:44:39.500Z</time>
      </trkpt>
      <trkpt lat="47.28415" lon="3.91887">
        <ele>427.9</ele>
        <time>2024-09-02T07:44:43Z</time>
      </trkpt>
      <trkpt lat="47.2842" lon="3.91886">
        <ele>427.7</ele>
        <time>2024-09-02T07:44:47.000Z</time>
      </trkpt>
      <trkpt lat="47.28424" lon="3.91885">
        <ele>427.6</ele>
        <time>2024-09-02T07:44:51Z</time>
      </trkpt>
      <trkpt lat="47.28429" lon="3.91884">
        <ele>427.5</ele>
        <time>2024-09-02T07:44:55.000Z</time>
      </trkpt>
      <trkpt lat="47.28433" lon="3.91883">
        <ele>427.4</ele>
        <time>2024-09-02T07:44:59Z</time>
      </trkpt>
      <trkpt lat="47.28441" lon="3.91879">
        <ele>426.9</ele>
        <time>2024-09-02T07:45:08Z</time>
      </trkpt>
      <trkpt lat="47.28447" lon="3.91879">
        <ele>426.8</ele>
        <time>2024-09-02T07:45:13.000Z</time>
      </trkpt>
      <trkpt lat="47.28453" lon="3.91879">
        <ele>426.5</ele>
        <time>2024-09-02T07:45:18Z</time>
      </trkpt>
      <trkpt lat="47.28459" lon="3.91879">
        <ele>426.2</ele>
        <time>2024-09-02T07:45:23.000Z</time>
      </trkpt>
      <trkpt lat="47.28464" lon="3.91878">
        <ele>425.8</ele>
        <time>2024-09-02T07:45:28Z</time>
      </trkpt>
      <trkpt lat="47.2847" lon="3.91877">
        <ele>425.4</ele>
        <time>2024-09-02T07:45:33.500Z</time>
      </trkpt>
      <trkpt lat="47.28475" lon="3.91875">
        <ele>424.7</ele>
        <time>2024-09-02T07:45:39Z</time>
      </trkpt>
      <trkpt lat="47.28481" lon="3.91873">
        <ele>424</ele>
        <time>2024-09-02T07:45:44.000Z</time>
      </trkpt>
      <trkpt lat="47.28486" lon="3.91871">
        <ele>423.3</ele>
        <time>2024-09-02T07:45:49Z</time>
      </trkpt>
      <trkpt lat="47.28491" lon="3.9187">
        <ele>422.7</ele>
        <time>2024-09-02T07:45:55.500Z</time>
      </trkpt>
      <trkpt lat="47.28495" lon="3.91868">
        <ele>422.1</ele>
        <time>2024-09-02T07:46:02Z</time>
      </trkpt>
      <trkpt lat="47.285" lon="3.91867">
        <ele>421.6</ele>
        <time>2024-09-02T07:46:24.000Z</time>
      </trkpt>
      <trkpt lat="47.28504" lon="3.91865">
        <ele>421.1</ele>
        <time>2024-09-02T07:46:46Z</time>
      </trkpt>
      <trkpt lat="47.28509" lon="3.91863">
        <ele>420.5</ele>
        <time>2024-09-02T07:46:51.500Z</time>
      </trkpt>
      <trkpt lat="47.28513" lon="3.9186">
        <ele>419.9</ele>
        <time>2024-09-02T07:46:57Z</time>
      </trkpt>
      <trkpt lat="47.28519" lon="3.91855">
        <ele>418.9</ele>
        <time>2024-09-02T07:47:07Z</time>
      </trkpt>
      <trkpt lat="47.28524" lon="3.91854">
        <ele>418.4</ele>
        <time>2024-09-02T07:47:12.500Z</time>
      </trkpt>
      <trkpt lat="47.28528" lon="3.91852">
        <ele>418</ele>
        <time>2024-09-02T07:47:18Z</time>
      </trkpt>
      <trkpt lat="47.28534" lon="3.9185">
        <ele>417.5</ele>
        <time>2024-09-02T07:47:23.000Z</time>
      </trkpt>
      <trkpt lat="47.28539" lon="3.91848">
        <ele>417</ele>
        <time>2024-09-02T07:47:28Z</time>
      </trkpt>
      <trkpt lat="47.28544" lon="3.91845">
        <ele>416.4</ele>
        <time>2024-09-02T07:47:32.500Z</time>
      </trkpt>
      <trkpt lat="47.28549" lon="3.91842">
        <ele>415.9</ele>
        <time>2024-09-02T07:47:37Z</time>
      </trkpt>
      <trkpt lat="47.28555" lon="3.9184">
        <ele>415.5</ele>
        <time>2024-09-02T07:47:41.500Z</time>
      </trkpt>
      <trkpt lat="47.2856" lon="3.91837">
        <ele>415</ele>
        <time>2024-09-02T07:47:46Z</time>
      </trkpt>
      <trkpt lat="47.28565" lon="3.91836">
        <ele>414.5</ele>
        <time>2024-09-02T07:47:50.500Z</time>
      </trkpt>
      <trkpt lat="47.28569" lon="3.91834">
        <ele>414.1</ele>
        <time>2024-09-02T07:47:55Z</time>
      </trkpt>
      <trkpt lat="47.28574" lon="3.91833">
        <ele>413.6</ele>
        <time>2024-09-02T07:47:59.500Z</time>
      </trkpt>
      <trkpt lat="47.28579" lon="3.91831">
        <ele>413.1</ele>
        <time>2024-09-02T07:48:04Z</time>
      </trkpt>
      <trkpt lat="47.28584" lon="3.9183">
        <ele>412.6</ele>
        <time>2024-09-02T07:48:08.000Z</time>
      </trkpt>
      <trkpt lat="47.28588" lon="3.91829">
        <ele>412.5</ele>
        <time>2024-09-02T07:48:12Z</time>
      </trkpt>
      <trkpt lat="47.28593" lon="3.91828">
        <ele>412.4</ele>
        <time>2024-09-02T07:48:16.000Z</time>
      </trkpt>
      <trkpt lat="47.28597" lon="3.91827">
        <ele>412.3</ele>
        <time>2024-09-02T07:48:20Z</time>
      </trkpt>
      <trkpt lat="47.28602" lon="3.91825">
        <ele>412.1</ele>
        <time>2024-09-02T07:48:24.500Z</time>
      </trkpt>
      <trkpt lat="47.28606" lon="3.91823">
        <ele>411.9</ele>
        <time>2024-09-02T07:48:29Z</time>
      </trkpt>
      <trkpt lat="47.28614" lon="3.9182">
        <ele>411.6</ele>
        <time>2024-09-02T07:48:38Z</time>
      </trkpt>
      <trkpt lat="47.2862" lon="3.91819">
        <ele>411.4</ele>
        <time>2024-09-02T07:48:42.500Z</time>
      </trkpt>
      <trkpt lat="47.28625" lon="3.91817">
        <ele>411.2</ele>
        <time>2024-09-02T07:48:47Z</time>
      </trkpt>
      <trkpt lat="47.2863" lon="3.91815">
        <ele>411</ele>
        <time>2024-09-02T07:48:51.500Z</time>
      </trkpt>
      <trkpt lat="47.28634" lon="3.91812">
        <ele>410.7</ele>
        <time>2024-09-02T07:48:56Z</time>
      </trkpt>
      <trkpt lat="47.28639" lon="3.9181">
        <ele>410.4</ele>
        <time>2024-09-02T07:49:01.000Z</time>
      </trkpt>
      <trkpt lat="47.28644" lon="3.91807">
        <ele>410.3</ele>
        <time>2024-09-02T07:49:06Z</time>
      </trkpt>
      <trkpt lat="47.28649" lon="3.91804">
        <ele>410.3</ele>
        <time>2024-09-02T07:49:10.500Z</time>
      </trkpt>
      <trkpt lat="47.28653" lon="3.91801">
        <ele>410.3</ele>
        <time>2024-09-02T07:49:15Z</time>
      </trkpt>
      <trkpt lat="47.28658" lon="3.91799">
        <ele>410.2</ele>
        <time>2024-09-02T07:49:19.500Z</time>
      </trkpt>
      <trkpt lat="47.28662" lon="3.91796">
        <ele>410.2</ele>
        <time>2024-09-02T07:49:24Z</time>
      </trkpt>
      <trkpt lat="47.28666" lon="3.91793">
        <ele>410</ele>
        <time>2024-09-02T07:49:28.500Z</time>
      </trkpt>
      <trkpt lat="47.2867" lon="3.91789">
        <ele>409.9</ele>
        <time>2024-09-02T07:49:33Z</time>
      </trkpt>
      <trkpt lat="47.28675" lon="3.91787">
        <ele>409.9</ele>
        <time>2024-09-02T07:49:39.000Z</time>
      </trkpt>
      <trkpt lat="47.28679" lon="3.91785">
        <ele>410</ele>
        <time>2024-09-02T07:49:45Z</time>
      </trkpt>
      <trkpt lat="47.28681" lon="3.91792">
        <ele>410.5</ele>
        <time>2024-09-02T07:50:05Z</time>
      </trkpt>
      <trkpt lat="47.28685" lon="3.91789">
        <ele>410.5</ele>
        <time>2024-09-02T07:50:43Z</time>
      </trkpt>
      <trkpt lat="47.28693" lon="3.91784">
        <ele>410.4</ele>
        <time>2024-09-02T07:50:54Z</time>
      </trkpt>
      <trkpt lat="47.28698" lon="3.91786">
        <ele>410.7</ele>
        <time>2024-09-02T07:50:59.500Z</time>
      </trkpt>
      <trkpt lat="47.28702" lon="3.91787">
        <ele>410.9</ele>
        <time>2024-09-02T07:51:05Z</time>
      </trkpt>
      <trkpt lat="47.28706" lon="3.91791">
        <ele>411.3</ele>
        <time>2024-09-02T07:51:10.500Z</time>
      </trkpt>
      <trkpt lat="47.2871" lon="3.91794">
        <ele>411.7</ele>
        <time>2024-09-02T07:51:16Z</time>
      </trkpt>
      <trkpt lat="47.28715" lon="3.91798">
        <ele>412.2</ele>
        <time>2024-09-02T07:51:22.000Z</time>
      </trkpt>
      <trkpt lat="47.28719" lon="3.91802">
        <ele>412.6</ele>
        <time>2024-09-02T07:51:28Z</time>
      </trkpt>
      <trkpt lat="47.28724" lon="3.91808">
        <ele>413.1</ele>
        <time>2024-09-02T07:52:04Z</time>
      </trkpt>
      <trkpt lat="47.28726" lon="3.91805">
        <ele>413</ele>
        <time>2024-09-02T07:53:44Z</time>
      </trkpt>
      <trkpt lat="47.28726" lon="3.91808">
        <ele>413.1</ele>
        <time>2024-09-02T07:54:55Z</time>
      </trkpt>
      <trkpt lat="47.28722" lon="3.91819">
        <ele>413.5</ele>
        <time>2024-09-02T07:55:11Z</time>
      </trkpt>
      <trkpt lat="47.28723" lon="3.91826">
        <ele>413.7</ele>
        <time>2024-09-02T07:55:16.000Z</time>
      </trkpt>
      <trkpt lat="47.28723" lon="3.91833">
        <ele>414</ele>
        <time>2024-09-02T07:55:21Z</time>
      </trkpt>
      <trkpt lat="47.28727" lon="3.91843">
        <ele>414.3</ele>
        <time>2024-09-02T07:55:42Z</time>
      </trkpt>
      <trkpt lat="47.28726" lon="3.91853">
        <ele>414.7</ele>
        <time>2024-09-02T07:55:46.499Z</time>
      </trkpt>
      <trkpt lat="47.28724" lon="3.91862">
        <ele>414.9</ele>
        <time>2024-09-02T07:55:51Z</time>
      </trkpt>
      <trkpt lat="47.28725" lon="3.91869">
        <ele>414.5</ele>
        <time>2024-09-02T07:55:55.500Z</time>
      </trkpt>
      <trkpt lat="47.28725" lon="3.91876">
        <ele>414</ele>
        <time>2024-09-02T07:56:00Z</time>
      </trkpt>
      <trkpt lat="47.28728" lon="3.91882">
        <ele>413.6</ele>
        <time>2024-09-02T07:56:04.500Z</time>
      </trkpt>
      <trkpt lat="47.2873" lon="3.91888">
        <ele>413.3</ele>
        <time>2024-09-02T07:56:09Z</time>
      </trkpt>
      <trkpt lat="47.28734" lon="3.91894">
        <ele>413.1</ele>
        <time>2024-09-02T07:56:13.500Z</time>
      </trkpt>
      <trkpt lat="47.28737" lon="3.91899">
        <ele>412.8</ele>
        <time>2024-09-02T07:56:18Z</time>
      </trkpt>
      <trkpt lat="47.28741" lon="3.91906">
        <ele>412.1</ele>
        <time>2024-09-02T07:56:22.500Z</time>
      </trkpt>
      <trkpt lat="47.28745" lon="3.91912">
        <ele>411.1</ele>
        <time>2024-09-02T07:56:27Z</time>
      </trkpt>
      <trkpt lat="47.28747" lon="3.9192">
        <ele>409.9</ele>
        <time>2024-09-02T07:56:31.500Z</time>
      </trkpt>
      <trkpt lat="47.28749" lon="3.91927">
        <ele>408.7</ele>
        <time>2024-09-02T07:56:36Z</time>
      </trkpt>
      <trkpt lat="47.2875" lon="3.91935">
        <ele>407.4</ele>
        <time>2024-09-02T07:56:40.000Z</time>
      </trkpt>
      <trkpt lat="47.28751" lon="3.91942">
        <ele>406.1</ele>
        <time>2024-09-02T07:56:44Z</time>
      </trkpt>
      <trkpt lat="47.2875" lon="3.91951">
        <ele>405.1</ele>
        <time>2024-09-02T07:56:48.999Z</time>
      </trkpt>
      <trkpt lat="47.28749" lon="3.9196">
        <ele>404</ele>
        <time>2024-09-02T07:56:54Z</time>
      </trkpt>
      <trkpt lat="47.28747" lon="3.91968">
        <ele>403.5</ele>
        <time>2024-09-02T07:56:59.499Z</time>
      </trkpt>
      <trkpt lat="47.28745" lon="3.91975">
        <ele>403</ele>
        <time>2024-09-02T07:57:05Z</time>
      </trkpt>
      <trkpt lat="47.28741" lon="3.91986">
        <ele>402.5</ele>
        <time>2024-09-02T07:57:09.999Z</time>
      </trkpt>
      <trkpt lat="47.28737" lon="3.91996">
        <ele>402.3</ele>
        <time>2024-09-02T07:57:15Z</time>
      </trkpt>
      <trkpt lat="47.28735" lon="3.92004">
        <ele>402.1</ele>
        <time>2024-09-02T07:57:18.999Z</time>
      </trkpt>
      <trkpt lat="47.28732" lon="3.92012">
        <ele>402</ele>
        <time>2024-09-02T07:57:23Z</time>
      </trkpt>
      <trkpt lat="47.2873" lon="3.92019">
        <ele>402</ele>
        <time>2024-09-02T07:57:26.999Z</time>
      </trkpt>
      <trkpt lat="47.28728" lon="3.92026">
        <ele>401.9</ele>
        <time>2024-09-02T07:57:31Z</time>
      </trkpt>
      <trkpt lat="47.28727" lon="3.92033">
        <ele>401.6</ele>
        <time>2024-09-02T07:57:34.999Z</time>
      </trkpt>
      <trkpt lat="47.28726" lon="3.92039">
        <ele>401.3</ele>
        <time>2024-09-02T07:57:39Z</time>
      </trkpt>
      <trkpt lat="47.28726" lon="3.92046">
        <ele>400.7</ele>
        <time>2024-09-02T07:57:42.999Z</time>
      </trkpt>
      <trkpt lat="47.28725" lon="3.92053">
        <ele>400.2</ele>
        <time>2024-09-02T07:57:47Z</time>
      </trkpt>
      <trkpt lat="47.28726" lon="3.9206">
        <ele>399.4</ele>
        <time>2024-09-02T07:57:51.000Z</time>
      </trkpt>
      <trkpt lat="47.28727" lon="3.92066">
        <ele>398.7</ele>
        <time>2024-09-02T07:57:55Z</time>
      </trkpt>
      <trkpt lat="47.28728" lon="3.92073">
        <ele>398.1</ele>
        <time>2024-09-02T07:57:59.000Z</time>
      </trkpt>
      <trkpt lat="47.28729" lon="3.9208">
        <ele>397.4</ele>
        <time>2024-09-02T07:58:03Z</time>
      </trkpt>
      <trkpt lat="47.2873" lon="3.92088">
        <ele>397</ele>
        <time>2024-09-02T07:58:07.500Z</time>
      </trkpt>
      <trkpt lat="47.28731" lon="3.92095">
        <ele>396.7</ele>
        <time>2024-09-02T07:58:12Z</time>
      </trkpt>
      <trkpt lat="47.28733" lon="3.92103">
        <ele>396</ele>
        <time>2024-09-02T07:58:16.500Z</time>
      </trkpt>
      <trkpt lat="47.28735" lon="3.9211">
        <ele>395.4</ele>
        <time>2024-09-02T07:58:21Z</time>
      </trkpt>
      <trkpt lat="47.28737" lon="3.92117">
        <ele>394.9</ele>
        <time>2024-09-02T07:58:25.000Z</time>
      </trkpt>
      <trkpt lat="47.28738" lon="3.92124">
        <ele>394.4</ele>
        <time>2024-09-02T07:58:29Z</time>
      </trkpt>
      <trkpt lat="47.28739" lon="3.92132">
        <ele>394.1</ele>
        <time>2024-09-02T07:58:33.500Z</time>
      </trkpt>
      <trkpt lat="47.2874" lon="3.92139">
        <ele>393.9</ele>
        <time>2024-09-02T07:58:38Z</time>
      </trkpt>
      <trkpt lat="47.28741" lon="3.92147">
        <ele>393.8</ele>
        <time>2024-09-02T07:58:42.500Z</time>
      </trkpt>
      <trkpt lat="47.28741" lon="3.92154">
        <ele>393.8</ele>
        <time>2024-09-02T07:58:47Z</time>
      </trkpt>
      <trkpt lat="47.28742" lon="3.92162">
        <ele>393.8</ele>
        <time>2024-09-02T07:58:51.500Z</time>
      </trkpt>
      <trkpt lat="47.28742" lon="3.9217">
        <ele>393.8</ele>
        <time>2024-09-02T07:58:56Z</time>
      </trkpt>
      <trkpt lat="47.28746" lon="3.92176">
        <ele>393.2</ele>
        <time>2024-09-02T07:59:02.500Z</time>
      </trkpt>
      <trkpt lat="47.2875" lon="3.92182">
        <ele>392.6</ele>
        <time>2024-09-02T07:59:09Z</time>
      </trkpt>
      <trkpt lat="47.28752" lon="3.92188">
        <ele>392.6</ele>
        <time>2024-09-02T07:59:14.500Z</time>
      </trkpt>
      <trkpt lat="47.28754" lon="3.92194">
        <ele>392.7</ele>
        <time>2024-09-02T07:59:20Z</time>
      </trkpt>
      <trkpt lat="47.2876" lon="3.92201">
        <ele>392.7</ele>
        <time>2024-09-02T07:59:29Z</time>
      </trkpt>
      <trkpt lat="47.28767" lon="3.92206">
        <ele>392.7</ele>
        <time>2024-09-02T07:59:38Z</time>
      </trkpt>
      <trkpt lat="47.28772" lon="3.9221">
        <ele>392.9</ele>
        <time>2024-09-02T08:00:00Z</time>
      </trkpt>
      <trkpt lat="47.28777" lon="3.92207">
        <ele>392.4</ele>
        <time>2024-09-02T08:00:05.500Z</time>
      </trkpt>
      <trkpt lat="47.28781" lon="3.92204">
        <ele>392.6</ele>
        <time>2024-09-02T08:00:11Z</time>
      </trkpt>
      <trkpt lat="47.28789" lon="3.92199">
        <ele>393.8</ele>
        <time>2024-09-02T08:00:20Z</time>
      </trkpt>
      <trkpt lat="47.28794" lon="3.92189">
        <ele>394.6</ele>
        <time>2024-09-02T08:00:30Z</time>
      </trkpt>
      <trkpt lat="47.28797" lon="3.92183">
        <ele>395.4</ele>
        <time>2024-09-02T08:00:35.500Z</time>
      </trkpt>
      <trkpt lat="47.288" lon="3.92177">
        <ele>396.3</ele>
        <time>2024-09-02T08:00:41Z</time>
      </trkpt>
      <trkpt lat="47.28802" lon="3.92168">
        <ele>397.1</ele>
        <time>2024-09-02T08:01:07Z</time>
      </trkpt>
      <trkpt lat="47.288" lon="3.92157">
        <ele>396.9</ele>
        <time>2024-09-02T08:01:17Z</time>
      </trkpt>
      <trkpt lat="47.288" lon="3.92145">
        <ele>397.2</ele>
        <time>2024-09-02T08:01:31Z</time>
      </trkpt>
      <trkpt lat="47.28799" lon="3.92139">
        <ele>397</ele>
        <time>2024-09-02T08:01:37.499Z</time>
      </trkpt>
      <trkpt lat="47.28797" lon="3.92132">
        <ele>396.6</ele>
        <time>2024-09-02T08:01:44Z</time>
      </trkpt>
      <trkpt lat="47.28799" lon="3.92121">
        <ele>397.5</ele>
        <time>2024-09-02T08:01:58Z</time>
      </trkpt>
      <trkpt lat="47.288" lon="3.92122">
        <ele>397.8</ele>
        <time>2024-09-02T08:02:26Z</time>
      </trkpt>
      <trkpt lat="47.28801" lon="3.92112">
        <ele>398.3</ele>
        <time>2024-09-02T08:02:51Z</time>
      </trkpt>
      <trkpt lat="47.28802" lon="3.92106">
        <ele>398.7</ele>
        <time>2024-09-02T08:02:57.500Z</time>
      </trkpt>
      <trkpt lat="47.28803" lon="3.92099">
        <ele>399</ele>
        <time>2024-09-02T08:03:04Z</time>
      </trkpt>
      <trkpt lat="47.28804" lon="3.9209">
        <ele>399.4</ele>
        <time>2024-09-02T08:03:27Z</time>
      </trkpt>
      <trkpt lat="47.28808" lon="3.92085">
        <ele>400.5</ele>
        <time>2024-09-02T08:03:32.500Z</time>
      </trkpt>
      <trkpt lat="47.28812" lon="3.9208">
        <ele>400.6</ele>
        <time>2024-09-02T08:03:38Z</time>
      </trkpt>
      <trkpt lat="47.28817" lon="3.92075">
        <ele>400.8</ele>
        <time>2024-09-02T08:03:43.000Z</time>
      </trkpt>
      <trkpt lat="47.28822" lon="3.9207">
        <ele>401.1</ele>
        <time>2024-09-02T08:03:48Z</time>
      </trkpt>
      <trkpt lat="47.28827" lon="3.92066">
        <ele>401.6</ele>
        <time>2024-09-02T08:03:53.000Z</time>
      </trkpt>
      <trkpt lat="47.28831" lon="3.92062">
        <ele>402.1</ele>
        <time>2024-09-02T08:03:58Z</time>
      </trkpt>
      <trkpt lat="47.28836" lon="3.92058">
        <ele>402.7</ele>
        <time>2024-09-02T08:04:02.500Z</time>
      </trkpt>
      <trkpt lat="47.2884" lon="3.92054">
        <ele>402.8</ele>
        <time>2024-09-02T08:04:07Z</time>
      </trkpt>
      <trkpt lat="47.28845" lon="3.92051">
        <ele>403</ele>
        <time>2024-09-02T08:04:12.000Z</time>
      </trkpt>
      <trkpt lat="47.2885" lon="3.92047">
        <ele>403.2</ele>
        <time>2024-09-02T08:04:17Z</time>
      </trkpt>
      <trkpt lat="47.28858" lon="3.92043">
        <ele>404.1</ele>
        <time>2024-09-02T08:04:26Z</time>
      </trkpt>
      <trkpt lat="47.28863" lon="3.92041">
        <ele>404.6</ele>
        <time>2024-09-02T08:04:30.500Z</time>
      </trkpt>
      <trkpt lat="47.28867" lon="3.92039">
        <ele>405</ele>
        <time>2024-09-02T08:04:35Z</time>
      </trkpt>
      <trkpt lat="47.28872" lon="3.92038">
        <ele>405.6</ele>
        <time>2024-09-02T08:04:40.000Z</time>
      </trkpt>
      <trkpt lat="47.28877" lon="3.92037">
        <ele>406.1</ele>
        <time>2024-09-02T08:04:45Z</time>
      </trkpt>
      <trkpt lat="47.28885" lon="3.92034">
        <ele>406.8</ele>
        <time>2024-09-02T08:05:09Z</time>
      </trkpt>
      <trkpt lat="47.28893" lon="3.92032">
        <ele>407.5</ele>
        <time>2024-09-02T08:05:24Z</time>
      </trkpt>
      <trkpt lat="47.28898" lon="3.92032">
        <ele>408.2</ele>
        <time>2024-09-02T08:05:31.500Z</time>
      </trkpt>
      <trkpt lat="47.28903" lon="3.92032">
        <ele>408.9</ele>
        <time>2024-09-02T08:05:39Z</time>
      </trkpt>
      <trkpt lat="47.28908" lon="3.92033">
        <ele>409.8</ele>
        <time>2024-09-02T08:05:45.500Z</time>
      </trkpt>
      <trkpt lat="47.28913" lon="3.92033">
        <ele>410.6</ele>
        <time>2024-09-02T08:05:52Z</time>
      </trkpt>
      <trkpt lat="47.28919" lon="3.92032">
        <ele>411.2</ele>
        <time>2024-09-02T08:06:00.000Z</time>
      </trkpt>
      <trkpt lat="47.28924" lon="3.92031">
        <ele>411.8</ele>
        <time>2024-09-02T08:06:08Z</time>
      </trkpt>
      <trkpt lat="47.28929" lon="3.9203">
        <ele>412.1</ele>
        <time>2024-09-02T08:06:15.500Z</time>
      </trkpt>
      <trkpt lat="47.28934" lon="3.92028">
        <ele>412.5</ele>
        <time>2024-09-02T08:06:23Z</time>
      </trkpt>
      <trkpt lat="47.2894" lon="3.92027">
        <ele>413.2</ele>
        <time>2024-09-02T08:06:29.000Z</time>
      </trkpt>
      <trkpt lat="47.28946" lon="3.92026">
        <ele>413.9</ele>
        <time>2024-09-02T08:06:35Z</time>
      </trkpt>
      <trkpt lat="47.28951" lon="3.92026">
        <ele>414.5</ele>
        <time>2024-09-02T08:06:41.000Z</time>
      </trkpt>
      <trkpt lat="47.28956" lon="3.92025">
        <ele>415.2</ele>
        <time>2024-09-02T08:06:47Z</time>
      </trkpt>
      <trkpt lat="47.28962" lon="3.92026">
        <ele>416</ele>
        <time>2024-09-02T08:06:53.500Z</time>
      </trkpt>
      <trkpt lat="47.28967" lon="3.92026">
        <ele>416.9</ele>
        <time>2024-09-02T08:07:00Z</time>
      </trkpt>
      <trkpt lat="47.28973" lon="3.92027">
        <ele>417.9</ele>
        <time>2024-09-02T08:07:07.000Z</time>
      </trkpt>
      <trkpt lat="47.28979" lon="3.92028">
        <ele>418.3</ele>
        <time>2024-09-02T08:07:14Z</time>
      </trkpt>
      <trkpt lat="47.28983" lon="3.92033">
        <ele>419.2</ele>
        <time>2024-09-02T08:07:22.000Z</time>
      </trkpt>
      <trkpt lat="47.28987" lon="3.92038">
        <ele>420.2</ele>
        <time>2024-09-02T08:07:30Z</time>
      </trkpt>
      <trkpt lat="47.2899" lon="3.92048">
        <ele>421.9</ele>
        <time>2024-09-02T08:07:39.000Z</time>
      </trkpt>
      <trkpt lat="47.28992" lon="3.92057">
        <ele>423.6</ele>
        <time>2024-09-02T08:07:48Z</time>
      </trkpt>
      <trkpt lat="47.28992" lon="3.92065">
        <ele>424.5</ele>
        <time>2024-09-02T08:07:56.000Z</time>
      </trkpt>
      <trkpt lat="47.28992" lon="3.92072">
        <ele>425.4</ele>
        <time>2024-09-02T08:08:04Z</time>
      </trkpt>
      <trkpt lat="47.28991" lon="3.92081">
        <ele>426.3</ele>
        <time>2024-09-02T08:08:11.999Z</time>
      </trkpt>
      <trkpt lat="47.28989" lon="3.92089">
        <ele>427.2</ele>
        <time>2024-09-02T08:08:20Z</time>
      </trkpt>
      <trkpt lat="47.28986" lon="3.92099">
        <ele>428.1</ele>
        <time>2024-09-02T08:08:28.999Z</time>
      </trkpt>
      <trkpt lat="47.28982" lon="3.92108">
        <ele>429</ele>
        <time>2024-09-02T08:08:38Z</time>
      </trkpt>
      <trkpt lat="47.28981" lon="3.92116">
        <ele>429.8</ele>
        <time>2024-09-02T08:08:46.999Z</time>
      </trkpt>
      <trkpt lat="47.2898" lon="3.92124">
        <ele>430.5</ele>
        <time>2024-09-02T08:08:56Z</time>
      </trkpt>
      <trkpt lat="47.28978" lon="3.92135">
        <ele>431.6</ele>
        <time>2024-09-02T08:09:02.499Z</time>
      </trkpt>
      <trkpt lat="47.28976" lon="3.92145">
        <ele>432.2</ele>
        <time>2024-09-02T08:09:09Z</time>
      </trkpt>
      <trkpt lat="47.28975" lon="3.92157">
        <ele>432.6</ele>
        <time>2024-09-02T08:09:15.499Z</time>
      </trkpt>
      <trkpt lat="47.28974" lon="3.92168">
        <ele>433</ele>
        <time>2024-09-02T08:09:22Z</time>
      </trkpt>
      <trkpt lat="47.28976" lon="3.92178">
        <ele>433.4</ele>
        <time>2024-09-02T08:09:30.500Z</time>
      </trkpt>
      <trkpt lat="47.28978" lon="3.92188">
        <ele>433.8</ele>
        <time>2024-09-02T08:09:39Z</time>
      </trkpt>
      <trkpt lat="47.2898" lon="3.92197">
        <ele>434</ele>
        <time>2024-09-02T08:09:46.000Z</time>
      </trkpt>
      <trkpt lat="47.28982" lon="3.92205">
        <ele>434.1</ele>
        <time>2024-09-02T08:09:53Z</time>
      </trkpt>
      <trkpt lat="47.28985" lon="3.92213">
        <ele>434.3</ele>
        <time>2024-09-02T08:10:00.000Z</time>
      </trkpt>
      <trkpt lat="47.28987" lon="3.9222">
        <ele>434.5</ele>
        <time>2024-09-02T08:10:07Z</time>
      </trkpt>
      <trkpt lat="47.28991" lon="3.92228">
        <ele>434.7</ele>
        <time>2024-09-02T08:10:14.500Z</time>
      </trkpt>
      <trkpt lat="47.28994" lon="3.92235">
        <ele>434.8</ele>
        <time>2024-09-02T08:10:22Z</time>
      </trkpt>
      <trkpt lat="47.28998" lon="3.92243">
        <ele>434.9</ele>
        <time>2024-09-02T08:10:28.500Z</time>
      </trkpt>
      <trkpt lat="47.29001" lon="3.92251">
        <ele>435</ele>
        <time>2024-09-02T08:10:35Z</time>
      </trkpt>
      <trkpt lat="47.29005" lon="3.92258">
        <ele>435.3</ele>
        <time>2024-09-02T08:10:41.500Z</time>
      </trkpt>
      <trkpt lat="47.29009" lon="3.92265">
        <ele>435.5</ele>
        <time>2024-09-02T08:10:48Z</time>
      </trkpt>
      <trkpt lat="47.29014" lon="3.92275">
        <ele>435.9</ele>
        <time>2024-09-02T08:10:53.000Z</time>
      </trkpt>
      <trkpt lat="47.29018" lon="3.92284">
        <ele>436</ele>
        <time>2024-09-02T08:10:58Z</time>
      </trkpt>
      <trkpt lat="47.29021" lon="3.9229">
        <ele>436</ele>
        <time>2024-09-02T08:11:03.500Z</time>
      </trkpt>
      <trkpt lat="47.29024" lon="3.92296">
        <ele>436</ele>
        <time>2024-09-02T08:11:09Z</time>
      </trkpt>
      <trkpt lat="47.29027" lon="3.92304">
        <ele>436</ele>
        <time>2024-09-02T08:11:16.000Z</time>
      </trkpt>
      <trkpt lat="47.29029" lon="3.92311">
        <ele>436.2</ele>
        <time>2024-09-02T08:11:23Z</time>
      </trkpt>
      <trkpt lat="47.29034" lon="3.92321">
        <ele>436.6</ele>
        <time>2024-09-02T08:11:29.000Z</time>
      </trkpt>
      <trkpt lat="47.29038" lon="3.9233">
        <ele>437.2</ele>
        <time>2024-09-02T08:11:35Z</time>
      </trkpt>
      <trkpt lat="47.29045" lon="3.92333">
        <ele>437.6</ele>
        <time>2024-09-02T08:12:19.250Z</time>
      </trkpt>
      <trkpt lat="47.29052" lon="3.92337">
        <ele>438.1</ele>
        <time>2024-09-02T08:13:03.500Z</time>
      </trkpt>
      <trkpt lat="47.29058" lon="3.9234">
        <ele>438.4</ele>
        <time>2024-09-02T08:13:47.750Z</time>
      </trkpt>
      <trkpt lat="47.29065" lon="3.92343">
        <ele>438.5</ele>
        <time>2024-09-02T08:14:32Z</time>
      </trkpt>
      <trkpt lat="47.29072" lon="3.92346">
        <ele>438.5</ele>
        <time>2024-09-02T08:14:40.000Z</time>
      </trkpt>
      <trkpt lat="47.29079" lon="3.92348">
        <ele>438.7</ele>
        <time>2024-09-02T08:14:48Z</time>
      </trkpt>
      <trkpt lat="47.29086" lon="3.92352">
        <ele>439</ele>
        <time>2024-09-02T08:14:56.500Z</time>
      </trkpt>
      <trkpt lat="47.29092" lon="3.92356">
        <ele>439.6</ele>
        <time>2024-09-02T08:15:05Z</time>
      </trkpt>
      <trkpt lat="47.29097" lon="3.9236">
        <ele>440.3</ele>
        <time>2024-09-02T08:15:14.500Z</time>
      </trkpt>
      <trkpt lat="47.29102" lon="3.92363">
        <ele>440.9</ele>
        <time>2024-09-02T08:15:24Z</time>
      </trkpt>
      <trkpt lat="47.29101" lon="3.92371">
        <ele>442</ele>
        <time>2024-09-02T08:15:31.499Z</time>
      </trkpt>
      <trkpt lat="47.29099" lon="3.92379">
        <ele>443.1</ele>
        <time>2024-09-02T08:15:39Z</time>
      </trkpt>
      <trkpt lat="47.29097" lon="3.92386">
        <ele>444.1</ele>
        <time>2024-09-02T08:15:46.499Z</time>
      </trkpt>
      <trkpt lat="47.29094" lon="3.92393">
        <ele>445</ele>
        <time>2024-09-02T08:15:54Z</time>
      </trkpt>
      <trkpt lat="47.29091" lon="3.92403">
        <ele>446.4</ele>
        <time>2024-09-02T08:16:00.999Z</time>
      </trkpt>
      <trkpt lat="47.29088" lon="3.92413">
        <ele>447.8</ele>
        <time>2024-09-02T08:16:08Z</time>
      </trkpt>
      <trkpt lat="47.29087" lon="3.92422">
        <ele>449.2</ele>
        <time>2024-09-02T08:16:16.499Z</time>
      </trkpt>
      <trkpt lat="47.29085" lon="3.92431">
        <ele>450.7</ele>
        <time>2024-09-02T08:16:25Z</time>
      </trkpt>
      <trkpt lat="47.29086" lon="3.92438">
        <ele>452</ele>
        <time>2024-09-02T08:16:35.500Z</time>
      </trkpt>
      <trkpt lat="47.29087" lon="3.92445">
        <ele>453.3</ele>
        <time>2024-09-02T08:16:46Z</time>
      </trkpt>
      <trkpt lat="47.29085" lon="3.92445">
        <ele>453.2</ele>
        <time>2024-09-02T08:17:04Z</time>
      </trkpt>
      <trkpt lat="47.29086" lon="3.92436">
        <ele>451.7</ele>
        <time>2024-09-02T08:17:27Z</time>
      </trkpt>
      <trkpt lat="47.29088" lon="3.92427">
        <ele>450.2</ele>
        <time>2024-09-02T08:17:32.500Z</time>
      </trkpt>
      <trkpt lat="47.29089" lon="3.92418">
        <ele>448.6</ele>
        <time>2024-09-02T08:17:38Z</time>
      </trkpt>
      <trkpt lat="47.2909" lon="3.92409">
        <ele>447.3</ele>
        <time>2024-09-02T08:17:43.000Z</time>
      </trkpt>
      <trkpt lat="47.29091" lon="3.924">
        <ele>446</ele>
        <time>2024-09-02T08:17:48Z</time>
      </trkpt>
      <trkpt lat="47.29096" lon="3.92389">
        <ele>444.5</ele>
        <time>2024-09-02T08:17:58Z</time>
      </trkpt>
      <trkpt lat="47.29098" lon="3.92382">
        <ele>443.5</ele>
        <time>2024-09-02T08:18:04.000Z</time>
      </trkpt>
      <trkpt lat="47.291" lon="3.92375">
        <ele>442.6</ele>
        <time>2024-09-02T08:18:10Z</time>
      </trkpt>
      <trkpt lat="47.29103" lon="3.9237">
        <ele>442</ele>
        <time>2024-09-02T08:18:16.000Z</time>
      </trkpt>
      <trkpt lat="47.29106" lon="3.92365">
        <ele>441.4</ele>
        <time>2024-09-02T08:18:22Z</time>
      </trkpt>
      <trkpt lat="47.29112" lon="3.92364">
        <ele>441.4</ele>
        <time>2024-09-02T08:18:31.500Z</time>
      </trkpt>
      <trkpt lat="47.29117" lon="3.92363">
        <ele>441.1</ele>
        <time>2024-09-02T08:18:41Z</time>
      </trkpt>
      <trkpt lat="47.29124" lon="3.92362">
        <ele>440.7</ele>
        <time>2024-09-02T08:18:47.500Z</time>
      </trkpt>
      <trkpt lat="47.2913" lon="3.92361">
        <ele>440.3</ele>
        <time>2024-09-02T08:18:54Z</time>
      </trkpt>
      <trkpt lat="47.29135" lon="3.92363">
        <ele>440.5</ele>
        <time>2024-09-02T08:18:57.000Z</time>
      </trkpt>
      <trkpt lat="47.29141" lon="3.92365">
        <ele>440.7</ele>
        <time>2024-09-02T08:19:00.000Z</time>
      </trkpt>
      <trkpt lat="47.29146" lon="3.92366">
        <ele>440.9</ele>
        <time>2024-09-02T08:19:03.000Z</time>
      </trkpt>
      <trkpt lat="47.29151" lon="3.92368">
        <ele>441.2</ele>
        <time>2024-09-02T08:19:06Z</time>
      </trkpt>
      <trkpt lat="47.29157" lon="3.9237">
        <ele>441.4</ele>
        <time>2024-09-02T08:19:13.000Z</time>
      </trkpt>
      <trkpt lat="47.29162" lon="3.92371">
        <ele>441.6</ele>
        <time>2024-09-02T08:19:20Z</time>
      </trkpt>
      <trkpt lat="47.29169" lon="3.92373">
        <ele>442</ele>
        <time>2024-09-02T08:19:27.000Z</time>
      </trkpt>
      <trkpt lat="47.29176" lon="3.92375">
        <ele>442.3</ele>
        <time>2024-09-02T08:19:34Z</time>
      </trkpt>
      <trkpt lat="47.29183" lon="3.92378">
        <ele>442.9</ele>
        <time>2024-09-02T08:19:40.500Z</time>
      </trkpt>
      <trkpt lat="47.2919" lon="3.92381">
        <ele>443.4</ele>
        <time>2024-09-02T08:19:47Z</time>
      </trkpt>
      <trkpt lat="47.29197" lon="3.92383">
        <ele>443.5</ele>
        <time>2024-09-02T08:19:53.000Z</time>
      </trkpt>
      <trkpt lat="47.29204" lon="3.92384">
        <ele>443.7</ele>
        <time>2024-09-02T08:19:59Z</time>
      </trkpt>
      <trkpt lat="47.29209" lon="3.92384">
        <ele>443.4</ele>
        <time>2024-09-02T08:20:04.500Z</time>
      </trkpt>
      <trkpt lat="47.29214" lon="3.92383">
        <ele>443.2</ele>
        <time>2024-09-02T08:20:10Z</time>
      </trkpt>
      <trkpt lat="47.29219" lon="3.92386">
        <ele>443.6</ele>
        <time>2024-09-02T08:20:16.500Z</time>
      </trkpt>
      <trkpt lat="47.29224" lon="3.92389">
        <ele>444</ele>
        <time>2024-09-02T08:20:23Z</time>
      </trkpt>
      <trkpt lat="47.2923" lon="3.92391">
        <ele>444</ele>
        <time>2024-09-02T08:20:29.000Z</time>
      </trkpt>
      <trkpt lat="47.29236" lon="3.92392">
        <ele>444.1</ele>
        <time>2024-09-02T08:20:35Z</time>
      </trkpt>
      <trkpt lat="47.29242" lon="3.92395">
        <ele>444.4</ele>
        <time>2024-09-02T08:20:41.500Z</time>
      </trkpt>
      <trkpt lat="47.29248" lon="3.92398">
        <ele>444.7</ele>
        <time>2024-09-02T08:20:48Z</time>
      </trkpt>
      <trkpt lat="47.29255" lon="3.92405">
        <ele>445.8</ele>
        <time>2024-09-02T08:20:54.500Z</time>
      </trkpt>
      <trkpt lat="47.29261" lon="3.92411">
        <ele>447</ele>
        <time>2024-09-02T08:21:01Z</time>
      </trkpt>
      <trkpt lat="47.29268" lon="3.92416">
        <ele>447.8</ele>
        <time>2024-09-02T08:21:06.500Z</time>
      </trkpt>
      <trkpt lat="47.29275" lon="3.9242">
        <ele>448.6</ele>
        <time>2024-09-02T08:21:12Z</time>
      </trkpt>
      <trkpt lat="47.29282" lon="3.92424">
        <ele>449.2</ele>
        <time>2024-09-02T08:21:17.500Z</time>
      </trkpt>
      <trkpt lat="47.29288" lon="3.92428">
        <ele>449.5</ele>
        <time>2024-09-02T08:21:23Z</time>
      </trkpt>
      <trkpt lat="47.29293" lon="3.92433">
        <ele>450</ele>
        <time>2024-09-02T08:21:28.000Z</time>
      </trkpt>
      <trkpt lat="47.29298" lon="3.92437">
        <ele>450.4</ele>
        <time>2024-09-02T08:21:33Z</time>
      </trkpt>
      <trkpt lat="47.29303" lon="3.9244">
        <ele>450.5</ele>
        <time>2024-09-02T08:21:37.500Z</time>
      </trkpt>
      <trkpt lat="47.29308" lon="3.92443">
        <ele>450.7</ele>
        <time>2024-09-02T08:21:42Z</time>
      </trkpt>
      <trkpt lat="47.29316" lon="3.92449">
        <ele>451.5</ele>
        <time>2024-09-02T08:21:51Z</time>
      </trkpt>
      <trkpt lat="47.29321" lon="3.92453">
        <ele>452.1</ele>
        <time>2024-09-02T08:21:56.000Z</time>
      </trkpt>
      <trkpt lat="47.29325" lon="3.92457">
        <ele>452.7</ele>
        <time>2024-09-02T08:22:01Z</time>
      </trkpt>
      <trkpt lat="47.2933" lon="3.9246">
        <ele>452.9</ele>
        <time>2024-09-02T08:22:06.000Z</time>
      </trkpt>
      <trkpt lat="47.29334" lon="3.92462">
        <ele>453.2</ele>
        <time>2024-09-02T08:22:11Z</time>
      </trkpt>
      <trkpt lat="47.29338" lon="3.92466">
        <ele>453.8</ele>
        <time>2024-09-02T08:22:16.000Z</time>
      </trkpt>
      <trkpt lat="47.29342" lon="3.92469">
        <ele>454.4</ele>
        <time>2024-09-02T08:22:21Z</time>
      </trkpt>
      <trkpt lat="47.29348" lon="3.92472">
        <ele>454.9</ele>
        <time>2024-09-02T08:22:26.000Z</time>
      </trkpt>
      <trkpt lat="47.29353" lon="3.92474">
        <ele>455.4</ele>
        <time>2024-09-02T08:22:31Z</time>
      </trkpt>
      <trkpt lat="47.29358" lon="3.92477">
        <ele>456</ele>
        <time>2024-09-02T08:22:36.000Z</time>
      </trkpt>
      <trkpt lat="47.29362" lon="3.9248">
        <ele>456.6</ele>
        <time>2024-09-02T08:22:41Z</time>
      </trkpt>
      <trkpt lat="47.2937" lon="3.92486">
        <ele>457.7</ele>
        <time>2024-09-02T08:22:54Z</time>
      </trkpt>
      <trkpt lat="47.29376" lon="3.92489">
        <ele>458.1</ele>
        <time>2024-09-02T08:23:01.000Z</time>
      </trkpt>
      <trkpt lat="47.29382" lon="3.92492">
        <ele>458.5</ele>
        <time>2024-09-02T08:23:08Z</time>
      </trkpt>
      <trkpt lat="47.29388" lon="3.92497">
        <ele>459.3</ele>
        <time>2024-09-02T08:23:14.500Z</time>
      </trkpt>
      <trkpt lat="47.29393" lon="3.92501">
        <ele>460</ele>
        <time>2024-09-02T08:23:21Z</time>
      </trkpt>
      <trkpt lat="47.29401" lon="3.92504">
        <ele>460.3</ele>
        <time>2024-09-02T08:23:28.000Z</time>
      </trkpt>
      <trkpt lat="47.29408" lon="3.92507">
        <ele>460.6</ele>
        <time>2024-09-02T08:23:35Z</time>
      </trkpt>
      <trkpt lat="47.29413" lon="3.92509">
        <ele>460.7</ele>
        <time>2024-09-02T08:23:39.000Z</time>
      </trkpt>
      <trkpt lat="47.29417" lon="3.92511">
        <ele>460.9</ele>
        <time>2024-09-02T08:23:43.000Z</time>
      </trkpt>
      <trkpt lat="47.29422" lon="3.92512">
        <ele>461.1</ele>
        <time>2024-09-02T08:23:47.000Z</time>
      </trkpt>
      <trkpt lat="47.29426" lon="3.92514">
        <ele>461.4</ele>
        <time>2024-09-02T08:23:51Z</time>
      </trkpt>
      <trkpt lat="47.29434" lon="3.92516">
        <ele>461.5</ele>
        <time>2024-09-02T08:23:58.000Z</time>
      </trkpt>
      <trkpt lat="47.29441" lon="3.92518">
        <ele>461.7</ele>
        <time>2024-09-02T08:24:05Z</time>
      </trkpt>
      <trkpt lat="47.29448" lon="3.92519">
        <ele>461.6</ele>
        <time>2024-09-02T08:24:11.500Z</time>
      </trkpt>
      <trkpt lat="47.29455" lon="3.9252">
        <ele>461.5</ele>
        <time>2024-09-02T08:24:18Z</time>
      </trkpt>
      <trkpt lat="47.29461" lon="3.92525">
        <ele>461.9</ele>
        <time>2024-09-02T08:24:26.000Z</time>
      </trkpt>
      <trkpt lat="47.29467" lon="3.92529">
        <ele>462.3</ele>
        <time>2024-09-02T08:24:34Z</time>
      </trkpt>
      <trkpt lat="47.29475" lon="3.92534">
        <ele>462.5</ele>
        <time>2024-09-02T08:24:41.500Z</time>
      </trkpt>
      <trkpt lat="47.29482" lon="3.92538">
        <ele>462.8</ele>
        <time>2024-09-02T08:24:49Z</time>
      </trkpt>
      <trkpt lat="47.29487" lon="3.92541">
        <ele>462.8</ele>
        <time>2024-09-02T08:24:53.000Z</time>
      </trkpt>
      <trkpt lat="47.29492" lon="3.92543">
        <ele>462.9</ele>
        <time>2024-09-02T08:24:57.000Z</time>
      </trkpt>
      <trkpt lat="47.29496" lon="3.92546">
        <ele>463.1</ele>
        <time>2024-09-02T08:25:01.000Z</time>
      </trkpt>
      <trkpt lat="47.29501" lon="3.92548">
        <ele>463.1</ele>
        <time>2024-09-02T08:25:05Z</time>
      </trkpt>
      <trkpt lat="47.29507" lon="3.9255">
        <ele>462.8</ele>
        <time>2024-09-02T08:25:10.500Z</time>
      </trkpt>
      <trkpt lat="47.29513" lon="3.92551">
        <ele>462.6</ele>
        <time>2024-09-02T08:25:16Z</time>
      </trkpt>
      <trkpt lat="47.29518" lon="3.92556">
        <ele>462.7</ele>
        <time>2024-09-02T08:25:22.000Z</time>
      </trkpt>
      <trkpt lat="47.29523" lon="3.9256">
        <ele>462.7</ele>
        <time>2024-09-02T08:25:28Z</time>
      </trkpt>
      <trkpt lat="47.29529" lon="3.92566">
        <ele>462.6</ele>
        <time>2024-09-02T08:25:35.500Z</time>
      </trkpt>
      <trkpt lat="47.29535" lon="3.92572">
        <ele>462.6</ele>
        <time>2024-09-02T08:25:43Z</time>
      </trkpt>
      <trkpt lat="47.29538" lon="3.92581">
        <ele>463.1</ele>
        <time>2024-09-02T08:25:50.500Z</time>
      </trkpt>
      <trkpt lat="47.2954" lon="3.9259">
        <ele>463.6</ele>
        <time>2024-09-02T08:25:58Z</time>
      </trkpt>
      <trkpt lat="47.29545" lon="3.92596">
        <ele>463.6</ele>
        <time>2024-09-02T08:26:06.000Z</time>
      </trkpt>
      <trkpt lat="47.2955" lon="3.92601">
        <ele>463.7</ele>
        <time>2024-09-02T08:26:14Z</time>
      </trkpt>
      <trkpt lat="47.29552" lon="3.92613">
        <ele>464.4</ele>
        <time>2024-09-02T08:26:21.500Z</time>
      </trkpt>
      <trkpt lat="47.29554" lon="3.92625">
        <ele>465.1</ele>
        <time>2024-09-02T08:26:29Z</time>
      </trkpt>
      <trkpt lat="47.29554" lon="3.92634">
        <ele>465.7</ele>
        <time>2024-09-02T08:26:35.000Z</time>
      </trkpt>
      <trkpt lat="47.29554" lon="3.92642">
        <ele>466.2</ele>
        <time>2024-09-02T08:26:41Z</time>
      </trkpt>
      <trkpt lat="47.29556" lon="3.92648">
        <ele>466.3</ele>
        <time>2024-09-02T08:26:44.500Z</time>
      </trkpt>
      <trkpt lat="47.29558" lon="3.92655">
        <ele>466.4</ele>
        <time>2024-09-02T08:26:48.000Z</time>
      </trkpt>
      <trkpt lat="47.29559" lon="3.92661">
        <ele>466.5</ele>
        <time>2024-09-02T08:26:51.500Z</time>
      </trkpt>
      <trkpt lat="47.29561" lon="3.92667">
        <ele>466.6</ele>
        <time>2024-09-02T08:26:55Z</time>
      </trkpt>
      <trkpt lat="47.29562" lon="3.92674">
        <ele>466.8</ele>
        <time>2024-09-02T08:26:57.750Z</time>
      </trkpt>
      <trkpt lat="47.29564" lon="3.92681">
        <ele>466.9</ele>
        <time>2024-09-02T08:27:00.500Z</time>
      </trkpt>
      <trkpt lat="47.29565" lon="3.92687">
        <ele>467.1</ele>
        <time>2024-09-02T08:27:03.250Z</time>
      </trkpt>
      <trkpt lat="47.29566" lon="3.92694">
        <ele>467.2</ele>
        <time>2024-09-02T08:27:06Z</time>
      </trkpt>
      <trkpt lat="47.29568" lon="3.92704">
        <ele>467.5</ele>
        <time>2024-09-02T08:27:12.000Z</time>
      </trkpt>
      <trkpt lat="47.29569" lon="3.92713">
        <ele>467.7</ele>
        <time>2024-09-02T08:27:18Z</time>
      </trkpt>
      <trkpt lat="47.2957" lon="3.92721">
        <ele>467.9</ele>
        <time>2024-09-02T08:27:23.000Z</time>
      </trkpt>
      <trkpt lat="47.29571" lon="3.92729">
        <ele>468</ele>
        <time>2024-09-02T08:27:28Z</time>
      </trkpt>
      <trkpt lat="47.29571" lon="3.92737">
        <ele>468.1</ele>
        <time>2024-09-02T08:27:34.000Z</time>
      </trkpt>
      <trkpt lat="47.29571" lon="3.92745">
        <ele>468.3</ele>
        <time>2024-09-02T08:27:40Z</time>
      </trkpt>
      <trkpt lat="47.29568" lon="3.92753">
        <ele>468.7</ele>
        <time>2024-09-02T08:27:49.499Z</time>
      </trkpt>
      <trkpt lat="47.29565" lon="3.9276">
        <ele>469</ele>
        <time>2024-09-02T08:27:59Z</time>
      </trkpt>
      <trkpt lat="47.29566" lon="3.92768">
        <ele>468.9</ele>
        <time>2024-09-02T08:28:12.500Z</time>
      </trkpt>
      <trkpt lat="47.29566" lon="3.92776">
        <ele>468.9</ele>
        <time>2024-09-02T08:28:26Z</time>
      </trkpt>
      <trkpt lat="47.29566" lon="3.92786">
        <ele>469.2</ele>
        <time>2024-09-02T08:28:31.000Z</time>
      </trkpt>
      <trkpt lat="47.29566" lon="3.92796">
        <ele>469.5</ele>
        <time>2024-09-02T08:28:36Z</time>
      </trkpt>
      <trkpt lat="47.29569" lon="3.92803">
        <ele>469.4</ele>
        <time>2024-09-02T08:28:40.500Z</time>
      </trkpt>
      <trkpt lat="47.29572" lon="3.92809">
        <ele>469.3</ele>
        <time>2024-09-02T08:28:45Z</time>
      </trkpt>
      <trkpt lat="47.29576" lon="3.92814">
        <ele>468.9</ele>
        <time>2024-09-02T08:28:50.000Z</time>
      </trkpt>
      <trkpt lat="47.29579" lon="3.92818">
        <ele>468.5</ele>
        <time>2024-09-02T08:28:55Z</time>
      </trkpt>
      <trkpt lat="47.29583" lon="3.92823">
        <ele>468</ele>
        <time>2024-09-02T08:29:00.000Z</time>
      </trkpt>
      <trkpt lat="47.29587" lon="3.92827">
        <ele>467.6</ele>
        <time>2024-09-02T08:29:05Z</time>
      </trkpt>
      <trkpt lat="47.29591" lon="3.92832">
        <ele>467.2</ele>
        <time>2024-09-02T08:29:09.500Z</time>
      </trkpt>
      <trkpt lat="47.29594" lon="3.92836">
        <ele>466.9</ele>
        <time>2024-09-02T08:29:14Z</time>
      </trkpt>
      <trkpt lat="47.29599" lon="3.92841">
        <ele>466.6</ele>
        <time>2024-09-02T08:29:19.000Z</time>
      </trkpt>
      <trkpt lat="47.29603" lon="3.92846">
        <ele>466.3</ele>
        <time>2024-09-02T08:29:24Z</time>
      </trkpt>
      <trkpt lat="47.29608" lon="3.92852">
        <ele>466</ele>
        <time>2024-09-02T08:29:28.500Z</time>
      </trkpt>
      <trkpt lat="47.29613" lon="3.92858">
        <ele>465.8</ele>
        <time>2024-09-02T08:29:33Z</time>
      </trkpt>
      <trkpt lat="47.29617" lon="3.92863">
        <ele>465.9</ele>
        <time>2024-09-02T08:29:39.000Z</time>
      </trkpt>
      <trkpt lat="47.29621" lon="3.92868">
        <ele>465.9</ele>
        <time>2024-09-02T08:29:45Z</time>
      </trkpt>
      <trkpt lat="47.29629" lon="3.9287">
        <ele>465.7</ele>
        <time>2024-09-02T08:30:13Z</time>
      </trkpt>
      <trkpt lat="47.29633" lon="3.92874">
        <ele>465.7</ele>
        <time>2024-09-02T08:30:22.500Z</time>
      </trkpt>
      <trkpt lat="47.29637" lon="3.92877">
        <ele>465.6</ele>
        <time>2024-09-02T08:30:32Z</time>
      </trkpt>
      <trkpt lat="47.29643" lon="3.92884">
        <ele>465.8</ele>
        <time>2024-09-02T08:30:38.500Z</time>
      </trkpt>
      <trkpt lat="47.29648" lon="3.9289">
        <ele>466.1</ele>
        <time>2024-09-02T08:30:45Z</time>
      </trkpt>
      <trkpt lat="47.29653" lon="3.92896">
        <ele>466.5</ele>
        <time>2024-09-02T08:30:51.000Z</time>
      </trkpt>
      <trkpt lat="47.29658" lon="3.92901">
        <ele>466.9</ele>
        <time>2024-09-02T08:30:57Z</time>
      </trkpt>
      <trkpt lat="47.29663" lon="3.92905">
        <ele>467.1</ele>
        <time>2024-09-02T08:31:02.000Z</time>
      </trkpt>
      <trkpt lat="47.29668" lon="3.92908">
        <ele>467.4</ele>
        <time>2024-09-02T08:31:07Z</time>
      </trkpt>
      <trkpt lat="47.29673" lon="3.92914">
        <ele>468</ele>
        <time>2024-09-02T08:31:11.500Z</time>
      </trkpt>
      <trkpt lat="47.29678" lon="3.92919">
        <ele>468.6</ele>
        <time>2024-09-02T08:31:16Z</time>
      </trkpt>
      <trkpt lat="47.29683" lon="3.92923">
        <ele>469</ele>
        <time>2024-09-02T08:31:20.500Z</time>
      </trkpt>
      <trkpt lat="47.29687" lon="3.92926">
        <ele>469.4</ele>
        <time>2024-09-02T08:31:25Z</time>
      </trkpt>
      <trkpt lat="47.29692" lon="3.92928">
        <ele>469.7</ele>
        <time>2024-09-02T08:31:30.000Z</time>
      </trkpt>
      <trkpt lat="47.29697" lon="3.92929">
        <ele>469.9</ele>
        <time>2024-09-02T08:31:35Z</time>
      </trkpt>
      <trkpt lat="47.29705" lon="3.92935">
        <ele>470.3</ele>
        <time>2024-09-02T08:31:44Z</time>
      </trkpt>
      <trkpt lat="47.2971" lon="3.92939">
        <ele>470.6</ele>
        <time>2024-09-02T08:31:48.500Z</time>
      </trkpt>
      <trkpt lat="47.29714" lon="3.92942">
        <ele>470.8</ele>
        <time>2024-09-02T08:31:53Z</time>
      </trkpt>
      <trkpt lat="47.29719" lon="3.92945">
        <ele>471.1</ele>
        <time>2024-09-02T08:31:57.500Z</time>
      </trkpt>
      <trkpt lat="47.29723" lon="3.92948">
        <ele>471.4</ele>
        <time>2024-09-02T08:32:02Z</time>
      </trkpt>
      <trkpt lat="47.29728" lon="3.92951">
        <ele>471.7</ele>
        <time>2024-09-02T08:32:07.000Z</time>
      </trkpt>
      <trkpt lat="47.29732" lon="3.92954">
        <ele>472</ele>
        <time>2024-09-02T08:32:12Z</time>
      </trkpt>
      <trkpt lat="47.29737" lon="3.92958">
        <ele>472.4</ele>
        <time>2024-09-02T08:32:16.500Z</time>
      </trkpt>
      <trkpt lat="47.29742" lon="3.92961">
        <ele>472.8</ele>
        <time>2024-09-02T08:32:21Z</time>
      </trkpt>
      <trkpt lat="47.29746" lon="3.92965">
        <ele>473.2</ele>
        <time>2024-09-02T08:32:25.500Z</time>
      </trkpt>
      <trkpt lat="47.2975" lon="3.92968">
        <ele>473.5</ele>
        <time>2024-09-02T08:32:30Z</time>
      </trkpt>
      <trkpt lat="47.29755" lon="3.92971">
        <ele>473.9</ele>
        <time>2024-09-02T08:32:36.500Z</time>
      </trkpt>
      <trkpt lat="47.29759" lon="3.92974">
        <ele>474.2</ele>
        <time>2024-09-02T08:32:43Z</time>
      </trkpt>
      <trkpt lat="47.29763" lon="3.92979">
        <ele>474.8</ele>
        <time>2024-09-02T08:32:48.500Z</time>
      </trkpt>
      <trkpt lat="47.29766" lon="3.92983">
        <ele>475.3</ele>
        <time>2024-09-02T08:32:54Z</time>
      </trkpt>
      <trkpt lat="47.29771" lon="3.92988">
        <ele>475.8</ele>
        <time>2024-09-02T08:32:59.000Z</time>
      </trkpt>
      <trkpt lat="47.29776" lon="3.92993">
        <ele>476.3</ele>
        <time>2024-09-02T08:33:04Z</time>
      </trkpt>
      <trkpt lat="47.2978" lon="3.92999">
        <ele>477</ele>
        <time>2024-09-02T08:33:10.500Z</time>
      </trkpt>
      <trkpt lat="47.29783" lon="3.93005">
        <ele>477.9</ele>
        <time>2024-09-02T08:33:17Z</time>
      </trkpt>
      <trkpt lat="47.29787" lon="3.9301">
        <ele>478.7</ele>
        <time>2024-09-02T08:33:24.000Z</time>
      </trkpt>
      <trkpt lat="47.29791" lon="3.93015">
        <ele>479.4</ele>
        <time>2024-09-02T08:33:31Z</time>
      </trkpt>
      <trkpt lat="47.29797" lon="3.93017">
        <ele>479.7</ele>
        <time>2024-09-02T08:33:39.500Z</time>
      </trkpt>
      <trkpt lat="47.29803" lon="3.93019">
        <ele>480</ele>
        <time>2024-09-02T08:33:48Z</time>
      </trkpt>
      <trkpt lat="47.29808" lon="3.93021">
        <ele>480.4</ele>
        <time>2024-09-02T08:33:52.500Z</time>
      </trkpt>
      <trkpt lat="47.29812" lon="3.93022">
        <ele>480.9</ele>
        <time>2024-09-02T08:33:57.000Z</time>
      </trkpt>
      <trkpt lat="47.29817" lon="3.93024">
        <ele>481.4</ele>
        <time>2024-09-02T08:34:01.500Z</time>
      </trkpt>
      <trkpt lat="47.29821" lon="3.93025">
        <ele>481.9</ele>
        <time>2024-09-02T08:34:06Z</time>
      </trkpt>
      <trkpt lat="47.29828" lon="3.93033">
        <ele>482.9</ele>
        <time>2024-09-02T08:34:12.000Z</time>
      </trkpt>
      <trkpt lat="47.29835" lon="3.9304">
        <ele>483.5</ele>
        <time>2024-09-02T08:34:18Z</time>
      </trkpt>
      <trkpt lat="47.29842" lon="3.93047">
        <ele>484</ele>
        <time>2024-09-02T08:34:22.500Z</time>
      </trkpt>
      <trkpt lat="47.29848" lon="3.93054">
        <ele>484.5</ele>
        <time>2024-09-02T08:34:27Z</time>
      </trkpt>
      <trkpt lat="47.29854" lon="3.9306">
        <ele>484.8</ele>
        <time>2024-09-02T08:34:33.000Z</time>
      </trkpt>
      <trkpt lat="47.29859" lon="3.93065">
        <ele>485</ele>
        <time>2024-09-02T08:34:39Z</time>
      </trkpt>
      <trkpt lat="47.29862" lon="3.93072">
        <ele>485</ele>
        <time>2024-09-02T08:34:44.500Z</time>
      </trkpt>
      <trkpt lat="47.29864" lon="3.93078">
        <ele>485.1</ele>
        <time>2024-09-02T08:34:50Z</time>
      </trkpt>
      <trkpt lat="47.29869" lon="3.93084">
        <ele>485.3</ele>
        <time>2024-09-02T08:34:56.000Z</time>
      </trkpt>
      <trkpt lat="47.29873" lon="3.9309">
        <ele>485.6</ele>
        <time>2024-09-02T08:35:02Z</time>
      </trkpt>
      <trkpt lat="47.29877" lon="3.93095">
        <ele>485.7</ele>
        <time>2024-09-02T08:35:10.500Z</time>
      </trkpt>
      <trkpt lat="47.2988" lon="3.93099">
        <ele>485.9</ele>
        <time>2024-09-02T08:35:19Z</time>
      </trkpt>
      <trkpt lat="47.29887" lon="3.93104">
        <ele>486</ele>
        <time>2024-09-02T08:36:12Z</time>
      </trkpt>
      <trkpt lat="47.29889" lon="3.93106">
        <ele>486</ele>
        <time>2024-09-02T08:38:33Z</time>
      </trkpt>
      <trkpt lat="47.29894" lon="3.93106">
        <ele>485.9</ele>
        <time>2024-09-02T08:39:45.500Z</time>
      </trkpt>
      <trkpt lat="47.29898" lon="3.93106">
        <ele>485.7</ele>
        <time>2024-09-02T08:40:58Z</time>
      </trkpt>
      <trkpt lat="47.29901" lon="3.93114">
        <ele>485.6</ele>
        <time>2024-09-02T08:41:13Z</time>
      </trkpt>
      <trkpt lat="47.29906" lon="3.93112">
        <ele>485.4</ele>
        <time>2024-09-02T08:41:21.000Z</time>
      </trkpt>
      <trkpt lat="47.29911" lon="3.93109">
        <ele>485.3</ele>
        <time>2024-09-02T08:41:29Z</time>
      </trkpt>
      <trkpt lat="47.29916" lon="3.9311">
        <ele>485.1</ele>
        <time>2024-09-02T08:41:34.500Z</time>
      </trkpt>
      <trkpt lat="47.29921" lon="3.93111">
        <ele>485.2</ele>
        <time>2024-09-02T08:41:40Z</time>
      </trkpt>
      <trkpt lat="47.29927" lon="3.93113">
        <ele>485.3</ele>
        <time>2024-09-02T08:41:45.500Z</time>
      </trkpt>
      <trkpt lat="47.29933" lon="3.93115">
        <ele>485.4</ele>
        <time>2024-09-02T08:41:51Z</time>
      </trkpt>
      <trkpt lat="47.29938" lon="3.93117">
        <ele>485.5</ele>
        <time>2024-09-02T08:41:57.500Z</time>
      </trkpt>
      <trkpt lat="47.29943" lon="3.93118">
        <ele>485.5</ele>
        <time>2024-09-02T08:42:04Z</time>
      </trkpt>
      <trkpt lat="47.29951" lon="3.9312">
        <ele>485.3</ele>
        <time>2024-09-02T08:42:11.500Z</time>
      </trkpt>
      <trkpt lat="47.29958" lon="3.93121">
        <ele>485.1</ele>
        <time>2024-09-02T08:42:19Z</time>
      </trkpt>
      <trkpt lat="47.29962" lon="3.93119">
        <ele>485.3</ele>
        <time>2024-09-02T08:42:22.250Z</time>
      </trkpt>
      <trkpt lat="47.29967" lon="3.93116">
        <ele>485.5</ele>
        <time>2024-09-02T08:42:25.500Z</time>
      </trkpt>
      <trkpt lat="47.29971" lon="3.93114">
        <ele>485.7</ele>
        <time>2024-09-02T08:42:28.750Z</time>
      </trkpt>
      <trkpt lat="47.29975" lon="3.93111">
        <ele>486.1</ele>
        <time>2024-09-02T08:42:32Z</time>
      </trkpt>
      <trkpt lat="47.29981" lon="3.9311">
        <ele>486.5</ele>
        <time>2024-09-02T08:42:38.500Z</time>
      </trkpt>
      <trkpt lat="47.29987" lon="3.93108">
        <ele>486.9</ele>
        <time>2024-09-02T08:42:45Z</time>
      </trkpt>
      <trkpt lat="47.29994" lon="3.93105">
        <ele>487.5</ele>
        <time>2024-09-02T08:42:52.500Z</time>
      </trkpt>
      <trkpt lat="47.3" lon="3.93101">
        <ele>488.1</ele>
        <time>2024-09-02T08:43:00Z</time>
      </trkpt>
      <trkpt lat="47.30008" lon="3.93098">
        <ele>488.3</ele>
        <time>2024-09-02T08:43:05.500Z</time>
      </trkpt>
      <trkpt lat="47.30016" lon="3.93094">
        <ele>488.6</ele>
        <time>2024-09-02T08:43:11Z</time>
      </trkpt>
      <trkpt lat="47.30024" lon="3.93089">
        <ele>489.3</ele>
        <time>2024-09-02T08:43:18.000Z</time>
      </trkpt>
      <trkpt lat="47.30032" lon="3.93083">
        <ele>489.9</ele>
        <time>2024-09-02T08:43:25Z</time>
      </trkpt>
      <trkpt lat="47.30039" lon="3.93081">
        <ele>489.7</ele>
        <time>2024-09-02T08:43:31.000Z</time>
      </trkpt>
      <trkpt lat="47.30045" lon="3.93079">
        <ele>489.6</ele>
        <time>2024-09-02T08:43:37Z</time>
      </trkpt>
      <trkpt lat="47.30052" lon="3.93072">
        <ele>489.9</ele>
        <time>2024-09-02T08:43:44.500Z</time>
      </trkpt>
      <trkpt lat="47.30058" lon="3.93064">
        <ele>490.3</ele>
        <time>2024-09-02T08:43:52Z</time>
      </trkpt>
      <trkpt lat="47.30065" lon="3.93064">
        <ele>490</ele>
        <time>2024-09-02T08:43:59.000Z</time>
      </trkpt>
      <trkpt lat="47.30071" lon="3.93063">
        <ele>489.8</ele>
        <time>2024-09-02T08:44:06Z</time>
      </trkpt>
      <trkpt lat="47.30075" lon="3.93064">
        <ele>489.5</ele>
        <time>2024-09-02T08:44:25Z</time>
      </trkpt>
      <trkpt lat="47.3008" lon="3.93063">
        <ele>489.4</ele>
        <time>2024-09-02T08:44:27.500Z</time>
      </trkpt>
      <trkpt lat="47.30085" lon="3.93061">
        <ele>489.2</ele>
        <time>2024-09-02T08:44:30.000Z</time>
      </trkpt>
      <trkpt lat="47.30089" lon="3.9306">
        <ele>488.7</ele>
        <time>2024-09-02T08:44:32.500Z</time>
      </trkpt>
      <trkpt lat="47.30094" lon="3.93058">
        <ele>488.2</ele>
        <time>2024-09-02T08:44:35Z</time>
      </trkpt>
      <trkpt lat="47.30103" lon="3.93058">
        <ele>487</ele>
        <time>2024-09-02T08:44:39.500Z</time>
      </trkpt>
      <trkpt lat="47.30111" lon="3.93057">
        <ele>485.9</ele>
        <time>2024-09-02T08:44:44Z</time>
      </trkpt>
      <trkpt lat="47.30117" lon="3.93056">
        <ele>484.7</ele>
        <time>2024-09-02T08:44:49.500Z</time>
      </trkpt>
      <trkpt lat="47.30123" lon="3.93055">
        <ele>483.5</ele>
        <time>2024-09-02T08:44:55Z</time>
      </trkpt>
      <trkpt lat="47.30129" lon="3.93052">
        <ele>482.5</ele>
        <time>2024-09-02T08:45:01.500Z</time>
      </trkpt>
      <trkpt lat="47.30134" lon="3.93049">
        <ele>481.5</ele>
        <time>2024-09-02T08:45:08Z</time>
      </trkpt>
      <trkpt lat="47.30141" lon="3.93044">
        <ele>480.5</ele>
        <time>2024-09-02T08:45:13.000Z</time>
      </trkpt>
      <trkpt lat="47.30147" lon="3.93039">
        <ele>479.6</ele>
        <time>2024-09-02T08:45:18Z</time>
      </trkpt>
      <trkpt lat="47.30152" lon="3.93034">
        <ele>479</ele>
        <time>2024-09-02T08:45:23.000Z</time>
      </trkpt>
      <trkpt lat="47.30156" lon="3.93028">
        <ele>478.3</ele>
        <time>2024-09-02T08:45:28Z</time>
      </trkpt>
      <trkpt lat="47.3016" lon="3.93022">
        <ele>477.9</ele>
        <time>2024-09-02T08:45:32.500Z</time>
      </trkpt>
      <trkpt lat="47.30164" lon="3.93015">
        <ele>477.5</ele>
        <time>2024-09-02T08:45:37Z</time>
      </trkpt>
      <trkpt lat="47.30167" lon="3.9301">
        <ele>477.3</ele>
        <time>2024-09-02T08:45:41.500Z</time>
      </trkpt>
      <trkpt lat="47.3017" lon="3.93004">
        <ele>477.1</ele>
        <time>2024-09-02T08:45:46Z</time>
      </trkpt>
      <trkpt lat="47.30174" lon="3.93001">
        <ele>476.6</ele>
        <time>2024-09-02T08:45:50.500Z</time>
      </trkpt>
      <trkpt lat="47.30178" lon="3.92997">
        <ele>476.3</ele>
        <time>2024-09-02T08:45:55Z</time>
      </trkpt>
      <trkpt lat="47.30183" lon="3.92995">
        <ele>475.9</ele>
        <time>2024-09-02T08:46:00.000Z</time>
      </trkpt>
      <trkpt lat="47.30187" lon="3.92992">
        <ele>475.4</ele>
        <time>2024-09-02T08:46:05Z</time>
      </trkpt>
      <trkpt lat="47.30191" lon="3.92988">
        <ele>475.4</ele>
        <time>2024-09-02T08:46:10.500Z</time>
      </trkpt>
      <trkpt lat="47.30195" lon="3.92983">
        <ele>475.4</ele>
        <time>2024-09-02T08:46:16Z</time>
      </trkpt>
      <trkpt lat="47.30202" lon="3.92977">
        <ele>475.6</ele>
        <time>2024-09-02T08:46:23.000Z</time>
      </trkpt>
      <trkpt lat="47.30208" lon="3.9297">
        <ele>475.9</ele>
        <time>2024-09-02T08:46:30Z</time>
      </trkpt>
      <trkpt lat="47.30215" lon="3.9297">
        <ele>475.2</ele>
        <time>2024-09-02T08:46:36.500Z</time>
      </trkpt>
      <trkpt lat="47.30221" lon="3.92969">
        <ele>474.6</ele>
        <time>2024-09-02T08:46:43Z</time>
      </trkpt>
      <trkpt lat="47.30227" lon="3.92968">
        <ele>474.5</ele>
        <time>2024-09-02T08:46:49.000Z</time>
      </trkpt>
      <trkpt lat="47.30232" lon="3.92966">
        <ele>474.5</ele>
        <time>2024-09-02T08:46:55Z</time>
      </trkpt>
      <trkpt lat="47.30239" lon="3.92964">
        <ele>474.5</ele>
        <time>2024-09-02T08:47:02.000Z</time>
      </trkpt>
      <trkpt lat="47.30245" lon="3.92961">
        <ele>474.5</ele>
        <time>2024-09-02T08:47:09Z</time>
      </trkpt>
      <trkpt lat="47.30253" lon="3.92959">
        <ele>474.3</ele>
        <time>2024-09-02T08:47:15.000Z</time>
      </trkpt>
      <trkpt lat="47.30261" lon="3.92956">
        <ele>474.1</ele>
        <time>2024-09-02T08:47:21Z</time>
      </trkpt>
      <trkpt lat="47.30266" lon="3.92954">
        <ele>474.1</ele>
        <time>2024-09-02T08:47:26.000Z</time>
      </trkpt>
      <trkpt lat="47.30271" lon="3.92951">
        <ele>474</ele>
        <time>2024-09-02T08:47:31Z</time>
      </trkpt>
      <trkpt lat="47.30276" lon="3.92948">
        <ele>473.9</ele>
        <time>2024-09-02T08:47:36.000Z</time>
      </trkpt>
      <trkpt lat="47.3028" lon="3.92945">
        <ele>473.7</ele>
        <time>2024-09-02T08:47:41Z</time>
      </trkpt>
      <trkpt lat="47.30286" lon="3.92942">
        <ele>473</ele>
        <time>2024-09-02T08:47:47.000Z</time>
      </trkpt>
      <trkpt lat="47.30292" lon="3.92938">
        <ele>472.2</ele>
        <time>2024-09-02T08:47:53Z</time>
      </trkpt>
      <trkpt lat="47.30298" lon="3.92937">
        <ele>471.5</ele>
        <time>2024-09-02T08:47:58.500Z</time>
      </trkpt>
      <trkpt lat="47.30304" lon="3.92936">
        <ele>470.9</ele>
        <time>2024-09-02T08:48:04Z</time>
      </trkpt>
      <trkpt lat="47.30309" lon="3.92934">
        <ele>470.4</ele>
        <time>2024-09-02T08:48:09.000Z</time>
      </trkpt>
      <trkpt lat="47.30314" lon="3.92932">
        <ele>469.9</ele>
        <time>2024-09-02T08:48:14Z</time>
      </trkpt>
      <trkpt lat="47.3032" lon="3.9293">
        <ele>469.4</ele>
        <time>2024-09-02T08:48:19.500Z</time>
      </trkpt>
      <trkpt lat="47.30326" lon="3.92927">
        <ele>468.9</ele>
        <time>2024-09-02T08:48:25Z</time>
      </trkpt>
      <trkpt lat="47.30332" lon="3.92925">
        <ele>468.4</ele>
        <time>2024-09-02T08:48:30.500Z</time>
      </trkpt>
      <trkpt lat="47.30337" lon="3.92922">
        <ele>467.9</ele>
        <time>2024-09-02T08:48:36Z</time>
      </trkpt>
      <trkpt lat="47.30342" lon="3.92919">
        <ele>467.5</ele>
        <time>2024-09-02T08:48:40.500Z</time>
      </trkpt>
      <trkpt lat="47.30346" lon="3.92916">
        <ele>467</ele>
        <time>2024-09-02T08:48:45Z</time>
      </trkpt>
      <trkpt lat="47.3035" lon="3.92912">
        <ele>466.2</ele>
        <time>2024-09-02T08:48:49.500Z</time>
      </trkpt>
      <trkpt lat="47.30354" lon="3.92907">
        <ele>465.5</ele>
        <time>2024-09-02T08:48:54Z</time>
      </trkpt>
      <trkpt lat="47.30362" lon="3.92903">
        <ele>464.5</ele>
        <time>2024-09-02T08:49:07Z</time>
      </trkpt>
      <trkpt lat="47.30366" lon="3.92897">
        <ele>463.6</ele>
        <time>2024-09-02T08:49:12.000Z</time>
      </trkpt>
      <trkpt lat="47.30369" lon="3.9289">
        <ele>462.8</ele>
        <time>2024-09-02T08:49:17Z</time>
      </trkpt>
      <trkpt lat="47.30373" lon="3.92885">
        <ele>462.2</ele>
        <time>2024-09-02T08:49:22.000Z</time>
      </trkpt>
      <trkpt lat="47.30377" lon="3.9288">
        <ele>461.5</ele>
        <time>2024-09-02T08:49:27Z</time>
      </trkpt>
      <trkpt lat="47.30381" lon="3.92873">
        <ele>460.6</ele>
        <time>2024-09-02T08:49:32.500Z</time>
      </trkpt>
      <trkpt lat="47.30385" lon="3.92866">
        <ele>459.7</ele>
        <time>2024-09-02T08:49:38Z</time>
      </trkpt>
      <trkpt lat="47.30389" lon="3.92861">
        <ele>459</ele>
        <time>2024-09-02T08:49:42.500Z</time>
      </trkpt>
      <trkpt lat="47.30393" lon="3.92855">
        <ele>458.4</ele>
        <time>2024-09-02T08:49:47Z</time>
      </trkpt>
      <trkpt lat="47.30399" lon="3.92846">
        <ele>457.5</ele>
        <time>2024-09-02T08:49:55Z</time>
      </trkpt>
      <trkpt lat="47.30403" lon="3.92839">
        <ele>456.9</ele>
        <time>2024-09-02T08:49:59.500Z</time>
      </trkpt>
      <trkpt lat="47.30407" lon="3.92831">
        <ele>456.3</ele>
        <time>2024-09-02T08:50:04Z</time>
      </trkpt>
      <trkpt lat="47.30415" lon="3.92825">
        <ele>455.8</ele>
        <time>2024-09-02T08:50:17Z</time>
      </trkpt>
      <trkpt lat="47.30422" lon="3.92827">
        <ele>456.1</ele>
        <time>2024-09-02T08:50:22.500Z</time>
      </trkpt>
      <trkpt lat="47.30428" lon="3.92828">
        <ele>456.5</ele>
        <time>2024-09-02T08:50:28Z</time>
      </trkpt>
      <trkpt lat="47.30435" lon="3.92831">
        <ele>457.1</ele>
        <time>2024-09-02T08:50:32.500Z</time>
      </trkpt>
      <trkpt lat="47.30441" lon="3.92833">
        <ele>457.7</ele>
        <time>2024-09-02T08:50:37Z</time>
      </trkpt>
      <trkpt lat="47.30447" lon="3.92837">
        <ele>458.4</ele>
        <time>2024-09-02T08:50:43.000Z</time>
      </trkpt>
      <trkpt lat="47.30452" lon="3.92841">
        <ele>459.4</ele>
        <time>2024-09-02T08:50:49Z</time>
      </trkpt>
      <trkpt lat="47.30458" lon="3.92845">
        <ele>460.6</ele>
        <time>2024-09-02T08:50:55.000Z</time>
      </trkpt>
      <trkpt lat="47.30464" lon="3.92848">
        <ele>461.7</ele>
        <time>2024-09-02T08:51:01Z</time>
      </trkpt>
      <trkpt lat="47.30471" lon="3.92853">
        <ele>463.2</ele>
        <time>2024-09-02T08:51:07.000Z</time>
      </trkpt>
      <trkpt lat="47.30478" lon="3.92858">
        <ele>464.4</ele>
        <time>2024-09-02T08:51:13Z</time>
      </trkpt>
      <trkpt lat="47.30484" lon="3.92862">
        <ele>465.3</ele>
        <time>2024-09-02T08:51:18.500Z</time>
      </trkpt>
      <trkpt lat="47.3049" lon="3.92865">
        <ele>465.9</ele>
        <time>2024-09-02T08:51:24Z</time>
      </trkpt>
      <trkpt lat="47.30497" lon="3.92867">
        <ele>466.6</ele>
        <time>2024-09-02T08:51:30.000Z</time>
      </trkpt>
      <trkpt lat="47.30503" lon="3.92869">
        <ele>467.3</ele>
        <time>2024-09-02T08:51:36Z</time>
      </trkpt>
      <trkpt lat="47.30509" lon="3.92869">
        <ele>467.9</ele>
        <time>2024-09-02T08:51:41.500Z</time>
      </trkpt>
      <trkpt lat="47.30514" lon="3.92869">
        <ele>468.5</ele>
        <time>2024-09-02T08:51:47Z</time>
      </trkpt>
      <trkpt lat="47.30519" lon="3.92869">
        <ele>469</ele>
        <time>2024-09-02T08:51:54.000Z</time>
      </trkpt>
      <trkpt lat="47.30523" lon="3.92869">
        <ele>469.5</ele>
        <time>2024-09-02T08:52:01Z</time>
      </trkpt>
      <trkpt lat="47.30531" lon="3.92863">
        <ele>470.2</ele>
        <time>2024-09-02T08:52:24Z</time>
      </trkpt>
      <trkpt lat="47.30537" lon="3.92863">
        <ele>470.6</ele>
        <time>2024-09-02T08:52:30.500Z</time>
      </trkpt>
      <trkpt lat="47.30542" lon="3.92862">
        <ele>471</ele>
        <time>2024-09-02T08:52:37Z</time>
      </trkpt>
      <trkpt lat="47.30547" lon="3.92862">
        <ele>471.4</ele>
        <time>2024-09-02T08:52:43.500Z</time>
      </trkpt>
      <trkpt lat="47.30552" lon="3.92862">
        <ele>471.7</ele>
        <time>2024-09-02T08:52:50Z</time>
      </trkpt>
      <trkpt lat="47.30557" lon="3.9286">
        <ele>472</ele>
        <time>2024-09-02T08:52:56.000Z</time>
      </trkpt>
      <trkpt lat="47.30561" lon="3.92857">
        <ele>472.3</ele>
        <time>2024-09-02T08:53:02Z</time>
      </trkpt>
      <trkpt lat="47.30565" lon="3.92854">
        <ele>472.5</ele>
        <time>2024-09-02T08:53:07.500Z</time>
      </trkpt>
      <trkpt lat="47.30569" lon="3.9285">
        <ele>472.8</ele>
        <time>2024-09-02T08:53:13Z</time>
      </trkpt>
      <trkpt lat="47.30572" lon="3.92844">
        <ele>472.9</ele>
        <time>2024-09-02T08:53:19.000Z</time>
      </trkpt>
      <trkpt lat="47.30574" lon="3.92837">
        <ele>473</ele>
        <time>2024-09-02T08:53:25Z</time>
      </trkpt>
      <trkpt lat="47.30577" lon="3.92831">
        <ele>473.2</ele>
        <time>2024-09-02T08:53:32.500Z</time>
      </trkpt>
      <trkpt lat="47.3058" lon="3.92825">
        <ele>473.3</ele>
        <time>2024-09-02T08:53:40Z</time>
      </trkpt>
      <trkpt lat="47.30582" lon="3.92817">
        <ele>473.2</ele>
        <time>2024-09-02T08:53:45.000Z</time>
      </trkpt>
      <trkpt lat="47.30584" lon="3.92809">
        <ele>473.2</ele>
        <time>2024-09-02T08:53:50Z</time>
      </trkpt>
      <trkpt lat="47.30588" lon="3.92804">
        <ele>473.6</ele>
        <time>2024-09-02T08:53:55.000Z</time>
      </trkpt>
      <trkpt lat="47.30591" lon="3.92798">
        <ele>473.8</ele>
        <time>2024-09-02T08:54:00Z</time>
      </trkpt>
      <trkpt lat="47.30594" lon="3.92791">
        <ele>473.8</ele>
        <time>2024-09-02T08:54:05.000Z</time>
      </trkpt>
      <trkpt lat="47.30597" lon="3.92783">
        <ele>473.8</ele>
        <time>2024-09-02T08:54:10Z</time>
      </trkpt>
      <trkpt lat="47.306" lon="3.92776">
        <ele>473.8</ele>
        <time>2024-09-02T08:54:15.000Z</time>
      </trkpt>
      <trkpt lat="47.30602" lon="3.92769">
        <ele>473.6</ele>
        <time>2024-09-02T08:54:20Z</time>
      </trkpt>
      <trkpt lat="47.30604" lon="3.92761">
        <ele>473.3</ele>
        <time>2024-09-02T08:54:25.000Z</time>
      </trkpt>
      <trkpt lat="47.30606" lon="3.92752">
        <ele>473.1</ele>
        <time>2024-09-02T08:54:30Z</time>
      </trkpt>
      <trkpt lat="47.30609" lon="3.92745">
        <ele>472.8</ele>
        <time>2024-09-02T08:54:34.500Z</time>
      </trkpt>
      <trkpt lat="47.30611" lon="3.92737">
        <ele>472.6</ele>
        <time>2024-09-02T08:54:39Z</time>
      </trkpt>
      <trkpt lat="47.30614" lon="3.92729">
        <ele>472.1</ele>
        <time>2024-09-02T08:54:43.500Z</time>
      </trkpt>
      <trkpt lat="47.30616" lon="3.9272">
        <ele>471.6</ele>
        <time>2024-09-02T08:54:48Z</time>
      </trkpt>
      <trkpt lat="47.30619" lon="3.92713">
        <ele>471.3</ele>
        <time>2024-09-02T08:54:52.500Z</time>
      </trkpt>
      <trkpt lat="47.30621" lon="3.92705">
        <ele>470.9</ele>
        <time>2024-09-02T08:54:57Z</time>
      </trkpt>
      <trkpt lat="47.30623" lon="3.92699">
        <ele>470.6</ele>
        <time>2024-09-02T08:55:01.500Z</time>
      </trkpt>
      <trkpt lat="47.30625" lon="3.92692">
        <ele>470.2</ele>
        <time>2024-09-02T08:55:06Z</time>
      </trkpt>
      <trkpt lat="47.30628" lon="3.92687">
        <ele>470.2</ele>
        <time>2024-09-02T08:55:10.500Z</time>
      </trkpt>
      <trkpt lat="47.30631" lon="3.92681">
        <ele>470.1</ele>
        <time>2024-09-02T08:55:15Z</time>
      </trkpt>
      <trkpt lat="47.30635" lon="3.92675">
        <ele>470.2</ele>
        <time>2024-09-02T08:55:19.500Z</time>
      </trkpt>
      <trkpt lat="47.30639" lon="3.92669">
        <ele>470.3</ele>
        <time>2024-09-02T08:55:24Z</time>
      </trkpt>
      <trkpt lat="47.30643" lon="3.92665">
        <ele>470.1</ele>
        <time>2024-09-02T08:55:28.500Z</time>
      </trkpt>
      <trkpt lat="47.30647" lon="3.9266">
        <ele>469.7</ele>
        <time>2024-09-02T08:55:33Z</time>
      </trkpt>
      <trkpt lat="47.30651" lon="3.92655">
        <ele>469.2</ele>
        <time>2024-09-02T08:55:37.500Z</time>
      </trkpt>
      <trkpt lat="47.30654" lon="3.92649">
        <ele>468.8</ele>
        <time>2024-09-02T08:55:42Z</time>
      </trkpt>
      <trkpt lat="47.30658" lon="3.92642">
        <ele>468.2</ele>
        <time>2024-09-02T08:55:47.000Z</time>
      </trkpt>
      <trkpt lat="47.30662" lon="3.92634">
        <ele>467.6</ele>
        <time>2024-09-02T08:55:52Z</time>
      </trkpt>
      <trkpt lat="47.30666" lon="3.92628">
        <ele>467.3</ele>
        <time>2024-09-02T08:55:57.000Z</time>
      </trkpt>
      <trkpt lat="47.3067" lon="3.92622">
        <ele>466.9</ele>
        <time>2024-09-02T08:56:02Z</time>
      </trkpt>
      <trkpt lat="47.30673" lon="3.92617">
        <ele>466.5</ele>
        <time>2024-09-02T08:56:07.000Z</time>
      </trkpt>
      <trkpt lat="47.30676" lon="3.92611">
        <ele>466</ele>
        <time>2024-09-02T08:56:12Z</time>
      </trkpt>
      <trkpt lat="47.30681" lon="3.92605">
        <ele>465.3</ele>
        <time>2024-09-02T08:56:17.500Z</time>
      </trkpt>
      <trkpt lat="47.30685" lon="3.92598">
        <ele>464.6</ele>
        <time>2024-09-02T08:56:23Z</time>
      </trkpt>
      <trkpt lat="47.3069" lon="3.92591">
        <ele>463.8</ele>
        <time>2024-09-02T08:56:28.500Z</time>
      </trkpt>
      <trkpt lat="47.30694" lon="3.92584">
        <ele>463.1</ele>
        <time>2024-09-02T08:56:34Z</time>
      </trkpt>
      <trkpt lat="47.30699" lon="3.9258">
        <ele>462.7</ele>
        <time>2024-09-02T08:56:39.000Z</time>
      </trkpt>
      <trkpt lat="47.30703" lon="3.92575">
        <ele>462.4</ele>
        <time>2024-09-02T08:56:44Z</time>
      </trkpt>
      <trkpt lat="47.30708" lon="3.9257">
        <ele>461.9</ele>
        <time>2024-09-02T08:56:49.500Z</time>
      </trkpt>
      <trkpt lat="47.30712" lon="3.92564">
        <ele>461.4</ele>
        <time>2024-09-02T08:56:55Z</time>
      </trkpt>
      <trkpt lat="47.30717" lon="3.92558">
        <ele>460.8</ele>
        <time>2024-09-02T08:57:00.500Z</time>
      </trkpt>
      <trkpt lat="47.30721" lon="3.92552">
        <ele>460.4</ele>
        <time>2024-09-02T08:57:06Z</time>
      </trkpt>
      <trkpt lat="47.30727" lon="3.92548">
        <ele>460.3</ele>
        <time>2024-09-02T08:57:11.000Z</time>
      </trkpt>
      <trkpt lat="47.30732" lon="3.92543">
        <ele>460.2</ele>
        <time>2024-09-02T08:57:16Z</time>
      </trkpt>
      <trkpt lat="47.30737" lon="3.92539">
        <ele>460.2</ele>
        <time>2024-09-02T08:57:21.000Z</time>
      </trkpt>
      <trkpt lat="47.30741" lon="3.92535">
        <ele>460.1</ele>
        <time>2024-09-02T08:57:26Z</time>
      </trkpt>
      <trkpt lat="47.30748" lon="3.9253">
        <ele>460.1</ele>
        <time>2024-09-02T08:57:32.000Z</time>
      </trkpt>
      <trkpt lat="47.30755" lon="3.92525">
        <ele>460.1</ele>
        <time>2024-09-02T08:57:38Z</time>
      </trkpt>
      <trkpt lat="47.3076" lon="3.92521">
        <ele>460</ele>
        <time>2024-09-02T08:57:42.500Z</time>
      </trkpt>
      <trkpt lat="47.30764" lon="3.92517">
        <ele>459.8</ele>
        <time>2024-09-02T08:57:47Z</time>
      </trkpt>
      <trkpt lat="47.30768" lon="3.92512">
        <ele>459.2</ele>
        <time>2024-09-02T08:57:52.500Z</time>
      </trkpt>
      <trkpt lat="47.30772" lon="3.92506">
        <ele>458.6</ele>
        <time>2024-09-02T08:57:58Z</time>
      </trkpt>
      <trkpt lat="47.30777" lon="3.92501">
        <ele>458</ele>
        <time>2024-09-02T08:58:03.000Z</time>
      </trkpt>
      <trkpt lat="47.30782" lon="3.92495">
        <ele>457.7</ele>
        <time>2024-09-02T08:58:08Z</time>
      </trkpt>
      <trkpt lat="47.30787" lon="3.92491">
        <ele>457.6</ele>
        <time>2024-09-02T08:58:12.500Z</time>
      </trkpt>
      <trkpt lat="47.30792" lon="3.92487">
        <ele>457.4</ele>
        <time>2024-09-02T08:58:17Z</time>
      </trkpt>
      <trkpt lat="47.30799" lon="3.92479">
        <ele>456.7</ele>
        <time>2024-09-02T08:58:25Z</time>
      </trkpt>
      <trkpt lat="47.30804" lon="3.92475">
        <ele>456.3</ele>
        <time>2024-09-02T08:58:29.500Z</time>
      </trkpt>
      <trkpt lat="47.30809" lon="3.9247">
        <ele>455.6</ele>
        <time>2024-09-02T08:58:34Z</time>
      </trkpt>
      <trkpt lat="47.30815" lon="3.92466">
        <ele>455</ele>
        <time>2024-09-02T08:58:39.000Z</time>
      </trkpt>
      <trkpt lat="47.3082" lon="3.92462">
        <ele>454.4</ele>
        <time>2024-09-02T08:58:44Z</time>
      </trkpt>
      <trkpt lat="47.30825" lon="3.92457">
        <ele>453.6</ele>
        <time>2024-09-02T08:58:49.000Z</time>
      </trkpt>
      <trkpt lat="47.30829" lon="3.92451">
        <ele>452.8</ele>
        <time>2024-09-02T08:58:54Z</time>
      </trkpt>
      <trkpt lat="47.30834" lon="3.92447">
        <ele>452.3</ele>
        <time>2024-09-02T08:58:58.500Z</time>
      </trkpt>
      <trkpt lat="47.30839" lon="3.92442">
        <ele>451.4</ele>
        <time>2024-09-02T08:59:03Z</time>
      </trkpt>
      <trkpt lat="47.30845" lon="3.92438">
        <ele>450.3</ele>
        <time>2024-09-02T08:59:08.000Z</time>
      </trkpt>
      <trkpt lat="47.3085" lon="3.92433">
        <ele>449.3</ele>
        <time>2024-09-02T08:59:13Z</time>
      </trkpt>
      <trkpt lat="47.30854" lon="3.92429">
        <ele>448.4</ele>
        <time>2024-09-02T08:59:18.000Z</time>
      </trkpt>
      <trkpt lat="47.30858" lon="3.92424">
        <ele>447.4</ele>
        <time>2024-09-02T08:59:23Z</time>
      </trkpt>
      <trkpt lat="47.30865" lon="3.9242">
        <ele>446.2</ele>
        <time>2024-09-02T08:59:29.000Z</time>
      </trkpt>
      <trkpt lat="47.30872" lon="3.92415">
        <ele>444.8</ele>
        <time>2024-09-02T08:59:35Z</time>
      </trkpt>
      <trkpt lat="47.30878" lon="3.92412">
        <ele>443.7</ele>
        <time>2024-09-02T08:59:40.500Z</time>
      </trkpt>
      <trkpt lat="47.30883" lon="3.92409">
        <ele>442.7</ele>
        <time>2024-09-02T08:59:46Z</time>
      </trkpt>
      <trkpt lat="47.30888" lon="3.92408">
        <ele>442.1</ele>
        <time>2024-09-02T09:00:00.500Z</time>
      </trkpt>
      <trkpt lat="47.30893" lon="3.92406">
        <ele>441.3</ele>
        <time>2024-09-02T09:00:15Z</time>
      </trkpt>
      <trkpt lat="47.30899" lon="3.92403">
        <ele>440.1</ele>
        <time>2024-09-02T09:00:23.000Z</time>
      </trkpt>
      <trkpt lat="47.30905" lon="3.924">
        <ele>439</ele>
        <time>2024-09-02T09:00:31Z</time>
      </trkpt>
      <trkpt lat="47.3091" lon="3.92394">
        <ele>437.4</ele>
        <time>2024-09-02T09:00:38.500Z</time>
      </trkpt>
      <trkpt lat="47.30915" lon="3.92388">
        <ele>435.9</ele>
        <time>2024-09-02T09:00:46Z</time>
      </trkpt>
      <trkpt lat="47.3092" lon="3.92384">
        <ele>434.6</ele>
        <time>2024-09-02T09:00:51.000Z</time>
      </trkpt>
      <trkpt lat="47.30925" lon="3.9238">
        <ele>433.3</ele>
        <time>2024-09-02T09:00:56Z</time>
      </trkpt>
      <trkpt lat="47.30931" lon="3.92378">
        <ele>432.3</ele>
        <time>2024-09-02T09:01:01.500Z</time>
      </trkpt>
      <trkpt lat="47.30936" lon="3.92376">
        <ele>431.5</ele>
        <time>2024-09-02T09:01:07Z</time>
      </trkpt>
      <trkpt lat="47.30943" lon="3.92376">
        <ele>430.8</ele>
        <time>2024-09-02T09:01:12.500Z</time>
      </trkpt>
      <trkpt lat="47.30949" lon="3.92375">
        <ele>429.9</ele>
        <time>2024-09-02T09:01:18Z</time>
      </trkpt>
      <trkpt lat="47.30953" lon="3.92373">
        <ele>429</ele>
        <time>2024-09-02T09:01:33Z</time>
      </trkpt>
      <trkpt lat="47.3096" lon="3.92373">
        <ele>428.2</ele>
        <time>2024-09-02T09:01:38.500Z</time>
      </trkpt>
      <trkpt lat="47.30966" lon="3.92373">
        <ele>427.4</ele>
        <time>2024-09-02T09:01:44Z</time>
      </trkpt>
      <trkpt lat="47.30974" lon="3.92371">
        <ele>425.8</ele>
        <time>2024-09-02T09:01:50.000Z</time>
      </trkpt>
      <trkpt lat="47.30982" lon="3.92368">
        <ele>424.4</ele>
        <time>2024-09-02T09:01:56Z</time>
      </trkpt>
      <trkpt lat="47.30988" lon="3.92363">
        <ele>422.8</ele>
        <time>2024-09-02T09:02:02.000Z</time>
      </trkpt>
      <trkpt lat="47.30993" lon="3.92358">
        <ele>421.1</ele>
        <time>2024-09-02T09:02:08Z</time>
      </trkpt>
      <trkpt lat="47.31" lon="3.92356">
        <ele>419.8</ele>
        <time>2024-09-02T09:02:14.000Z</time>
      </trkpt>
      <trkpt lat="47.31007" lon="3.92353">
        <ele>418.2</ele>
        <time>2024-09-02T09:02:20Z</time>
      </trkpt>
      <trkpt lat="47.31014" lon="3.92353">
        <ele>417.2</ele>
        <time>2024-09-02T09:02:25.000Z</time>
      </trkpt>
      <trkpt lat="47.31021" lon="3.92353">
        <ele>416.2</ele>
        <time>2024-09-02T09:02:30Z</time>
      </trkpt>
      <trkpt lat="47.31028" lon="3.92353">
        <ele>415.3</ele>
        <time>2024-09-02T09:02:35.500Z</time>
      </trkpt>
      <trkpt lat="47.31034" lon="3.92353">
        <ele>414.3</ele>
        <time>2024-09-02T09:02:41Z</time>
      </trkpt>
      <trkpt lat="47.3104" lon="3.92354">
        <ele>413.6</ele>
        <time>2024-09-02T09:02:46.500Z</time>
      </trkpt>
      <trkpt lat="47.31045" lon="3.92355">
        <ele>412.9</ele>
        <time>2024-09-02T09:02:52Z</time>
      </trkpt>
      <trkpt lat="47.31053" lon="3.92357">
        <ele>411.8</ele>
        <time>2024-09-02T09:02:58.000Z</time>
      </trkpt>
      <trkpt lat="47.3106" lon="3.92358">
        <ele>411.1</ele>
        <time>2024-09-02T09:03:04Z</time>
      </trkpt>
      <trkpt lat="47.31066" lon="3.92361">
        <ele>410.9</ele>
        <time>2024-09-02T09:03:09.000Z</time>
      </trkpt>
      <trkpt lat="47.31072" lon="3.92364">
        <ele>410.6</ele>
        <time>2024-09-02T09:03:14Z</time>
      </trkpt>
      <trkpt lat="47.31077" lon="3.92364">
        <ele>410</ele>
        <time>2024-09-02T09:03:19.000Z</time>
      </trkpt>
      <trkpt lat="47.31081" lon="3.92363">
        <ele>409.5</ele>
        <time>2024-09-02T09:03:24Z</time>
      </trkpt>
      <trkpt lat="47.31088" lon="3.92357">
        <ele>408.4</ele>
        <time>2024-09-02T09:03:36Z</time>
      </trkpt>
      <trkpt lat="47.31094" lon="3.92355">
        <ele>408.1</ele>
        <time>2024-09-02T09:03:41.500Z</time>
      </trkpt>
      <trkpt lat="47.31099" lon="3.92353">
        <ele>407.7</ele>
        <time>2024-09-02T09:03:47Z</time>
      </trkpt>
      <trkpt lat="47.31106" lon="3.9235">
        <ele>407.3</ele>
        <time>2024-09-02T09:03:52.000Z</time>
      </trkpt>
      <trkpt lat="47.31112" lon="3.92347">
        <ele>407</ele>
        <time>2024-09-02T09:03:57Z</time>
      </trkpt>
      <trkpt lat="47.31117" lon="3.92344">
        <ele>406.9</ele>
        <time>2024-09-02T09:04:02.000Z</time>
      </trkpt>
      <trkpt lat="47.31122" lon="3.9234">
        <ele>406.9</ele>
        <time>2024-09-02T09:04:07Z</time>
      </trkpt>
      <trkpt lat="47.31127" lon="3.92339">
        <ele>406.9</ele>
        <time>2024-09-02T09:04:11.500Z</time>
      </trkpt>
      <trkpt lat="47.31132" lon="3.92337">
        <ele>407</ele>
        <time>2024-09-02T09:04:16Z</time>
      </trkpt>
      <trkpt lat="47.31138" lon="3.92337">
        <ele>407.2</ele>
        <time>2024-09-02T09:06:24.750Z</time>
      </trkpt>
      <trkpt lat="47.31143" lon="3.92338">
        <ele>407.7</ele>
        <time>2024-09-02T09:08:33.500Z</time>
      </trkpt>
      <trkpt lat="47.31149" lon="3.92338">
        <ele>408.4</ele>
        <time>2024-09-02T09:10:42.250Z</time>
      </trkpt>
      <trkpt lat="47.31154" lon="3.92338">
        <ele>409</ele>
        <time>2024-09-02T09:12:51Z</time>
      </trkpt>
      <trkpt lat="47.31158" lon="3.92328">
        <ele>408.7</ele>
        <time>2024-09-02T09:14:18.000Z</time>
      </trkpt>
      <trkpt lat="47.31162" lon="3.92318">
        <ele>408.4</ele>
        <time>2024-09-02T09:15:45.000Z</time>
      </trkpt>
      <trkpt lat="47.31166" lon="3.92308">
        <ele>408.1</ele>
        <time>2024-09-02T09:17:12.000Z</time>
      </trkpt>
      <trkpt lat="47.3117" lon="3.92298">
        <ele>407.8</ele>
        <time>2024-09-02T09:18:39Z</time>
      </trkpt>
      <trkpt lat="47.31175" lon="3.92296">
        <ele>408</ele>
        <time>2024-09-02T09:18:43.500Z</time>
      </trkpt>
      <trkpt lat="47.31179" lon="3.92293">
        <ele>408.2</ele>
        <time>2024-09-02T09:18:48Z</time>
      </trkpt>
      <trkpt lat="47.31181" lon="3.92287">
        <ele>407.9</ele>
        <time>2024-09-02T09:18:53.000Z</time>
      </trkpt>
      <trkpt lat="47.31183" lon="3.92281">
        <ele>407.5</ele>
        <time>2024-09-02T09:18:58Z</time>
      </trkpt>
      <trkpt lat="47.31178" lon="3.9227">
        <ele>405.7</ele>
        <time>2024-09-02T09:19:08Z</time>
      </trkpt>
      <trkpt lat="47.3117" lon="3.92265">
        <ele>404.4</ele>
        <time>2024-09-02T09:19:16Z</time>
      </trkpt>
      <trkpt lat="47.31166" lon="3.92264">
        <ele>403.8</ele>
        <time>2024-09-02T09:19:20.000Z</time>
      </trkpt>
      <trkpt lat="47.31161" lon="3.92262">
        <ele>403</ele>
        <time>2024-09-02T09:19:24Z</time>
      </trkpt>
      <trkpt lat="47.31157" lon="3.92258">
        <ele>401.9</ele>
        <time>2024-09-02T09:19:28.999Z</time>
      </trkpt>
      <trkpt lat="47.31152" lon="3.92254">
        <ele>400.9</ele>
        <time>2024-09-02T09:19:34Z</time>
      </trkpt>
      <trkpt lat="47.31155" lon="3.92248">
        <ele>400.3</ele>
        <time>2024-09-02T09:19:38.500Z</time>
      </trkpt>
      <trkpt lat="47.31157" lon="3.92241">
        <ele>399.4</ele>
        <time>2024-09-02T09:19:43Z</time>
      </trkpt>
      <trkpt lat="47.31158" lon="3.92235">
        <ele>398.4</ele>
        <time>2024-09-02T09:19:49.000Z</time>
      </trkpt>
      <trkpt lat="47.31159" lon="3.92228">
        <ele>397.4</ele>
        <time>2024-09-02T09:19:55Z</time>
      </trkpt>
      <trkpt lat="47.3116" lon="3.9222">
        <ele>396.1</ele>
        <time>2024-09-02T09:20:01.000Z</time>
      </trkpt>
      <trkpt lat="47.31161" lon="3.92212">
        <ele>394.8</ele>
        <time>2024-09-02T09:20:07Z</time>
      </trkpt>
      <trkpt lat="47.31166" lon="3.92207">
        <ele>394.2</ele>
        <time>2024-09-02T09:20:13.000Z</time>
      </trkpt>
      <trkpt lat="47.3117" lon="3.92202">
        <ele>393.6</ele>
        <time>2024-09-02T09:20:19Z</time>
      </trkpt>
      <trkpt lat="47.31175" lon="3.92199">
        <ele>393.3</ele>
        <time>2024-09-02T09:20:23.500Z</time>
      </trkpt>
      <trkpt lat="47.31179" lon="3.92195">
        <ele>393</ele>
        <time>2024-09-02T09:20:28Z</time>
      </trkpt>
      <trkpt lat="47.31185" lon="3.92193">
        <ele>393</ele>
        <time>2024-09-02T09:20:33.500Z</time>
      </trkpt>
      <trkpt lat="47.3119" lon="3.92191">
        <ele>392.9</ele>
        <time>2024-09-02T09:20:39Z</time>
      </trkpt>
      <trkpt lat="47.31194" lon="3.92188">
        <ele>392.5</ele>
        <time>2024-09-02T09:20:44.000Z</time>
      </trkpt>
      <trkpt lat="47.31198" lon="3.92184">
        <ele>391.8</ele>
        <time>2024-09-02T09:20:49Z</time>
      </trkpt>
      <trkpt lat="47.31203" lon="3.9218">
        <ele>391</ele>
        <time>2024-09-02T09:20:54.000Z</time>
      </trkpt>
      <trkpt lat="47.31207" lon="3.92176">
        <ele>390.2</ele>
        <time>2024-09-02T09:20:59Z</time>
      </trkpt>
      <trkpt lat="47.3121" lon="3.92171">
        <ele>389</ele>
        <time>2024-09-02T09:21:05.500Z</time>
      </trkpt>
      <trkpt lat="47.31213" lon="3.92166">
        <ele>387.8</ele>
        <time>2024-09-02T09:21:12Z</time>
      </trkpt>
      <trkpt lat="47.31218" lon="3.92159">
        <ele>385.9</ele>
        <time>2024-09-02T09:21:17.500Z</time>
      </trkpt>
      <trkpt lat="47.31222" lon="3.92151">
        <ele>384.1</ele>
        <time>2024-09-02T09:21:23Z</time>
      </trkpt>
      <trkpt lat="47.31225" lon="3.92146">
        <ele>382.9</ele>
        <time>2024-09-02T09:21:28.000Z</time>
      </trkpt>
      <trkpt lat="47.31228" lon="3.92141">
        <ele>381.7</ele>
        <time>2024-09-02T09:21:33Z</time>
      </trkpt>
      <trkpt lat="47.31234" lon="3.92139">
        <ele>381.3</ele>
        <time>2024-09-02T09:21:40.500Z</time>
      </trkpt>
      <trkpt lat="47.3124" lon="3.92136">
        <ele>381</ele>
        <time>2024-09-02T09:21:48Z</time>
      </trkpt>
      <trkpt lat="47.31246" lon="3.92131">
        <ele>380.1</ele>
        <time>2024-09-02T09:21:55.000Z</time>
      </trkpt>
      <trkpt lat="47.31251" lon="3.92126">
        <ele>379.2</ele>
        <time>2024-09-02T09:22:02Z</time>
      </trkpt>
      <trkpt lat="47.31257" lon="3.92124">
        <ele>378.6</ele>
        <time>2024-09-02T09:22:08.500Z</time>
      </trkpt>
      <trkpt lat="47.31263" lon="3.92121">
        <ele>378</ele>
        <time>2024-09-02T09:22:15Z</time>
      </trkpt>
      <trkpt lat="47.31269" lon="3.92118">
        <ele>377.3</ele>
        <time>2024-09-02T09:22:21.500Z</time>
      </trkpt>
      <trkpt lat="47.31275" lon="3.92115">
        <ele>376.7</ele>
        <time>2024-09-02T09:22:28Z</time>
      </trkpt>
      <trkpt lat="47.31281" lon="3.92114">
        <ele>376.6</ele>
        <time>2024-09-02T09:22:34.500Z</time>
      </trkpt>
      <trkpt lat="47.31287" lon="3.92113">
        <ele>376.6</ele>
        <time>2024-09-02T09:22:41Z</time>
      </trkpt>
      <trkpt lat="47.31294" lon="3.92112">
        <ele>376.6</ele>
        <time>2024-09-02T09:22:46.500Z</time>
      </trkpt>
      <trkpt lat="47.31301" lon="3.9211">
        <ele>376.7</ele>
        <time>2024-09-02T09:22:52Z</time>
      </trkpt>
      <trkpt lat="47.31306" lon="3.92109">
        <ele>376.7</ele>
        <time>2024-09-02T09:22:56.500Z</time>
      </trkpt>
      <trkpt lat="47.31311" lon="3.92107">
        <ele>376.2</ele>
        <time>2024-09-02T09:23:01Z</time>
      </trkpt>
      <trkpt lat="47.31317" lon="3.92108">
        <ele>375.9</ele>
        <time>2024-09-02T09:23:06.500Z</time>
      </trkpt>
      <trkpt lat="47.31323" lon="3.92109">
        <ele>375.6</ele>
        <time>2024-09-02T09:23:12Z</time>
      </trkpt>
      <trkpt lat="47.31328" lon="3.92107">
        <ele>375</ele>
        <time>2024-09-02T09:23:17.500Z</time>
      </trkpt>
      <trkpt lat="47.31333" lon="3.92104">
        <ele>374.5</ele>
        <time>2024-09-02T09:23:23Z</time>
      </trkpt>
      <trkpt lat="47.31336" lon="3.92092">
        <ele>373.1</ele>
        <time>2024-09-02T09:23:35Z</time>
      </trkpt>
      <trkpt lat="47.31332" lon="3.92084">
        <ele>373.1</ele>
        <time>2024-09-02T09:23:49Z</time>
      </trkpt>
      <trkpt lat="47.31332" lon="3.92073">
        <ele>371.9</ele>
        <time>2024-09-02T09:24:21Z</time>
      </trkpt>
      <trkpt lat="47.31336" lon="3.92067">
        <ele>370.8</ele>
        <time>2024-09-02T09:24:27.500Z</time>
      </trkpt>
      <trkpt lat="47.31339" lon="3.92061">
        <ele>369.4</ele>
        <time>2024-09-02T09:24:34Z</time>
      </trkpt>
      <trkpt lat="47.31344" lon="3.92061">
        <ele>368.3</ele>
        <time>2024-09-02T09:24:44.000Z</time>
      </trkpt>
      <trkpt lat="47.31348" lon="3.9206">
        <ele>367.3</ele>
        <time>2024-09-02T09:24:54Z</time>
      </trkpt>
      <trkpt lat="47.31356" lon="3.92064">
        <ele>366</ele>
        <time>2024-09-02T09:25:02.000Z</time>
      </trkpt>
      <trkpt lat="47.31364" lon="3.92068">
        <ele>364.2</ele>
        <time>2024-09-02T09:25:10Z</time>
      </trkpt>
      <trkpt lat="47.31371" lon="3.92076">
        <ele>362.7</ele>
        <time>2024-09-02T09:25:19.000Z</time>
      </trkpt>
      <trkpt lat="47.31377" lon="3.92083">
        <ele>361.2</ele>
        <time>2024-09-02T09:25:28Z</time>
      </trkpt>
      <trkpt lat="47.31382" lon="3.9209">
        <ele>360.6</ele>
        <time>2024-09-02T09:25:33.500Z</time>
      </trkpt>
      <trkpt lat="47.31386" lon="3.92097">
        <ele>360</ele>
        <time>2024-09-02T09:25:39Z</time>
      </trkpt>
      <trkpt lat="47.3139" lon="3.92102">
        <ele>359.2</ele>
        <time>2024-09-02T09:25:43.250Z</time>
      </trkpt>
      <trkpt lat="47.31395" lon="3.92107">
        <ele>358.2</ele>
        <time>2024-09-02T09:25:47.500Z</time>
      </trkpt>
      <trkpt lat="47.31399" lon="3.92112">
        <ele>357.2</ele>
        <time>2024-09-02T09:25:51.750Z</time>
      </trkpt>
      <trkpt lat="47.31403" lon="3.92117">
        <ele>356.5</ele>
        <time>2024-09-02T09:25:56Z</time>
      </trkpt>
      <trkpt lat="47.31408" lon="3.92117">
        <ele>354.8</ele>
        <time>2024-09-02T09:26:06.000Z</time>
      </trkpt>
      <trkpt lat="47.31412" lon="3.92117">
        <ele>353</ele>
        <time>2024-09-02T09:26:16Z</time>
      </trkpt>
      <trkpt lat="47.31411" lon="3.92111">
        <ele>352.3</ele>
        <time>2024-09-02T09:26:22.999Z</time>
      </trkpt>
      <trkpt lat="47.31409" lon="3.92104">
        <ele>351.8</ele>
        <time>2024-09-02T09:26:30Z</time>
      </trkpt>
      <trkpt lat="47.31408" lon="3.92095">
        <ele>350.7</ele>
        <time>2024-09-02T09:26:45Z</time>
      </trkpt>
      <trkpt lat="47.31407" lon="3.92089">
        <ele>350.1</ele>
        <time>2024-09-02T09:27:01Z</time>
      </trkpt>
      <trkpt lat="47.31414" lon="3.92082">
        <ele>346</ele>
        <time>2024-09-02T09:27:13Z</time>
      </trkpt>
      <trkpt lat="47.31419" lon="3.92071">
        <ele>343.6</ele>
        <time>2024-09-02T09:27:25Z</time>
      </trkpt>
      <trkpt lat="47.31425" lon="3.92073">
        <ele>342.4</ele>
        <time>2024-09-02T09:27:31.000Z</time>
      </trkpt>
      <trkpt lat="47.3143" lon="3.92075">
        <ele>341.2</ele>
        <time>2024-09-02T09:27:37Z</time>
      </trkpt>
      <trkpt lat="47.31435" lon="3.92079">
        <ele>340.3</ele>
        <time>2024-09-02T09:27:42.500Z</time>
      </trkpt>
      <trkpt lat="47.31439" lon="3.92082">
        <ele>339.3</ele>
        <time>2024-09-02T09:27:48Z</time>
      </trkpt>
      <trkpt lat="47.31445" lon="3.92088">
        <ele>338.6</ele>
        <time>2024-09-02T09:27:58.000Z</time>
      </trkpt>
      <trkpt lat="47.31451" lon="3.92093">
        <ele>338.7</ele>
        <time>2024-09-02T09:28:08Z</time>
      </trkpt>
      <trkpt lat="47.31457" lon="3.92098">
        <ele>338.5</ele>
        <time>2024-09-02T09:28:22Z</time>
      </trkpt>
      <trkpt lat="47.31453" lon="3.92098">
        <ele>339</ele>
        <time>2024-09-02T09:28:39Z</time>
      </trkpt>
      <trkpt lat="47.31447" lon="3.92089">
        <ele>338.6</ele>
        <time>2024-09-02T09:28:51Z</time>
      </trkpt>
      <trkpt lat="47.31451" lon="3.92097">
        <ele>339.1</ele>
        <time>2024-09-02T09:29:12Z</time>
      </trkpt>
      <trkpt lat="47.31452" lon="3.92106">
        <ele>340.1</ele>
        <time>2024-09-02T09:29:27Z</time>
      </trkpt>
      <trkpt lat="47.31444" lon="3.92101">
        <ele>340.7</ele>
        <time>2024-09-02T09:29:39Z</time>
      </trkpt>
      <trkpt lat="47.3144" lon="3.92091">
        <ele>340.3</ele>
        <time>2024-09-02T09:29:54Z</time>
      </trkpt>
      <trkpt lat="47.31436" lon="3.9209">
        <ele>341.3</ele>
        <time>2024-09-02T09:30:01.500Z</time>
      </trkpt>
      <trkpt lat="47.31431" lon="3.92089">
        <ele>342.3</ele>
        <time>2024-09-02T09:30:09Z</time>
      </trkpt>
      <trkpt lat="47.31423" lon="3.92084">
        <ele>343.5</ele>
        <time>2024-09-02T09:30:21Z</time>
      </trkpt>
      <trkpt lat="47.31421" lon="3.92077">
        <ele>343.5</ele>
        <time>2024-09-02T09:30:26.499Z</time>
      </trkpt>
      <trkpt lat="47.31419" lon="3.9207">
        <ele>343.5</ele>
        <time>2024-09-02T09:30:32Z</time>
      </trkpt>
      <trkpt lat="47.3142" lon="3.92059">
        <ele>342.5</ele>
        <time>2024-09-02T09:30:39.500Z</time>
      </trkpt>
      <trkpt lat="47.31421" lon="3.92048">
        <ele>341.6</ele>
        <time>2024-09-02T09:30:47Z</time>
      </trkpt>
      <trkpt lat="47.31422" lon="3.92039">
        <ele>340.9</ele>
        <time>2024-09-02T09:30:55.000Z</time>
      </trkpt>
      <trkpt lat="47.31423" lon="3.9203">
        <ele>340.2</ele>
        <time>2024-09-02T09:31:03Z</time>
      </trkpt>
      <trkpt lat="47.31419" lon="3.92022">
        <ele>340.5</ele>
        <time>2024-09-02T09:31:19Z</time>
      </trkpt>
      <trkpt lat="47.31414" lon="3.92023">
        <ele>341.7</ele>
        <time>2024-09-02T09:31:43Z</time>
      </trkpt>
      <trkpt lat="47.31416" lon="3.92027">
        <ele>341.2</ele>
        <time>2024-09-02T09:32:07Z</time>
      </trkpt>
      <trkpt lat="47.3141" lon="3.92029">
        <ele>343.3</ele>
        <time>2024-09-02T09:32:24Z</time>
      </trkpt>
      <trkpt lat="47.31408" lon="3.92021">
        <ele>343.6</ele>
        <time>2024-09-02T09:32:30.499Z</time>
      </trkpt>
      <trkpt lat="47.31405" lon="3.92013">
        <ele>344</ele>
        <time>2024-09-02T09:32:37Z</time>
      </trkpt>
      <trkpt lat="47.31402" lon="3.92008">
        <ele>344.7</ele>
        <time>2024-09-02T09:32:43.499Z</time>
      </trkpt>
      <trkpt lat="47.31399" lon="3.92003">
        <ele>345.3</ele>
        <time>2024-09-02T09:32:50Z</time>
      </trkpt>
      <trkpt lat="47.31396" lon="3.91995">
        <ele>345.4</ele>
        <time>2024-09-02T09:33:10Z</time>
      </trkpt>
      <trkpt lat="47.31402" lon="3.91987">
        <ele>343.1</ele>
        <time>2024-09-02T09:33:26.000Z</time>
      </trkpt>
      <trkpt lat="47.31407" lon="3.91978">
        <ele>341.2</ele>
        <time>2024-09-02T09:33:42Z</time>
      </trkpt>
      <trkpt lat="47.31412" lon="3.9198">
        <ele>340.2</ele>
        <time>2024-09-02T09:33:49.500Z</time>
      </trkpt>
      <trkpt lat="47.31417" lon="3.91981">
        <ele>339.3</ele>
        <time>2024-09-02T09:33:57Z</time>
      </trkpt>
      <trkpt lat="47.31418" lon="3.91973">
        <ele>339.1</ele>
        <time>2024-09-02T09:34:12Z</time>
      </trkpt>
      <trkpt lat="47.31415" lon="3.91976">
        <ele>339.5</ele>
        <time>2024-09-02T09:34:33Z</time>
      </trkpt>
      <trkpt lat="47.31416" lon="3.91976">
        <ele>339.3</ele>
        <time>2024-09-02T09:34:52Z</time>
      </trkpt>
      <trkpt lat="47.31412" lon="3.91982">
        <ele>340.3</ele>
        <time>2024-09-02T09:35:01.499Z</time>
      </trkpt>
      <trkpt lat="47.31408" lon="3.91987">
        <ele>341.6</ele>
        <time>2024-09-02T09:35:11Z</time>
      </trkpt>
      <trkpt lat="47.31404" lon="3.91987">
        <ele>342.7</ele>
        <time>2024-09-02T09:35:17.500Z</time>
      </trkpt>
      <trkpt lat="47.31399" lon="3.91987">
        <ele>343.7</ele>
        <time>2024-09-02T09:35:24Z</time>
      </trkpt>
      <trkpt lat="47.314" lon="3.91984">
        <ele>343.2</ele>
        <time>2024-09-02T09:37:32Z</time>
      </trkpt>
      <trkpt lat="47.31393" lon="3.91988">
        <ele>345.3</ele>
        <time>2024-09-02T09:37:43Z</time>
      </trkpt>
      <trkpt lat="47.31398" lon="3.91986">
        <ele>344</ele>
        <time>2024-09-02T09:38:09.250Z</time>
      </trkpt>
      <trkpt lat="47.31402" lon="3.91985">
        <ele>342.8</ele>
        <time>2024-09-02T09:38:35.500Z</time>
      </trkpt>
      <trkpt lat="47.31407" lon="3.91983">
        <ele>341.6</ele>
        <time>2024-09-02T09:39:01.750Z</time>
      </trkpt>
      <trkpt lat="47.31411" lon="3.91981">
        <ele>340.5</ele>
        <time>2024-09-02T09:39:28Z</time>
      </trkpt>
      <trkpt lat="47.3141" lon="3.91986">
        <ele>341.1</ele>
        <time>2024-09-02T09:39:55Z</time>
      </trkpt>
      <trkpt lat="47.31414" lon="3.91978">
        <ele>339.7</ele>
        <time>2024-09-02T09:40:05.500Z</time>
      </trkpt>
      <trkpt lat="47.31418" lon="3.9197">
        <ele>339.3</ele>
        <time>2024-09-02T09:40:16Z</time>
      </trkpt>
      <trkpt lat="47.31419" lon="3.91969">
        <ele>339.4</ele>
        <time>2024-09-02T09:40:39Z</time>
      </trkpt>
      <trkpt lat="47.31413" lon="3.91967">
        <ele>339.9</ele>
        <time>2024-09-02T09:40:57Z</time>
      </trkpt>
      <trkpt lat="47.31411" lon="3.91961">
        <ele>340.5</ele>
        <time>2024-09-02T09:41:16Z</time>
      </trkpt>
      <trkpt lat="47.31417" lon="3.91964">
        <ele>339.6</ele>
        <time>2024-09-02T09:41:45Z</time>
      </trkpt>
      <trkpt lat="47.31419" lon="3.91959">
        <ele>340.2</ele>
        <time>2024-09-02T09:42:00Z</time>
      </trkpt>
      <trkpt lat="47.31412" lon="3.91953">
        <ele>340.8</ele>
        <time>2024-09-02T09:42:17Z</time>
      </trkpt>
      <trkpt lat="47.31416" lon="3.91945">
        <ele>341</ele>
        <time>2024-09-02T09:42:36Z</time>
      </trkpt>
      <trkpt lat="47.31419" lon="3.91943">
        <ele>341.5</ele>
        <time>2024-09-02T09:43:11Z</time>
      </trkpt>
      <trkpt lat="47.31415" lon="3.91942">
        <ele>341.3</ele>
        <time>2024-09-02T09:43:21.999Z</time>
      </trkpt>
      <trkpt lat="47.3141" lon="3.9194">
        <ele>341.4</ele>
        <time>2024-09-02T09:43:33Z</time>
      </trkpt>
      <trkpt lat="47.31409" lon="3.91935">
        <ele>341.7</ele>
        <time>2024-09-02T09:43:55Z</time>
      </trkpt>
      <trkpt lat="47.31408" lon="3.9194">
        <ele>341.5</ele>
        <time>2024-09-02T09:44:24Z</time>
      </trkpt>
      <trkpt lat="47.31414" lon="3.91944">
        <ele>341.2</ele>
        <time>2024-09-02T09:44:42.000Z</time>
      </trkpt>
      <trkpt lat="47.3142" lon="3.91947">
        <ele>341.4</ele>
        <time>2024-09-02T09:45:00Z</time>
      </trkpt>
      <trkpt lat="47.31414" lon="3.91949">
        <ele>340.8</ele>
        <time>2024-09-02T09:45:10.499Z</time>
      </trkpt>
      <trkpt lat="47.31408" lon="3.91951">
        <ele>341.1</ele>
        <time>2024-09-02T09:45:21Z</time>
      </trkpt>
      <trkpt lat="47.31414" lon="3.91954">
        <ele>340.5</ele>
        <time>2024-09-02T09:45:42Z</time>
      </trkpt>
      <trkpt lat="47.31408" lon="3.91954">
        <ele>341.1</ele>
        <time>2024-09-02T09:46:03Z</time>
      </trkpt>
      <trkpt lat="47.31406" lon="3.91964">
        <ele>341.1</ele>
        <time>2024-09-02T09:46:23.999Z</time>
      </trkpt>
      <trkpt lat="47.31404" lon="3.91974">
        <ele>341.4</ele>
        <time>2024-09-02T09:46:44.999Z</time>
      </trkpt>
      <trkpt lat="47.31402" lon="3.91983">
        <ele>342.7</ele>
        <time>2024-09-02T09:47:05.999Z</time>
      </trkpt>
      <trkpt lat="47.314" lon="3.91993">
        <ele>344.1</ele>
        <time>2024-09-02T09:47:27Z</time>
      </trkpt>
      <trkpt lat="47.31396" lon="3.91989">
        <ele>344.7</ele>
        <time>2024-09-02T09:47:34.999Z</time>
      </trkpt>
      <trkpt lat="47.31392" lon="3.91985">
        <ele>345.1</ele>
        <time>2024-09-02T09:47:43Z</time>
      </trkpt>
      <trkpt lat="47.31388" lon="3.91978">
        <ele>345.1</ele>
        <time>2024-09-02T09:47:49.749Z</time>
      </trkpt>
      <trkpt lat="47.31385" lon="3.91972">
        <ele>345.4</ele>
        <time>2024-09-02T09:47:56.499Z</time>
      </trkpt>
      <trkpt lat="47.31381" lon="3.91965">
        <ele>346</ele>
        <time>2024-09-02T09:48:03.249Z</time>
      </trkpt>
      <trkpt lat="47.31377" lon="3.91958">
        <ele>346.4</ele>
        <time>2024-09-02T09:48:10Z</time>
      </trkpt>
      <trkpt lat="47.31371" lon="3.91955">
        <ele>347.9</ele>
        <time>2024-09-02T09:48:16.499Z</time>
      </trkpt>
      <trkpt lat="47.31364" lon="3.91952">
        <ele>349.3</ele>
        <time>2024-09-02T09:48:23Z</time>
      </trkpt>
      <trkpt lat="47.3136" lon="3.91947">
        <ele>349.8</ele>
        <time>2024-09-02T09:48:30.499Z</time>
      </trkpt>
      <trkpt lat="47.31355" lon="3.91942">
        <ele>350.1</ele>
        <time>2024-09-02T09:48:38Z</time>
      </trkpt>
      <trkpt lat="47.31349" lon="3.91937">
        <ele>350.4</ele>
        <time>2024-09-02T09:48:44.999Z</time>
      </trkpt>
      <trkpt lat="47.31343" lon="3.91931">
        <ele>350.5</ele>
        <time>2024-09-02T09:48:52Z</time>
      </trkpt>
      <trkpt lat="47.31338" lon="3.91926">
        <ele>350.4</ele>
        <time>2024-09-02T09:48:57.999Z</time>
      </trkpt>
      <trkpt lat="47.31332" lon="3.9192">
        <ele>350.1</ele>
        <time>2024-09-02T09:49:04Z</time>
      </trkpt>
      <trkpt lat="47.31327" lon="3.91915">
        <ele>349.9</ele>
        <time>2024-09-02T09:49:09.499Z</time>
      </trkpt>
      <trkpt lat="47.31321" lon="3.9191">
        <ele>349.8</ele>
        <time>2024-09-02T09:49:15Z</time>
      </trkpt>
      <trkpt lat="47.31315" lon="3.91907">
        <ele>350.1</ele>
        <time>2024-09-02T09:49:20.999Z</time>
      </trkpt>
      <trkpt lat="47.31309" lon="3.91904">
        <ele>350.3</ele>
        <time>2024-09-02T09:49:27Z</time>
      </trkpt>
      <trkpt lat="47.31304" lon="3.91902">
        <ele>350.6</ele>
        <time>2024-09-02T09:49:32.999Z</time>
      </trkpt>
      <trkpt lat="47.31298" lon="3.919">
        <ele>350.8</ele>
        <time>2024-09-02T09:49:39Z</time>
      </trkpt>
      <trkpt lat="47.31291" lon="3.91901">
        <ele>351.9</ele>
        <time>2024-09-02T09:49:45.500Z</time>
      </trkpt>
      <trkpt lat="47.31283" lon="3.91901">
        <ele>352.9</ele>
        <time>2024-09-02T09:49:52Z</time>
      </trkpt>
      <trkpt lat="47.31278" lon="3.919">
        <ele>353.4</ele>
        <time>2024-09-02T09:49:58.500Z</time>
      </trkpt>
      <trkpt lat="47.31272" lon="3.91899">
        <ele>353.5</ele>
        <time>2024-09-02T09:50:05Z</time>
      </trkpt>
      <trkpt lat="47.31268" lon="3.91903">
        <ele>354.6</ele>
        <time>2024-09-02T09:50:21Z</time>
      </trkpt>
      <trkpt lat="47.3126" lon="3.91904">
        <ele>355.1</ele>
        <time>2024-09-02T09:50:27.000Z</time>
      </trkpt>
      <trkpt lat="47.31252" lon="3.91904">
        <ele>355.6</ele>
        <time>2024-09-02T09:50:33Z</time>
      </trkpt>
      <trkpt lat="47.31246" lon="3.91905">
        <ele>355.2</ele>
        <time>2024-09-02T09:50:37.500Z</time>
      </trkpt>
      <trkpt lat="47.3124" lon="3.91906">
        <ele>354.2</ele>
        <time>2024-09-02T09:50:42Z</time>
      </trkpt>
      <trkpt lat="47.31234" lon="3.91909">
        <ele>353.5</ele>
        <time>2024-09-02T09:50:47.499Z</time>
      </trkpt>
      <trkpt lat="47.31228" lon="3.91912">
        <ele>352.7</ele>
        <time>2024-09-02T09:50:53Z</time>
      </trkpt>
      <trkpt lat="47.31223" lon="3.91917">
        <ele>352.2</ele>
        <time>2024-09-02T09:50:58.999Z</time>
      </trkpt>
      <trkpt lat="47.31218" lon="3.91922">
        <ele>351.6</ele>
        <time>2024-09-02T09:51:05Z</time>
      </trkpt>
      <trkpt lat="47.31216" lon="3.91929">
        <ele>351.7</ele>
        <time>2024-09-02T09:51:10.999Z</time>
      </trkpt>
      <trkpt lat="47.31213" lon="3.91936">
        <ele>351.6</ele>
        <time>2024-09-02T09:51:17Z</time>
      </trkpt>
      <trkpt lat="47.31209" lon="3.91944">
        <ele>351.2</ele>
        <time>2024-09-02T09:51:23.499Z</time>
      </trkpt>
      <trkpt lat="47.31205" lon="3.91952">
        <ele>350.7</ele>
        <time>2024-09-02T09:51:30Z</time>
      </trkpt>
      <trkpt lat="47.31203" lon="3.91961">
        <ele>350.8</ele>
        <time>2024-09-02T09:51:37.999Z</time>
      </trkpt>
      <trkpt lat="47.31201" lon="3.91969">
        <ele>350.9</ele>
        <time>2024-09-02T09:51:46Z</time>
      </trkpt>
      <trkpt lat="47.31198" lon="3.91978">
        <ele>350.6</ele>
        <time>2024-09-02T09:51:53.999Z</time>
      </trkpt>
      <trkpt lat="47.31194" lon="3.91987">
        <ele>350.5</ele>
        <time>2024-09-02T09:52:02Z</time>
      </trkpt>
      <trkpt lat="47.3119" lon="3.91995">
        <ele>350.7</ele>
        <time>2024-09-02T09:52:08.999Z</time>
      </trkpt>
      <trkpt lat="47.31186" lon="3.92003">
        <ele>350.9</ele>
        <time>2024-09-02T09:52:16Z</time>
      </trkpt>
      <trkpt lat="47.31179" lon="3.92008">
        <ele>350.1</ele>
        <time>2024-09-02T09:52:25.499Z</time>
      </trkpt>
      <trkpt lat="47.31171" lon="3.92013">
        <ele>349.3</ele>
        <time>2024-09-02T09:52:35Z</time>
      </trkpt>
      <trkpt lat="47.31165" lon="3.92018">
        <ele>348.7</ele>
        <time>2024-09-02T09:52:42.999Z</time>
      </trkpt>
      <trkpt lat="47.31158" lon="3.92022">
        <ele>348.8</ele>
        <time>2024-09-02T09:52:51Z</time>
      </trkpt>
      <trkpt lat="47.31152" lon="3.92027">
        <ele>348.8</ele>
        <time>2024-09-02T09:52:59.499Z</time>
      </trkpt>
      <trkpt lat="47.31145" lon="3.92031">
        <ele>349.1</ele>
        <time>2024-09-02T09:53:08Z</time>
      </trkpt>
      <trkpt lat="47.31139" lon="3.92036">
        <ele>349.4</ele>
        <time>2024-09-02T09:53:15.499Z</time>
      </trkpt>
      <trkpt lat="47.31133" lon="3.9204">
        <ele>349.8</ele>
        <time>2024-09-02T09:53:23Z</time>
      </trkpt>
      <trkpt lat="47.31126" lon="3.92044">
        <ele>349.9</ele>
        <time>2024-09-02T09:53:29.999Z</time>
      </trkpt>
      <trkpt lat="47.31118" lon="3.92048">
        <ele>349.8</ele>
        <time>2024-09-02T09:53:37Z</time>
      </trkpt>
      <trkpt lat="47.3111" lon="3.92051">
        <ele>349.4</ele>
        <time>2024-09-02T09:53:43.499Z</time>
      </trkpt>
      <trkpt lat="47.31102" lon="3.92054">
        <ele>349.2</ele>
        <time>2024-09-02T09:53:50Z</time>
      </trkpt>
      <trkpt lat="47.31096" lon="3.92056">
        <ele>349</ele>
        <time>2024-09-02T09:53:59.499Z</time>
      </trkpt>
      <trkpt lat="47.31089" lon="3.92058">
        <ele>349</ele>
        <time>2024-09-02T09:54:09Z</time>
      </trkpt>
      <trkpt lat="47.31085" lon="3.92051">
        <ele>347.7</ele>
        <time>2024-09-02T09:54:18.499Z</time>
      </trkpt>
      <trkpt lat="47.3108" lon="3.92044">
        <ele>347.1</ele>
        <time>2024-09-02T09:54:28Z</time>
      </trkpt>
      <trkpt lat="47.31077" lon="3.92038">
        <ele>346.6</ele>
        <time>2024-09-02T09:54:35.999Z</time>
      </trkpt>
      <trkpt lat="47.31073" lon="3.92032">
        <ele>346.2</ele>
        <time>2024-09-02T09:54:44Z</time>
      </trkpt>
      <trkpt lat="47.31069" lon="3.92027">
        <ele>346</ele>
        <time>2024-09-02T09:54:51.499Z</time>
      </trkpt>
      <trkpt lat="47.31065" lon="3.92022">
        <ele>346.3</ele>
        <time>2024-09-02T09:54:59Z</time>
      </trkpt>
      <trkpt lat="47.3106" lon="3.92016">
        <ele>346.7</ele>
        <time>2024-09-02T09:55:07.499Z</time>
      </trkpt>
      <trkpt lat="47.31055" lon="3.9201">
        <ele>347.3</ele>
        <time>2024-09-02T09:55:16Z</time>
      </trkpt>
      <trkpt lat="47.31052" lon="3.92012">
        <ele>347.3</ele>
        <time>2024-09-02T09:55:46Z</time>
      </trkpt>
      <trkpt lat="47.31057" lon="3.92002">
        <ele>347.8</ele>
        <time>2024-09-02T09:56:10Z</time>
      </trkpt>
      <trkpt lat="47.31051" lon="3.91998">
        <ele>348.3</ele>
        <time>2024-09-02T09:56:41Z</time>
      </trkpt>
      <trkpt lat="47.31047" lon="3.92002">
        <ele>348.2</ele>
        <time>2024-09-02T09:56:49.499Z</time>
      </trkpt>
      <trkpt lat="47.31042" lon="3.92006">
        <ele>348.1</ele>
        <time>2024-09-02T09:56:58Z</time>
      </trkpt>
      <trkpt lat="47.31036" lon="3.92007">
        <ele>348.2</ele>
        <time>2024-09-02T09:57:20Z</time>
      </trkpt>
      <trkpt lat="47.31033" lon="3.92002">
        <ele>348.7</ele>
        <time>2024-09-02T09:57:27.499Z</time>
      </trkpt>
      <trkpt lat="47.31029" lon="3.91996">
        <ele>349.4</ele>
        <time>2024-09-02T09:57:35Z</time>
      </trkpt>
      <trkpt lat="47.31027" lon="3.91986">
        <ele>350.5</ele>
        <time>2024-09-02T09:57:41.999Z</time>
      </trkpt>
      <trkpt lat="47.31024" lon="3.91976">
        <ele>351.6</ele>
        <time>2024-09-02T09:57:49Z</time>
      </trkpt>
      <trkpt lat="47.31026" lon="3.91968">
        <ele>352.3</ele>
        <time>2024-09-02T09:57:56.500Z</time>
      </trkpt>
      <trkpt lat="47.31028" lon="3.91959">
        <ele>352.9</ele>
        <time>2024-09-02T09:58:04Z</time>
      </trkpt>
      <trkpt lat="47.3103" lon="3.9195">
        <ele>353.5</ele>
        <time>2024-09-02T09:58:10.500Z</time>
      </trkpt>
      <trkpt lat="47.31031" lon="3.9194">
        <ele>353.9</ele>
        <time>2024-09-02T09:58:17Z</time>
      </trkpt>
      <trkpt lat="47.3103" lon="3.91929">
        <ele>354.4</ele>
        <time>2024-09-02T09:58:23.999Z</time>
      </trkpt>
      <trkpt lat="47.31028" lon="3.91917">
        <ele>355</ele>
        <time>2024-09-02T09:58:31Z</time>
      </trkpt>
      <trkpt lat="47.31029" lon="3.91907">
        <ele>355.3</ele>
        <time>2024-09-02T09:58:39.000Z</time>
      </trkpt>
      <trkpt lat="47.3103" lon="3.91896">
        <ele>355.6</ele>
        <time>2024-09-02T09:58:47Z</time>
      </trkpt>
      <trkpt lat="47.31031" lon="3.91886">
        <ele>356.1</ele>
        <time>2024-09-02T09:58:53.000Z</time>
      </trkpt>
      <trkpt lat="47.31031" lon="3.91876">
        <ele>356.8</ele>
        <time>2024-09-02T09:58:59Z</time>
      </trkpt>
      <trkpt lat="47.31029" lon="3.91866">
        <ele>357.6</ele>
        <time>2024-09-02T09:59:05.999Z</time>
      </trkpt>
      <trkpt lat="47.31026" lon="3.91856">
        <ele>358.6</ele>
        <time>2024-09-02T09:59:13Z</time>
      </trkpt>
      <trkpt lat="47.3102" lon="3.91849">
        <ele>359.5</ele>
        <time>2024-09-02T09:59:18.499Z</time>
      </trkpt>
      <trkpt lat="47.31014" lon="3.91842">
        <ele>360.2</ele>
        <time>2024-09-02T09:59:24Z</time>
      </trkpt>
      <trkpt lat="47.31009" lon="3.91839">
        <ele>360.5</ele>
        <time>2024-09-02T09:59:30.499Z</time>
      </trkpt>
      <trkpt lat="47.31004" lon="3.91836">
        <ele>360.8</ele>
        <time>2024-09-02T09:59:37Z</time>
      </trkpt>
      <trkpt lat="47.30999" lon="3.9183">
        <ele>361.3</ele>
        <time>2024-09-02T09:59:44.999Z</time>
      </trkpt>
      <trkpt lat="47.30994" lon="3.91823">
        <ele>361.8</ele>
        <time>2024-09-02T09:59:53Z</time>
      </trkpt>
      <trkpt lat="47.30991" lon="3.91813">
        <ele>362.8</ele>
        <time>2024-09-02T10:00:00.499Z</time>
      </trkpt>
      <trkpt lat="47.30988" lon="3.91802">
        <ele>364.3</ele>
        <time>2024-09-02T10:00:08Z</time>
      </trkpt>
      <trkpt lat="47.30983" lon="3.91795">
        <ele>365.5</ele>
        <time>2024-09-02T10:00:17.499Z</time>
      </trkpt>
      <trkpt lat="47.30978" lon="3.91788">
        <ele>366.9</ele>
        <time>2024-09-02T10:00:27Z</time>
      </trkpt>
      <trkpt lat="47.30972" lon="3.91788">
        <ele>366.8</ele>
        <time>2024-09-02T10:00:33.500Z</time>
      </trkpt>
      <trkpt lat="47.30965" lon="3.91788">
        <ele>366.5</ele>
        <time>2024-09-02T10:00:40Z</time>
      </trkpt>
      <trkpt lat="47.3096" lon="3.91795">
        <ele>364.9</ele>
        <time>2024-09-02T10:00:46.999Z</time>
      </trkpt>
      <trkpt lat="47.30954" lon="3.91801">
        <ele>363.3</ele>
        <time>2024-09-02T10:00:54Z</time>
      </trkpt>
      <trkpt lat="47.3095" lon="3.91805">
        <ele>362.3</ele>
        <time>2024-09-02T10:00:59.499Z</time>
      </trkpt>
      <trkpt lat="47.30945" lon="3.91809">
        <ele>361.4</ele>
        <time>2024-09-02T10:01:05Z</time>
      </trkpt>
      <trkpt lat="47.30941" lon="3.91815">
        <ele>359.9</ele>
        <time>2024-09-02T10:01:11.999Z</time>
      </trkpt>
      <trkpt lat="47.30937" lon="3.91821">
        <ele>358.4</ele>
        <time>2024-09-02T10:01:19Z</time>
      </trkpt>
      <trkpt lat="47.30929" lon="3.91824">
        <ele>357</ele>
        <time>2024-09-02T10:01:27.999Z</time>
      </trkpt>
      <trkpt lat="47.30921" lon="3.91827">
        <ele>355.6</ele>
        <time>2024-09-02T10:01:37Z</time>
      </trkpt>
      <trkpt lat="47.30917" lon="3.91828">
        <ele>354.9</ele>
        <time>2024-09-02T10:01:39.500Z</time>
      </trkpt>
      <trkpt lat="47.30912" lon="3.9183">
        <ele>354.3</ele>
        <time>2024-09-02T10:01:42.000Z</time>
      </trkpt>
      <trkpt lat="47.30908" lon="3.91831">
        <ele>353.8</ele>
        <time>2024-09-02T10:01:44.500Z</time>
      </trkpt>
      <trkpt lat="47.30903" lon="3.91832">
        <ele>353.2</ele>
        <time>2024-09-02T10:01:47Z</time>
      </trkpt>
      <trkpt lat="47.30898" lon="3.91835">
        <ele>352.5</ele>
        <time>2024-09-02T10:01:53.499Z</time>
      </trkpt>
      <trkpt lat="47.30892" lon="3.91838">
        <ele>351.9</ele>
        <time>2024-09-02T10:02:00Z</time>
      </trkpt>
      <trkpt lat="47.30888" lon="3.91847">
        <ele>351</ele>
        <time>2024-09-02T10:02:32.499Z</time>
      </trkpt>
      <trkpt lat="47.30884" lon="3.91856">
        <ele>350.2</ele>
        <time>2024-09-02T10:03:04.999Z</time>
      </trkpt>
      <trkpt lat="47.30879" lon="3.91864">
        <ele>349.6</ele>
        <time>2024-09-02T10:03:37.499Z</time>
      </trkpt>
      <trkpt lat="47.30875" lon="3.91873">
        <ele>349.5</ele>
        <time>2024-09-02T10:04:10Z</time>
      </trkpt>
      <trkpt lat="47.30874" lon="3.91863">
        <ele>349.5</ele>
        <time>2024-09-02T10:06:23Z</time>
      </trkpt>
      <trkpt lat="47.30874" lon="3.91864">
        <ele>349.5</ele>
        <time>2024-09-02T10:12:56Z</time>
      </trkpt>
      <trkpt lat="47.30875" lon="3.91857">
        <ele>349.7</ele>
        <time>2024-09-02T10:21:19Z</time>
      </trkpt>
      <trkpt lat="47.30874" lon="3.91849">
        <ele>350.1</ele>
        <time>2024-09-02T10:26:32Z</time>
      </trkpt>
      <trkpt lat="47.30874" lon="3.91857">
        <ele>349.7</ele>
        <time>2024-09-02T10:27:11Z</time>
      </trkpt>
      <trkpt lat="47.30873" lon="3.91848">
        <ele>350.1</ele>
        <time>2024-09-02T10:34:16Z</time>
      </trkpt>
      <trkpt lat="47.30869" lon="3.91839">
        <ele>350.3</ele>
        <time>2024-09-02T10:34:31Z</time>
      </trkpt>
      <trkpt lat="47.30865" lon="3.91843">
        <ele>349.9</ele>
        <time>2024-09-02T10:37:47Z</time>
      </trkpt>
      <trkpt lat="47.3086" lon="3.91834">
        <ele>349.9</ele>
        <time>2024-09-02T10:37:52.499Z</time>
      </trkpt>
      <trkpt lat="47.30854" lon="3.91825">
        <ele>350.5</ele>
        <time>2024-09-02T10:37:58Z</time>
      </trkpt>
      <trkpt lat="47.30849" lon="3.9182">
        <ele>350.6</ele>
        <time>2024-09-02T10:38:03.999Z</time>
      </trkpt>
      <trkpt lat="47.30844" lon="3.91814">
        <ele>350.6</ele>
        <time>2024-09-02T10:38:10Z</time>
      </trkpt>
      <trkpt lat="47.30838" lon="3.91805">
        <ele>350.6</ele>
        <time>2024-09-02T10:38:23Z</time>
      </trkpt>
      <trkpt lat="47.30835" lon="3.91807">
        <ele>350.1</ele>
        <time>2024-09-02T10:38:49Z</time>
      </trkpt>
      <trkpt lat="47.3084" lon="3.91805">
        <ele>350.8</ele>
        <time>2024-09-02T10:39:12Z</time>
      </trkpt>
      <trkpt lat="47.30839" lon="3.91818">
        <ele>350</ele>
        <time>2024-09-02T10:39:32Z</time>
      </trkpt>
      <trkpt lat="47.30839" lon="3.91811">
        <ele>350.3</ele>
        <time>2024-09-02T10:39:39.499Z</time>
      </trkpt>
      <trkpt lat="47.30838" lon="3.91804">
        <ele>350.7</ele>
        <time>2024-09-02T10:39:47Z</time>
      </trkpt>
      <trkpt lat="47.30837" lon="3.91798">
        <ele>351.3</ele>
        <time>2024-09-02T10:39:51.999Z</time>
      </trkpt>
      <trkpt lat="47.30836" lon="3.91791">
        <ele>351.9</ele>
        <time>2024-09-02T10:39:57Z</time>
      </trkpt>
      <trkpt lat="47.3084" lon="3.9178">
        <ele>353.7</ele>
        <time>2024-09-02T10:40:18Z</time>
      </trkpt>
      <trkpt lat="47.30843" lon="3.91774">
        <ele>355</ele>
        <time>2024-09-02T10:40:26.000Z</time>
      </trkpt>
      <trkpt lat="47.30845" lon="3.91767">
        <ele>356.4</ele>
        <time>2024-09-02T10:40:34Z</time>
      </trkpt>
      <trkpt lat="47.30847" lon="3.91772">
        <ele>355.9</ele>
        <time>2024-09-02T10:40:59Z</time>
      </trkpt>
      <trkpt lat="47.3084" lon="3.91778">
        <ele>353.9</ele>
        <time>2024-09-02T10:41:16Z</time>
      </trkpt>
      <trkpt lat="47.30836" lon="3.91786">
        <ele>352.4</ele>
        <time>2024-09-02T10:41:22.499Z</time>
      </trkpt>
      <trkpt lat="47.30831" lon="3.91794">
        <ele>351.1</ele>
        <time>2024-09-02T10:41:29Z</time>
      </trkpt>
      <trkpt lat="47.30827" lon="3.91792">
        <ele>351.1</ele>
        <time>2024-09-02T10:41:46Z</time>
      </trkpt>
      <trkpt lat="47.30831" lon="3.91781">
        <ele>352.5</ele>
        <time>2024-09-02T10:41:53.000Z</time>
      </trkpt>
      <trkpt lat="47.30835" lon="3.91769">
        <ele>354.5</ele>
        <time>2024-09-02T10:42:00Z</time>
      </trkpt>
      <trkpt lat="47.30833" lon="3.91762">
        <ele>355.3</ele>
        <time>2024-09-02T10:42:11.999Z</time>
      </trkpt>
      <trkpt lat="47.30831" lon="3.91754">
        <ele>356.2</ele>
        <time>2024-09-02T10:42:24Z</time>
      </trkpt>
      <trkpt lat="47.30836" lon="3.91756">
        <ele>356.6</ele>
        <time>2024-09-02T10:42:34.000Z</time>
      </trkpt>
      <trkpt lat="47.3084" lon="3.91757">
        <ele>357.1</ele>
        <time>2024-09-02T10:42:44Z</time>
      </trkpt>
      <trkpt lat="47.30844" lon="3.91748">
        <ele>359.2</ele>
        <time>2024-09-02T10:42:58Z</time>
      </trkpt>
      <trkpt lat="47.30848" lon="3.91743">
        <ele>360.5</ele>
        <time>2024-09-02T10:43:05.500Z</time>
      </trkpt>
      <trkpt lat="47.30851" lon="3.91737">
        <ele>361.9</ele>
        <time>2024-09-02T10:43:13Z</time>
      </trkpt>
      <trkpt lat="47.30855" lon="3.9173">
        <ele>363.6</ele>
        <time>2024-09-02T10:43:34Z</time>
      </trkpt>
      <trkpt lat="47.30851" lon="3.91733">
        <ele>362.4</ele>
        <time>2024-09-02T10:43:40.999Z</time>
      </trkpt>
      <trkpt lat="47.30846" lon="3.91735">
        <ele>361.1</ele>
        <time>2024-09-02T10:43:48Z</time>
      </trkpt>
      <trkpt lat="47.30843" lon="3.91741">
        <ele>359.9</ele>
        <time>2024-09-02T10:43:59.499Z</time>
      </trkpt>
      <trkpt lat="47.3084" lon="3.91746">
        <ele>358.7</ele>
        <time>2024-09-02T10:44:11Z</time>
      </trkpt>
      <trkpt lat="47.30834" lon="3.91737">
        <ele>358.5</ele>
        <time>2024-09-02T10:44:37Z</time>
      </trkpt>
      <trkpt lat="47.3083" lon="3.9173">
        <ele>358.9</ele>
        <time>2024-09-02T10:44:45.499Z</time>
      </trkpt>
      <trkpt lat="47.30826" lon="3.91722">
        <ele>359.2</ele>
        <time>2024-09-02T10:44:54Z</time>
      </trkpt>
      <trkpt lat="47.30822" lon="3.91716">
        <ele>359.9</ele>
        <time>2024-09-02T10:45:00.499Z</time>
      </trkpt>
      <trkpt lat="47.30818" lon="3.91709">
        <ele>360.5</ele>
        <time>2024-09-02T10:45:07Z</time>
      </trkpt>
      <trkpt lat="47.30812" lon="3.91702">
        <ele>360.7</ele>
        <time>2024-09-02T10:45:13.999Z</time>
      </trkpt>
      <trkpt lat="47.30805" lon="3.91695">
        <ele>360.9</ele>
        <time>2024-09-02T10:45:21Z</time>
      </trkpt>
      <trkpt lat="47.308" lon="3.91689">
        <ele>361.3</ele>
        <time>2024-09-02T10:45:28.499Z</time>
      </trkpt>
      <trkpt lat="47.30795" lon="3.91682">
        <ele>361.8</ele>
        <time>2024-09-02T10:45:36Z</time>
      </trkpt>
      <trkpt lat="47.3079" lon="3.91677">
        <ele>362.2</ele>
        <time>2024-09-02T10:45:41.999Z</time>
      </trkpt>
      <trkpt lat="47.30784" lon="3.91671">
        <ele>362.7</ele>
        <time>2024-09-02T10:45:48Z</time>
      </trkpt>
      <trkpt lat="47.30779" lon="3.91666">
        <ele>363.3</ele>
        <time>2024-09-02T10:45:54.499Z</time>
      </trkpt>
      <trkpt lat="47.30773" lon="3.9166">
        <ele>364.2</ele>
        <time>2024-09-02T10:46:01Z</time>
      </trkpt>
      <trkpt lat="47.30767" lon="3.91653">
        <ele>365.5</ele>
        <time>2024-09-02T10:46:06.999Z</time>
      </trkpt>
      <trkpt lat="47.30761" lon="3.91645">
        <ele>366.6</ele>
        <time>2024-09-02T10:46:13Z</time>
      </trkpt>
      <trkpt lat="47.30755" lon="3.91637">
        <ele>367.8</ele>
        <time>2024-09-02T10:46:18.999Z</time>
      </trkpt>
      <trkpt lat="47.30749" lon="3.91629">
        <ele>369</ele>
        <time>2024-09-02T10:46:25Z</time>
      </trkpt>
      <trkpt lat="47.30743" lon="3.91624">
        <ele>369.6</ele>
        <time>2024-09-02T10:46:31.499Z</time>
      </trkpt>
      <trkpt lat="47.30737" lon="3.91618">
        <ele>370.1</ele>
        <time>2024-09-02T10:46:38Z</time>
      </trkpt>
      <trkpt lat="47.30731" lon="3.91614">
        <ele>370.4</ele>
        <time>2024-09-02T10:46:46.499Z</time>
      </trkpt>
      <trkpt lat="47.30724" lon="3.91609">
        <ele>370.6</ele>
        <time>2024-09-02T10:46:55Z</time>
      </trkpt>
      <trkpt lat="47.30719" lon="3.91603">
        <ele>371.4</ele>
        <time>2024-09-02T10:47:02.499Z</time>
      </trkpt>
      <trkpt lat="47.30713" lon="3.91596">
        <ele>372.1</ele>
        <time>2024-09-02T10:47:10Z</time>
      </trkpt>
      <trkpt lat="47.30708" lon="3.91589">
        <ele>373.1</ele>
        <time>2024-09-02T10:47:17.499Z</time>
      </trkpt>
      <trkpt lat="47.30703" lon="3.91582">
        <ele>374.3</ele>
        <time>2024-09-02T10:47:25Z</time>
      </trkpt>
      <trkpt lat="47.30697" lon="3.91575">
        <ele>375.3</ele>
        <time>2024-09-02T10:47:31.999Z</time>
      </trkpt>
      <trkpt lat="47.3069" lon="3.91568">
        <ele>376.2</ele>
        <time>2024-09-02T10:47:39Z</time>
      </trkpt>
      <trkpt lat="47.30684" lon="3.91564">
        <ele>376.4</ele>
        <time>2024-09-02T10:47:46.499Z</time>
      </trkpt>
      <trkpt lat="47.30678" lon="3.9156">
        <ele>376.5</ele>
        <time>2024-09-02T10:47:54Z</time>
      </trkpt>
      <trkpt lat="47.30682" lon="3.91561">
        <ele>376.8</ele>
        <time>2024-09-02T10:48:14Z</time>
      </trkpt>
      <trkpt lat="47.30686" lon="3.91565">
        <ele>376.4</ele>
        <time>2024-09-02T10:48:47Z</time>
      </trkpt>
      <trkpt lat="47.30688" lon="3.91562">
        <ele>377.4</ele>
        <time>2024-09-02T10:49:11Z</time>
      </trkpt>
      <trkpt lat="47.30684" lon="3.91554">
        <ele>378.9</ele>
        <time>2024-09-02T10:49:44Z</time>
      </trkpt>
      <trkpt lat="47.30677" lon="3.91552">
        <ele>378.4</ele>
        <time>2024-09-02T10:49:52.499Z</time>
      </trkpt>
      <trkpt lat="47.30669" lon="3.91549">
        <ele>378</ele>
        <time>2024-09-02T10:50:01Z</time>
      </trkpt>
      <trkpt lat="47.30663" lon="3.91546">
        <ele>377.8</ele>
        <time>2024-09-02T10:50:08.999Z</time>
      </trkpt>
      <trkpt lat="47.30656" lon="3.91543">
        <ele>377.6</ele>
        <time>2024-09-02T10:50:17Z</time>
      </trkpt>
      <trkpt lat="47.3065" lon="3.91539">
        <ele>377.8</ele>
        <time>2024-09-02T10:50:23.499Z</time>
      </trkpt>
      <trkpt lat="47.30644" lon="3.91535">
        <ele>377.9</ele>
        <time>2024-09-02T10:50:30Z</time>
      </trkpt>
      <trkpt lat="47.30639" lon="3.9153">
        <ele>378.5</ele>
        <time>2024-09-02T10:50:35.999Z</time>
      </trkpt>
      <trkpt lat="47.30633" lon="3.91524">
        <ele>379.3</ele>
        <time>2024-09-02T10:50:42Z</time>
      </trkpt>
      <trkpt lat="47.30628" lon="3.9152">
        <ele>379.9</ele>
        <time>2024-09-02T10:50:48.999Z</time>
      </trkpt>
      <trkpt lat="47.30622" lon="3.91515">
        <ele>380.4</ele>
        <time>2024-09-02T10:50:56Z</time>
      </trkpt>
      <trkpt lat="47.30617" lon="3.9151">
        <ele>381.1</ele>
        <time>2024-09-02T10:51:03.499Z</time>
      </trkpt>
      <trkpt lat="47.30611" lon="3.91505">
        <ele>381.7</ele>
        <time>2024-09-02T10:51:11Z</time>
      </trkpt>
      <trkpt lat="47.30606" lon="3.91504">
        <ele>381.6</ele>
        <time>2024-09-02T10:51:17.499Z</time>
      </trkpt>
      <trkpt lat="47.30601" lon="3.91502">
        <ele>381.4</ele>
        <time>2024-09-02T10:51:24Z</time>
      </trkpt>
      <trkpt lat="47.30595" lon="3.91497">
        <ele>382</ele>
        <time>2024-09-02T10:51:31.499Z</time>
      </trkpt>
      <trkpt lat="47.30588" lon="3.91491">
        <ele>382.4</ele>
        <time>2024-09-02T10:51:39Z</time>
      </trkpt>
      <trkpt lat="47.30582" lon="3.91487">
        <ele>382.6</ele>
        <time>2024-09-02T10:51:45.499Z</time>
      </trkpt>
      <trkpt lat="47.30575" lon="3.91483">
        <ele>382.7</ele>
        <time>2024-09-02T10:51:52Z</time>
      </trkpt>
      <trkpt lat="47.3057" lon="3.9148">
        <ele>382.7</ele>
        <time>2024-09-02T10:51:57.999Z</time>
      </trkpt>
      <trkpt lat="47.30565" lon="3.91477">
        <ele>382.9</ele>
        <time>2024-09-02T10:52:04Z</time>
      </trkpt>
      <trkpt lat="47.3056" lon="3.91472">
        <ele>383.6</ele>
        <time>2024-09-02T10:52:09.999Z</time>
      </trkpt>
      <trkpt lat="47.30554" lon="3.91466">
        <ele>384.2</ele>
        <time>2024-09-02T10:52:16Z</time>
      </trkpt>
      <trkpt lat="47.30548" lon="3.91464">
        <ele>384.1</ele>
        <time>2024-09-02T10:52:22.999Z</time>
      </trkpt>
      <trkpt lat="47.30542" lon="3.91461">
        <ele>384</ele>
        <time>2024-09-02T10:52:30Z</time>
      </trkpt>
      <trkpt lat="47.30536" lon="3.91456">
        <ele>384.4</ele>
        <time>2024-09-02T10:52:36.999Z</time>
      </trkpt>
      <trkpt lat="47.3053" lon="3.91451">
        <ele>384.8</ele>
        <time>2024-09-02T10:52:44Z</time>
      </trkpt>
      <trkpt lat="47.30525" lon="3.91447">
        <ele>385.2</ele>
        <time>2024-09-02T10:52:49.999Z</time>
      </trkpt>
      <trkpt lat="47.30519" lon="3.91442">
        <ele>385.5</ele>
        <time>2024-09-02T10:52:56Z</time>
      </trkpt>
      <trkpt lat="47.30514" lon="3.9144">
        <ele>385.4</ele>
        <time>2024-09-02T10:53:01.999Z</time>
      </trkpt>
      <trkpt lat="47.30509" lon="3.91438">
        <ele>385.3</ele>
        <time>2024-09-02T10:53:08Z</time>
      </trkpt>
      <trkpt lat="47.30504" lon="3.91434">
        <ele>385.7</ele>
        <time>2024-09-02T10:53:13.999Z</time>
      </trkpt>
      <trkpt lat="47.30499" lon="3.91429">
        <ele>386.2</ele>
        <time>2024-09-02T10:53:20Z</time>
      </trkpt>
      <trkpt lat="47.30493" lon="3.91426">
        <ele>386</ele>
        <time>2024-09-02T10:53:25.499Z</time>
      </trkpt>
      <trkpt lat="47.30486" lon="3.91423">
        <ele>385.9</ele>
        <time>2024-09-02T10:53:31Z</time>
      </trkpt>
      <trkpt lat="47.30482" lon="3.91419">
        <ele>386.4</ele>
        <time>2024-09-02T10:53:36.499Z</time>
      </trkpt>
      <trkpt lat="47.30477" lon="3.91415">
        <ele>387</ele>
        <time>2024-09-02T10:53:42Z</time>
      </trkpt>
      <trkpt lat="47.30472" lon="3.91413">
        <ele>387.1</ele>
        <time>2024-09-02T10:53:47.999Z</time>
      </trkpt>
      <trkpt lat="47.30466" lon="3.9141">
        <ele>387.1</ele>
        <time>2024-09-02T10:53:54Z</time>
      </trkpt>
      <trkpt lat="47.30461" lon="3.91408">
        <ele>387.1</ele>
        <time>2024-09-02T10:53:59.499Z</time>
      </trkpt>
      <trkpt lat="47.30455" lon="3.91405">
        <ele>387.1</ele>
        <time>2024-09-02T10:54:05Z</time>
      </trkpt>
      <trkpt lat="47.3045" lon="3.91402">
        <ele>387.4</ele>
        <time>2024-09-02T10:54:11.499Z</time>
      </trkpt>
      <trkpt lat="47.30445" lon="3.91399">
        <ele>387.8</ele>
        <time>2024-09-02T10:54:18Z</time>
      </trkpt>
      <trkpt lat="47.3044" lon="3.91397">
        <ele>388.3</ele>
        <time>2024-09-02T10:54:23.999Z</time>
      </trkpt>
      <trkpt lat="47.30435" lon="3.91395">
        <ele>388.9</ele>
        <time>2024-09-02T10:54:30Z</time>
      </trkpt>
      <trkpt lat="47.3043" lon="3.91393">
        <ele>389.5</ele>
        <time>2024-09-02T10:54:35.999Z</time>
      </trkpt>
      <trkpt lat="47.30425" lon="3.91391">
        <ele>390.2</ele>
        <time>2024-09-02T10:54:42Z</time>
      </trkpt>
      <trkpt lat="47.30419" lon="3.91392">
        <ele>390</ele>
        <time>2024-09-02T10:54:48.000Z</time>
      </trkpt>
      <trkpt lat="47.30413" lon="3.91392">
        <ele>389.9</ele>
        <time>2024-09-02T10:54:54Z</time>
      </trkpt>
      <trkpt lat="47.30408" lon="3.9139">
        <ele>391.1</ele>
        <time>2024-09-02T10:55:00.999Z</time>
      </trkpt>
      <trkpt lat="47.30403" lon="3.91387">
        <ele>392.3</ele>
        <time>2024-09-02T10:55:08Z</time>
      </trkpt>
      <trkpt lat="47.30397" lon="3.91388">
        <ele>392.3</ele>
        <time>2024-09-02T10:55:14.500Z</time>
      </trkpt>
      <trkpt lat="47.3039" lon="3.91388">
        <ele>392.3</ele>
        <time>2024-09-02T10:55:21Z</time>
      </trkpt>
      <trkpt lat="47.30384" lon="3.9139">
        <ele>392.5</ele>
        <time>2024-09-02T10:55:27.000Z</time>
      </trkpt>
      <trkpt lat="47.30378" lon="3.91391">
        <ele>392.9</ele>
        <time>2024-09-02T10:55:33Z</time>
      </trkpt>
      <trkpt lat="47.30373" lon="3.91392">
        <ele>393.3</ele>
        <time>2024-09-02T10:55:39.500Z</time>
      </trkpt>
      <trkpt lat="47.30368" lon="3.91393">
        <ele>393.8</ele>
        <time>2024-09-02T10:55:46Z</time>
      </trkpt>
      <trkpt lat="47.30363" lon="3.91394">
        <ele>394.4</ele>
        <time>2024-09-02T10:55:54.000Z</time>
      </trkpt>
      <trkpt lat="47.30358" lon="3.91394">
        <ele>394.9</ele>
        <time>2024-09-02T10:56:02Z</time>
      </trkpt>
      <trkpt lat="47.30351" lon="3.91394">
        <ele>395.9</ele>
        <time>2024-09-02T10:56:08.500Z</time>
      </trkpt>
      <trkpt lat="47.30344" lon="3.91393">
        <ele>396.8</ele>
        <time>2024-09-02T10:56:15Z</time>
      </trkpt>
      <trkpt lat="47.30339" lon="3.91391">
        <ele>397.9</ele>
        <time>2024-09-02T10:56:21.999Z</time>
      </trkpt>
      <trkpt lat="47.30334" lon="3.91389">
        <ele>398.9</ele>
        <time>2024-09-02T10:56:29Z</time>
      </trkpt>
      <trkpt lat="47.30328" lon="3.91387">
        <ele>399.8</ele>
        <time>2024-09-02T10:56:35.499Z</time>
      </trkpt>
      <trkpt lat="47.30321" lon="3.91384">
        <ele>400.7</ele>
        <time>2024-09-02T10:56:42Z</time>
      </trkpt>
      <trkpt lat="47.30315" lon="3.91385">
        <ele>401</ele>
        <time>2024-09-02T10:56:48.500Z</time>
      </trkpt>
      <trkpt lat="47.30308" lon="3.91386">
        <ele>401.2</ele>
        <time>2024-09-02T10:56:55Z</time>
      </trkpt>
      <trkpt lat="47.30301" lon="3.91385">
        <ele>402</ele>
        <time>2024-09-02T10:57:02.000Z</time>
      </trkpt>
      <trkpt lat="47.30294" lon="3.91384">
        <ele>402.9</ele>
        <time>2024-09-02T10:57:09Z</time>
      </trkpt>
      <trkpt lat="47.30289" lon="3.91381">
        <ele>403.9</ele>
        <time>2024-09-02T10:57:15.499Z</time>
      </trkpt>
      <trkpt lat="47.30283" lon="3.91377">
        <ele>404.8</ele>
        <time>2024-09-02T10:57:22Z</time>
      </trkpt>
      <trkpt lat="47.3028" lon="3.91369">
        <ele>406</ele>
        <time>2024-09-02T10:57:27.999Z</time>
      </trkpt>
      <trkpt lat="47.30276" lon="3.91361">
        <ele>407.1</ele>
        <time>2024-09-02T10:57:34Z</time>
      </trkpt>
      <trkpt lat="47.30274" lon="3.91352">
        <ele>407.7</ele>
        <time>2024-09-02T10:57:40.999Z</time>
      </trkpt>
      <trkpt lat="47.30272" lon="3.91343">
        <ele>408.4</ele>
        <time>2024-09-02T10:57:48Z</time>
      </trkpt>
      <trkpt lat="47.3027" lon="3.91337">
        <ele>408.8</ele>
        <time>2024-09-02T10:57:56.999Z</time>
      </trkpt>
      <trkpt lat="47.30267" lon="3.91331">
        <ele>409.1</ele>
        <time>2024-09-02T10:58:06Z</time>
      </trkpt>
      <trkpt lat="47.30265" lon="3.91321">
        <ele>409.5</ele>
        <time>2024-09-02T10:58:27Z</time>
      </trkpt>
      <trkpt lat="47.30263" lon="3.91315">
        <ele>409.6</ele>
        <time>2024-09-02T10:58:34.499Z</time>
      </trkpt>
      <trkpt lat="47.30261" lon="3.91308">
        <ele>409.7</ele>
        <time>2024-09-02T10:58:42Z</time>
      </trkpt>
      <trkpt lat="47.3026" lon="3.913">
        <ele>410</ele>
        <time>2024-09-02T10:58:48.999Z</time>
      </trkpt>
      <trkpt lat="47.30259" lon="3.91291">
        <ele>410.3</ele>
        <time>2024-09-02T10:58:56Z</time>
      </trkpt>
      <trkpt lat="47.30259" lon="3.91283">
        <ele>410.7</ele>
        <time>2024-09-02T10:59:02.499Z</time>
      </trkpt>
      <trkpt lat="47.30258" lon="3.91274">
        <ele>410.9</ele>
        <time>2024-09-02T10:59:09Z</time>
      </trkpt>
      <trkpt lat="47.30258" lon="3.91266">
        <ele>411</ele>
        <time>2024-09-02T10:59:16.500Z</time>
      </trkpt>
      <trkpt lat="47.30258" lon="3.91257">
        <ele>411.1</ele>
        <time>2024-09-02T10:59:24Z</time>
      </trkpt>
      <trkpt lat="47.30261" lon="3.91248">
        <ele>411.6</ele>
        <time>2024-09-02T10:59:31.000Z</time>
      </trkpt>
      <trkpt lat="47.30263" lon="3.91239">
        <ele>412.3</ele>
        <time>2024-09-02T10:59:38Z</time>
      </trkpt>
      <trkpt lat="47.30267" lon="3.91234">
        <ele>413</ele>
        <time>2024-09-02T10:59:43.500Z</time>
      </trkpt>
      <trkpt lat="47.30271" lon="3.91228">
        <ele>413.8</ele>
        <time>2024-09-02T10:59:49Z</time>
      </trkpt>
      <trkpt lat="47.30274" lon="3.91221">
        <ele>414.4</ele>
        <time>2024-09-02T10:59:55.500Z</time>
      </trkpt>
      <trkpt lat="47.30277" lon="3.91213">
        <ele>414.6</ele>
        <time>2024-09-02T11:00:02Z</time>
      </trkpt>
      <trkpt lat="47.30275" lon="3.91204">
        <ele>413.9</ele>
        <time>2024-09-02T11:00:09.499Z</time>
      </trkpt>
      <trkpt lat="47.30272" lon="3.91194">
        <ele>413.4</ele>
        <time>2024-09-02T11:00:17Z</time>
      </trkpt>
      <trkpt lat="47.30265" lon="3.91201">
        <ele>412.7</ele>
        <time>2024-09-02T11:00:30Z</time>
      </trkpt>
      <trkpt lat="47.30261" lon="3.91205">
        <ele>412.3</ele>
        <time>2024-09-02T11:00:36.499Z</time>
      </trkpt>
      <trkpt lat="47.30257" lon="3.91209">
        <ele>411.9</ele>
        <time>2024-09-02T11:00:43Z</time>
      </trkpt>
      <trkpt lat="47.30253" lon="3.9122">
        <ele>411.4</ele>
        <time>2024-09-02T11:00:48.499Z</time>
      </trkpt>
      <trkpt lat="47.30249" lon="3.91231">
        <ele>410.6</ele>
        <time>2024-09-02T11:00:54Z</time>
      </trkpt>
      <trkpt lat="47.30247" lon="3.91239">
        <ele>410</ele>
        <time>2024-09-02T11:01:00.999Z</time>
      </trkpt>
      <trkpt lat="47.30244" lon="3.91246">
        <ele>409.5</ele>
        <time>2024-09-02T11:01:08Z</time>
      </trkpt>
      <trkpt lat="47.30243" lon="3.91256">
        <ele>409.1</ele>
        <time>2024-09-02T11:01:14.499Z</time>
      </trkpt>
      <trkpt lat="47.30241" lon="3.91265">
        <ele>408.9</ele>
        <time>2024-09-02T11:01:21Z</time>
      </trkpt>
      <trkpt lat="47.3024" lon="3.91273">
        <ele>408.6</ele>
        <time>2024-09-02T11:01:29.499Z</time>
      </trkpt>
      <trkpt lat="47.30239" lon="3.91281">
        <ele>408.3</ele>
        <time>2024-09-02T11:01:38Z</time>
      </trkpt>
      <trkpt lat="47.30237" lon="3.9129">
        <ele>407.8</ele>
        <time>2024-09-02T11:01:44.999Z</time>
      </trkpt>
      <trkpt lat="47.30234" lon="3.91299">
        <ele>407.4</ele>
        <time>2024-09-02T11:01:52Z</time>
      </trkpt>
      <trkpt lat="47.30231" lon="3.91306">
        <ele>406.9</ele>
        <time>2024-09-02T11:01:59.499Z</time>
      </trkpt>
      <trkpt lat="47.30228" lon="3.91312">
        <ele>406.8</ele>
        <time>2024-09-02T11:02:07Z</time>
      </trkpt>
      <trkpt lat="47.30223" lon="3.91319">
        <ele>406.5</ele>
        <time>2024-09-02T11:02:12.999Z</time>
      </trkpt>
      <trkpt lat="47.30218" lon="3.91325">
        <ele>406.1</ele>
        <time>2024-09-02T11:02:19Z</time>
      </trkpt>
      <trkpt lat="47.30214" lon="3.91333">
        <ele>405.8</ele>
        <time>2024-09-02T11:02:23.999Z</time>
      </trkpt>
      <trkpt lat="47.3021" lon="3.9134">
        <ele>405.1</ele>
        <time>2024-09-02T11:02:29Z</time>
      </trkpt>
      <trkpt lat="47.30208" lon="3.91347">
        <ele>404.6</ele>
        <time>2024-09-02T11:02:33.499Z</time>
      </trkpt>
      <trkpt lat="47.30205" lon="3.91354">
        <ele>404.1</ele>
        <time>2024-09-02T11:02:38Z</time>
      </trkpt>
      <trkpt lat="47.30202" lon="3.91359">
        <ele>403.3</ele>
        <time>2024-09-02T11:02:43.499Z</time>
      </trkpt>
      <trkpt lat="47.30198" lon="3.91364">
        <ele>402.7</ele>
        <time>2024-09-02T11:02:49Z</time>
      </trkpt>
      <trkpt lat="47.30195" lon="3.91372">
        <ele>402.5</ele>
        <time>2024-09-02T11:02:53.999Z</time>
      </trkpt>
      <trkpt lat="47.30192" lon="3.9138">
        <ele>402.1</ele>
        <time>2024-09-02T11:02:59Z</time>
      </trkpt>
      <trkpt lat="47.3019" lon="3.91387">
        <ele>401.7</ele>
        <time>2024-09-02T11:03:03.999Z</time>
      </trkpt>
      <trkpt lat="47.30187" lon="3.91394">
        <ele>401.3</ele>
        <time>2024-09-02T11:03:09Z</time>
      </trkpt>
      <trkpt lat="47.30185" lon="3.91402">
        <ele>401.1</ele>
        <time>2024-09-02T11:03:13.999Z</time>
      </trkpt>
      <trkpt lat="47.30183" lon="3.9141">
        <ele>400.9</ele>
        <time>2024-09-02T11:03:19Z</time>
      </trkpt>
      <trkpt lat="47.30181" lon="3.91419">
        <ele>400.6</ele>
        <time>2024-09-02T11:03:24.499Z</time>
      </trkpt>
      <trkpt lat="47.30179" lon="3.91427">
        <ele>400.1</ele>
        <time>2024-09-02T11:03:30Z</time>
      </trkpt>
      <trkpt lat="47.30178" lon="3.91435">
        <ele>400</ele>
        <time>2024-09-02T11:03:34.499Z</time>
      </trkpt>
      <trkpt lat="47.30177" lon="3.91443">
        <ele>399.8</ele>
        <time>2024-09-02T11:03:39Z</time>
      </trkpt>
      <trkpt lat="47.30176" lon="3.9145">
        <ele>399.4</ele>
        <time>2024-09-02T11:03:43.499Z</time>
      </trkpt>
      <trkpt lat="47.30175" lon="3.91457">
        <ele>398.9</ele>
        <time>2024-09-02T11:03:48Z</time>
      </trkpt>
      <trkpt lat="47.30174" lon="3.91466">
        <ele>398.3</ele>
        <time>2024-09-02T11:03:53.499Z</time>
      </trkpt>
      <trkpt lat="47.30172" lon="3.91475">
        <ele>397.6</ele>
        <time>2024-09-02T11:03:59Z</time>
      </trkpt>
      <trkpt lat="47.3017" lon="3.91483">
        <ele>397.1</ele>
        <time>2024-09-02T11:04:03.999Z</time>
      </trkpt>
      <trkpt lat="47.30168" lon="3.9149">
        <ele>396.5</ele>
        <time>2024-09-02T11:04:09Z</time>
      </trkpt>
      <trkpt lat="47.30167" lon="3.91497">
        <ele>396.2</ele>
        <time>2024-09-02T11:04:14.499Z</time>
      </trkpt>
      <trkpt lat="47.30166" lon="3.91503">
        <ele>395.6</ele>
        <time>2024-09-02T11:04:20Z</time>
      </trkpt>
      <trkpt lat="47.30167" lon="3.91513">
        <ele>395.1</ele>
        <time>2024-09-02T11:04:25.500Z</time>
      </trkpt>
      <trkpt lat="47.30167" lon="3.91522">
        <ele>394.5</ele>
        <time>2024-09-02T11:04:31Z</time>
      </trkpt>
      <trkpt lat="47.30169" lon="3.9153">
        <ele>394.1</ele>
        <time>2024-09-02T11:04:36.000Z</time>
      </trkpt>
      <trkpt lat="47.3017" lon="3.91537">
        <ele>393.7</ele>
        <time>2024-09-02T11:04:41Z</time>
      </trkpt>
      <trkpt lat="47.30173" lon="3.91543">
        <ele>393.6</ele>
        <time>2024-09-02T11:04:45.500Z</time>
      </trkpt>
      <trkpt lat="47.30176" lon="3.91549">
        <ele>393.5</ele>
        <time>2024-09-02T11:04:50Z</time>
      </trkpt>
      <trkpt lat="47.30179" lon="3.91557">
        <ele>393.1</ele>
        <time>2024-09-02T11:04:55.000Z</time>
      </trkpt>
      <trkpt lat="47.30181" lon="3.91564">
        <ele>392.2</ele>
        <time>2024-09-02T11:05:00Z</time>
      </trkpt>
      <trkpt lat="47.30183" lon="3.91575">
        <ele>390.7</ele>
        <time>2024-09-02T11:05:17Z</time>
      </trkpt>
      <trkpt lat="47.30188" lon="3.9158">
        <ele>390.6</ele>
        <time>2024-09-02T11:05:23.000Z</time>
      </trkpt>
      <trkpt lat="47.30192" lon="3.91584">
        <ele>390.6</ele>
        <time>2024-09-02T11:05:29Z</time>
      </trkpt>
      <trkpt lat="47.30198" lon="3.91588">
        <ele>390.5</ele>
        <time>2024-09-02T11:05:34.000Z</time>
      </trkpt>
      <trkpt lat="47.30204" lon="3.91592">
        <ele>390.2</ele>
        <time>2024-09-02T11:05:39Z</time>
      </trkpt>
      <trkpt lat="47.3021" lon="3.91596">
        <ele>390</ele>
        <time>2024-09-02T11:05:43.500Z</time>
      </trkpt>
      <trkpt lat="47.30215" lon="3.91599">
        <ele>389.9</ele>
        <time>2024-09-02T11:05:48Z</time>
      </trkpt>
      <trkpt lat="47.3022" lon="3.91602">
        <ele>389.8</ele>
        <time>2024-09-02T11:05:52.500Z</time>
      </trkpt>
      <trkpt lat="47.30224" lon="3.91605">
        <ele>389</ele>
        <time>2024-09-02T11:05:57Z</time>
      </trkpt>
      <trkpt lat="47.30229" lon="3.91606">
        <ele>387.1</ele>
        <time>2024-09-02T11:06:08.000Z</time>
      </trkpt>
      <trkpt lat="47.30233" lon="3.91606">
        <ele>385.3</ele>
        <time>2024-09-02T11:06:19Z</time>
      </trkpt>
      <trkpt lat="47.30234" lon="3.91617">
        <ele>384.3</ele>
        <time>2024-09-02T11:06:47Z</time>
      </trkpt>
      <trkpt lat="47.30231" lon="3.91617">
        <ele>385.3</ele>
        <time>2024-09-02T11:07:01Z</time>
      </trkpt>
      <trkpt lat="47.30233" lon="3.91618">
        <ele>384.7</ele>
        <time>2024-09-02T11:07:18Z</time>
      </trkpt>
      <trkpt lat="47.30241" lon="3.91624">
        <ele>382.9</ele>
        <time>2024-09-02T11:07:27Z</time>
      </trkpt>
      <trkpt lat="47.30245" lon="3.9163">
        <ele>383.3</ele>
        <time>2024-09-02T11:07:32.000Z</time>
      </trkpt>
      <trkpt lat="47.30249" lon="3.91636">
        <ele>384.2</ele>
        <time>2024-09-02T11:07:37Z</time>
      </trkpt>
      <trkpt lat="47.30253" lon="3.91642">
        <ele>383.3</ele>
        <time>2024-09-02T11:07:42.000Z</time>
      </trkpt>
      <trkpt lat="47.30256" lon="3.91647">
        <ele>381.4</ele>
        <time>2024-09-02T11:07:47Z</time>
      </trkpt>
      <trkpt lat="47.30259" lon="3.91652">
        <ele>380.2</ele>
        <time>2024-09-02T11:07:51.500Z</time>
      </trkpt>
      <trkpt lat="47.30262" lon="3.91657">
        <ele>379.4</ele>
        <time>2024-09-02T11:07:56Z</time>
      </trkpt>
      <trkpt lat="47.30265" lon="3.91663">
        <ele>379.2</ele>
        <time>2024-09-02T11:08:00.500Z</time>
      </trkpt>
      <trkpt lat="47.30268" lon="3.91669">
        <ele>379.5</ele>
        <time>2024-09-02T11:08:05Z</time>
      </trkpt>
      <trkpt lat="47.30271" lon="3.91677">
        <ele>381.1</ele>
        <time>2024-09-02T11:08:27Z</time>
      </trkpt>
      <trkpt lat="47.30274" lon="3.91682">
        <ele>382.2</ele>
        <time>2024-09-02T11:08:33.000Z</time>
      </trkpt>
      <trkpt lat="47.30277" lon="3.91687">
        <ele>383.8</ele>
        <time>2024-09-02T11:08:39Z</time>
      </trkpt>
      <trkpt lat="47.30282" lon="3.91691">
        <ele>382.5</ele>
        <time>2024-09-02T11:09:03Z</time>
      </trkpt>
      <trkpt lat="47.30287" lon="3.91691">
        <ele>378.9</ele>
        <time>2024-09-02T11:09:22Z</time>
      </trkpt>
      <trkpt lat="47.30291" lon="3.91696">
        <ele>378</ele>
        <time>2024-09-02T11:09:41Z</time>
      </trkpt>
      <trkpt lat="47.30295" lon="3.91701">
        <ele>377.6</ele>
        <time>2024-09-02T11:09:49.500Z</time>
      </trkpt>
      <trkpt lat="47.30298" lon="3.91706">
        <ele>378.1</ele>
        <time>2024-09-02T11:09:58Z</time>
      </trkpt>
      <trkpt lat="47.30302" lon="3.91711">
        <ele>379.5</ele>
        <time>2024-09-02T11:10:03.000Z</time>
      </trkpt>
      <trkpt lat="47.30305" lon="3.91716">
        <ele>381.8</ele>
        <time>2024-09-02T11:10:08Z</time>
      </trkpt>
      <trkpt lat="47.30309" lon="3.91722">
        <ele>382.9</ele>
        <time>2024-09-02T11:10:18.000Z</time>
      </trkpt>
      <trkpt lat="47.30312" lon="3.91727">
        <ele>380.9</ele>
        <time>2024-09-02T11:10:28Z</time>
      </trkpt>
      <trkpt lat="47.30318" lon="3.91735">
        <ele>378.3</ele>
        <time>2024-09-02T11:10:39Z</time>
      </trkpt>
      <trkpt lat="47.30324" lon="3.91733">
        <ele>373.8</ele>
        <time>2024-09-02T11:11:12Z</time>
      </trkpt>
      <trkpt lat="47.30323" lon="3.91745">
        <ele>379.1</ele>
        <time>2024-09-02T11:11:52Z</time>
      </trkpt>
      <trkpt lat="47.30323" lon="3.91746">
        <ele>379.4</ele>
        <time>2024-09-02T11:12:37Z</time>
      </trkpt>
      <trkpt lat="47.30319" lon="3.91739">
        <ele>379.1</ele>
        <time>2024-09-02T11:12:42.999Z</time>
      </trkpt>
      <trkpt lat="47.30314" lon="3.91732">
        <ele>380.2</ele>
        <time>2024-09-02T11:12:49Z</time>
      </trkpt>
      <trkpt lat="47.30311" lon="3.91727">
        <ele>382</ele>
        <time>2024-09-02T11:12:53.499Z</time>
      </trkpt>
      <trkpt lat="47.30307" lon="3.91721">
        <ele>383.9</ele>
        <time>2024-09-02T11:12:58Z</time>
      </trkpt>
      <trkpt lat="47.30304" lon="3.91713">
        <ele>380.1</ele>
        <time>2024-09-02T11:13:15Z</time>
      </trkpt>
      <trkpt lat="47.30301" lon="3.91708">
        <ele>378</ele>
        <time>2024-09-02T11:13:19.499Z</time>
      </trkpt>
      <trkpt lat="47.30298" lon="3.91703">
        <ele>376.6</ele>
        <time>2024-09-02T11:13:24Z</time>
      </trkpt>
      <trkpt lat="47.30294" lon="3.91698">
        <ele>376.7</ele>
        <time>2024-09-02T11:13:28.499Z</time>
      </trkpt>
      <trkpt lat="47.3029" lon="3.91693">
        <ele>377.6</ele>
        <time>2024-09-02T11:13:33Z</time>
      </trkpt>
      <trkpt lat="47.30287" lon="3.91688">
        <ele>377.7</ele>
        <time>2024-09-02T11:13:37.999Z</time>
      </trkpt>
      <trkpt lat="47.30283" lon="3.91682">
        <ele>377.9</ele>
        <time>2024-09-02T11:13:43Z</time>
      </trkpt>
      <trkpt lat="47.30279" lon="3.91677">
        <ele>378.4</ele>
        <time>2024-09-02T11:13:47.499Z</time>
      </trkpt>
      <trkpt lat="47.30275" lon="3.91671">
        <ele>377.8</ele>
        <time>2024-09-02T11:13:52Z</time>
      </trkpt>
      <trkpt lat="47.30272" lon="3.91666">
        <ele>377.3</ele>
        <time>2024-09-02T11:13:56.499Z</time>
      </trkpt>
      <trkpt lat="47.30268" lon="3.91661">
        <ele>377.3</ele>
        <time>2024-09-02T11:14:01Z</time>
      </trkpt>
      <trkpt lat="47.30265" lon="3.91657">
        <ele>378</ele>
        <time>2024-09-02T11:14:04.999Z</time>
      </trkpt>
      <trkpt lat="47.30261" lon="3.91652">
        <ele>379</ele>
        <time>2024-09-02T11:14:09Z</time>
      </trkpt>
      <trkpt lat="47.30258" lon="3.91647">
        <ele>380.4</ele>
        <time>2024-09-02T11:14:13.499Z</time>
      </trkpt>
      <trkpt lat="47.30254" lon="3.91642">
        <ele>382.2</ele>
        <time>2024-09-02T11:14:18Z</time>
      </trkpt>
      <trkpt lat="47.30251" lon="3.91638">
        <ele>384.2</ele>
        <time>2024-09-02T11:14:21.999Z</time>
      </trkpt>
      <trkpt lat="47.30247" lon="3.91633">
        <ele>383.7</ele>
        <time>2024-09-02T11:14:26Z</time>
      </trkpt>
      <trkpt lat="47.30244" lon="3.91628">
        <ele>382.9</ele>
        <time>2024-09-02T11:14:34.499Z</time>
      </trkpt>
      <trkpt lat="47.30241" lon="3.91622">
        <ele>382.6</ele>
        <time>2024-09-02T11:14:43Z</time>
      </trkpt>
      <trkpt lat="47.30236" lon="3.91617">
        <ele>383.5</ele>
        <time>2024-09-02T11:14:47.999Z</time>
      </trkpt>
      <trkpt lat="47.30231" lon="3.91611">
        <ele>385.2</ele>
        <time>2024-09-02T11:14:53Z</time>
      </trkpt>
      <trkpt lat="47.30224" lon="3.91604">
        <ele>389.1</ele>
        <time>2024-09-02T11:15:08Z</time>
      </trkpt>
      <trkpt lat="47.3022" lon="3.916">
        <ele>390.1</ele>
        <time>2024-09-02T11:15:12.999Z</time>
      </trkpt>
      <trkpt lat="47.30216" lon="3.91596">
        <ele>390.3</ele>
        <time>2024-09-02T11:15:18Z</time>
      </trkpt>
      <trkpt lat="47.30212" lon="3.91593">
        <ele>390.5</ele>
        <time>2024-09-02T11:15:22.999Z</time>
      </trkpt>
      <trkpt lat="47.30208" lon="3.91589">
        <ele>390.8</ele>
        <time>2024-09-02T11:15:28Z</time>
      </trkpt>
      <trkpt lat="47.30204" lon="3.91585">
        <ele>391.2</ele>
        <time>2024-09-02T11:15:33.499Z</time>
      </trkpt>
      <trkpt lat="47.302" lon="3.9158">
        <ele>391.7</ele>
        <time>2024-09-02T11:15:39Z</time>
      </trkpt>
      <trkpt lat="47.30196" lon="3.91574">
        <ele>392.4</ele>
        <time>2024-09-02T11:15:45.499Z</time>
      </trkpt>
      <trkpt lat="47.30191" lon="3.91568">
        <ele>392.8</ele>
        <time>2024-09-02T11:15:52Z</time>
      </trkpt>
      <trkpt lat="47.30184" lon="3.91561">
        <ele>393</ele>
        <time>2024-09-02T11:15:57.999Z</time>
      </trkpt>
      <trkpt lat="47.30177" lon="3.91554">
        <ele>393.2</ele>
        <time>2024-09-02T11:16:04Z</time>
      </trkpt>
      <trkpt lat="47.30173" lon="3.91546">
        <ele>393.4</ele>
        <time>2024-09-02T11:16:10.499Z</time>
      </trkpt>
      <trkpt lat="47.30169" lon="3.91538">
        <ele>393.5</ele>
        <time>2024-09-02T11:16:17Z</time>
      </trkpt>
      <trkpt lat="47.30167" lon="3.91528">
        <ele>393.9</ele>
        <time>2024-09-02T11:16:23.499Z</time>
      </trkpt>
      <trkpt lat="47.30164" lon="3.91518">
        <ele>394.1</ele>
        <time>2024-09-02T11:16:30Z</time>
      </trkpt>
      <trkpt lat="47.30163" lon="3.91509">
        <ele>394.6</ele>
        <time>2024-09-02T11:16:34.999Z</time>
      </trkpt>
      <trkpt lat="47.30162" lon="3.91499">
        <ele>395</ele>
        <time>2024-09-02T11:16:40Z</time>
      </trkpt>
      <trkpt lat="47.30163" lon="3.91491">
        <ele>395.5</ele>
        <time>2024-09-02T11:16:45.000Z</time>
      </trkpt>
      <trkpt lat="47.30164" lon="3.91482">
        <ele>396</ele>
        <time>2024-09-02T11:16:50Z</time>
      </trkpt>
      <trkpt lat="47.30167" lon="3.91475">
        <ele>396.9</ele>
        <time>2024-09-02T11:16:55.000Z</time>
      </trkpt>
      <trkpt lat="47.30169" lon="3.91467">
        <ele>397.5</ele>
        <time>2024-09-02T11:17:00Z</time>
      </trkpt>
      <trkpt lat="47.30171" lon="3.9146">
        <ele>398.2</ele>
        <time>2024-09-02T11:17:06.000Z</time>
      </trkpt>
      <trkpt lat="47.30173" lon="3.91452">
        <ele>398.8</ele>
        <time>2024-09-02T11:17:12Z</time>
      </trkpt>
      <trkpt lat="47.30175" lon="3.91444">
        <ele>399.5</ele>
        <time>2024-09-02T11:17:17.500Z</time>
      </trkpt>
      <trkpt lat="47.30177" lon="3.91435">
        <ele>399.8</ele>
        <time>2024-09-02T11:17:23Z</time>
      </trkpt>
      <trkpt lat="47.30179" lon="3.91423">
        <ele>400.1</ele>
        <time>2024-09-02T11:17:47Z</time>
      </trkpt>
      <trkpt lat="47.30181" lon="3.91415">
        <ele>400.4</ele>
        <time>2024-09-02T11:17:54.000Z</time>
      </trkpt>
      <trkpt lat="47.30182" lon="3.91407">
        <ele>400.5</ele>
        <time>2024-09-02T11:18:01Z</time>
      </trkpt>
      <trkpt lat="47.30184" lon="3.91399">
        <ele>400.7</ele>
        <time>2024-09-02T11:18:07.500Z</time>
      </trkpt>
      <trkpt lat="47.30186" lon="3.91391">
        <ele>400.9</ele>
        <time>2024-09-02T11:18:14Z</time>
      </trkpt>
      <trkpt lat="47.30189" lon="3.91382">
        <ele>401.3</ele>
        <time>2024-09-02T11:18:19.500Z</time>
      </trkpt>
      <trkpt lat="47.30191" lon="3.91373">
        <ele>401.6</ele>
        <time>2024-09-02T11:18:25Z</time>
      </trkpt>
      <trkpt lat="47.30193" lon="3.91367">
        <ele>401.8</ele>
        <time>2024-09-02T11:18:31.000Z</time>
      </trkpt>
      <trkpt lat="47.30195" lon="3.9136">
        <ele>402.1</ele>
        <time>2024-09-02T11:18:37Z</time>
      </trkpt>
      <trkpt lat="47.30199" lon="3.91354">
        <ele>403</ele>
        <time>2024-09-02T11:18:43.000Z</time>
      </trkpt>
      <trkpt lat="47.30203" lon="3.91348">
        <ele>403.9</ele>
        <time>2024-09-02T11:18:49Z</time>
      </trkpt>
      <trkpt lat="47.30207" lon="3.91342">
        <ele>404.6</ele>
        <time>2024-09-02T11:18:56.000Z</time>
      </trkpt>
      <trkpt lat="47.30211" lon="3.91336">
        <ele>405.3</ele>
        <time>2024-09-02T11:19:03Z</time>
      </trkpt>
      <trkpt lat="47.30213" lon="3.91329">
        <ele>405.6</ele>
        <time>2024-09-02T11:19:11.500Z</time>
      </trkpt>
      <trkpt lat="47.30215" lon="3.91322">
        <ele>405.7</ele>
        <time>2024-09-02T11:19:20Z</time>
      </trkpt>
      <trkpt lat="47.30218" lon="3.91315">
        <ele>405.8</ele>
        <time>2024-09-02T11:19:30.500Z</time>
      </trkpt>
      <trkpt lat="47.30221" lon="3.91308">
        <ele>406</ele>
        <time>2024-09-02T11:19:41Z</time>
      </trkpt>
      <trkpt lat="47.30224" lon="3.91301">
        <ele>406.1</ele>
        <time>2024-09-02T11:19:48.000Z</time>
      </trkpt>
      <trkpt lat="47.30226" lon="3.91294">
        <ele>406.5</ele>
        <time>2024-09-02T11:19:55Z</time>
      </trkpt>
      <trkpt lat="47.30228" lon="3.91285">
        <ele>406.8</ele>
        <time>2024-09-02T11:20:01.000Z</time>
      </trkpt>
      <trkpt lat="47.3023" lon="3.91276">
        <ele>407.2</ele>
        <time>2024-09-02T11:20:07Z</time>
      </trkpt>
      <trkpt lat="47.30228" lon="3.9127">
        <ele>407</ele>
        <time>2024-09-02T11:20:12.499Z</time>
      </trkpt>
      <trkpt lat="47.30225" lon="3.91263">
        <ele>406.9</ele>
        <time>2024-09-02T11:20:18Z</time>
      </trkpt>
      <trkpt lat="47.30221" lon="3.91259">
        <ele>406.6</ele>
        <time>2024-09-02T11:20:22.999Z</time>
      </trkpt>
      <trkpt lat="47.30216" lon="3.91254">
        <ele>406.4</ele>
        <time>2024-09-02T11:20:28Z</time>
      </trkpt>
      <trkpt lat="47.30214" lon="3.91248">
        <ele>406.3</ele>
        <time>2024-09-02T11:20:33.499Z</time>
      </trkpt>
      <trkpt lat="47.30211" lon="3.91241">
        <ele>405.9</ele>
        <time>2024-09-02T11:20:39Z</time>
      </trkpt>
      <trkpt lat="47.30207" lon="3.91242">
        <ele>405.5</ele>
        <time>2024-09-02T11:20:50.000Z</time>
      </trkpt>
      <trkpt lat="47.30202" lon="3.91243">
        <ele>405.2</ele>
        <time>2024-09-02T11:21:01Z</time>
      </trkpt>
      <trkpt lat="47.302" lon="3.91242">
        <ele>404.9</ele>
        <time>2024-09-02T11:21:27Z</time>
      </trkpt>
      <trkpt lat="47.30206" lon="3.9124">
        <ele>405.3</ele>
        <time>2024-09-02T11:21:43.500Z</time>
      </trkpt>
      <trkpt lat="47.30211" lon="3.91237">
        <ele>405.8</ele>
        <time>2024-09-02T11:22:00Z</time>
      </trkpt>
      <trkpt lat="47.30208" lon="3.91239">
        <ele>405.6</ele>
        <time>2024-09-02T11:22:43Z</time>
      </trkpt>
      <trkpt lat="47.30206" lon="3.9124">
        <ele>405.4</ele>
        <time>2024-09-02T11:23:23Z</time>
      </trkpt>
      <trkpt lat="47.30205" lon="3.91235">
        <ele>405.1</ele>
        <time>2024-09-02T11:24:07Z</time>
      </trkpt>
      <trkpt lat="47.30201" lon="3.91232">
        <ele>404.4</ele>
        <time>2024-09-02T11:24:14.999Z</time>
      </trkpt>
      <trkpt lat="47.30196" lon="3.91228">
        <ele>403.6</ele>
        <time>2024-09-02T11:24:23Z</time>
      </trkpt>
      <trkpt lat="47.30188" lon="3.91234">
        <ele>401.6</ele>
        <time>2024-09-02T11:24:39Z</time>
      </trkpt>
      <trkpt lat="47.30183" lon="3.91231">
        <ele>399.5</ele>
        <time>2024-09-02T11:24:45.999Z</time>
      </trkpt>
      <trkpt lat="47.30177" lon="3.91227">
        <ele>397.5</ele>
        <time>2024-09-02T11:24:53Z</time>
      </trkpt>
      <trkpt lat="47.30172" lon="3.91227">
        <ele>395.6</ele>
        <time>2024-09-02T11:24:59.500Z</time>
      </trkpt>
      <trkpt lat="47.30166" lon="3.91227">
        <ele>393.8</ele>
        <time>2024-09-02T11:25:06Z</time>
      </trkpt>
      <trkpt lat="47.30166" lon="3.91219">
        <ele>393.4</ele>
        <time>2024-09-02T11:25:14.999Z</time>
      </trkpt>
      <trkpt lat="47.30165" lon="3.9121">
        <ele>392.7</ele>
        <time>2024-09-02T11:25:24Z</time>
      </trkpt>
      <trkpt lat="47.30165" lon="3.91202">
        <ele>392</ele>
        <time>2024-09-02T11:25:31.499Z</time>
      </trkpt>
      <trkpt lat="47.30164" lon="3.91193">
        <ele>391.4</ele>
        <time>2024-09-02T11:25:39Z</time>
      </trkpt>
      <trkpt lat="47.30164" lon="3.91185">
        <ele>391.4</ele>
        <time>2024-09-02T11:25:46.000Z</time>
      </trkpt>
      <trkpt lat="47.30164" lon="3.91177">
        <ele>391.4</ele>
        <time>2024-09-02T11:25:53Z</time>
      </trkpt>
      <trkpt lat="47.30165" lon="3.91167">
        <ele>391.5</ele>
        <time>2024-09-02T11:26:00.000Z</time>
      </trkpt>
      <trkpt lat="47.30165" lon="3.91156">
        <ele>392.5</ele>
        <time>2024-09-02T11:26:07Z</time>
      </trkpt>
      <trkpt lat="47.30161" lon="3.91154">
        <ele>391.9</ele>
        <time>2024-09-02T11:26:12.999Z</time>
      </trkpt>
      <trkpt lat="47.30156" lon="3.91152">
        <ele>391.4</ele>
        <time>2024-09-02T11:26:19Z</time>
      </trkpt>
      <trkpt lat="47.30151" lon="3.91154">
        <ele>390.3</ele>
        <time>2024-09-02T11:26:26.000Z</time>
      </trkpt>
      <trkpt lat="47.30145" lon="3.91155">
        <ele>389.1</ele>
        <time>2024-09-02T11:26:33Z</time>
      </trkpt>
      <trkpt lat="47.30142" lon="3.9115">
        <ele>389.5</ele>
        <time>2024-09-02T11:26:40.499Z</time>
      </trkpt>
      <trkpt lat="47.30138" lon="3.91144">
        <ele>390</ele>
        <time>2024-09-02T11:26:48Z</time>
      </trkpt>
      <trkpt lat="47.30131" lon="3.91143">
        <ele>389.5</ele>
        <time>2024-09-02T11:27:06Z</time>
      </trkpt>
      <trkpt lat="47.30127" lon="3.91148">
        <ele>388.5</ele>
        <time>2024-09-02T11:27:14.499Z</time>
      </trkpt>
      <trkpt lat="47.30122" lon="3.91152">
        <ele>387.7</ele>
        <time>2024-09-02T11:27:23Z</time>
      </trkpt>
      <trkpt lat="47.30118" lon="3.91151">
        <ele>387.6</ele>
        <time>2024-09-02T11:27:30.499Z</time>
      </trkpt>
      <trkpt lat="47.30113" lon="3.91149">
        <ele>387.4</ele>
        <time>2024-09-02T11:27:38Z</time>
      </trkpt>
      <trkpt lat="47.3011" lon="3.91144">
        <ele>387.6</ele>
        <time>2024-09-02T11:27:44.499Z</time>
      </trkpt>
      <trkpt lat="47.30107" lon="3.91138">
        <ele>387.9</ele>
        <time>2024-09-02T11:27:51Z</time>
      </trkpt>
      <trkpt lat="47.30101" lon="3.91133">
        <ele>388.6</ele>
        <time>2024-09-02T11:27:58.499Z</time>
      </trkpt>
      <trkpt lat="47.30095" lon="3.91128">
        <ele>389.1</ele>
        <time>2024-09-02T11:28:06Z</time>
      </trkpt>
      <trkpt lat="47.3009" lon="3.91118">
        <ele>390.6</ele>
        <time>2024-09-02T11:28:18Z</time>
      </trkpt>
      <trkpt lat="47.30086" lon="3.91113">
        <ele>391</ele>
        <time>2024-09-02T11:28:25.499Z</time>
      </trkpt>
      <trkpt lat="47.30081" lon="3.91108">
        <ele>391.8</ele>
        <time>2024-09-02T11:28:33Z</time>
      </trkpt>
      <trkpt lat="47.30079" lon="3.9112">
        <ele>390.3</ele>
        <time>2024-09-02T11:28:54Z</time>
      </trkpt>
      <trkpt lat="47.30081" lon="3.9113">
        <ele>388.3</ele>
        <time>2024-09-02T11:29:08Z</time>
      </trkpt>
      <trkpt lat="47.30083" lon="3.91136">
        <ele>386.6</ele>
        <time>2024-09-02T11:29:13.000Z</time>
      </trkpt>
      <trkpt lat="47.30085" lon="3.91142">
        <ele>386.5</ele>
        <time>2024-09-02T11:29:18Z</time>
      </trkpt>
      <trkpt lat="47.30089" lon="3.91148">
        <ele>387.3</ele>
        <time>2024-09-02T11:29:25.500Z</time>
      </trkpt>
      <trkpt lat="47.30092" lon="3.91154">
        <ele>387.8</ele>
        <time>2024-09-02T11:29:33Z</time>
      </trkpt>
      <trkpt lat="47.30089" lon="3.9116">
        <ele>388.5</ele>
        <time>2024-09-02T11:29:47Z</time>
      </trkpt>
      <trkpt lat="47.30094" lon="3.91169">
        <ele>388.6</ele>
        <time>2024-09-02T11:30:05Z</time>
      </trkpt>
      <trkpt lat="47.30099" lon="3.91177">
        <ele>388.1</ele>
        <time>2024-09-02T11:30:10.500Z</time>
      </trkpt>
      <trkpt lat="47.30104" lon="3.91184">
        <ele>387.3</ele>
        <time>2024-09-02T11:30:16Z</time>
      </trkpt>
      <trkpt lat="47.30105" lon="3.91194">
        <ele>387.4</ele>
        <time>2024-09-02T11:30:21.000Z</time>
      </trkpt>
      <trkpt lat="47.30105" lon="3.91204">
        <ele>387.2</ele>
        <time>2024-09-02T11:30:26Z</time>
      </trkpt>
      <trkpt lat="47.30103" lon="3.91211">
        <ele>387.7</ele>
        <time>2024-09-02T11:30:35.999Z</time>
      </trkpt>
      <trkpt lat="47.301" lon="3.91218">
        <ele>388.1</ele>
        <time>2024-09-02T11:30:46Z</time>
      </trkpt>
      <trkpt lat="47.30098" lon="3.91229">
        <ele>387.9</ele>
        <time>2024-09-02T11:30:51.499Z</time>
      </trkpt>
      <trkpt lat="47.30096" lon="3.9124">
        <ele>387.3</ele>
        <time>2024-09-02T11:30:57Z</time>
      </trkpt>
      <trkpt lat="47.30091" lon="3.91245">
        <ele>387.2</ele>
        <time>2024-09-02T11:31:01.999Z</time>
      </trkpt>
      <trkpt lat="47.30086" lon="3.9125">
        <ele>386.9</ele>
        <time>2024-09-02T11:31:07Z</time>
      </trkpt>
      <trkpt lat="47.30082" lon="3.91255">
        <ele>387.4</ele>
        <time>2024-09-02T11:31:12.499Z</time>
      </trkpt>
      <trkpt lat="47.30077" lon="3.91259">
        <ele>388.6</ele>
        <time>2024-09-02T11:31:18Z</time>
      </trkpt>
      <trkpt lat="47.30072" lon="3.91265">
        <ele>389.6</ele>
        <time>2024-09-02T11:31:23.999Z</time>
      </trkpt>
      <trkpt lat="47.30066" lon="3.9127">
        <ele>390.3</ele>
        <time>2024-09-02T11:31:29.999Z</time>
      </trkpt>
      <trkpt lat="47.30061" lon="3.91276">
        <ele>390.5</ele>
        <time>2024-09-02T11:31:35.999Z</time>
      </trkpt>
      <trkpt lat="47.30055" lon="3.91281">
        <ele>390.6</ele>
        <time>2024-09-02T11:31:42Z</time>
      </trkpt>
      <trkpt lat="47.30051" lon="3.91289">
        <ele>390.5</ele>
        <time>2024-09-02T11:31:49.499Z</time>
      </trkpt>
      <trkpt lat="47.30047" lon="3.91296">
        <ele>390.5</ele>
        <time>2024-09-02T11:31:57Z</time>
      </trkpt>
      <trkpt lat="47.30044" lon="3.91308">
        <ele>389.6</ele>
        <time>2024-09-02T11:32:13Z</time>
      </trkpt>
      <trkpt lat="47.3004" lon="3.9132">
        <ele>390.2</ele>
        <time>2024-09-02T11:32:20.499Z</time>
      </trkpt>
      <trkpt lat="47.30036" lon="3.91331">
        <ele>390.4</ele>
        <time>2024-09-02T11:32:28Z</time>
      </trkpt>
      <trkpt lat="47.3003" lon="3.91336">
        <ele>391.3</ele>
        <time>2024-09-02T11:32:33.999Z</time>
      </trkpt>
      <trkpt lat="47.30024" lon="3.9134">
        <ele>391.5</ele>
        <time>2024-09-02T11:32:40Z</time>
      </trkpt>
      <trkpt lat="47.30019" lon="3.91339">
        <ele>392</ele>
        <time>2024-09-02T11:32:45.500Z</time>
      </trkpt>
      <trkpt lat="47.30013" lon="3.91338">
        <ele>392.5</ele>
        <time>2024-09-02T11:32:51Z</time>
      </trkpt>
      <trkpt lat="47.30008" lon="3.91336">
        <ele>393.1</ele>
        <time>2024-09-02T11:33:01.499Z</time>
      </trkpt>
      <trkpt lat="47.30002" lon="3.91334">
        <ele>393.8</ele>
        <time>2024-09-02T11:33:12Z</time>
      </trkpt>
      <trkpt lat="47.29997" lon="3.91331">
        <ele>394.1</ele>
        <time>2024-09-02T11:33:17.999Z</time>
      </trkpt>
      <trkpt lat="47.29991" lon="3.91328">
        <ele>394.1</ele>
        <time>2024-09-02T11:33:24Z</time>
      </trkpt>
      <trkpt lat="47.29986" lon="3.91324">
        <ele>394.3</ele>
        <time>2024-09-02T11:33:30.499Z</time>
      </trkpt>
      <trkpt lat="47.29981" lon="3.9132">
        <ele>394.6</ele>
        <time>2024-09-02T11:33:37Z</time>
      </trkpt>
      <trkpt lat="47.29974" lon="3.91318">
        <ele>394.4</ele>
        <time>2024-09-02T11:33:45.999Z</time>
      </trkpt>
      <trkpt lat="47.29966" lon="3.91315">
        <ele>393.5</ele>
        <time>2024-09-02T11:33:55Z</time>
      </trkpt>
      <trkpt lat="47.29961" lon="3.91309">
        <ele>393.4</ele>
        <time>2024-09-02T11:34:01.499Z</time>
      </trkpt>
      <trkpt lat="47.29955" lon="3.91303">
        <ele>393.3</ele>
        <time>2024-09-02T11:34:08Z</time>
      </trkpt>
      <trkpt lat="47.29951" lon="3.91298">
        <ele>393.4</ele>
        <time>2024-09-02T11:34:14.999Z</time>
      </trkpt>
      <trkpt lat="47.29946" lon="3.91293">
        <ele>393.5</ele>
        <time>2024-09-02T11:34:22Z</time>
      </trkpt>
      <trkpt lat="47.29942" lon="3.91286">
        <ele>394.2</ele>
        <time>2024-09-02T11:34:30.499Z</time>
      </trkpt>
      <trkpt lat="47.29938" lon="3.91278">
        <ele>394.8</ele>
        <time>2024-09-02T11:34:39Z</time>
      </trkpt>
      <trkpt lat="47.29935" lon="3.91273">
        <ele>395.6</ele>
        <time>2024-09-02T11:34:46.499Z</time>
      </trkpt>
      <trkpt lat="47.29931" lon="3.91267">
        <ele>396.5</ele>
        <time>2024-09-02T11:34:54Z</time>
      </trkpt>
      <trkpt lat="47.29925" lon="3.91267">
        <ele>395.6</ele>
        <time>2024-09-02T11:35:01.000Z</time>
      </trkpt>
      <trkpt lat="47.29919" lon="3.91267">
        <ele>394.8</ele>
        <time>2024-09-02T11:35:08Z</time>
      </trkpt>
      <trkpt lat="47.29915" lon="3.91273">
        <ele>393.1</ele>
        <time>2024-09-02T11:35:15.999Z</time>
      </trkpt>
      <trkpt lat="47.2991" lon="3.91278">
        <ele>392.2</ele>
        <time>2024-09-02T11:35:24Z</time>
      </trkpt>
      <trkpt lat="47.29905" lon="3.91285">
        <ele>391.5</ele>
        <time>2024-09-02T11:35:31.499Z</time>
      </trkpt>
      <trkpt lat="47.299" lon="3.91292">
        <ele>390.5</ele>
        <time>2024-09-02T11:35:39Z</time>
      </trkpt>
      <trkpt lat="47.29895" lon="3.91297">
        <ele>390</ele>
        <time>2024-09-02T11:35:44.999Z</time>
      </trkpt>
      <trkpt lat="47.2989" lon="3.91301">
        <ele>389.2</ele>
        <time>2024-09-02T11:35:51Z</time>
      </trkpt>
      <trkpt lat="47.29887" lon="3.91306">
        <ele>388.2</ele>
        <time>2024-09-02T11:36:01.499Z</time>
      </trkpt>
      <trkpt lat="47.29884" lon="3.91311">
        <ele>388.2</ele>
        <time>2024-09-02T11:36:12Z</time>
      </trkpt>
      <trkpt lat="47.29879" lon="3.91314">
        <ele>388.4</ele>
        <time>2024-09-02T11:36:19.499Z</time>
      </trkpt>
      <trkpt lat="47.29873" lon="3.91317">
        <ele>388.5</ele>
        <time>2024-09-02T11:36:27Z</time>
      </trkpt>
      <trkpt lat="47.29867" lon="3.91322">
        <ele>388.1</ele>
        <time>2024-09-02T11:36:34.999Z</time>
      </trkpt>
      <trkpt lat="47.29861" lon="3.91327">
        <ele>387.4</ele>
        <time>2024-09-02T11:36:43Z</time>
      </trkpt>
      <trkpt lat="47.29853" lon="3.91328">
        <ele>387.7</ele>
        <time>2024-09-02T11:36:49.500Z</time>
      </trkpt>
      <trkpt lat="47.29844" lon="3.91329">
        <ele>388.1</ele>
        <time>2024-09-02T11:36:56Z</time>
      </trkpt>
      <trkpt lat="47.29839" lon="3.91327">
        <ele>388.9</ele>
        <time>2024-09-02T11:37:02.499Z</time>
      </trkpt>
      <trkpt lat="47.29833" lon="3.91324">
        <ele>389.7</ele>
        <time>2024-09-02T11:37:09Z</time>
      </trkpt>
      <trkpt lat="47.29827" lon="3.91323">
        <ele>389.8</ele>
        <time>2024-09-02T11:37:17.499Z</time>
      </trkpt>
      <trkpt lat="47.2982" lon="3.91321">
        <ele>390</ele>
        <time>2024-09-02T11:37:26Z</time>
      </trkpt>
      <trkpt lat="47.29814" lon="3.91317">
        <ele>390.6</ele>
        <time>2024-09-02T11:37:32.999Z</time>
      </trkpt>
      <trkpt lat="47.29807" lon="3.91313">
        <ele>391.4</ele>
        <time>2024-09-02T11:37:40Z</time>
      </trkpt>
      <trkpt lat="47.29803" lon="3.91311">
        <ele>391.5</ele>
        <time>2024-09-02T11:37:43.499Z</time>
      </trkpt>
      <trkpt lat="47.29799" lon="3.91309">
        <ele>391.4</ele>
        <time>2024-09-02T11:37:46.999Z</time>
      </trkpt>
      <trkpt lat="47.29794" lon="3.91306">
        <ele>391.2</ele>
        <time>2024-09-02T11:37:50.499Z</time>
      </trkpt>
      <trkpt lat="47.2979" lon="3.91304">
        <ele>391</ele>
        <time>2024-09-02T11:37:54Z</time>
      </trkpt>
      <trkpt lat="47.29783" lon="3.913">
        <ele>390.7</ele>
        <time>2024-09-02T11:37:59.499Z</time>
      </trkpt>
      <trkpt lat="47.29775" lon="3.91295">
        <ele>390.5</ele>
        <time>2024-09-02T11:38:05Z</time>
      </trkpt>
      <trkpt lat="47.2977" lon="3.91292">
        <ele>390.3</ele>
        <time>2024-09-02T11:38:09.999Z</time>
      </trkpt>
      <trkpt lat="47.29765" lon="3.91289">
        <ele>390.1</ele>
        <time>2024-09-02T11:38:15Z</time>
      </trkpt>
      <trkpt lat="47.2976" lon="3.91294">
        <ele>388.7</ele>
        <time>2024-09-02T11:38:28.999Z</time>
      </trkpt>
      <trkpt lat="47.29755" lon="3.91298">
        <ele>387.5</ele>
        <time>2024-09-02T11:38:43Z</time>
      </trkpt>
      <trkpt lat="47.29752" lon="3.91293">
        <ele>387.6</ele>
        <time>2024-09-02T11:38:49.999Z</time>
      </trkpt>
      <trkpt lat="47.29749" lon="3.91288">
        <ele>387.8</ele>
        <time>2024-09-02T11:38:57Z</time>
      </trkpt>
      <trkpt lat="47.29749" lon="3.91279">
        <ele>388.7</ele>
        <time>2024-09-02T11:39:04.999Z</time>
      </trkpt>
      <trkpt lat="47.29748" lon="3.9127">
        <ele>389.6</ele>
        <time>2024-09-02T11:39:13Z</time>
      </trkpt>
      <trkpt lat="47.29746" lon="3.91264">
        <ele>390.1</ele>
        <time>2024-09-02T11:39:20.499Z</time>
      </trkpt>
      <trkpt lat="47.29743" lon="3.91257">
        <ele>390.7</ele>
        <time>2024-09-02T11:39:28Z</time>
      </trkpt>
      <trkpt lat="47.2974" lon="3.91249">
        <ele>391.5</ele>
        <time>2024-09-02T11:39:34.499Z</time>
      </trkpt>
      <trkpt lat="47.29737" lon="3.9124">
        <ele>392.5</ele>
        <time>2024-09-02T11:39:41Z</time>
      </trkpt>
      <trkpt lat="47.29733" lon="3.91236">
        <ele>392.8</ele>
        <time>2024-09-02T11:39:47.499Z</time>
      </trkpt>
      <trkpt lat="47.29728" lon="3.91231">
        <ele>393.2</ele>
        <time>2024-09-02T11:39:54Z</time>
      </trkpt>
      <trkpt lat="47.29722" lon="3.9123">
        <ele>392.9</ele>
        <time>2024-09-02T11:40:21Z</time>
      </trkpt>
      <trkpt lat="47.29721" lon="3.9122">
        <ele>394.3</ele>
        <time>2024-09-02T11:40:37Z</time>
      </trkpt>
      <trkpt lat="47.29724" lon="3.91222">
        <ele>394.1</ele>
        <time>2024-09-02T11:41:11Z</time>
      </trkpt>
      <trkpt lat="47.29723" lon="3.91215">
        <ele>394.3</ele>
        <time>2024-09-02T11:41:35Z</time>
      </trkpt>
      <trkpt lat="47.2972" lon="3.91225">
        <ele>393.9</ele>
        <time>2024-09-02T11:41:55Z</time>
      </trkpt>
      <trkpt lat="47.29717" lon="3.91227">
        <ele>394.1</ele>
        <time>2024-09-02T11:42:14Z</time>
      </trkpt>
      <trkpt lat="47.29723" lon="3.91221">
        <ele>394.1</ele>
        <time>2024-09-02T11:42:31Z</time>
      </trkpt>
      <trkpt lat="47.29723" lon="3.91232">
        <ele>392.6</ele>
        <time>2024-09-02T11:42:52Z</time>
      </trkpt>
      <trkpt lat="47.29726" lon="3.9123">
        <ele>393.2</ele>
        <time>2024-09-02T11:43:27Z</time>
      </trkpt>
      <trkpt lat="47.29722" lon="3.91235">
        <ele>392.2</ele>
        <time>2024-09-02T11:43:32.999Z</time>
      </trkpt>
      <trkpt lat="47.29718" lon="3.9124">
        <ele>392.2</ele>
        <time>2024-09-02T11:43:39Z</time>
      </trkpt>
      <trkpt lat="47.29716" lon="3.91249">
        <ele>391.5</ele>
        <time>2024-09-02T11:43:45.499Z</time>
      </trkpt>
      <trkpt lat="47.29714" lon="3.91258">
        <ele>390.6</ele>
        <time>2024-09-02T11:43:52Z</time>
      </trkpt>
      <trkpt lat="47.2971" lon="3.91268">
        <ele>390.2</ele>
        <time>2024-09-02T11:43:57.499Z</time>
      </trkpt>
      <trkpt lat="47.29705" lon="3.91277">
        <ele>389.8</ele>
        <time>2024-09-02T11:44:03Z</time>
      </trkpt>
      <trkpt lat="47.29701" lon="3.91284">
        <ele>389.6</ele>
        <time>2024-09-02T11:44:07.999Z</time>
      </trkpt>
      <trkpt lat="47.29697" lon="3.9129">
        <ele>389.1</ele>
        <time>2024-09-02T11:44:13Z</time>
      </trkpt>
      <trkpt lat="47.29693" lon="3.91296">
        <ele>388.6</ele>
        <time>2024-09-02T11:44:18.999Z</time>
      </trkpt>
      <trkpt lat="47.29689" lon="3.91301">
        <ele>388.7</ele>
        <time>2024-09-02T11:44:25Z</time>
      </trkpt>
      <trkpt lat="47.29685" lon="3.91309">
        <ele>389</ele>
        <time>2024-09-02T11:44:31.499Z</time>
      </trkpt>
      <trkpt lat="47.2968" lon="3.91317">
        <ele>389.6</ele>
        <time>2024-09-02T11:44:38Z</time>
      </trkpt>
      <trkpt lat="47.29678" lon="3.91326">
        <ele>389.1</ele>
        <time>2024-09-02T11:44:44.499Z</time>
      </trkpt>
      <trkpt lat="47.29676" lon="3.91335">
        <ele>388.5</ele>
        <time>2024-09-02T11:44:51Z</time>
      </trkpt>
      <trkpt lat="47.29672" lon="3.91343">
        <ele>388.4</ele>
        <time>2024-09-02T11:44:56.999Z</time>
      </trkpt>
      <trkpt lat="47.29668" lon="3.91351">
        <ele>388</ele>
        <time>2024-09-02T11:45:03Z</time>
      </trkpt>
      <trkpt lat="47.29663" lon="3.91355">
        <ele>388.1</ele>
        <time>2024-09-02T11:45:11.499Z</time>
      </trkpt>
      <trkpt lat="47.29658" lon="3.91358">
        <ele>388.1</ele>
        <time>2024-09-02T11:45:20Z</time>
      </trkpt>
      <trkpt lat="47.2965" lon="3.91362">
        <ele>388.2</ele>
        <time>2024-09-02T11:45:26.999Z</time>
      </trkpt>
      <trkpt lat="47.29642" lon="3.91365">
        <ele>388.4</ele>
        <time>2024-09-02T11:45:34Z</time>
      </trkpt>
      <trkpt lat="47.29635" lon="3.91362">
        <ele>388.9</ele>
        <time>2024-09-02T11:45:40.999Z</time>
      </trkpt>
      <trkpt lat="47.29628" lon="3.91359">
        <ele>389.5</ele>
        <time>2024-09-02T11:45:48Z</time>
      </trkpt>
      <trkpt lat="47.29622" lon="3.91358">
        <ele>389.8</ele>
        <time>2024-09-02T11:45:56.499Z</time>
      </trkpt>
      <trkpt lat="47.29616" lon="3.91356">
        <ele>390.1</ele>
        <time>2024-09-02T11:46:05Z</time>
      </trkpt>
      <trkpt lat="47.29611" lon="3.91356">
        <ele>390.1</ele>
        <time>2024-09-02T11:46:11.500Z</time>
      </trkpt>
      <trkpt lat="47.29605" lon="3.91356">
        <ele>389.8</ele>
        <time>2024-09-02T11:46:18Z</time>
      </trkpt>
      <trkpt lat="47.29599" lon="3.91353">
        <ele>390.3</ele>
        <time>2024-09-02T11:46:28.499Z</time>
      </trkpt>
      <trkpt lat="47.29592" lon="3.91349">
        <ele>390.6</ele>
        <time>2024-09-02T11:46:39Z</time>
      </trkpt>
      <trkpt lat="47.29586" lon="3.91348">
        <ele>390.6</ele>
        <time>2024-09-02T11:46:45.500Z</time>
      </trkpt>
      <trkpt lat="47.2958" lon="3.91346">
        <ele>390.5</ele>
        <time>2024-09-02T11:46:52Z</time>
      </trkpt>
      <trkpt lat="47.29573" lon="3.91344">
        <ele>390.5</ele>
        <time>2024-09-02T11:46:57.499Z</time>
      </trkpt>
      <trkpt lat="47.29565" lon="3.91341">
        <ele>390.5</ele>
        <time>2024-09-02T11:47:03Z</time>
      </trkpt>
      <trkpt lat="47.2956" lon="3.91339">
        <ele>390.5</ele>
        <time>2024-09-02T11:47:07.999Z</time>
      </trkpt>
      <trkpt lat="47.29554" lon="3.91336">
        <ele>390.4</ele>
        <time>2024-09-02T11:47:13Z</time>
      </trkpt>
      <trkpt lat="47.29549" lon="3.91331">
        <ele>390.3</ele>
        <time>2024-09-02T11:47:18.499Z</time>
      </trkpt>
      <trkpt lat="47.29544" lon="3.91326">
        <ele>390.2</ele>
        <time>2024-09-02T11:47:24Z</time>
      </trkpt>
      <trkpt lat="47.29541" lon="3.91322">
        <ele>390.3</ele>
        <time>2024-09-02T11:47:29.999Z</time>
      </trkpt>
      <trkpt lat="47.29537" lon="3.91317">
        <ele>390.5</ele>
        <time>2024-09-02T11:47:36Z</time>
      </trkpt>
      <trkpt lat="47.29532" lon="3.91314">
        <ele>390.3</ele>
        <time>2024-09-02T11:47:41.999Z</time>
      </trkpt>
      <trkpt lat="47.29527" lon="3.91311">
        <ele>390.1</ele>
        <time>2024-09-02T11:47:48Z</time>
      </trkpt>
      <trkpt lat="47.29521" lon="3.91307">
        <ele>389.7</ele>
        <time>2024-09-02T11:47:53.999Z</time>
      </trkpt>
      <trkpt lat="47.29515" lon="3.91302">
        <ele>389.1</ele>
        <time>2024-09-02T11:48:00Z</time>
      </trkpt>
      <trkpt lat="47.29512" lon="3.91295">
        <ele>389.4</ele>
        <time>2024-09-02T11:48:07.499Z</time>
      </trkpt>
      <trkpt lat="47.29508" lon="3.91288">
        <ele>389.8</ele>
        <time>2024-09-02T11:48:15Z</time>
      </trkpt>
      <trkpt lat="47.29504" lon="3.91281">
        <ele>390.1</ele>
        <time>2024-09-02T11:48:20.999Z</time>
      </trkpt>
      <trkpt lat="47.29499" lon="3.91273">
        <ele>390.4</ele>
        <time>2024-09-02T11:48:27Z</time>
      </trkpt>
      <trkpt lat="47.29495" lon="3.91266">
        <ele>390.5</ele>
        <time>2024-09-02T11:48:32.499Z</time>
      </trkpt>
      <trkpt lat="47.2949" lon="3.91259">
        <ele>390.6</ele>
        <time>2024-09-02T11:48:38Z</time>
      </trkpt>
      <trkpt lat="47.29487" lon="3.91254">
        <ele>390.6</ele>
        <time>2024-09-02T11:48:46.999Z</time>
      </trkpt>
      <trkpt lat="47.29483" lon="3.91249">
        <ele>390.7</ele>
        <time>2024-09-02T11:48:56Z</time>
      </trkpt>
      <trkpt lat="47.29479" lon="3.91246">
        <ele>390.5</ele>
        <time>2024-09-02T11:49:01.999Z</time>
      </trkpt>
      <trkpt lat="47.29474" lon="3.91243">
        <ele>390.3</ele>
        <time>2024-09-02T11:49:08Z</time>
      </trkpt>
      <trkpt lat="47.29469" lon="3.91241">
        <ele>390</ele>
        <time>2024-09-02T11:49:13.499Z</time>
      </trkpt>
      <trkpt lat="47.29464" lon="3.91239">
        <ele>389.8</ele>
        <time>2024-09-02T11:49:19Z</time>
      </trkpt>
      <trkpt lat="47.2946" lon="3.91235">
        <ele>389.8</ele>
        <time>2024-09-02T11:49:23.999Z</time>
      </trkpt>
      <trkpt lat="47.29455" lon="3.9123">
        <ele>389.7</ele>
        <time>2024-09-02T11:49:29Z</time>
      </trkpt>
      <trkpt lat="47.29451" lon="3.91226">
        <ele>389.6</ele>
        <time>2024-09-02T11:49:33.999Z</time>
      </trkpt>
      <trkpt lat="47.29447" lon="3.91222">
        <ele>389.4</ele>
        <time>2024-09-02T11:49:39Z</time>
      </trkpt>
      <trkpt lat="47.29442" lon="3.91217">
        <ele>389.3</ele>
        <time>2024-09-02T11:49:44.499Z</time>
      </trkpt>
      <trkpt lat="47.29437" lon="3.91211">
        <ele>389.3</ele>
        <time>2024-09-02T11:49:50Z</time>
      </trkpt>
      <trkpt lat="47.29434" lon="3.91205">
        <ele>389.4</ele>
        <time>2024-09-02T11:49:54.999Z</time>
      </trkpt>
      <trkpt lat="47.2943" lon="3.91199">
        <ele>389.5</ele>
        <time>2024-09-02T11:50:00Z</time>
      </trkpt>
      <trkpt lat="47.29427" lon="3.91195">
        <ele>389.4</ele>
        <time>2024-09-02T11:50:04.999Z</time>
      </trkpt>
      <trkpt lat="47.29423" lon="3.9119">
        <ele>389.4</ele>
        <time>2024-09-02T11:50:10Z</time>
      </trkpt>
      <trkpt lat="47.2942" lon="3.91184">
        <ele>389.5</ele>
        <time>2024-09-02T11:50:16.999Z</time>
      </trkpt>
      <trkpt lat="47.29416" lon="3.91177">
        <ele>389.8</ele>
        <time>2024-09-02T11:50:24Z</time>
      </trkpt>
      <trkpt lat="47.29412" lon="3.91169">
        <ele>390</ele>
        <time>2024-09-02T11:50:30.499Z</time>
      </trkpt>
      <trkpt lat="47.29408" lon="3.9116">
        <ele>389.9</ele>
        <time>2024-09-02T11:50:37Z</time>
      </trkpt>
      <trkpt lat="47.29406" lon="3.91148">
        <ele>390.4</ele>
        <time>2024-09-02T11:50:44.999Z</time>
      </trkpt>
      <trkpt lat="47.29403" lon="3.91135">
        <ele>390.9</ele>
        <time>2024-09-02T11:50:53Z</time>
      </trkpt>
      <trkpt lat="47.29403" lon="3.91128">
        <ele>391.4</ele>
        <time>2024-09-02T11:51:02.499Z</time>
      </trkpt>
      <trkpt lat="47.29402" lon="3.91121">
        <ele>392</ele>
        <time>2024-09-02T11:51:12Z</time>
      </trkpt>
      <trkpt lat="47.29399" lon="3.91114">
        <ele>391.8</ele>
        <time>2024-09-02T11:51:20.499Z</time>
      </trkpt>
      <trkpt lat="47.29395" lon="3.91107">
        <ele>391.5</ele>
        <time>2024-09-02T11:51:29Z</time>
      </trkpt>
      <trkpt lat="47.29392" lon="3.91101">
        <ele>391</ele>
        <time>2024-09-02T11:51:35.999Z</time>
      </trkpt>
      <trkpt lat="47.29388" lon="3.91094">
        <ele>390.5</ele>
        <time>2024-09-02T11:51:43Z</time>
      </trkpt>
      <trkpt lat="47.2939" lon="3.91086">
        <ele>391.1</ele>
        <time>2024-09-02T11:51:50.500Z</time>
      </trkpt>
      <trkpt lat="47.29391" lon="3.91077">
        <ele>391.5</ele>
        <time>2024-09-02T11:51:58Z</time>
      </trkpt>
      <trkpt lat="47.29391" lon="3.91069">
        <ele>391.6</ele>
        <time>2024-09-02T11:52:04.500Z</time>
      </trkpt>
      <trkpt lat="47.29391" lon="3.9106">
        <ele>391.6</ele>
        <time>2024-09-02T11:52:11Z</time>
      </trkpt>
      <trkpt lat="47.29389" lon="3.91053">
        <ele>390.9</ele>
        <time>2024-09-02T11:52:17.499Z</time>
      </trkpt>
      <trkpt lat="47.29387" lon="3.91046">
        <ele>390.3</ele>
        <time>2024-09-02T11:52:24Z</time>
      </trkpt>
      <trkpt lat="47.29389" lon="3.91037">
        <ele>390.3</ele>
        <time>2024-09-02T11:52:30.500Z</time>
      </trkpt>
      <trkpt lat="47.2939" lon="3.91027">
        <ele>390.2</ele>
        <time>2024-09-02T11:52:37Z</time>
      </trkpt>
      <trkpt lat="47.29392" lon="3.91018">
        <ele>389.7</ele>
        <time>2024-09-02T11:52:45.000Z</time>
      </trkpt>
      <trkpt lat="47.29393" lon="3.91008">
        <ele>389.2</ele>
        <time>2024-09-02T11:52:53Z</time>
      </trkpt>
      <trkpt lat="47.29394" lon="3.90999">
        <ele>388.4</ele>
        <time>2024-09-02T11:53:01.500Z</time>
      </trkpt>
      <trkpt lat="47.29394" lon="3.90989">
        <ele>388.1</ele>
        <time>2024-09-02T11:53:10Z</time>
      </trkpt>
      <trkpt lat="47.29396" lon="3.90981">
        <ele>388.2</ele>
        <time>2024-09-02T11:53:16.500Z</time>
      </trkpt>
      <trkpt lat="47.29398" lon="3.90972">
        <ele>388.3</ele>
        <time>2024-09-02T11:53:23Z</time>
      </trkpt>
      <trkpt lat="47.29403" lon="3.90964">
        <ele>389</ele>
        <time>2024-09-02T11:53:29.000Z</time>
      </trkpt>
      <trkpt lat="47.29407" lon="3.90956">
        <ele>389.4</ele>
        <time>2024-09-02T11:53:35Z</time>
      </trkpt>
      <trkpt lat="47.29408" lon="3.90948">
        <ele>389</ele>
        <time>2024-09-02T11:53:41.500Z</time>
      </trkpt>
      <trkpt lat="47.29409" lon="3.90939">
        <ele>389.1</ele>
        <time>2024-09-02T11:53:48Z</time>
      </trkpt>
      <trkpt lat="47.29409" lon="3.90932">
        <ele>389.2</ele>
        <time>2024-09-02T11:54:02.499Z</time>
      </trkpt>
      <trkpt lat="47.29408" lon="3.90925">
        <ele>389.4</ele>
        <time>2024-09-02T11:54:17Z</time>
      </trkpt>
      <trkpt lat="47.29404" lon="3.9092">
        <ele>389.4</ele>
        <time>2024-09-02T11:54:24.999Z</time>
      </trkpt>
      <trkpt lat="47.294" lon="3.90914">
        <ele>389.5</ele>
        <time>2024-09-02T11:54:33Z</time>
      </trkpt>
      <trkpt lat="47.29399" lon="3.90907">
        <ele>389.9</ele>
        <time>2024-09-02T11:54:39.499Z</time>
      </trkpt>
      <trkpt lat="47.29398" lon="3.90899">
        <ele>390.2</ele>
        <time>2024-09-02T11:54:46Z</time>
      </trkpt>
      <trkpt lat="47.29396" lon="3.90891">
        <ele>390.4</ele>
        <time>2024-09-02T11:54:52.999Z</time>
      </trkpt>
      <trkpt lat="47.29394" lon="3.90883">
        <ele>390.8</ele>
        <time>2024-09-02T11:55:00Z</time>
      </trkpt>
      <trkpt lat="47.29391" lon="3.90878">
        <ele>391</ele>
        <time>2024-09-02T11:55:05.499Z</time>
      </trkpt>
      <trkpt lat="47.29388" lon="3.90872">
        <ele>391.3</ele>
        <time>2024-09-02T11:55:11Z</time>
      </trkpt>
      <trkpt lat="47.29383" lon="3.90871">
        <ele>391.9</ele>
        <time>2024-09-02T11:55:17.000Z</time>
      </trkpt>
      <trkpt lat="47.29378" lon="3.9087">
        <ele>392.5</ele>
        <time>2024-09-02T11:55:23Z</time>
      </trkpt>
      <trkpt lat="47.29376" lon="3.90868">
        <ele>392.8</ele>
        <time>2024-09-02T11:55:46Z</time>
      </trkpt>
      <trkpt lat="47.29378" lon="3.90876">
        <ele>392.3</ele>
        <time>2024-09-02T11:55:53.000Z</time>
      </trkpt>
      <trkpt lat="47.2938" lon="3.90884">
        <ele>391.8</ele>
        <time>2024-09-02T11:56:00Z</time>
      </trkpt>
      <trkpt lat="47.2938" lon="3.90894">
        <ele>391.5</ele>
        <time>2024-09-02T11:56:06.500Z</time>
      </trkpt>
      <trkpt lat="47.2938" lon="3.90904">
        <ele>391.2</ele>
        <time>2024-09-02T11:56:13Z</time>
      </trkpt>
      <trkpt lat="47.29376" lon="3.90915">
        <ele>391.8</ele>
        <time>2024-09-02T11:56:27Z</time>
      </trkpt>
      <trkpt lat="47.29377" lon="3.90922">
        <ele>391.2</ele>
        <time>2024-09-02T11:56:36.000Z</time>
      </trkpt>
      <trkpt lat="47.29377" lon="3.90929">
        <ele>390.4</ele>
        <time>2024-09-02T11:56:45Z</time>
      </trkpt>
      <trkpt lat="47.2938" lon="3.90938">
        <ele>388.9</ele>
        <time>2024-09-02T11:56:51.500Z</time>
      </trkpt>
      <trkpt lat="47.29383" lon="3.90946">
        <ele>387.4</ele>
        <time>2024-09-02T11:56:58Z</time>
      </trkpt>
      <trkpt lat="47.2938" lon="3.90953">
        <ele>387.9</ele>
        <time>2024-09-02T11:57:03.499Z</time>
      </trkpt>
      <trkpt lat="47.29376" lon="3.9096">
        <ele>388.2</ele>
        <time>2024-09-02T11:57:09Z</time>
      </trkpt>
      <trkpt lat="47.29371" lon="3.9097">
        <ele>388.2</ele>
        <time>2024-09-02T11:57:14.499Z</time>
      </trkpt>
      <trkpt lat="47.29366" lon="3.90979">
        <ele>387.9</ele>
        <time>2024-09-02T11:57:20Z</time>
      </trkpt>
      <trkpt lat="47.29365" lon="3.90987">
        <ele>387.3</ele>
        <time>2024-09-02T11:57:25.499Z</time>
      </trkpt>
      <trkpt lat="47.29363" lon="3.90994">
        <ele>386.7</ele>
        <time>2024-09-02T11:57:31Z</time>
      </trkpt>
      <trkpt lat="47.29361" lon="3.91001">
        <ele>386.1</ele>
        <time>2024-09-02T11:57:35.999Z</time>
      </trkpt>
      <trkpt lat="47.29358" lon="3.91007">
        <ele>386.5</ele>
        <time>2024-09-02T11:57:41Z</time>
      </trkpt>
      <trkpt lat="47.29353" lon="3.91013">
        <ele>387.2</ele>
        <time>2024-09-02T11:57:45.499Z</time>
      </trkpt>
      <trkpt lat="47.29347" lon="3.91018">
        <ele>387.4</ele>
        <time>2024-09-02T11:57:50Z</time>
      </trkpt>
      <trkpt lat="47.29342" lon="3.91023">
        <ele>387.3</ele>
        <time>2024-09-02T11:57:54.999Z</time>
      </trkpt>
      <trkpt lat="47.29337" lon="3.91028">
        <ele>386.9</ele>
        <time>2024-09-02T11:58:00Z</time>
      </trkpt>
      <trkpt lat="47.29332" lon="3.91034">
        <ele>387.3</ele>
        <time>2024-09-02T11:58:05.499Z</time>
      </trkpt>
      <trkpt lat="47.29326" lon="3.9104">
        <ele>388.6</ele>
        <time>2024-09-02T11:58:11Z</time>
      </trkpt>
      <trkpt lat="47.29323" lon="3.91047">
        <ele>389</ele>
        <time>2024-09-02T11:58:16.499Z</time>
      </trkpt>
      <trkpt lat="47.29319" lon="3.91053">
        <ele>389.3</ele>
        <time>2024-09-02T11:58:22Z</time>
      </trkpt>
      <trkpt lat="47.29314" lon="3.91061">
        <ele>389.6</ele>
        <time>2024-09-02T11:58:30.999Z</time>
      </trkpt>
      <trkpt lat="47.29309" lon="3.91069">
        <ele>389.6</ele>
        <time>2024-09-02T11:58:40Z</time>
      </trkpt>
      <trkpt lat="47.29308" lon="3.91076">
        <ele>388.9</ele>
        <time>2024-09-02T11:58:44.999Z</time>
      </trkpt>
      <trkpt lat="47.29306" lon="3.91082">
        <ele>388.2</ele>
        <time>2024-09-02T11:58:50Z</time>
      </trkpt>
      <trkpt lat="47.29305" lon="3.91094">
        <ele>387.3</ele>
        <time>2024-09-02T11:59:00Z</time>
      </trkpt>
      <trkpt lat="47.29304" lon="3.91101">
        <ele>386.9</ele>
        <time>2024-09-02T11:59:06.499Z</time>
      </trkpt>
      <trkpt lat="47.29302" lon="3.91107">
        <ele>386.6</ele>
        <time>2024-09-02T11:59:13Z</time>
      </trkpt>
      <trkpt lat="47.29298" lon="3.91111">
        <ele>386.6</ele>
        <time>2024-09-02T11:59:24.999Z</time>
      </trkpt>
      <trkpt lat="47.29293" lon="3.91114">
        <ele>386.8</ele>
        <time>2024-09-02T11:59:37Z</time>
      </trkpt>
      <trkpt lat="47.29288" lon="3.91115">
        <ele>387.1</ele>
        <time>2024-09-02T11:59:41.500Z</time>
      </trkpt>
      <trkpt lat="47.29283" lon="3.91116">
        <ele>387.3</ele>
        <time>2024-09-02T11:59:46Z</time>
      </trkpt>
      <trkpt lat="47.29279" lon="3.91116">
        <ele>387.6</ele>
        <time>2024-09-02T11:59:50.500Z</time>
      </trkpt>
      <trkpt lat="47.29274" lon="3.91116">
        <ele>387.6</ele>
        <time>2024-09-02T11:59:55Z</time>
      </trkpt>
      <trkpt lat="47.29269" lon="3.91116">
        <ele>387.7</ele>
        <time>2024-09-02T11:59:59.500Z</time>
      </trkpt>
      <trkpt lat="47.29263" lon="3.91115">
        <ele>387.7</ele>
        <time>2024-09-02T12:00:04Z</time>
      </trkpt>
      <trkpt lat="47.29262" lon="3.91112">
        <ele>387.9</ele>
        <time>2024-09-02T12:00:27Z</time>
      </trkpt>
      <trkpt lat="47.29258" lon="3.91112">
        <ele>388</ele>
        <time>2024-09-02T12:00:41.500Z</time>
      </trkpt>
      <trkpt lat="47.29253" lon="3.91111">
        <ele>388</ele>
        <time>2024-09-02T12:00:56Z</time>
      </trkpt>
      <trkpt lat="47.29258" lon="3.91106">
        <ele>388.6</ele>
        <time>2024-09-02T12:01:23Z</time>
      </trkpt>
      <trkpt lat="47.29255" lon="3.91103">
        <ele>388.9</ele>
        <time>2024-09-02T12:03:25Z</time>
      </trkpt>
      <trkpt lat="47.29255" lon="3.91111">
        <ele>388</ele>
        <time>2024-09-02T12:06:30Z</time>
      </trkpt>
      <trkpt lat="47.29257" lon="3.91106">
        <ele>388.6</ele>
        <time>2024-09-02T12:07:04Z</time>
      </trkpt>
      <trkpt lat="47.29255" lon="3.91108">
        <ele>388.3</ele>
        <time>2024-09-02T12:08:52Z</time>
      </trkpt>
      <trkpt lat="47.29257" lon="3.911">
        <ele>389.2</ele>
        <time>2024-09-02T12:09:01.000Z</time>
      </trkpt>
      <trkpt lat="47.29259" lon="3.91092">
        <ele>390.1</ele>
        <time>2024-09-02T12:09:10Z</time>
      </trkpt>
      <trkpt lat="47.29253" lon="3.91088">
        <ele>390.5</ele>
        <time>2024-09-02T12:09:16.499Z</time>
      </trkpt>
      <trkpt lat="47.29246" lon="3.91084">
        <ele>390.6</ele>
        <time>2024-09-02T12:09:23Z</time>
      </trkpt>
      <trkpt lat="47.29239" lon="3.91087">
        <ele>389.8</ele>
        <time>2024-09-02T12:09:35Z</time>
      </trkpt>
      <trkpt lat="47.29236" lon="3.91084">
        <ele>389.9</ele>
        <time>2024-09-02T12:09:58Z</time>
      </trkpt>
      <trkpt lat="47.29232" lon="3.91079">
        <ele>390.5</ele>
        <time>2024-09-02T12:10:03.999Z</time>
      </trkpt>
      <trkpt lat="47.29228" lon="3.91073">
        <ele>391</ele>
        <time>2024-09-02T12:10:10Z</time>
      </trkpt>
      <trkpt lat="47.2922" lon="3.91067">
        <ele>391</ele>
        <time>2024-09-02T12:10:19Z</time>
      </trkpt>
      <trkpt lat="47.29217" lon="3.91062">
        <ele>391</ele>
        <time>2024-09-02T12:10:23.499Z</time>
      </trkpt>
      <trkpt lat="47.29213" lon="3.91057">
        <ele>390.9</ele>
        <time>2024-09-02T12:10:28Z</time>
      </trkpt>
      <trkpt lat="47.29208" lon="3.9105">
        <ele>390.8</ele>
        <time>2024-09-02T12:10:35.499Z</time>
      </trkpt>
      <trkpt lat="47.29203" lon="3.91043">
        <ele>390.8</ele>
        <time>2024-09-02T12:10:43Z</time>
      </trkpt>
      <trkpt lat="47.29198" lon="3.91033">
        <ele>391.2</ele>
        <time>2024-09-02T12:10:48.999Z</time>
      </trkpt>
      <trkpt lat="47.29193" lon="3.91022">
        <ele>392.2</ele>
        <time>2024-09-02T12:10:55Z</time>
      </trkpt>
      <trkpt lat="47.29186" lon="3.91017">
        <ele>392.1</ele>
        <time>2024-09-02T12:11:00.499Z</time>
      </trkpt>
      <trkpt lat="47.29179" lon="3.91012">
        <ele>391.9</ele>
        <time>2024-09-02T12:11:06Z</time>
      </trkpt>
      <trkpt lat="47.29174" lon="3.91009">
        <ele>391.5</ele>
        <time>2024-09-02T12:11:10.999Z</time>
      </trkpt>
      <trkpt lat="47.29168" lon="3.91006">
        <ele>391</ele>
        <time>2024-09-02T12:11:16Z</time>
      </trkpt>
      <trkpt lat="47.29161" lon="3.91004">
        <ele>390.8</ele>
        <time>2024-09-02T12:11:20.000Z</time>
      </trkpt>
      <trkpt lat="47.29154" lon="3.91002">
        <ele>390.7</ele>
        <time>2024-09-02T12:11:24Z</time>
      </trkpt>
      <trkpt lat="47.29149" lon="3.91002">
        <ele>390.4</ele>
        <time>2024-09-02T12:11:28.500Z</time>
      </trkpt>
      <trkpt lat="47.29144" lon="3.91002">
        <ele>390.1</ele>
        <time>2024-09-02T12:11:33Z</time>
      </trkpt>
      <trkpt lat="47.29138" lon="3.91001">
        <ele>389.8</ele>
        <time>2024-09-02T12:11:40.000Z</time>
      </trkpt>
      <trkpt lat="47.29132" lon="3.90999">
        <ele>389.5</ele>
        <time>2024-09-02T12:11:47Z</time>
      </trkpt>
      <trkpt lat="47.29128" lon="3.90994">
        <ele>390.1</ele>
        <time>2024-09-02T12:11:51.999Z</time>
      </trkpt>
      <trkpt lat="47.29123" lon="3.90988">
        <ele>390.6</ele>
        <time>2024-09-02T12:11:57Z</time>
      </trkpt>
      <trkpt lat="47.29117" lon="3.90983">
        <ele>390.6</ele>
        <time>2024-09-02T12:12:02.999Z</time>
      </trkpt>
      <trkpt lat="47.29111" lon="3.90977">
        <ele>390.3</ele>
        <time>2024-09-02T12:12:09Z</time>
      </trkpt>
      <trkpt lat="47.29105" lon="3.90969">
        <ele>390.7</ele>
        <time>2024-09-02T12:12:16.999Z</time>
      </trkpt>
      <trkpt lat="47.29099" lon="3.90961">
        <ele>391.5</ele>
        <time>2024-09-02T12:12:25Z</time>
      </trkpt>
      <trkpt lat="47.29092" lon="3.90956">
        <ele>391.5</ele>
        <time>2024-09-02T12:12:29.999Z</time>
      </trkpt>
      <trkpt lat="47.29084" lon="3.90951">
        <ele>391.7</ele>
        <time>2024-09-02T12:12:35Z</time>
      </trkpt>
      <trkpt lat="47.29079" lon="3.90955">
        <ele>391.1</ele>
        <time>2024-09-02T12:12:41.999Z</time>
      </trkpt>
      <trkpt lat="47.29074" lon="3.90958">
        <ele>390.7</ele>
        <time>2024-09-02T12:12:49Z</time>
      </trkpt>
      <trkpt lat="47.29068" lon="3.90961">
        <ele>390.6</ele>
        <time>2024-09-02T12:12:55.499Z</time>
      </trkpt>
      <trkpt lat="47.29062" lon="3.90963">
        <ele>390.5</ele>
        <time>2024-09-02T12:13:02Z</time>
      </trkpt>
      <trkpt lat="47.2906" lon="3.90969">
        <ele>389.4</ele>
        <time>2024-09-02T12:13:09.499Z</time>
      </trkpt>
      <trkpt lat="47.29057" lon="3.90975">
        <ele>388.7</ele>
        <time>2024-09-02T12:13:17Z</time>
      </trkpt>
      <trkpt lat="47.29057" lon="3.90985">
        <ele>388</ele>
        <time>2024-09-02T12:13:23.999Z</time>
      </trkpt>
      <trkpt lat="47.29056" lon="3.90995">
        <ele>387.3</ele>
        <time>2024-09-02T12:13:31Z</time>
      </trkpt>
      <trkpt lat="47.29054" lon="3.91001">
        <ele>387.4</ele>
        <time>2024-09-02T12:13:35.249Z</time>
      </trkpt>
      <trkpt lat="47.29052" lon="3.91007">
        <ele>387.7</ele>
        <time>2024-09-02T12:13:39.499Z</time>
      </trkpt>
      <trkpt lat="47.29049" lon="3.91012">
        <ele>388</ele>
        <time>2024-09-02T12:13:43.749Z</time>
      </trkpt>
      <trkpt lat="47.29047" lon="3.91018">
        <ele>388.1</ele>
        <time>2024-09-02T12:13:48Z</time>
      </trkpt>
      <trkpt lat="47.29046" lon="3.91028">
        <ele>387.7</ele>
        <time>2024-09-02T12:13:53.999Z</time>
      </trkpt>
      <trkpt lat="47.29045" lon="3.91038">
        <ele>387.6</ele>
        <time>2024-09-02T12:14:00Z</time>
      </trkpt>
      <trkpt lat="47.29046" lon="3.91045">
        <ele>387.4</ele>
        <time>2024-09-02T12:14:06.500Z</time>
      </trkpt>
      <trkpt lat="47.29046" lon="3.91052">
        <ele>387.1</ele>
        <time>2024-09-02T12:14:13Z</time>
      </trkpt>
      <trkpt lat="47.29041" lon="3.91058">
        <ele>387.5</ele>
        <time>2024-09-02T12:14:19.499Z</time>
      </trkpt>
      <trkpt lat="47.29035" lon="3.91063">
        <ele>387.6</ele>
        <time>2024-09-02T12:14:26Z</time>
      </trkpt>
      <trkpt lat="47.2903" lon="3.91069">
        <ele>387.4</ele>
        <time>2024-09-02T12:14:31.499Z</time>
      </trkpt>
      <trkpt lat="47.29025" lon="3.91075">
        <ele>387.7</ele>
        <time>2024-09-02T12:14:37Z</time>
      </trkpt>
      <trkpt lat="47.2902" lon="3.91081">
        <ele>388.5</ele>
        <time>2024-09-02T12:14:42.499Z</time>
      </trkpt>
      <trkpt lat="47.29015" lon="3.91087">
        <ele>389.4</ele>
        <time>2024-09-02T12:14:48Z</time>
      </trkpt>
      <trkpt lat="47.29011" lon="3.91092">
        <ele>390.1</ele>
        <time>2024-09-02T12:14:55.499Z</time>
      </trkpt>
      <trkpt lat="47.29007" lon="3.91097">
        <ele>390.5</ele>
        <time>2024-09-02T12:15:03Z</time>
      </trkpt>
      <trkpt lat="47.29005" lon="3.91106">
        <ele>390</ele>
        <time>2024-09-02T12:15:09.999Z</time>
      </trkpt>
      <trkpt lat="47.29002" lon="3.91114">
        <ele>389.3</ele>
        <time>2024-09-02T12:15:17Z</time>
      </trkpt>
      <trkpt lat="47.28998" lon="3.91123">
        <ele>389.2</ele>
        <time>2024-09-02T12:15:23.999Z</time>
      </trkpt>
      <trkpt lat="47.28993" lon="3.91132">
        <ele>389.2</ele>
        <time>2024-09-02T12:15:31Z</time>
      </trkpt>
      <trkpt lat="47.28987" lon="3.91137">
        <ele>390.1</ele>
        <time>2024-09-02T12:15:36.999Z</time>
      </trkpt>
      <trkpt lat="47.28981" lon="3.91142">
        <ele>390.9</ele>
        <time>2024-09-02T12:15:43Z</time>
      </trkpt>
      <trkpt lat="47.28974" lon="3.91146">
        <ele>391.8</ele>
        <time>2024-09-02T12:15:48.999Z</time>
      </trkpt>
      <trkpt lat="47.28966" lon="3.91149">
        <ele>391.7</ele>
        <time>2024-09-02T12:15:55Z</time>
      </trkpt>
      <trkpt lat="47.2896" lon="3.91151">
        <ele>391.7</ele>
        <time>2024-09-02T12:16:02.999Z</time>
      </trkpt>
      <trkpt lat="47.28954" lon="3.91153">
        <ele>391.6</ele>
        <time>2024-09-02T12:16:11Z</time>
      </trkpt>
      <trkpt lat="47.28948" lon="3.91155">
        <ele>391.4</ele>
        <time>2024-09-02T12:16:17.999Z</time>
      </trkpt>
      <trkpt lat="47.28941" lon="3.91157">
        <ele>390.9</ele>
        <time>2024-09-02T12:16:25Z</time>
      </trkpt>
      <trkpt lat="47.28934" lon="3.91159">
        <ele>390.3</ele>
        <time>2024-09-02T12:16:34.500Z</time>
      </trkpt>
      <trkpt lat="47.28926" lon="3.9116">
        <ele>389.8</ele>
        <time>2024-09-02T12:16:44Z</time>
      </trkpt>
      <trkpt lat="47.28922" lon="3.9116">
        <ele>390.1</ele>
        <time>2024-09-02T12:16:47.500Z</time>
      </trkpt>
      <trkpt lat="47.28917" lon="3.91159">
        <ele>390.3</ele>
        <time>2024-09-02T12:16:51.000Z</time>
      </trkpt>
      <trkpt lat="47.28913" lon="3.91159">
        <ele>390.4</ele>
        <time>2024-09-02T12:16:54.500Z</time>
      </trkpt>
      <trkpt lat="47.28908" lon="3.91158">
        <ele>390.4</ele>
        <time>2024-09-02T12:16:58Z</time>
      </trkpt>
      <trkpt lat="47.28901" lon="3.91156">
        <ele>391.2</ele>
        <time>2024-09-02T12:17:06.499Z</time>
      </trkpt>
      <trkpt lat="47.28893" lon="3.91153">
        <ele>392.1</ele>
        <time>2024-09-02T12:17:15Z</time>
      </trkpt>
      <trkpt lat="47.28887" lon="3.91153">
        <ele>392</ele>
        <time>2024-09-02T12:17:21.500Z</time>
      </trkpt>
      <trkpt lat="47.2888" lon="3.91152">
        <ele>392</ele>
        <time>2024-09-02T12:17:28Z</time>
      </trkpt>
      <trkpt lat="47.28874" lon="3.91152">
        <ele>391.9</ele>
        <time>2024-09-02T12:17:35.000Z</time>
      </trkpt>
      <trkpt lat="47.28867" lon="3.91151">
        <ele>391.9</ele>
        <time>2024-09-02T12:17:42Z</time>
      </trkpt>
      <trkpt lat="47.28862" lon="3.91147">
        <ele>393.1</ele>
        <time>2024-09-02T12:17:48.999Z</time>
      </trkpt>
      <trkpt lat="47.28856" lon="3.91143">
        <ele>393.9</ele>
        <time>2024-09-02T12:17:56Z</time>
      </trkpt>
      <trkpt lat="47.2885" lon="3.91144">
        <ele>393</ele>
        <time>2024-09-02T12:18:03.500Z</time>
      </trkpt>
      <trkpt lat="47.28844" lon="3.91144">
        <ele>392.1</ele>
        <time>2024-09-02T12:18:11Z</time>
      </trkpt>
      <trkpt lat="47.28838" lon="3.91142">
        <ele>391.9</ele>
        <time>2024-09-02T12:18:17.999Z</time>
      </trkpt>
      <trkpt lat="47.28831" lon="3.9114">
        <ele>391.4</ele>
        <time>2024-09-02T12:18:25Z</time>
      </trkpt>
      <trkpt lat="47.28825" lon="3.91138">
        <ele>390.9</ele>
        <time>2024-09-02T12:18:33.499Z</time>
      </trkpt>
      <trkpt lat="47.28819" lon="3.91136">
        <ele>390.6</ele>
        <time>2024-09-02T12:18:42Z</time>
      </trkpt>
      <trkpt lat="47.28813" lon="3.91133">
        <ele>390.9</ele>
        <time>2024-09-02T12:18:48.999Z</time>
      </trkpt>
      <trkpt lat="47.28807" lon="3.91129">
        <ele>391.2</ele>
        <time>2024-09-02T12:18:56Z</time>
      </trkpt>
      <trkpt lat="47.28802" lon="3.91127">
        <ele>391.3</ele>
        <time>2024-09-02T12:19:03.499Z</time>
      </trkpt>
      <trkpt lat="47.28796" lon="3.91125">
        <ele>391.5</ele>
        <time>2024-09-02T12:19:11Z</time>
      </trkpt>
      <trkpt lat="47.2879" lon="3.91122">
        <ele>391.9</ele>
        <time>2024-09-02T12:19:17.999Z</time>
      </trkpt>
      <trkpt lat="47.28783" lon="3.91118">
        <ele>392</ele>
        <time>2024-09-02T12:19:25Z</time>
      </trkpt>
      <trkpt lat="47.28776" lon="3.91114">
        <ele>391.9</ele>
        <time>2024-09-02T12:19:33.499Z</time>
      </trkpt>
      <trkpt lat="47.28768" lon="3.9111">
        <ele>391.7</ele>
        <time>2024-09-02T12:19:42Z</time>
      </trkpt>
      <trkpt lat="47.28762" lon="3.91108">
        <ele>391.7</ele>
        <time>2024-09-02T12:19:47.999Z</time>
      </trkpt>
      <trkpt lat="47.28755" lon="3.91105">
        <ele>391.7</ele>
        <time>2024-09-02T12:19:54Z</time>
      </trkpt>
      <trkpt lat="47.2875" lon="3.91103">
        <ele>392</ele>
        <time>2024-09-02T12:20:00.999Z</time>
      </trkpt>
      <trkpt lat="47.28744" lon="3.911">
        <ele>392.6</ele>
        <time>2024-09-02T12:20:08Z</time>
      </trkpt>
      <trkpt lat="47.28736" lon="3.91104">
        <ele>390.3</ele>
        <time>2024-09-02T12:20:38Z</time>
      </trkpt>
      <trkpt lat="47.28731" lon="3.91101">
        <ele>391</ele>
        <time>2024-09-02T12:20:46.999Z</time>
      </trkpt>
      <trkpt lat="47.28725" lon="3.91098">
        <ele>391.5</ele>
        <time>2024-09-02T12:20:56Z</time>
      </trkpt>
      <trkpt lat="47.2872" lon="3.91097">
        <ele>391.3</ele>
        <time>2024-09-02T12:21:03.500Z</time>
      </trkpt>
      <trkpt lat="47.28714" lon="3.91096">
        <ele>391</ele>
        <time>2024-09-02T12:21:11Z</time>
      </trkpt>
      <trkpt lat="47.28708" lon="3.91095">
        <ele>390.6</ele>
        <time>2024-09-02T12:21:19.000Z</time>
      </trkpt>
      <trkpt lat="47.28701" lon="3.91093">
        <ele>390.1</ele>
        <time>2024-09-02T12:21:27Z</time>
      </trkpt>
      <trkpt lat="47.28694" lon="3.9109">
        <ele>389.8</ele>
        <time>2024-09-02T12:21:32.999Z</time>
      </trkpt>
      <trkpt lat="47.28686" lon="3.91086">
        <ele>389.1</ele>
        <time>2024-09-02T12:21:39Z</time>
      </trkpt>
      <trkpt lat="47.2868" lon="3.91081">
        <ele>389</ele>
        <time>2024-09-02T12:21:44.999Z</time>
      </trkpt>
      <trkpt lat="47.28673" lon="3.91076">
        <ele>389.3</ele>
        <time>2024-09-02T12:21:51Z</time>
      </trkpt>
      <trkpt lat="47.28669" lon="3.91072">
        <ele>389.7</ele>
        <time>2024-09-02T12:21:58.499Z</time>
      </trkpt>
      <trkpt lat="47.28665" lon="3.91068">
        <ele>390.2</ele>
        <time>2024-09-02T12:22:06Z</time>
      </trkpt>
      <trkpt lat="47.2866" lon="3.91064">
        <ele>390.3</ele>
        <time>2024-09-02T12:22:13.499Z</time>
      </trkpt>
      <trkpt lat="47.28655" lon="3.91059">
        <ele>390.1</ele>
        <time>2024-09-02T12:22:21Z</time>
      </trkpt>
      <trkpt lat="47.28651" lon="3.91051">
        <ele>390.2</ele>
        <time>2024-09-02T12:22:28.499Z</time>
      </trkpt>
      <trkpt lat="47.28647" lon="3.91042">
        <ele>390.5</ele>
        <time>2024-09-02T12:22:36Z</time>
      </trkpt>
      <trkpt lat="47.28642" lon="3.91039">
        <ele>389.8</ele>
        <time>2024-09-02T12:22:43.499Z</time>
      </trkpt>
      <trkpt lat="47.28637" lon="3.91035">
        <ele>389.8</ele>
        <time>2024-09-02T12:22:51Z</time>
      </trkpt>
      <trkpt lat="47.28629" lon="3.91031">
        <ele>391</ele>
        <time>2024-09-02T12:23:09Z</time>
      </trkpt>
      <trkpt lat="47.28624" lon="3.91035">
        <ele>390.5</ele>
        <time>2024-09-02T12:23:16.499Z</time>
      </trkpt>
      <trkpt lat="47.28619" lon="3.91039">
        <ele>389.8</ele>
        <time>2024-09-02T12:23:24Z</time>
      </trkpt>
      <trkpt lat="47.28614" lon="3.91042">
        <ele>389.3</ele>
        <time>2024-09-02T12:23:29.499Z</time>
      </trkpt>
      <trkpt lat="47.28608" lon="3.91045">
        <ele>388.8</ele>
        <time>2024-09-02T12:23:35Z</time>
      </trkpt>
      <trkpt lat="47.28603" lon="3.91047">
        <ele>388.7</ele>
        <time>2024-09-02T12:23:41.499Z</time>
      </trkpt>
      <trkpt lat="47.28598" lon="3.91049">
        <ele>388.5</ele>
        <time>2024-09-02T12:23:48Z</time>
      </trkpt>
      <trkpt lat="47.28593" lon="3.91046">
        <ele>389.6</ele>
        <time>2024-09-02T12:23:57.499Z</time>
      </trkpt>
      <trkpt lat="47.28587" lon="3.91042">
        <ele>390.7</ele>
        <time>2024-09-02T12:24:07Z</time>
      </trkpt>
      <trkpt lat="47.28583" lon="3.9104">
        <ele>391.4</ele>
        <time>2024-09-02T12:24:12.499Z</time>
      </trkpt>
      <trkpt lat="47.28578" lon="3.91037">
        <ele>391.5</ele>
        <time>2024-09-02T12:24:18Z</time>
      </trkpt>
      <trkpt lat="47.28572" lon="3.91033">
        <ele>391.7</ele>
        <time>2024-09-02T12:24:24.499Z</time>
      </trkpt>
      <trkpt lat="47.28566" lon="3.91029">
        <ele>391.9</ele>
        <time>2024-09-02T12:24:31Z</time>
      </trkpt>
      <trkpt lat="47.2856" lon="3.91026">
        <ele>391.9</ele>
        <time>2024-09-02T12:24:36.499Z</time>
      </trkpt>
      <trkpt lat="47.28553" lon="3.91023">
        <ele>391.7</ele>
        <time>2024-09-02T12:24:42Z</time>
      </trkpt>
      <trkpt lat="47.28548" lon="3.91018">
        <ele>391.9</ele>
        <time>2024-09-02T12:24:46.499Z</time>
      </trkpt>
      <trkpt lat="47.28543" lon="3.91013">
        <ele>392</ele>
        <time>2024-09-02T12:24:51Z</time>
      </trkpt>
      <trkpt lat="47.28539" lon="3.91007">
        <ele>392.2</ele>
        <time>2024-09-02T12:24:56.999Z</time>
      </trkpt>
      <trkpt lat="47.28534" lon="3.91001">
        <ele>392.4</ele>
        <time>2024-09-02T12:25:03Z</time>
      </trkpt>
      <trkpt lat="47.28531" lon="3.90995">
        <ele>392.6</ele>
        <time>2024-09-02T12:25:08.499Z</time>
      </trkpt>
      <trkpt lat="47.28527" lon="3.90989">
        <ele>392.8</ele>
        <time>2024-09-02T12:25:14Z</time>
      </trkpt>
      <trkpt lat="47.28522" lon="3.90982">
        <ele>392.7</ele>
        <time>2024-09-02T12:25:19.999Z</time>
      </trkpt>
      <trkpt lat="47.28517" lon="3.90975">
        <ele>392.2</ele>
        <time>2024-09-02T12:25:26Z</time>
      </trkpt>
      <trkpt lat="47.28514" lon="3.90967">
        <ele>392.3</ele>
        <time>2024-09-02T12:25:32.499Z</time>
      </trkpt>
      <trkpt lat="47.2851" lon="3.90959">
        <ele>392.6</ele>
        <time>2024-09-02T12:25:39Z</time>
      </trkpt>
      <trkpt lat="47.28506" lon="3.90952">
        <ele>392.7</ele>
        <time>2024-09-02T12:25:44.999Z</time>
      </trkpt>
      <trkpt lat="47.28502" lon="3.90944">
        <ele>392.7</ele>
        <time>2024-09-02T12:25:51Z</time>
      </trkpt>
      <trkpt lat="47.28499" lon="3.90936">
        <ele>393</ele>
        <time>2024-09-02T12:25:57.499Z</time>
      </trkpt>
      <trkpt lat="47.28496" lon="3.90928">
        <ele>393.2</ele>
        <time>2024-09-02T12:26:04Z</time>
      </trkpt>
      <trkpt lat="47.28494" lon="3.90918">
        <ele>393.5</ele>
        <time>2024-09-02T12:26:10.499Z</time>
      </trkpt>
      <trkpt lat="47.28491" lon="3.90908">
        <ele>394</ele>
        <time>2024-09-02T12:26:17Z</time>
      </trkpt>
      <trkpt lat="47.2849" lon="3.909">
        <ele>394.7</ele>
        <time>2024-09-02T12:26:25.499Z</time>
      </trkpt>
      <trkpt lat="47.28488" lon="3.90891">
        <ele>395.4</ele>
        <time>2024-09-02T12:26:34Z</time>
      </trkpt>
      <trkpt lat="47.28483" lon="3.90886">
        <ele>394.2</ele>
        <time>2024-09-02T12:26:54.499Z</time>
      </trkpt>
      <trkpt lat="47.28478" lon="3.90882">
        <ele>393.1</ele>
        <time>2024-09-02T12:27:14.999Z</time>
      </trkpt>
      <trkpt lat="47.28473" lon="3.90877">
        <ele>392</ele>
        <time>2024-09-02T12:27:35.499Z</time>
      </trkpt>
      <trkpt lat="47.28468" lon="3.90872">
        <ele>392.3</ele>
        <time>2024-09-02T12:27:56Z</time>
      </trkpt>
      <trkpt lat="47.28471" lon="3.90873">
        <ele>392.3</ele>
        <time>2024-09-02T12:31:15Z</time>
      </trkpt>
      <trkpt lat="47.28466" lon="3.90871">
        <ele>392.4</ele>
        <time>2024-09-02T12:31:32.999Z</time>
      </trkpt>
      <trkpt lat="47.28461" lon="3.90869">
        <ele>392.6</ele>
        <time>2024-09-02T12:31:50.999Z</time>
      </trkpt>
      <trkpt lat="47.28456" lon="3.90867">
        <ele>392.9</ele>
        <time>2024-09-02T12:32:08.999Z</time>
      </trkpt>
      <trkpt lat="47.28451" lon="3.90865">
        <ele>393.2</ele>
        <time>2024-09-02T12:32:27Z</time>
      </trkpt>
      <trkpt lat="47.2845" lon="3.90873">
        <ele>391.6</ele>
        <time>2024-09-02T12:32:52Z</time>
      </trkpt>
      <trkpt lat="47.2845" lon="3.90885">
        <ele>389.2</ele>
        <time>2024-09-02T12:33:07Z</time>
      </trkpt>
      <trkpt lat="47.28447" lon="3.90894">
        <ele>387.8</ele>
        <time>2024-09-02T12:33:14.499Z</time>
      </trkpt>
      <trkpt lat="47.28443" lon="3.90902">
        <ele>387.9</ele>
        <time>2024-09-02T12:33:22Z</time>
      </trkpt>
      <trkpt lat="47.28444" lon="3.90912">
        <ele>386.6</ele>
        <time>2024-09-02T12:33:30.000Z</time>
      </trkpt>
      <trkpt lat="47.28445" lon="3.90922">
        <ele>386.2</ele>
        <time>2024-09-02T12:33:38Z</time>
      </trkpt>
      <trkpt lat="47.28447" lon="3.9093">
        <ele>386.4</ele>
        <time>2024-09-02T12:33:45.000Z</time>
      </trkpt>
      <trkpt lat="47.28449" lon="3.90937">
        <ele>386.6</ele>
        <time>2024-09-02T12:33:52Z</time>
      </trkpt>
      <trkpt lat="47.28449" lon="3.90946">
        <ele>386.8</ele>
        <time>2024-09-02T12:34:00.000Z</time>
      </trkpt>
      <trkpt lat="47.28449" lon="3.90955">
        <ele>386.5</ele>
        <time>2024-09-02T12:34:08Z</time>
      </trkpt>
      <trkpt lat="47.28446" lon="3.90966">
        <ele>386.2</ele>
        <time>2024-09-02T12:34:17.999Z</time>
      </trkpt>
      <trkpt lat="47.28443" lon="3.90976">
        <ele>386.7</ele>
        <time>2024-09-02T12:34:28Z</time>
      </trkpt>
      <trkpt lat="47.28446" lon="3.90984">
        <ele>386</ele>
        <time>2024-09-02T12:34:35.000Z</time>
      </trkpt>
      <trkpt lat="47.28449" lon="3.90992">
        <ele>386</ele>
        <time>2024-09-02T12:34:42Z</time>
      </trkpt>
      <trkpt lat="47.2845" lon="3.90999">
        <ele>386</ele>
        <time>2024-09-02T12:34:47.000Z</time>
      </trkpt>
      <trkpt lat="47.2845" lon="3.91006">
        <ele>386</ele>
        <time>2024-09-02T12:34:52Z</time>
      </trkpt>
      <trkpt lat="47.28446" lon="3.91016">
        <ele>386</ele>
        <time>2024-09-02T12:34:57.999Z</time>
      </trkpt>
      <trkpt lat="47.28441" lon="3.91025">
        <ele>386.8</ele>
        <time>2024-09-02T12:35:04Z</time>
      </trkpt>
      <trkpt lat="47.28437" lon="3.9103">
        <ele>387.5</ele>
        <time>2024-09-02T12:35:09.499Z</time>
      </trkpt>
      <trkpt lat="47.28433" lon="3.91034">
        <ele>387.9</ele>
        <time>2024-09-02T12:35:15Z</time>
      </trkpt>
      <trkpt lat="47.28427" lon="3.91039">
        <ele>388.3</ele>
        <time>2024-09-02T12:35:22.999Z</time>
      </trkpt>
      <trkpt lat="47.28421" lon="3.91043">
        <ele>388.3</ele>
        <time>2024-09-02T12:35:31Z</time>
      </trkpt>
      <trkpt lat="47.28416" lon="3.91045">
        <ele>388.4</ele>
        <time>2024-09-02T12:35:36.499Z</time>
      </trkpt>
      <trkpt lat="47.28411" lon="3.91047">
        <ele>388.7</ele>
        <time>2024-09-02T12:35:42Z</time>
      </trkpt>
      <trkpt lat="47.28405" lon="3.91049">
        <ele>389.3</ele>
        <time>2024-09-02T12:35:47.500Z</time>
      </trkpt>
      <trkpt lat="47.28399" lon="3.9105">
        <ele>389.9</ele>
        <time>2024-09-02T12:35:53Z</time>
      </trkpt>
      <trkpt lat="47.28395" lon="3.91056">
        <ele>389.1</ele>
        <time>2024-09-02T12:35:59.499Z</time>
      </trkpt>
      <trkpt lat="47.28391" lon="3.91061">
        <ele>389</ele>
        <time>2024-09-02T12:36:06Z</time>
      </trkpt>
      <trkpt lat="47.28383" lon="3.91066">
        <ele>388.9</ele>
        <time>2024-09-02T12:36:19Z</time>
      </trkpt>
      <trkpt lat="47.28378" lon="3.91066">
        <ele>389.4</ele>
        <time>2024-09-02T12:36:27.500Z</time>
      </trkpt>
      <trkpt lat="47.28372" lon="3.91065">
        <ele>389.8</ele>
        <time>2024-09-02T12:36:36Z</time>
      </trkpt>
      <trkpt lat="47.28366" lon="3.91065">
        <ele>390.3</ele>
        <time>2024-09-02T12:36:42.500Z</time>
      </trkpt>
      <trkpt lat="47.2836" lon="3.91065">
        <ele>390.6</ele>
        <time>2024-09-02T12:36:49Z</time>
      </trkpt>
      <trkpt lat="47.28355" lon="3.91066">
        <ele>390.2</ele>
        <time>2024-09-02T12:36:56.500Z</time>
      </trkpt>
      <trkpt lat="47.28349" lon="3.91066">
        <ele>389.8</ele>
        <time>2024-09-02T12:37:04Z</time>
      </trkpt>
      <trkpt lat="47.28344" lon="3.91065">
        <ele>389.9</ele>
        <time>2024-09-02T12:37:10.500Z</time>
      </trkpt>
      <trkpt lat="47.28338" lon="3.91063">
        <ele>389.9</ele>
        <time>2024-09-02T12:37:17Z</time>
      </trkpt>
      <trkpt lat="47.28331" lon="3.91059">
        <ele>390.6</ele>
        <time>2024-09-02T12:37:23.499Z</time>
      </trkpt>
      <trkpt lat="47.28324" lon="3.91054">
        <ele>391.8</ele>
        <time>2024-09-02T12:37:30Z</time>
      </trkpt>
      <trkpt lat="47.28319" lon="3.91054">
        <ele>392</ele>
        <time>2024-09-02T12:37:36.500Z</time>
      </trkpt>
      <trkpt lat="47.28313" lon="3.91054">
        <ele>392.1</ele>
        <time>2024-09-02T12:37:43Z</time>
      </trkpt>
      <trkpt lat="47.2831" lon="3.91061">
        <ele>391</ele>
        <time>2024-09-02T12:37:50.499Z</time>
      </trkpt>
      <trkpt lat="47.28307" lon="3.91067">
        <ele>389.9</ele>
        <time>2024-09-02T12:37:58Z</time>
      </trkpt>
      <trkpt lat="47.28307" lon="3.91076">
        <ele>388.4</ele>
        <time>2024-09-02T12:38:05.499Z</time>
      </trkpt>
      <trkpt lat="47.28306" lon="3.91084">
        <ele>387</ele>
        <time>2024-09-02T12:38:13Z</time>
      </trkpt>
      <trkpt lat="47.28303" lon="3.91091">
        <ele>387.4</ele>
        <time>2024-09-02T12:38:19.499Z</time>
      </trkpt>
      <trkpt lat="47.28299" lon="3.91097">
        <ele>387.8</ele>
        <time>2024-09-02T12:38:26Z</time>
      </trkpt>
      <trkpt lat="47.28295" lon="3.91104">
        <ele>388.2</ele>
        <time>2024-09-02T12:38:32.499Z</time>
      </trkpt>
      <trkpt lat="47.2829" lon="3.9111">
        <ele>388.3</ele>
        <time>2024-09-02T12:38:39Z</time>
      </trkpt>
      <trkpt lat="47.28287" lon="3.91116">
        <ele>388.3</ele>
        <time>2024-09-02T12:38:45.499Z</time>
      </trkpt>
      <trkpt lat="47.28283" lon="3.91122">
        <ele>388</ele>
        <time>2024-09-02T12:38:52Z</time>
      </trkpt>
      <trkpt lat="47.28279" lon="3.91126">
        <ele>387.8</ele>
        <time>2024-09-02T12:38:58.499Z</time>
      </trkpt>
      <trkpt lat="47.28274" lon="3.9113">
        <ele>388</ele>
        <time>2024-09-02T12:39:05Z</time>
      </trkpt>
      <trkpt lat="47.28267" lon="3.91138">
        <ele>388.1</ele>
        <time>2024-09-02T12:39:12.499Z</time>
      </trkpt>
      <trkpt lat="47.2826" lon="3.91145">
        <ele>388.9</ele>
        <time>2024-09-02T12:39:20Z</time>
      </trkpt>
      <trkpt lat="47.28258" lon="3.91153">
        <ele>388.8</ele>
        <time>2024-09-02T12:39:26.499Z</time>
      </trkpt>
      <trkpt lat="47.28256" lon="3.91161">
        <ele>388.7</ele>
        <time>2024-09-02T12:39:33Z</time>
      </trkpt>
      <trkpt lat="47.28254" lon="3.9117">
        <ele>388.5</ele>
        <time>2024-09-02T12:39:39.499Z</time>
      </trkpt>
      <trkpt lat="47.28252" lon="3.91178">
        <ele>388.4</ele>
        <time>2024-09-02T12:39:46Z</time>
      </trkpt>
      <trkpt lat="47.28251" lon="3.91187">
        <ele>388.2</ele>
        <time>2024-09-02T12:39:51.999Z</time>
      </trkpt>
      <trkpt lat="47.28249" lon="3.91195">
        <ele>388.2</ele>
        <time>2024-09-02T12:39:58Z</time>
      </trkpt>
      <trkpt lat="47.28251" lon="3.91202">
        <ele>388</ele>
        <time>2024-09-02T12:40:03.500Z</time>
      </trkpt>
      <trkpt lat="47.28252" lon="3.91208">
        <ele>387.9</ele>
        <time>2024-09-02T12:40:09Z</time>
      </trkpt>
      <trkpt lat="47.28252" lon="3.91215">
        <ele>387.9</ele>
        <time>2024-09-02T12:40:13.999Z</time>
      </trkpt>
      <trkpt lat="47.28251" lon="3.91222">
        <ele>387.9</ele>
        <time>2024-09-02T12:40:19Z</time>
      </trkpt>
      <trkpt lat="47.28252" lon="3.91231">
        <ele>387.9</ele>
        <time>2024-09-02T12:40:25.500Z</time>
      </trkpt>
      <trkpt lat="47.28252" lon="3.9124">
        <ele>387.9</ele>
        <time>2024-09-02T12:40:32Z</time>
      </trkpt>
      <trkpt lat="47.28252" lon="3.91248">
        <ele>387.9</ele>
        <time>2024-09-02T12:40:37.499Z</time>
      </trkpt>
      <trkpt lat="47.28251" lon="3.91256">
        <ele>387.7</ele>
        <time>2024-09-02T12:40:43Z</time>
      </trkpt>
      <trkpt lat="47.28249" lon="3.91264">
        <ele>387.8</ele>
        <time>2024-09-02T12:40:48.499Z</time>
      </trkpt>
      <trkpt lat="47.28246" lon="3.91271">
        <ele>388</ele>
        <time>2024-09-02T12:40:54Z</time>
      </trkpt>
      <trkpt lat="47.28244" lon="3.9128">
        <ele>388.1</ele>
        <time>2024-09-02T12:40:59.999Z</time>
      </trkpt>
      <trkpt lat="47.28241" lon="3.91289">
        <ele>388.2</ele>
        <time>2024-09-02T12:41:06Z</time>
      </trkpt>
      <trkpt lat="47.2824" lon="3.91297">
        <ele>388.1</ele>
        <time>2024-09-02T12:41:11.499Z</time>
      </trkpt>
      <trkpt lat="47.28239" lon="3.91305">
        <ele>388</ele>
        <time>2024-09-02T12:41:17Z</time>
      </trkpt>
      <trkpt lat="47.28239" lon="3.91312">
        <ele>387.8</ele>
        <time>2024-09-02T12:41:22.000Z</time>
      </trkpt>
      <trkpt lat="47.28239" lon="3.91319">
        <ele>387.6</ele>
        <time>2024-09-02T12:41:27Z</time>
      </trkpt>
      <trkpt lat="47.28236" lon="3.91328">
        <ele>387.8</ele>
        <time>2024-09-02T12:41:32.999Z</time>
      </trkpt>
      <trkpt lat="47.28232" lon="3.91336">
        <ele>387.8</ele>
        <time>2024-09-02T12:41:39Z</time>
      </trkpt>
      <trkpt lat="47.28228" lon="3.91341">
        <ele>387.7</ele>
        <time>2024-09-02T12:41:43.999Z</time>
      </trkpt>
      <trkpt lat="47.28224" lon="3.91346">
        <ele>387.5</ele>
        <time>2024-09-02T12:41:49Z</time>
      </trkpt>
      <trkpt lat="47.2822" lon="3.91351">
        <ele>387.3</ele>
        <time>2024-09-02T12:41:53.999Z</time>
      </trkpt>
      <trkpt lat="47.28215" lon="3.91356">
        <ele>387.1</ele>
        <time>2024-09-02T12:41:59Z</time>
      </trkpt>
      <trkpt lat="47.2821" lon="3.9136">
        <ele>387.1</ele>
        <time>2024-09-02T12:42:03.999Z</time>
      </trkpt>
      <trkpt lat="47.28205" lon="3.91363">
        <ele>387.2</ele>
        <time>2024-09-02T12:42:09Z</time>
      </trkpt>
      <trkpt lat="47.282" lon="3.91364">
        <ele>387.4</ele>
        <time>2024-09-02T12:42:14.000Z</time>
      </trkpt>
      <trkpt lat="47.28195" lon="3.91365">
        <ele>387.7</ele>
        <time>2024-09-02T12:42:19Z</time>
      </trkpt>
      <trkpt lat="47.2819" lon="3.91364">
        <ele>387.5</ele>
        <time>2024-09-02T12:42:24.500Z</time>
      </trkpt>
      <trkpt lat="47.28185" lon="3.91362">
        <ele>387.3</ele>
        <time>2024-09-02T12:42:30Z</time>
      </trkpt>
      <trkpt lat="47.28181" lon="3.91358">
        <ele>387.4</ele>
        <time>2024-09-02T12:42:35.499Z</time>
      </trkpt>
      <trkpt lat="47.28177" lon="3.91353">
        <ele>387.6</ele>
        <time>2024-09-02T12:42:41Z</time>
      </trkpt>
      <trkpt lat="47.28172" lon="3.91349">
        <ele>387.7</ele>
        <time>2024-09-02T12:42:47.999Z</time>
      </trkpt>
      <trkpt lat="47.28166" lon="3.91345">
        <ele>387.7</ele>
        <time>2024-09-02T12:42:55Z</time>
      </trkpt>
      <trkpt lat="47.28162" lon="3.91339">
        <ele>388</ele>
        <time>2024-09-02T12:43:01.999Z</time>
      </trkpt>
      <trkpt lat="47.28158" lon="3.91332">
        <ele>388.2</ele>
        <time>2024-09-02T12:43:09Z</time>
      </trkpt>
      <trkpt lat="47.28152" lon="3.91327">
        <ele>388.1</ele>
        <time>2024-09-02T12:43:15.999Z</time>
      </trkpt>
      <trkpt lat="47.28146" lon="3.91322">
        <ele>388</ele>
        <time>2024-09-02T12:43:23Z</time>
      </trkpt>
      <trkpt lat="47.28139" lon="3.91318">
        <ele>387.7</ele>
        <time>2024-09-02T12:43:28.999Z</time>
      </trkpt>
      <trkpt lat="47.28132" lon="3.91314">
        <ele>387.6</ele>
        <time>2024-09-02T12:43:35Z</time>
      </trkpt>
      <trkpt lat="47.28127" lon="3.91313">
        <ele>387.2</ele>
        <time>2024-09-02T12:43:42.000Z</time>
      </trkpt>
      <trkpt lat="47.28121" lon="3.91311">
        <ele>386.9</ele>
        <time>2024-09-02T12:43:49Z</time>
      </trkpt>
      <trkpt lat="47.28116" lon="3.91307">
        <ele>386.4</ele>
        <time>2024-09-02T12:43:57.999Z</time>
      </trkpt>
      <trkpt lat="47.2811" lon="3.91303">
        <ele>386.4</ele>
        <time>2024-09-02T12:44:07Z</time>
      </trkpt>
      <trkpt lat="47.28105" lon="3.91299">
        <ele>386.8</ele>
        <time>2024-09-02T12:44:13.999Z</time>
      </trkpt>
      <trkpt lat="47.281" lon="3.91294">
        <ele>387.2</ele>
        <time>2024-09-02T12:44:21Z</time>
      </trkpt>
      <trkpt lat="47.28095" lon="3.91289">
        <ele>387.4</ele>
        <time>2024-09-02T12:44:28.499Z</time>
      </trkpt>
      <trkpt lat="47.2809" lon="3.91283">
        <ele>387.4</ele>
        <time>2024-09-02T12:44:36Z</time>
      </trkpt>
      <trkpt lat="47.28087" lon="3.91278">
        <ele>387.4</ele>
        <time>2024-09-02T12:44:46.499Z</time>
      </trkpt>
      <trkpt lat="47.28083" lon="3.91272">
        <ele>387.6</ele>
        <time>2024-09-02T12:44:57Z</time>
      </trkpt>
      <trkpt lat="47.28077" lon="3.9127">
        <ele>387.4</ele>
        <time>2024-09-02T12:45:04.499Z</time>
      </trkpt>
      <trkpt lat="47.2807" lon="3.91267">
        <ele>387.1</ele>
        <time>2024-09-02T12:45:12Z</time>
      </trkpt>
      <trkpt lat="47.28068" lon="3.91258">
        <ele>387.3</ele>
        <time>2024-09-02T12:45:18.499Z</time>
      </trkpt>
      <trkpt lat="47.28065" lon="3.91249">
        <ele>387.4</ele>
        <time>2024-09-02T12:45:25Z</time>
      </trkpt>
      <trkpt lat="47.28063" lon="3.91241">
        <ele>387.7</ele>
        <time>2024-09-02T12:45:33.499Z</time>
      </trkpt>
      <trkpt lat="47.28061" lon="3.91233">
        <ele>388</ele>
        <time>2024-09-02T12:45:42Z</time>
      </trkpt>
      <trkpt lat="47.28061" lon="3.91226">
        <ele>388.5</ele>
        <time>2024-09-02T12:45:48.499Z</time>
      </trkpt>
      <trkpt lat="47.2806" lon="3.91218">
        <ele>388.8</ele>
        <time>2024-09-02T12:45:55Z</time>
      </trkpt>
      <trkpt lat="47.2806" lon="3.9121">
        <ele>388.9</ele>
        <time>2024-09-02T12:46:01.499Z</time>
      </trkpt>
      <trkpt lat="47.28059" lon="3.91202">
        <ele>389.1</ele>
        <time>2024-09-02T12:46:08Z</time>
      </trkpt>
      <trkpt lat="47.28055" lon="3.91199">
        <ele>388.9</ele>
        <time>2024-09-02T12:46:11.249Z</time>
      </trkpt>
      <trkpt lat="47.28051" lon="3.91195">
        <ele>389.3</ele>
        <time>2024-09-02T12:46:14.499Z</time>
      </trkpt>
      <trkpt lat="47.28047" lon="3.91192">
        <ele>389.7</ele>
        <time>2024-09-02T12:46:17.749Z</time>
      </trkpt>
      <trkpt lat="47.28043" lon="3.91188">
        <ele>390.1</ele>
        <time>2024-09-02T12:46:21Z</time>
      </trkpt>
      <trkpt lat="47.28039" lon="3.91191">
        <ele>390.4</ele>
        <time>2024-09-02T12:46:26.999Z</time>
      </trkpt>
      <trkpt lat="47.28034" lon="3.91193">
        <ele>390.6</ele>
        <time>2024-09-02T12:46:33Z</time>
      </trkpt>
      <trkpt lat="47.2803" lon="3.91194">
        <ele>390.9</ele>
        <time>2024-09-02T12:46:39.000Z</time>
      </trkpt>
      <trkpt lat="47.28025" lon="3.91194">
        <ele>391.8</ele>
        <time>2024-09-02T12:46:45Z</time>
      </trkpt>
      <trkpt lat="47.28023" lon="3.91206">
        <ele>391.1</ele>
        <time>2024-09-02T12:47:00Z</time>
      </trkpt>
      <trkpt lat="47.28022" lon="3.91215">
        <ele>390.4</ele>
        <time>2024-09-02T12:47:07.999Z</time>
      </trkpt>
      <trkpt lat="47.2802" lon="3.91224">
        <ele>389.8</ele>
        <time>2024-09-02T12:47:16Z</time>
      </trkpt>
      <trkpt lat="47.28022" lon="3.9123">
        <ele>388.8</ele>
        <time>2024-09-02T12:47:23.500Z</time>
      </trkpt>
      <trkpt lat="47.28024" lon="3.91236">
        <ele>387.9</ele>
        <time>2024-09-02T12:47:31Z</time>
      </trkpt>
      <trkpt lat="47.28023" lon="3.91246">
        <ele>387.4</ele>
        <time>2024-09-02T12:47:38.499Z</time>
      </trkpt>
      <trkpt lat="47.28022" lon="3.91255">
        <ele>387.1</ele>
        <time>2024-09-02T12:47:46Z</time>
      </trkpt>
      <trkpt lat="47.28019" lon="3.91263">
        <ele>387.5</ele>
        <time>2024-09-02T12:47:52.999Z</time>
      </trkpt>
      <trkpt lat="47.28016" lon="3.9127">
        <ele>387.6</ele>
        <time>2024-09-02T12:48:00Z</time>
      </trkpt>
      <trkpt lat="47.28016" lon="3.91279">
        <ele>387.3</ele>
        <time>2024-09-02T12:48:07.999Z</time>
      </trkpt>
      <trkpt lat="47.28015" lon="3.91287">
        <ele>386.9</ele>
        <time>2024-09-02T12:48:16Z</time>
      </trkpt>
      <trkpt lat="47.28013" lon="3.91294">
        <ele>386.7</ele>
        <time>2024-09-02T12:48:22.499Z</time>
      </trkpt>
      <trkpt lat="47.2801" lon="3.91301">
        <ele>386.3</ele>
        <time>2024-09-02T12:48:29Z</time>
      </trkpt>
      <trkpt lat="47.28005" lon="3.91305">
        <ele>386.1</ele>
        <time>2024-09-02T12:48:35.999Z</time>
      </trkpt>
      <trkpt lat="47.27999" lon="3.91309">
        <ele>386.1</ele>
        <time>2024-09-02T12:48:43Z</time>
      </trkpt>
      <trkpt lat="47.27995" lon="3.91311">
        <ele>386.3</ele>
        <time>2024-09-02T12:48:48.999Z</time>
      </trkpt>
      <trkpt lat="47.2799" lon="3.91313">
        <ele>386.5</ele>
        <time>2024-09-02T12:48:55Z</time>
      </trkpt>
      <trkpt lat="47.27985" lon="3.91314">
        <ele>386.8</ele>
        <time>2024-09-02T12:49:01.000Z</time>
      </trkpt>
      <trkpt lat="47.27979" lon="3.91315">
        <ele>387</ele>
        <time>2024-09-02T12:49:07Z</time>
      </trkpt>
      <trkpt lat="47.27974" lon="3.91316">
        <ele>387.2</ele>
        <time>2024-09-02T12:49:14.500Z</time>
      </trkpt>
      <trkpt lat="47.27969" lon="3.91317">
        <ele>387.2</ele>
        <time>2024-09-02T12:49:22Z</time>
      </trkpt>
      <trkpt lat="47.27964" lon="3.91319">
        <ele>387.2</ele>
        <time>2024-09-02T12:49:28.500Z</time>
      </trkpt>
      <trkpt lat="47.27958" lon="3.9132">
        <ele>387.2</ele>
        <time>2024-09-02T12:49:35Z</time>
      </trkpt>
      <trkpt lat="47.27952" lon="3.91319">
        <ele>387.5</ele>
        <time>2024-09-02T12:49:42.500Z</time>
      </trkpt>
      <trkpt lat="47.27945" lon="3.91317">
        <ele>387.8</ele>
        <time>2024-09-02T12:49:50Z</time>
      </trkpt>
      <trkpt lat="47.2794" lon="3.91314">
        <ele>387.8</ele>
        <time>2024-09-02T12:49:57.499Z</time>
      </trkpt>
      <trkpt lat="47.27935" lon="3.9131">
        <ele>387.7</ele>
        <time>2024-09-02T12:50:05Z</time>
      </trkpt>
      <trkpt lat="47.27931" lon="3.91305">
        <ele>387.7</ele>
        <time>2024-09-02T12:50:12.499Z</time>
      </trkpt>
      <trkpt lat="47.27926" lon="3.91299">
        <ele>388.4</ele>
        <time>2024-09-02T12:50:20Z</time>
      </trkpt>
      <trkpt lat="47.2792" lon="3.91291">
        <ele>389.8</ele>
        <time>2024-09-02T12:50:36Z</time>
      </trkpt>
      <trkpt lat="47.27914" lon="3.91289">
        <ele>390.1</ele>
        <time>2024-09-02T12:50:44.999Z</time>
      </trkpt>
      <trkpt lat="47.27907" lon="3.91287">
        <ele>390.4</ele>
        <time>2024-09-02T12:50:54Z</time>
      </trkpt>
      <trkpt lat="47.27902" lon="3.91288">
        <ele>390.2</ele>
        <time>2024-09-02T12:51:00.000Z</time>
      </trkpt>
      <trkpt lat="47.27896" lon="3.91288">
        <ele>390</ele>
        <time>2024-09-02T12:51:06Z</time>
      </trkpt>
      <trkpt lat="47.27891" lon="3.91289">
        <ele>389.7</ele>
        <time>2024-09-02T12:51:11.500Z</time>
      </trkpt>
      <trkpt lat="47.27886" lon="3.91289">
        <ele>389.5</ele>
        <time>2024-09-02T12:51:17Z</time>
      </trkpt>
      <trkpt lat="47.27881" lon="3.9129">
        <ele>389.2</ele>
        <time>2024-09-02T12:51:22.500Z</time>
      </trkpt>
      <trkpt lat="47.27875" lon="3.91291">
        <ele>388.9</ele>
        <time>2024-09-02T12:51:28Z</time>
      </trkpt>
      <trkpt lat="47.2787" lon="3.9128">
        <ele>390.9</ele>
        <time>2024-09-02T12:51:48Z</time>
      </trkpt>
      <trkpt lat="47.27872" lon="3.91271">
        <ele>393</ele>
        <time>2024-09-02T12:52:25Z</time>
      </trkpt>
      <trkpt lat="47.27871" lon="3.91268">
        <ele>393.7</ele>
        <time>2024-09-02T12:53:36Z</time>
      </trkpt>
      <trkpt lat="47.27874" lon="3.91267">
        <ele>394</ele>
        <time>2024-09-02T12:54:02Z</time>
      </trkpt>
      <trkpt lat="47.2787" lon="3.91275">
        <ele>392</ele>
        <time>2024-09-02T12:54:32Z</time>
      </trkpt>
      <trkpt lat="47.27866" lon="3.91276">
        <ele>391.7</ele>
        <time>2024-09-02T12:54:41.500Z</time>
      </trkpt>
      <trkpt lat="47.27861" lon="3.91276">
        <ele>391.4</ele>
        <time>2024-09-02T12:54:51Z</time>
      </trkpt>
      <trkpt lat="47.27857" lon="3.91275">
        <ele>391.5</ele>
        <time>2024-09-02T12:54:56.999Z</time>
      </trkpt>
      <trkpt lat="47.27852" lon="3.91273">
        <ele>391.5</ele>
        <time>2024-09-02T12:55:03Z</time>
      </trkpt>
      <trkpt lat="47.27846" lon="3.91272">
        <ele>391.5</ele>
        <time>2024-09-02T12:55:10.000Z</time>
      </trkpt>
      <trkpt lat="47.2784" lon="3.9127">
        <ele>391.4</ele>
        <time>2024-09-02T12:55:17Z</time>
      </trkpt>
      <trkpt lat="47.27834" lon="3.91268">
        <ele>391.6</ele>
        <time>2024-09-02T12:55:24.499Z</time>
      </trkpt>
      <trkpt lat="47.27827" lon="3.91265">
        <ele>391.5</ele>
        <time>2024-09-02T12:55:32Z</time>
      </trkpt>
      <trkpt lat="47.2782" lon="3.91262">
        <ele>391.7</ele>
        <time>2024-09-02T12:55:38.499Z</time>
      </trkpt>
      <trkpt lat="47.27813" lon="3.91258">
        <ele>391.8</ele>
        <time>2024-09-02T12:55:45Z</time>
      </trkpt>
      <trkpt lat="47.27807" lon="3.91256">
        <ele>391.6</ele>
        <time>2024-09-02T12:55:51.499Z</time>
      </trkpt>
      <trkpt lat="47.27801" lon="3.91254">
        <ele>391.6</ele>
        <time>2024-09-02T12:55:58Z</time>
      </trkpt>
      <trkpt lat="47.27795" lon="3.91253">
        <ele>391.2</ele>
        <time>2024-09-02T12:56:04.500Z</time>
      </trkpt>
      <trkpt lat="47.27788" lon="3.91252">
        <ele>390.7</ele>
        <time>2024-09-02T12:56:11Z</time>
      </trkpt>
      <trkpt lat="47.27783" lon="3.9125">
        <ele>390.5</ele>
        <time>2024-09-02T12:56:17.499Z</time>
      </trkpt>
      <trkpt lat="47.27777" lon="3.91248">
        <ele>390.4</ele>
        <time>2024-09-02T12:56:24Z</time>
      </trkpt>
      <trkpt lat="47.2777" lon="3.91245">
        <ele>390.6</ele>
        <time>2024-09-02T12:56:31.999Z</time>
      </trkpt>
      <trkpt lat="47.27763" lon="3.91242">
        <ele>390.6</ele>
        <time>2024-09-02T12:56:40Z</time>
      </trkpt>
      <trkpt lat="47.27756" lon="3.9124">
        <ele>390.4</ele>
        <time>2024-09-02T12:56:45.999Z</time>
      </trkpt>
      <trkpt lat="47.27749" lon="3.91238">
        <ele>390.1</ele>
        <time>2024-09-02T12:56:52Z</time>
      </trkpt>
      <trkpt lat="47.27741" lon="3.91236">
        <ele>389.5</ele>
        <time>2024-09-02T12:57:08Z</time>
      </trkpt>
      <trkpt lat="47.27737" lon="3.91231">
        <ele>389.9</ele>
        <time>2024-09-02T12:57:16.499Z</time>
      </trkpt>
      <trkpt lat="47.27733" lon="3.91225">
        <ele>390.2</ele>
        <time>2024-09-02T12:57:25Z</time>
      </trkpt>
      <trkpt lat="47.27727" lon="3.91223">
        <ele>389.7</ele>
        <time>2024-09-02T12:57:33.499Z</time>
      </trkpt>
      <trkpt lat="47.27721" lon="3.9122">
        <ele>389.4</ele>
        <time>2024-09-02T12:57:42Z</time>
      </trkpt>
      <trkpt lat="47.27715" lon="3.91219">
        <ele>389</ele>
        <time>2024-09-02T12:57:50.500Z</time>
      </trkpt>
      <trkpt lat="47.27709" lon="3.91218">
        <ele>388.5</ele>
        <time>2024-09-02T12:57:59Z</time>
      </trkpt>
      <trkpt lat="47.27703" lon="3.91212">
        <ele>388.9</ele>
        <time>2024-09-02T12:58:06.999Z</time>
      </trkpt>
      <trkpt lat="47.27696" lon="3.91206">
        <ele>389.2</ele>
        <time>2024-09-02T12:58:15Z</time>
      </trkpt>
      <trkpt lat="47.27691" lon="3.91203">
        <ele>389.2</ele>
        <time>2024-09-02T12:58:22.999Z</time>
      </trkpt>
      <trkpt lat="47.27685" lon="3.91199">
        <ele>389.3</ele>
        <time>2024-09-02T12:58:31Z</time>
      </trkpt>
      <trkpt lat="47.27679" lon="3.91197">
        <ele>389</ele>
        <time>2024-09-02T12:58:38.499Z</time>
      </trkpt>
      <trkpt lat="47.27672" lon="3.91194">
        <ele>388.6</ele>
        <time>2024-09-02T12:58:46Z</time>
      </trkpt>
      <trkpt lat="47.27667" lon="3.91191">
        <ele>388.3</ele>
        <time>2024-09-02T12:58:53.499Z</time>
      </trkpt>
      <trkpt lat="47.27662" lon="3.91188">
        <ele>388.4</ele>
        <time>2024-09-02T12:59:01Z</time>
      </trkpt>
      <trkpt lat="47.27656" lon="3.91184">
        <ele>388.6</ele>
        <time>2024-09-02T12:59:09.499Z</time>
      </trkpt>
      <trkpt lat="47.2765" lon="3.9118">
        <ele>388.7</ele>
        <time>2024-09-02T12:59:18Z</time>
      </trkpt>
      <trkpt lat="47.27645" lon="3.91181">
        <ele>388.6</ele>
        <time>2024-09-02T12:59:26.500Z</time>
      </trkpt>
      <trkpt lat="47.2764" lon="3.91181">
        <ele>388.5</ele>
        <time>2024-09-02T12:59:35Z</time>
      </trkpt>
      <trkpt lat="47.27635" lon="3.91192">
        <ele>388.6</ele>
        <time>2024-09-02T12:59:53Z</time>
      </trkpt>
      <trkpt lat="47.27632" lon="3.912">
        <ele>388.8</ele>
        <time>2024-09-02T13:00:01.499Z</time>
      </trkpt>
      <trkpt lat="47.27628" lon="3.91207">
        <ele>388.9</ele>
        <time>2024-09-02T13:00:10Z</time>
      </trkpt>
      <trkpt lat="47.27625" lon="3.91216">
        <ele>388.8</ele>
        <time>2024-09-02T13:00:17.499Z</time>
      </trkpt>
      <trkpt lat="47.27622" lon="3.91225">
        <ele>388.9</ele>
        <time>2024-09-02T13:00:25Z</time>
      </trkpt>
      <trkpt lat="47.27618" lon="3.91234">
        <ele>389.7</ele>
        <time>2024-09-02T13:02:14Z</time>
      </trkpt>
      <trkpt lat="47.27622" lon="3.91245">
        <ele>389.6</ele>
        <time>2024-09-02T13:02:26Z</time>
      </trkpt>
      <trkpt lat="47.27626" lon="3.91254">
        <ele>389.6</ele>
        <time>2024-09-02T13:02:32.000Z</time>
      </trkpt>
      <trkpt lat="47.2763" lon="3.91262">
        <ele>389.5</ele>
        <time>2024-09-02T13:02:38Z</time>
      </trkpt>
      <trkpt lat="47.27633" lon="3.91268">
        <ele>389.5</ele>
        <time>2024-09-02T13:02:41.500Z</time>
      </trkpt>
      <trkpt lat="47.27636" lon="3.91274">
        <ele>389.3</ele>
        <time>2024-09-02T13:02:45.000Z</time>
      </trkpt>
      <trkpt lat="47.27638" lon="3.91279">
        <ele>389.2</ele>
        <time>2024-09-02T13:02:48.500Z</time>
      </trkpt>
      <trkpt lat="47.27641" lon="3.91285">
        <ele>389.3</ele>
        <time>2024-09-02T13:02:52Z</time>
      </trkpt>
      <trkpt lat="47.27644" lon="3.91293">
        <ele>389.4</ele>
        <time>2024-09-02T13:02:58.000Z</time>
      </trkpt>
      <trkpt lat="47.27646" lon="3.91301">
        <ele>389.5</ele>
        <time>2024-09-02T13:03:04Z</time>
      </trkpt>
      <trkpt lat="47.27648" lon="3.9131">
        <ele>389.5</ele>
        <time>2024-09-02T13:03:10.000Z</time>
      </trkpt>
      <trkpt lat="47.2765" lon="3.91318">
        <ele>389.3</ele>
        <time>2024-09-02T13:03:16Z</time>
      </trkpt>
      <trkpt lat="47.2765" lon="3.9133">
        <ele>389.6</ele>
        <time>2024-09-02T13:03:21.499Z</time>
      </trkpt>
      <trkpt lat="47.27649" lon="3.91341">
        <ele>389.6</ele>
        <time>2024-09-02T13:03:27Z</time>
      </trkpt>
      <trkpt lat="47.27651" lon="3.91351">
        <ele>389.1</ele>
        <time>2024-09-02T13:03:33.500Z</time>
      </trkpt>
      <trkpt lat="47.27652" lon="3.9136">
        <ele>388.7</ele>
        <time>2024-09-02T13:03:40Z</time>
      </trkpt>
      <trkpt lat="47.27653" lon="3.91367">
        <ele>388.3</ele>
        <time>2024-09-02T13:03:47.000Z</time>
      </trkpt>
      <trkpt lat="47.27653" lon="3.91374">
        <ele>388</ele>
        <time>2024-09-02T13:03:54Z</time>
      </trkpt>
      <trkpt lat="47.27651" lon="3.91382">
        <ele>388</ele>
        <time>2024-09-02T13:04:01.999Z</time>
      </trkpt>
      <trkpt lat="47.27649" lon="3.9139">
        <ele>387.8</ele>
        <time>2024-09-02T13:04:10Z</time>
      </trkpt>
      <trkpt lat="47.27645" lon="3.914">
        <ele>387.4</ele>
        <time>2024-09-02T13:04:23Z</time>
      </trkpt>
      <trkpt lat="47.2764" lon="3.91408">
        <ele>386.9</ele>
        <time>2024-09-02T13:04:41Z</time>
      </trkpt>
      <trkpt lat="47.27637" lon="3.91414">
        <ele>387</ele>
        <time>2024-09-02T13:04:49.499Z</time>
      </trkpt>
      <trkpt lat="47.27633" lon="3.91419">
        <ele>387.6</ele>
        <time>2024-09-02T13:04:58Z</time>
      </trkpt>
      <trkpt lat="47.27626" lon="3.91426">
        <ele>389.1</ele>
        <time>2024-09-02T13:05:06.999Z</time>
      </trkpt>
      <trkpt lat="47.27619" lon="3.91432">
        <ele>390.1</ele>
        <time>2024-09-02T13:05:16Z</time>
      </trkpt>
      <trkpt lat="47.27616" lon="3.91439">
        <ele>390</ele>
        <time>2024-09-02T13:05:22.499Z</time>
      </trkpt>
      <trkpt lat="47.27612" lon="3.91446">
        <ele>389.7</ele>
        <time>2024-09-02T13:05:29Z</time>
      </trkpt>
      <trkpt lat="47.27608" lon="3.91454">
        <ele>389.4</ele>
        <time>2024-09-02T13:05:35.999Z</time>
      </trkpt>
      <trkpt lat="47.27604" lon="3.91461">
        <ele>389.3</ele>
        <time>2024-09-02T13:05:43Z</time>
      </trkpt>
      <trkpt lat="47.27601" lon="3.91468">
        <ele>389</ele>
        <time>2024-09-02T13:05:48.999Z</time>
      </trkpt>
      <trkpt lat="47.27597" lon="3.91474">
        <ele>389</ele>
        <time>2024-09-02T13:05:55Z</time>
      </trkpt>
      <trkpt lat="47.27595" lon="3.91481">
        <ele>389</ele>
        <time>2024-09-02T13:06:02.499Z</time>
      </trkpt>
      <trkpt lat="47.27593" lon="3.91487">
        <ele>388.9</ele>
        <time>2024-09-02T13:06:10Z</time>
      </trkpt>
      <trkpt lat="47.2759" lon="3.91497">
        <ele>388.6</ele>
        <time>2024-09-02T13:06:17.999Z</time>
      </trkpt>
      <trkpt lat="47.27586" lon="3.91506">
        <ele>388.3</ele>
        <time>2024-09-02T13:06:26Z</time>
      </trkpt>
      <trkpt lat="47.27582" lon="3.91513">
        <ele>388.4</ele>
        <time>2024-09-02T13:06:32.999Z</time>
      </trkpt>
      <trkpt lat="47.27577" lon="3.91519">
        <ele>388.7</ele>
        <time>2024-09-02T13:06:40Z</time>
      </trkpt>
      <trkpt lat="47.27573" lon="3.91525">
        <ele>388.9</ele>
        <time>2024-09-02T13:06:46.999Z</time>
      </trkpt>
      <trkpt lat="47.27568" lon="3.9153">
        <ele>389.1</ele>
        <time>2024-09-02T13:06:54Z</time>
      </trkpt>
      <trkpt lat="47.27564" lon="3.91534">
        <ele>389.4</ele>
        <time>2024-09-02T13:06:58.499Z</time>
      </trkpt>
      <trkpt lat="47.2756" lon="3.91538">
        <ele>389.7</ele>
        <time>2024-09-02T13:07:02.999Z</time>
      </trkpt>
      <trkpt lat="47.27556" lon="3.91542">
        <ele>389.9</ele>
        <time>2024-09-02T13:07:07.499Z</time>
      </trkpt>
      <trkpt lat="47.27552" lon="3.91546">
        <ele>390</ele>
        <time>2024-09-02T13:07:12Z</time>
      </trkpt>
      <trkpt lat="47.27545" lon="3.9155">
        <ele>390.3</ele>
        <time>2024-09-02T13:07:18.499Z</time>
      </trkpt>
      <trkpt lat="47.27537" lon="3.91554">
        <ele>390.5</ele>
        <time>2024-09-02T13:07:25Z</time>
      </trkpt>
      <trkpt lat="47.27532" lon="3.91558">
        <ele>390.5</ele>
        <time>2024-09-02T13:07:31.499Z</time>
      </trkpt>
      <trkpt lat="47.27527" lon="3.91561">
        <ele>390.7</ele>
        <time>2024-09-02T13:07:38Z</time>
      </trkpt>
      <trkpt lat="47.27521" lon="3.91565">
        <ele>391.1</ele>
        <time>2024-09-02T13:07:44.999Z</time>
      </trkpt>
      <trkpt lat="47.27515" lon="3.91569">
        <ele>391.4</ele>
        <time>2024-09-02T13:07:52Z</time>
      </trkpt>
      <trkpt lat="47.2751" lon="3.91573">
        <ele>391.7</ele>
        <time>2024-09-02T13:07:58.999Z</time>
      </trkpt>
      <trkpt lat="47.27504" lon="3.91577">
        <ele>392</ele>
        <time>2024-09-02T13:08:06Z</time>
      </trkpt>
      <trkpt lat="47.27497" lon="3.91582">
        <ele>392.4</ele>
        <time>2024-09-02T13:08:13.999Z</time>
      </trkpt>
      <trkpt lat="47.27489" lon="3.91587">
        <ele>392.5</ele>
        <time>2024-09-02T13:08:22Z</time>
      </trkpt>
      <trkpt lat="47.27486" lon="3.91597">
        <ele>392</ele>
        <time>2024-09-02T13:08:30.499Z</time>
      </trkpt>
      <trkpt lat="47.27483" lon="3.91607">
        <ele>391.5</ele>
        <time>2024-09-02T13:08:39Z</time>
      </trkpt>
      <trkpt lat="47.27484" lon="3.91615">
        <ele>391.1</ele>
        <time>2024-09-02T13:08:46.000Z</time>
      </trkpt>
      <trkpt lat="47.27484" lon="3.91622">
        <ele>391</ele>
        <time>2024-09-02T13:08:53Z</time>
      </trkpt>
      <trkpt lat="47.27489" lon="3.91628">
        <ele>390.4</ele>
        <time>2024-09-02T13:09:01.000Z</time>
      </trkpt>
      <trkpt lat="47.27494" lon="3.91634">
        <ele>389.8</ele>
        <time>2024-09-02T13:09:09Z</time>
      </trkpt>
      <trkpt lat="47.27497" lon="3.91644">
        <ele>389.3</ele>
        <time>2024-09-02T13:09:16.000Z</time>
      </trkpt>
      <trkpt lat="47.275" lon="3.91653">
        <ele>389</ele>
        <time>2024-09-02T13:09:23Z</time>
      </trkpt>
      <trkpt lat="47.27504" lon="3.91663">
        <ele>388.6</ele>
        <time>2024-09-02T13:09:29.500Z</time>
      </trkpt>
      <trkpt lat="47.27508" lon="3.91673">
        <ele>388.1</ele>
        <time>2024-09-02T13:09:36Z</time>
      </trkpt>
      <trkpt lat="47.27509" lon="3.91683">
        <ele>388</ele>
        <time>2024-09-02T13:09:43.500Z</time>
      </trkpt>
      <trkpt lat="47.2751" lon="3.91692">
        <ele>387.9</ele>
        <time>2024-09-02T13:09:51Z</time>
      </trkpt>
      <trkpt lat="47.27511" lon="3.91704">
        <ele>388.1</ele>
        <time>2024-09-02T13:09:57.500Z</time>
      </trkpt>
      <trkpt lat="47.27511" lon="3.91716">
        <ele>388.3</ele>
        <time>2024-09-02T13:10:04Z</time>
      </trkpt>
      <trkpt lat="47.27511" lon="3.91726">
        <ele>388.5</ele>
        <time>2024-09-02T13:10:10.500Z</time>
      </trkpt>
      <trkpt lat="47.27511" lon="3.91735">
        <ele>388.7</ele>
        <time>2024-09-02T13:10:17Z</time>
      </trkpt>
      <trkpt lat="47.27513" lon="3.91744">
        <ele>388.5</ele>
        <time>2024-09-02T13:10:23.500Z</time>
      </trkpt>
      <trkpt lat="47.27515" lon="3.91753">
        <ele>388.4</ele>
        <time>2024-09-02T13:10:30Z</time>
      </trkpt>
      <trkpt lat="47.27518" lon="3.91762">
        <ele>388.1</ele>
        <time>2024-09-02T13:10:36.000Z</time>
      </trkpt>
      <trkpt lat="47.2752" lon="3.9177">
        <ele>387.9</ele>
        <time>2024-09-02T13:10:42Z</time>
      </trkpt>
      <trkpt lat="47.27523" lon="3.9178">
        <ele>387.7</ele>
        <time>2024-09-02T13:10:48.000Z</time>
      </trkpt>
      <trkpt lat="47.27525" lon="3.91789">
        <ele>387.4</ele>
        <time>2024-09-02T13:10:54Z</time>
      </trkpt>
      <trkpt lat="47.27525" lon="3.91798">
        <ele>387.3</ele>
        <time>2024-09-02T13:11:00.000Z</time>
      </trkpt>
      <trkpt lat="47.27525" lon="3.91806">
        <ele>387.3</ele>
        <time>2024-09-02T13:11:06Z</time>
      </trkpt>
      <trkpt lat="47.27519" lon="3.91811">
        <ele>387.7</ele>
        <time>2024-09-02T13:11:14.499Z</time>
      </trkpt>
      <trkpt lat="47.27512" lon="3.91815">
        <ele>388</ele>
        <time>2024-09-02T13:11:23Z</time>
      </trkpt>
      <trkpt lat="47.27508" lon="3.91824">
        <ele>387.6</ele>
        <time>2024-09-02T13:11:28.499Z</time>
      </trkpt>
      <trkpt lat="47.27503" lon="3.91832">
        <ele>387</ele>
        <time>2024-09-02T13:11:34Z</time>
      </trkpt>
      <trkpt lat="47.275" lon="3.91839">
        <ele>386.8</ele>
        <time>2024-09-02T13:11:39.499Z</time>
      </trkpt>
      <trkpt lat="47.27497" lon="3.91846">
        <ele>387.3</ele>
        <time>2024-09-02T13:11:45Z</time>
      </trkpt>
      <trkpt lat="47.27495" lon="3.91855">
        <ele>387.6</ele>
        <time>2024-09-02T13:11:52.999Z</time>
      </trkpt>
      <trkpt lat="47.27492" lon="3.91863">
        <ele>388</ele>
        <time>2024-09-02T13:12:01Z</time>
      </trkpt>
      <trkpt lat="47.27492" lon="3.91873">
        <ele>388.1</ele>
        <time>2024-09-02T13:12:07.999Z</time>
      </trkpt>
      <trkpt lat="47.27491" lon="3.91883">
        <ele>388.3</ele>
        <time>2024-09-02T13:12:15Z</time>
      </trkpt>
      <trkpt lat="47.2749" lon="3.91892">
        <ele>388.5</ele>
        <time>2024-09-02T13:12:22.999Z</time>
      </trkpt>
      <trkpt lat="47.27489" lon="3.91901">
        <ele>388.6</ele>
        <time>2024-09-02T13:12:31Z</time>
      </trkpt>
      <trkpt lat="47.27488" lon="3.91913">
        <ele>388.8</ele>
        <time>2024-09-02T13:12:36.999Z</time>
      </trkpt>
      <trkpt lat="47.27486" lon="3.91924">
        <ele>388.8</ele>
        <time>2024-09-02T13:12:43Z</time>
      </trkpt>
      <trkpt lat="47.27484" lon="3.91932">
        <ele>388.9</ele>
        <time>2024-09-02T13:12:50.499Z</time>
      </trkpt>
      <trkpt lat="47.27481" lon="3.91939">
        <ele>389</ele>
        <time>2024-09-02T13:12:58Z</time>
      </trkpt>
      <trkpt lat="47.27479" lon="3.91946">
        <ele>389</ele>
        <time>2024-09-02T13:13:04.499Z</time>
      </trkpt>
      <trkpt lat="47.27476" lon="3.91953">
        <ele>388.7</ele>
        <time>2024-09-02T13:13:11Z</time>
      </trkpt>
      <trkpt lat="47.27474" lon="3.91961">
        <ele>388.1</ele>
        <time>2024-09-02T13:13:17.499Z</time>
      </trkpt>
      <trkpt lat="47.27472" lon="3.91969">
        <ele>387.4</ele>
        <time>2024-09-02T13:13:24Z</time>
      </trkpt>
      <trkpt lat="47.27471" lon="3.91979">
        <ele>387.3</ele>
        <time>2024-09-02T13:13:30.499Z</time>
      </trkpt>
      <trkpt lat="47.27469" lon="3.91989">
        <ele>387.2</ele>
        <time>2024-09-02T13:13:37Z</time>
      </trkpt>
      <trkpt lat="47.27467" lon="3.91996">
        <ele>387.5</ele>
        <time>2024-09-02T13:13:42.499Z</time>
      </trkpt>
      <trkpt lat="47.27464" lon="3.92003">
        <ele>387.6</ele>
        <time>2024-09-02T13:13:48Z</time>
      </trkpt>
      <trkpt lat="47.27461" lon="3.92012">
        <ele>387.8</ele>
        <time>2024-09-02T13:13:54.499Z</time>
      </trkpt>
      <trkpt lat="47.27457" lon="3.9202">
        <ele>387.7</ele>
        <time>2024-09-02T13:14:01Z</time>
      </trkpt>
      <trkpt lat="47.27454" lon="3.92028">
        <ele>387.3</ele>
        <time>2024-09-02T13:14:09.999Z</time>
      </trkpt>
      <trkpt lat="47.27451" lon="3.92035">
        <ele>387.1</ele>
        <time>2024-09-02T13:14:19Z</time>
      </trkpt>
      <trkpt lat="47.27445" lon="3.92044">
        <ele>386.9</ele>
        <time>2024-09-02T13:14:26.499Z</time>
      </trkpt>
      <trkpt lat="47.27439" lon="3.92052">
        <ele>387.1</ele>
        <time>2024-09-02T13:14:34Z</time>
      </trkpt>
      <trkpt lat="47.27434" lon="3.9206">
        <ele>387.4</ele>
        <time>2024-09-02T13:14:39.999Z</time>
      </trkpt>
      <trkpt lat="47.27428" lon="3.92067">
        <ele>387.4</ele>
        <time>2024-09-02T13:14:46Z</time>
      </trkpt>
      <trkpt lat="47.27425" lon="3.92069">
        <ele>387.4</ele>
        <time>2024-09-02T13:18:57Z</time>
      </trkpt>
      <trkpt lat="47.27418" lon="3.92072">
        <ele>387.6</ele>
        <time>2024-09-02T13:19:02.999Z</time>
      </trkpt>
      <trkpt lat="47.27411" lon="3.92074">
        <ele>387.9</ele>
        <time>2024-09-02T13:19:09Z</time>
      </trkpt>
      <trkpt lat="47.27404" lon="3.92077">
        <ele>388.1</ele>
        <time>2024-09-02T13:19:14.499Z</time>
      </trkpt>
      <trkpt lat="47.27397" lon="3.92079">
        <ele>388.3</ele>
        <time>2024-09-02T13:19:20Z</time>
      </trkpt>
      <trkpt lat="47.27389" lon="3.92083">
        <ele>388.2</ele>
        <time>2024-09-02T13:19:25.999Z</time>
      </trkpt>
      <trkpt lat="47.27381" lon="3.92086">
        <ele>387.6</ele>
        <time>2024-09-02T13:19:32Z</time>
      </trkpt>
      <trkpt lat="47.27378" lon="3.92077">
        <ele>389.2</ele>
        <time>2024-09-02T13:19:55Z</time>
      </trkpt>
      <trkpt lat="47.27374" lon="3.92072">
        <ele>390.3</ele>
        <time>2024-09-02T13:20:24Z</time>
      </trkpt>
      <trkpt lat="47.27368" lon="3.92073">
        <ele>390</ele>
        <time>2024-09-02T13:20:31.500Z</time>
      </trkpt>
      <trkpt lat="47.27361" lon="3.92074">
        <ele>389.7</ele>
        <time>2024-09-02T13:20:39Z</time>
      </trkpt>
      <trkpt lat="47.27355" lon="3.92073">
        <ele>389.7</ele>
        <time>2024-09-02T13:20:45.000Z</time>
      </trkpt>
      <trkpt lat="47.27349" lon="3.92071">
        <ele>389.7</ele>
        <time>2024-09-02T13:20:51Z</time>
      </trkpt>
      <trkpt lat="47.27344" lon="3.92069">
        <ele>389.8</ele>
        <time>2024-09-02T13:20:56.999Z</time>
      </trkpt>
      <trkpt lat="47.27338" lon="3.92067">
        <ele>389.9</ele>
        <time>2024-09-02T13:21:03Z</time>
      </trkpt>
      <trkpt lat="47.27333" lon="3.92064">
        <ele>390.2</ele>
        <time>2024-09-02T13:21:08.999Z</time>
      </trkpt>
      <trkpt lat="47.27327" lon="3.9206">
        <ele>390.1</ele>
        <time>2024-09-02T13:21:15Z</time>
      </trkpt>
      <trkpt lat="47.27322" lon="3.92056">
        <ele>389.8</ele>
        <time>2024-09-02T13:21:20.999Z</time>
      </trkpt>
      <trkpt lat="47.27316" lon="3.92052">
        <ele>390.1</ele>
        <time>2024-09-02T13:21:27Z</time>
      </trkpt>
      <trkpt lat="47.27309" lon="3.92049">
        <ele>390</ele>
        <time>2024-09-02T13:21:32.999Z</time>
      </trkpt>
      <trkpt lat="47.27301" lon="3.92045">
        <ele>390.3</ele>
        <time>2024-09-02T13:21:39Z</time>
      </trkpt>
      <trkpt lat="47.27295" lon="3.92043">
        <ele>390.1</ele>
        <time>2024-09-02T13:21:43.999Z</time>
      </trkpt>
      <trkpt lat="47.27289" lon="3.92041">
        <ele>389.8</ele>
        <time>2024-09-02T13:21:49Z</time>
      </trkpt>
      <trkpt lat="47.27284" lon="3.92037">
        <ele>389.8</ele>
        <time>2024-09-02T13:21:53.999Z</time>
      </trkpt>
      <trkpt lat="47.27279" lon="3.92033">
        <ele>389.5</ele>
        <time>2024-09-02T13:21:59Z</time>
      </trkpt>
      <trkpt lat="47.27274" lon="3.92029">
        <ele>389.3</ele>
        <time>2024-09-02T13:22:05.499Z</time>
      </trkpt>
      <trkpt lat="47.27269" lon="3.92025">
        <ele>389.8</ele>
        <time>2024-09-02T13:22:12Z</time>
      </trkpt>
      <trkpt lat="47.27262" lon="3.9202">
        <ele>390.6</ele>
        <time>2024-09-02T13:22:17.999Z</time>
      </trkpt>
      <trkpt lat="47.27255" lon="3.92015">
        <ele>391.4</ele>
        <time>2024-09-02T13:22:24Z</time>
      </trkpt>
      <trkpt lat="47.27249" lon="3.92014">
        <ele>391.1</ele>
        <time>2024-09-02T13:22:30.000Z</time>
      </trkpt>
      <trkpt lat="47.27242" lon="3.92012">
        <ele>391.2</ele>
        <time>2024-09-02T13:22:36Z</time>
      </trkpt>
      <trkpt lat="47.27236" lon="3.92009">
        <ele>391.7</ele>
        <time>2024-09-02T13:22:42.999Z</time>
      </trkpt>
      <trkpt lat="47.2723" lon="3.92006">
        <ele>392.1</ele>
        <time>2024-09-02T13:22:50Z</time>
      </trkpt>
      <trkpt lat="47.27225" lon="3.92004">
        <ele>392.4</ele>
        <time>2024-09-02T13:22:56.999Z</time>
      </trkpt>
      <trkpt lat="47.2722" lon="3.92001">
        <ele>392.6</ele>
        <time>2024-09-02T13:23:04Z</time>
      </trkpt>
      <trkpt lat="47.27214" lon="3.92003">
        <ele>391.8</ele>
        <time>2024-09-02T13:23:11.500Z</time>
      </trkpt>
      <trkpt lat="47.27208" lon="3.92004">
        <ele>391.1</ele>
        <time>2024-09-02T13:23:19Z</time>
      </trkpt>
      <trkpt lat="47.27201" lon="3.92003">
        <ele>391</ele>
        <time>2024-09-02T13:23:26.000Z</time>
      </trkpt>
      <trkpt lat="47.27194" lon="3.92001">
        <ele>390.8</ele>
        <time>2024-09-02T13:23:33Z</time>
      </trkpt>
      <trkpt lat="47.27188" lon="3.92001">
        <ele>390.8</ele>
        <time>2024-09-02T13:23:38.500Z</time>
      </trkpt>
      <trkpt lat="47.27181" lon="3.92001">
        <ele>390.8</ele>
        <time>2024-09-02T13:23:44Z</time>
      </trkpt>
      <trkpt lat="47.27174" lon="3.92003">
        <ele>390.5</ele>
        <time>2024-09-02T13:23:50.999Z</time>
      </trkpt>
      <trkpt lat="47.27166" lon="3.92005">
        <ele>390.2</ele>
        <time>2024-09-02T13:23:58Z</time>
      </trkpt>
      <trkpt lat="47.2716" lon="3.92009">
        <ele>390.3</ele>
        <time>2024-09-02T13:24:04.499Z</time>
      </trkpt>
      <trkpt lat="47.27153" lon="3.92013">
        <ele>390.4</ele>
        <time>2024-09-02T13:24:11Z</time>
      </trkpt>
      <trkpt lat="47.27148" lon="3.92018">
        <ele>390.1</ele>
        <time>2024-09-02T13:24:16.999Z</time>
      </trkpt>
      <trkpt lat="47.27142" lon="3.92023">
        <ele>389.7</ele>
        <time>2024-09-02T13:24:23Z</time>
      </trkpt>
      <trkpt lat="47.27134" lon="3.92027">
        <ele>389.3</ele>
        <time>2024-09-02T13:24:41Z</time>
      </trkpt>
      <trkpt lat="47.27129" lon="3.92026">
        <ele>389.8</ele>
        <time>2024-09-02T13:24:47.000Z</time>
      </trkpt>
      <trkpt lat="47.27123" lon="3.92025">
        <ele>390.2</ele>
        <time>2024-09-02T13:24:53Z</time>
      </trkpt>
      <trkpt lat="47.27116" lon="3.92024">
        <ele>390.7</ele>
        <time>2024-09-02T13:24:59.000Z</time>
      </trkpt>
      <trkpt lat="47.27109" lon="3.92022">
        <ele>391</ele>
        <time>2024-09-02T13:25:05Z</time>
      </trkpt>
      <trkpt lat="47.27103" lon="3.92018">
        <ele>391.3</ele>
        <time>2024-09-02T13:25:12.499Z</time>
      </trkpt>
      <trkpt lat="47.27096" lon="3.92014">
        <ele>391.6</ele>
        <time>2024-09-02T13:25:20Z</time>
      </trkpt>
      <trkpt lat="47.27092" lon="3.92015">
        <ele>391.1</ele>
        <time>2024-09-02T13:25:27.000Z</time>
      </trkpt>
      <trkpt lat="47.27087" lon="3.92015">
        <ele>390.6</ele>
        <time>2024-09-02T13:25:34Z</time>
      </trkpt>
      <trkpt lat="47.27082" lon="3.92015">
        <ele>390.2</ele>
        <time>2024-09-02T13:25:42.500Z</time>
      </trkpt>
      <trkpt lat="47.27076" lon="3.92015">
        <ele>390</ele>
        <time>2024-09-02T13:25:51Z</time>
      </trkpt>
      <trkpt lat="47.27071" lon="3.92012">
        <ele>390.6</ele>
        <time>2024-09-02T13:25:56.999Z</time>
      </trkpt>
      <trkpt lat="47.27065" lon="3.92008">
        <ele>391</ele>
        <time>2024-09-02T13:26:03Z</time>
      </trkpt>
      <trkpt lat="47.27057" lon="3.92006">
        <ele>391</ele>
        <time>2024-09-02T13:26:10.999Z</time>
      </trkpt>
      <trkpt lat="47.27049" lon="3.92004">
        <ele>390.6</ele>
        <time>2024-09-02T13:26:19Z</time>
      </trkpt>
      <trkpt lat="47.27045" lon="3.92001">
        <ele>390.7</ele>
        <time>2024-09-02T13:26:25.999Z</time>
      </trkpt>
      <trkpt lat="47.2704" lon="3.91997">
        <ele>390.8</ele>
        <time>2024-09-02T13:26:33Z</time>
      </trkpt>
      <trkpt lat="47.27034" lon="3.91994">
        <ele>390.5</ele>
        <time>2024-09-02T13:26:40.999Z</time>
      </trkpt>
      <trkpt lat="47.27027" lon="3.91991">
        <ele>390.2</ele>
        <time>2024-09-02T13:26:49Z</time>
      </trkpt>
      <trkpt lat="47.27024" lon="3.91986">
        <ele>390.5</ele>
        <time>2024-09-02T13:26:52.249Z</time>
      </trkpt>
      <trkpt lat="47.27021" lon="3.91981">
        <ele>390.7</ele>
        <time>2024-09-02T13:26:55.499Z</time>
      </trkpt>
      <trkpt lat="47.27017" lon="3.91975">
        <ele>390.8</ele>
        <time>2024-09-02T13:26:58.749Z</time>
      </trkpt>
      <trkpt lat="47.27014" lon="3.9197">
        <ele>390.7</ele>
        <time>2024-09-02T13:27:02Z</time>
      </trkpt>
      <trkpt lat="47.27007" lon="3.91968">
        <ele>389.7</ele>
        <time>2024-09-02T13:27:07.499Z</time>
      </trkpt>
      <trkpt lat="47.27" lon="3.91965">
        <ele>388.8</ele>
        <time>2024-09-02T13:27:13Z</time>
      </trkpt>
      <trkpt lat="47.26997" lon="3.91958">
        <ele>389.1</ele>
        <time>2024-09-02T13:27:17.499Z</time>
      </trkpt>
      <trkpt lat="47.26993" lon="3.91951">
        <ele>389.2</ele>
        <time>2024-09-02T13:27:22Z</time>
      </trkpt>
      <trkpt lat="47.2699" lon="3.91944">
        <ele>389.2</ele>
        <time>2024-09-02T13:27:26.999Z</time>
      </trkpt>
      <trkpt lat="47.26987" lon="3.91936">
        <ele>388.9</ele>
        <time>2024-09-02T13:27:32Z</time>
      </trkpt>
      <trkpt lat="47.26982" lon="3.91926">
        <ele>388.6</ele>
        <time>2024-09-02T13:27:47Z</time>
      </trkpt>
      <trkpt lat="47.26979" lon="3.91919">
        <ele>388.6</ele>
        <time>2024-09-02T13:27:51.999Z</time>
      </trkpt>
      <trkpt lat="47.26976" lon="3.91912">
        <ele>388.7</ele>
        <time>2024-09-02T13:27:57Z</time>
      </trkpt>
      <trkpt lat="47.26972" lon="3.91908">
        <ele>388.6</ele>
        <time>2024-09-02T13:28:00.999Z</time>
      </trkpt>
      <trkpt lat="47.26968" lon="3.91904">
        <ele>388.6</ele>
        <time>2024-09-02T13:28:05Z</time>
      </trkpt>
      <trkpt lat="47.2696" lon="3.91898">
        <ele>388.5</ele>
        <time>2024-09-02T13:28:13Z</time>
      </trkpt>
      <trkpt lat="47.26956" lon="3.91895">
        <ele>388.4</ele>
        <time>2024-09-02T13:28:18.499Z</time>
      </trkpt>
      <trkpt lat="47.26951" lon="3.91892">
        <ele>388.2</ele>
        <time>2024-09-02T13:28:24Z</time>
      </trkpt>
      <trkpt lat="47.26947" lon="3.91891">
        <ele>388</ele>
        <time>2024-09-02T13:28:32.500Z</time>
      </trkpt>
      <trkpt lat="47.26942" lon="3.9189">
        <ele>387.8</ele>
        <time>2024-09-02T13:28:41Z</time>
      </trkpt>
      <trkpt lat="47.26935" lon="3.91885">
        <ele>388.4</ele>
        <time>2024-09-02T13:28:51Z</time>
      </trkpt>
      <trkpt lat="47.2693" lon="3.91881">
        <ele>388.9</ele>
        <time>2024-09-02T13:28:57.999Z</time>
      </trkpt>
      <trkpt lat="47.26924" lon="3.91877">
        <ele>389.4</ele>
        <time>2024-09-02T13:29:05Z</time>
      </trkpt>
      <trkpt lat="47.26918" lon="3.91872">
        <ele>390.1</ele>
        <time>2024-09-02T13:29:12.499Z</time>
      </trkpt>
      <trkpt lat="47.26911" lon="3.91867">
        <ele>391</ele>
        <time>2024-09-02T13:29:20Z</time>
      </trkpt>
      <trkpt lat="47.26905" lon="3.91868">
        <ele>391</ele>
        <time>2024-09-02T13:29:27.500Z</time>
      </trkpt>
      <trkpt lat="47.26898" lon="3.91868">
        <ele>390.9</ele>
        <time>2024-09-02T13:29:35Z</time>
      </trkpt>
      <trkpt lat="47.26892" lon="3.91872">
        <ele>390.4</ele>
        <time>2024-09-02T13:29:41.499Z</time>
      </trkpt>
      <trkpt lat="47.26886" lon="3.91876">
        <ele>389.9</ele>
        <time>2024-09-02T13:29:48Z</time>
      </trkpt>
      <trkpt lat="47.26879" lon="3.91881">
        <ele>389.5</ele>
        <time>2024-09-02T13:29:53.999Z</time>
      </trkpt>
      <trkpt lat="47.26872" lon="3.91885">
        <ele>389.1</ele>
        <time>2024-09-02T13:30:00Z</time>
      </trkpt>
      <trkpt lat="47.26867" lon="3.91883">
        <ele>389.5</ele>
        <time>2024-09-02T13:30:04.999Z</time>
      </trkpt>
      <trkpt lat="47.26862" lon="3.91881">
        <ele>389.8</ele>
        <time>2024-09-02T13:30:10Z</time>
      </trkpt>
      <trkpt lat="47.26858" lon="3.91877">
        <ele>390.2</ele>
        <time>2024-09-02T13:30:15.999Z</time>
      </trkpt>
      <trkpt lat="47.26853" lon="3.91872">
        <ele>390.3</ele>
        <time>2024-09-02T13:30:22Z</time>
      </trkpt>
      <trkpt lat="47.2685" lon="3.91868">
        <ele>390.3</ele>
        <time>2024-09-02T13:30:31.499Z</time>
      </trkpt>
      <trkpt lat="47.26846" lon="3.91863">
        <ele>390.3</ele>
        <time>2024-09-02T13:30:41Z</time>
      </trkpt>
      <trkpt lat="47.26839" lon="3.91863">
        <ele>389.6</ele>
        <time>2024-09-02T13:31:30Z</time>
      </trkpt>
      <trkpt lat="47.26838" lon="3.91871">
        <ele>389.3</ele>
        <time>2024-09-02T13:31:34.999Z</time>
      </trkpt>
      <trkpt lat="47.26837" lon="3.91878">
        <ele>389.2</ele>
        <time>2024-09-02T13:31:40Z</time>
      </trkpt>
      <trkpt lat="47.26837" lon="3.91887">
        <ele>389</ele>
        <time>2024-09-02T13:31:44.499Z</time>
      </trkpt>
      <trkpt lat="47.26836" lon="3.91896">
        <ele>388.5</ele>
        <time>2024-09-02T13:31:49Z</time>
      </trkpt>
      <trkpt lat="47.26836" lon="3.91903">
        <ele>387.9</ele>
        <time>2024-09-02T13:31:53.500Z</time>
      </trkpt>
      <trkpt lat="47.26836" lon="3.9191">
        <ele>387.4</ele>
        <time>2024-09-02T13:31:58Z</time>
      </trkpt>
      <trkpt lat="47.26832" lon="3.9192">
        <ele>386.8</ele>
        <time>2024-09-02T13:32:15Z</time>
      </trkpt>
      <trkpt lat="47.26831" lon="3.91927">
        <ele>386.6</ele>
        <time>2024-09-02T13:32:19.499Z</time>
      </trkpt>
      <trkpt lat="47.26829" lon="3.91933">
        <ele>386.3</ele>
        <time>2024-09-02T13:32:24Z</time>
      </trkpt>
      <trkpt lat="47.26829" lon="3.91942">
        <ele>386.1</ele>
        <time>2024-09-02T13:32:48Z</time>
      </trkpt>
      <trkpt lat="47.26827" lon="3.9195">
        <ele>386</ele>
        <time>2024-09-02T13:32:56.499Z</time>
      </trkpt>
      <trkpt lat="47.26824" lon="3.91958">
        <ele>386</ele>
        <time>2024-09-02T13:33:05Z</time>
      </trkpt>
      <trkpt lat="47.26823" lon="3.91965">
        <ele>386</ele>
        <time>2024-09-02T13:33:08.999Z</time>
      </trkpt>
      <trkpt lat="47.26822" lon="3.91971">
        <ele>386</ele>
        <time>2024-09-02T13:33:13Z</time>
      </trkpt>
      <trkpt lat="47.26821" lon="3.91979">
        <ele>386</ele>
        <time>2024-09-02T13:33:16.999Z</time>
      </trkpt>
      <trkpt lat="47.26819" lon="3.91986">
        <ele>386</ele>
        <time>2024-09-02T13:33:21Z</time>
      </trkpt>
      <trkpt lat="47.26821" lon="3.91997">
        <ele>386</ele>
        <time>2024-09-02T13:33:36Z</time>
      </trkpt>
      <trkpt lat="47.26821" lon="3.92004">
        <ele>386.1</ele>
        <time>2024-09-02T13:33:39.999Z</time>
      </trkpt>
      <trkpt lat="47.2682" lon="3.92011">
        <ele>386.4</ele>
        <time>2024-09-02T13:33:44Z</time>
      </trkpt>
      <trkpt lat="47.26819" lon="3.92018">
        <ele>386.7</ele>
        <time>2024-09-02T13:33:47.499Z</time>
      </trkpt>
      <trkpt lat="47.26818" lon="3.92024">
        <ele>387</ele>
        <time>2024-09-02T13:33:51Z</time>
      </trkpt>
      <trkpt lat="47.26817" lon="3.92031">
        <ele>387.3</ele>
        <time>2024-09-02T13:33:54.999Z</time>
      </trkpt>
      <trkpt lat="47.26816" lon="3.92039">
        <ele>387.5</ele>
        <time>2024-09-02T13:33:58.999Z</time>
      </trkpt>
      <trkpt lat="47.26815" lon="3.92046">
        <ele>387.7</ele>
        <time>2024-09-02T13:34:02.999Z</time>
      </trkpt>
      <trkpt lat="47.26814" lon="3.92053">
        <ele>388</ele>
        <time>2024-09-02T13:34:07Z</time>
      </trkpt>
      <trkpt lat="47.26814" lon="3.9206">
        <ele>388.3</ele>
        <time>2024-09-02T13:34:11.250Z</time>
      </trkpt>
      <trkpt lat="47.26814" lon="3.92068">
        <ele>388.7</ele>
        <time>2024-09-02T13:34:15.500Z</time>
      </trkpt>
      <trkpt lat="47.26814" lon="3.92075">
        <ele>389.1</ele>
        <time>2024-09-02T13:34:19.750Z</time>
      </trkpt>
      <trkpt lat="47.26814" lon="3.92082">
        <ele>389.5</ele>
        <time>2024-09-02T13:34:24Z</time>
      </trkpt>
      <trkpt lat="47.26817" lon="3.92089">
        <ele>390</ele>
        <time>2024-09-02T13:34:29.000Z</time>
      </trkpt>
      <trkpt lat="47.26819" lon="3.92095">
        <ele>390.6</ele>
        <time>2024-09-02T13:34:34Z</time>
      </trkpt>
      <trkpt lat="47.26824" lon="3.92102">
        <ele>391.7</ele>
        <time>2024-09-02T13:34:39.000Z</time>
      </trkpt>
      <trkpt lat="47.26829" lon="3.92109">
        <ele>393</ele>
        <time>2024-09-02T13:34:44Z</time>
      </trkpt>
    </trkseg>
  </trk>
</gpx>